AF74 / F-GSPX 7700 Squawk Report (15th of May, 2021)

Aircraft B772 Reg No. F-GSPX Age 19 years old
Model 777 Jet engines 2 First flight 05-03-02
Registered 14-03-02 Rollout 17-02-02 Delivered 13-03-02
Construction No. 32698 Line No. 0392 Series 228(ER)
ADSHEX 3949F7 Airline name Air France Owner Aercap Holdings N.V.
Airfield based Paris-Charles de Gaulle~Val-d'Oise~F First tracked N/A

Flight history for F-GSPX

Route Flight No Date Playback
Charles De Gaulle (CDG) - Vancouver International (YVR) - Tahiti International (PPT) AF74 2021-06-22 21:30:00
Tahiti International (PPT) - Vancouver International (YVR) - Charles De Gaulle (CDG) AF75 2021-06-22 08:54:00
Charles De Gaulle (CDG) - Vancouver International (YVR) - Tahiti International (PPT) AF74 2021-06-20 06:01:00
Logan International Airport (BOS) - Charles De Gaulle (CDG) AF333 2021-06-19 10:04:00
Charles De Gaulle (CDG) - Logan International Airport (BOS) AF334 2021-06-18 18:53:00
Tahiti International (PPT) - Vancouver International (YVR) - Charles De Gaulle (CDG) AF75 2021-06-18 11:20:00
Charles De Gaulle (CDG) - Vancouver International (YVR) - Tahiti International (PPT) AF74 2021-06-15 21:38:00
Charles De Gaulle (CDG) - Vancouver International (YVR) AF74 2021-06-15 18:24:00
???? AF561 2021-06-14 02:33:00
Charles De Gaulle (CDG) - Rafic Hariri Intl (BEY) AF564 2021-06-13 19:16:00
Yaounde Nsimalen (NSI) - Bangui M Poko (BGF) - Charles De Gaulle (CDG) AF773 2021-06-13 15:30:00
Yaounde Nsimalen (NSI) - Bangui M Poko (BGF) - Charles De Gaulle (CDG) AF773 2021-06-13 13:43:00
Charles De Gaulle (CDG) - Bangui M Poko (BGF) - Yaounde Nsimalen (NSI) AF775 2021-06-11 13:40:00
Malabo (SSG) - Charles De Gaulle (CDG) AF959 2021-06-09 18:00:00
Charles De Gaulle (CDG) - Malabo (SSG) AF960 2021-06-08 00:05:00
Yaounde Nsimalen (NSI) - Charles De Gaulle (CDG) AF903 2021-06-06 07:29:00
Charles De Gaulle (CDG) - Yaounde Nsimalen (NSI) AF900 2021-06-06 04:09:00
Charles De Gaulle (CDG) - Yaounde Nsimalen (NSI) AF900 2021-06-05 18:06:00
Pointe Noire (PNR) - Charles De Gaulle (CDG) AF835 2021-06-03 06:58:00
Charles De Gaulle (CDG) - Pointe Noire (PNR) AF830 2021-06-01 16:10:00
Time Lat Lon Altitude Heading Speed Vertical Rate
2021-05-16 00:38:36 GMT 43.650925 -125.986549 33,000 236 524 0
2021-05-16 00:38:33 GMT 43.654861 -125.978500 33,000 236 524 0
2021-05-16 00:38:23 GMT 43.669071 -125.949814 33,000 236 524 0
2021-05-16 00:38:12 GMT 43.683735 -125.920326 33,000 236 524 0
2021-05-16 00:38:02 GMT 43.697933 -125.891617 33,000 236 524 0
2021-05-16 00:37:51 GMT 43.711853 -125.863464 33,000 236 524 0
2021-05-16 00:37:26 GMT 43.746674 -125.792931 33,000 236 524 0
2021-05-16 00:37:19 GMT 43.755657 -125.774689 33,000 236 524 0
2021-05-16 00:37:08 GMT 43.770370 -125.744736 33,000 236 524 0
2021-05-16 00:36:59 GMT 43.783451 -125.718185 33,000 236 524 0
2021-05-16 00:36:29 GMT 43.824371 -125.634743 33,000 236 524 0
2021-05-16 00:36:27 GMT 43.826431 -125.630577 33,000 236 524 0
2021-05-16 00:35:59 GMT 43.864059 -125.553802 33,000 236 524 0
2021-05-16 00:35:55 GMT 43.869480 -125.542671 33,000 236 523 0
2021-05-16 00:35:45 GMT 43.883816 -125.513237 33,000 237 524 0
2021-05-16 00:35:34 GMT 43.898209 -125.483795 33,000 237 524 0
2021-05-16 00:35:24 GMT 43.912258 -125.454910 33,000 237 524 0
2021-05-16 00:35:14 GMT 43.926224 -125.426247 33,000 237 524 0
2021-05-16 00:35:02 GMT 43.941914 -125.393959 33,000 237 524 0
2021-05-16 00:34:52 GMT 43.955555 -125.365837 33,000 237 524 0
2021-05-16 00:34:42 GMT 43.969345 -125.337463 33,000 237 525 0
2021-05-16 00:34:30 GMT 43.985046 -125.305077 33,000 237 524 0
2021-05-16 00:34:19 GMT 44.000427 -125.273270 33,000 237 524 0
2021-05-16 00:34:10 GMT 44.012440 -125.248459 33,000 237 524 0
2021-05-16 00:34:00 GMT 44.025803 -125.220795 33,000 237 524 0
2021-05-16 00:33:49 GMT 44.040390 -125.190613 33,000 237 524 0
2021-05-16 00:33:39 GMT 44.053871 -125.162727 33,000 237 524 0
2021-05-16 00:33:28 GMT 44.068443 -125.132515 33,000 237 525 0
2021-05-16 00:33:18 GMT 44.082504 -125.103363 33,000 237 525 0
2021-05-16 00:33:08 GMT 44.096233 -125.074837 33,000 237 525 0
2021-05-16 00:33:03 GMT 44.103264 -125.060249 33,000 237 525 0
2021-05-16 00:32:55 GMT 44.114857 -125.036057 33,000 237 526 0
2021-05-16 00:32:46 GMT 44.124985 -125.015022 33,000 237 526 0
2021-05-16 00:32:36 GMT 44.138737 -124.986351 33,000 237 526 0
2021-05-16 00:32:26 GMT 44.153030 -124.956535 33,000 237 527 0
2021-05-16 00:32:15 GMT 44.167412 -124.926384 33,000 237 527 0
2021-05-16 00:32:04 GMT 44.183487 -124.892838 33,000 237 527 0
2021-05-16 00:31:52 GMT 44.200886 -124.856468 33,000 237 526 0
2021-05-16 00:31:49 GMT 44.202747 -124.852516 33,000 237 526 0
2021-05-16 00:31:46 GMT 44.206657 -124.844276 33,000 237 526 0
2021-05-16 00:31:43 GMT 44.211918 -124.833290 33,000 237 526 0
2021-05-16 00:31:31 GMT 44.226425 -124.802856 33,000 237 526 0
2021-05-16 00:31:21 GMT 44.242176 -124.769852 33,000 237 526 0
2021-05-16 00:31:11 GMT 44.254139 -124.744736 33,000 237 526 0
2021-05-16 00:31:01 GMT 44.267807 -124.715950 33,000 237 526 0
2021-05-16 00:30:50 GMT 44.281906 -124.686325 33,000 237 526 0
2021-05-16 00:30:39 GMT 44.297436 -124.653496 33,000 237 526 0
2021-05-16 00:30:29 GMT 44.310421 -124.626091 33,000 237 526 0
2021-05-16 00:30:19 GMT 44.324478 -124.596352 33,000 237 526 0
2021-05-16 00:30:07 GMT 44.340820 -124.561783 33,000 237 526 0
2021-05-16 00:29:58 GMT 44.352310 -124.537422 33,000 237 527 0
2021-05-16 00:29:54 GMT 44.357113 -124.527214 33,000 237 527 0
2021-05-16 00:29:46 GMT 44.368473 -124.503098 33,000 237 527 0
2021-05-16 00:29:37 GMT 44.380203 -124.478111 33,000 237 526 0
2021-05-16 00:29:34 GMT 44.383804 -124.470451 33,000 237 526 0
2021-05-16 00:29:25 GMT 44.396851 -124.442596 33,000 237 526 0
2021-05-16 00:29:16 GMT 44.408157 -124.418465 33,000 237 526 0
2021-05-16 00:29:13 GMT 44.410950 -124.412453 33,000 237 526 0
2021-05-16 00:29:06 GMT 44.420380 -124.392296 33,000 237 525 0
2021-05-16 00:29:03 GMT 44.425964 -124.380341 33,000 237 525 0
2021-05-16 00:28:53 GMT 44.438553 -124.353401 33,000 237 525 0
2021-05-16 00:28:43 GMT 44.452194 -124.324104 33,000 237 525 0
2021-05-16 00:28:34 GMT 44.464005 -124.298859 33,000 237 525 0
2021-05-16 00:28:31 GMT 44.466660 -124.293167 33,000 237 525 0
2021-05-16 00:28:22 GMT 44.480106 -124.264481 33,000 237 525 0
2021-05-16 00:28:13 GMT 44.492111 -124.238960 33,000 237 525 0
2021-05-16 00:28:09 GMT 44.497234 -124.228241 33,000 237 525 64
2021-05-16 00:28:02 GMT 44.506210 -124.209267 33,000 237 525 0
2021-05-16 00:27:59 GMT 44.511566 -124.197952 33,000 237 525 0
2021-05-16 00:27:53 GMT 44.519577 -124.180954 33,000 215 537 0
2021-05-16 00:27:50 GMT 44.524109 -124.171272 33,000 237 525 64
2021-05-16 00:27:47 GMT 44.527405 -124.164207 33,000 237 525 64
2021-05-16 00:27:41 GMT 44.534199 -124.150467 33,000 233 527 0
2021-05-16 00:27:38 GMT 44.538666 -124.142372 33,000 231 527 0
2021-05-16 00:27:29 GMT 44.554356 -124.117844 33,000 223 532 0
2021-05-16 00:27:18 GMT 44.575069 -124.092789 33,000 216 536 0
2021-05-16 00:27:12 GMT 44.586849 -124.081268 33,000 211 538 0
2021-05-16 00:27:07 GMT 44.597462 -124.072289 33,000 209 539 0
2021-05-16 00:27:02 GMT 44.607376 -124.064919 33,000 205 540 0
2021-05-16 00:26:59 GMT 44.614826 -124.060028 33,000 203 540 0
2021-05-16 00:26:56 GMT 44.622162 -124.055656 33,000 201 540 0
2021-05-16 00:26:48 GMT 44.638641 -124.047478 33,000 196 541 0
2021-05-16 00:26:45 GMT 44.646606 -124.044411 33,000 194 541 0
2021-05-16 00:26:36 GMT 44.672085 -124.037186 33,000 190 541 0
2021-05-16 00:26:28 GMT 44.689545 -124.032898 33,000 190 540 0
2021-05-16 00:26:25 GMT 44.697189 -124.031067 33,000 190 540 0
2021-05-16 00:26:17 GMT 44.716358 -124.026337 33,000 190 540 0
2021-05-16 00:26:14 GMT 44.724014 -124.024529 33,000 190 539 0
2021-05-16 00:26:05 GMT 44.758953 -124.016014 33,000 190 539 0
2021-05-16 00:25:55 GMT 44.768543 -124.013672 33,000 190 540 0
2021-05-16 00:25:52 GMT 44.779358 -124.011055 33,000 190 540 0
2021-05-16 00:25:45 GMT 44.795105 -124.007195 33,000 190 540 0
2021-05-16 00:25:36 GMT 44.819504 -124.001312 33,000 190 540 0
2021-05-16 00:25:32 GMT 44.829071 -123.998955 33,000 190 540 0
2021-05-16 00:25:24 GMT 44.845825 -123.994904 33,000 190 539 0
2021-05-16 00:25:19 GMT 44.856903 -123.992226 33,000 190 539 0
2021-05-16 00:25:15 GMT 44.878033 -123.987076 33,000 190 539 0
2021-05-16 00:25:12 GMT 44.878033 -123.987076 33,000 190 539 0
2021-05-16 00:25:04 GMT 44.896225 -123.982613 33,000 190 539 0
2021-05-16 00:25:01 GMT 44.903358 -123.980850 33,000 190 538 0
2021-05-16 00:24:54 GMT 44.922024 -123.976295 33,000 190 539 0
2021-05-16 00:24:51 GMT 44.929367 -123.974503 33,000 190 539 0
2021-05-16 00:24:46 GMT 44.939949 -123.971870 33,000 190 539 0
2021-05-16 00:24:43 GMT 44.945812 -123.970467 33,000 190 539 0
2021-05-16 00:24:40 GMT 44.955402 -123.968117 33,000 190 539 0
2021-05-16 00:24:36 GMT 44.965942 -123.965538 33,000 190 539 0
2021-05-16 00:24:33 GMT 44.974503 -123.963387 33,000 190 538 0
2021-05-16 00:24:30 GMT 44.980633 -123.961891 33,000 190 537 0
2021-05-16 00:24:25 GMT 44.991669 -123.959198 33,000 190 537 0
2021-05-16 00:24:21 GMT 45.003662 -123.956253 33,000 190 537 0
2021-05-16 00:24:18 GMT 45.007587 -123.955322 33,000 190 537 0
2021-05-16 00:24:15 GMT 45.018620 -123.952576 33,000 190 537 0
2021-05-16 00:24:12 GMT 45.024994 -123.951027 33,000 190 537 0
2021-05-16 00:24:09 GMT 45.033333 -123.949028 33,000 190 537 0
2021-05-16 00:24:04 GMT 45.043121 -123.946640 33,000 190 537 0
2021-05-16 00:24:01 GMT 45.050217 -123.944939 33,000 190 537 0
2021-05-16 00:23:58 GMT 45.058319 -123.942978 33,000 190 537 0
2021-05-16 00:23:54 GMT 45.069828 -123.940117 33,000 190 537 0
2021-05-16 00:23:51 GMT 45.076672 -123.938438 33,000 190 537 0
2021-05-16 00:23:48 GMT 45.085003 -123.936432 33,000 190 537 0
2021-05-16 00:23:43 GMT 45.094547 -123.934090 33,000 190 537 0
2021-05-16 00:23:39 GMT 45.105534 -123.931412 33,000 190 536 0
2021-05-16 00:23:36 GMT 45.110458 -123.930161 33,000 190 536 0
2021-05-16 00:23:33 GMT 45.120243 -123.927788 33,000 190 536 0
2021-05-16 00:23:30 GMT 45.127319 -123.926048 33,000 190 536 0
2021-05-16 00:23:27 GMT 45.134907 -123.924171 33,000 190 536 0
2021-05-16 00:23:21 GMT 45.147125 -123.921135 33,000 190 537 0
2021-05-16 00:23:17 GMT 45.157425 -123.918655 33,000 190 537 0
2021-05-16 00:23:12 GMT 45.172802 -123.914795 33,000 190 537 0
2021-05-16 00:23:09 GMT 45.179398 -123.913162 33,000 190 537 0
2021-05-16 00:23:06 GMT 45.187000 -123.911308 33,000 190 537 0
2021-05-16 00:23:01 GMT 45.197296 -123.908775 33,000 190 537 0
2021-05-16 00:22:58 GMT 45.204849 -123.906883 33,000 190 537 0
2021-05-16 00:22:55 GMT 45.212185 -123.905083 33,000 190 537 0
2021-05-16 00:22:48 GMT 45.231274 -123.900322 33,000 190 537 0
2021-05-16 00:22:45 GMT 45.237881 -123.898720 33,000 190 537 0
2021-05-16 00:22:39 GMT 45.253010 -123.894966 33,000 190 537 0
2021-05-16 00:22:36 GMT 45.257675 -123.893806 33,000 190 537 0
2021-05-16 00:22:33 GMT 45.264771 -123.892036 33,000 190 537 0
2021-05-16 00:22:27 GMT 45.281639 -123.887863 33,000 190 536 0
2021-05-16 00:22:24 GMT 45.289185 -123.885986 33,000 190 536 0
2021-05-16 00:22:19 GMT 45.298965 -123.883537 33,000 190 536 0
2021-05-16 00:22:13 GMT 45.315079 -123.879616 33,000 190 535 0
2021-05-16 00:22:06 GMT 45.334106 -123.874870 33,000 190 535 0
2021-05-16 00:22:03 GMT 45.341183 -123.873131 33,000 190 535 0
2021-05-16 00:21:58 GMT 45.351425 -123.870590 33,000 190 534 0
2021-05-16 00:21:54 GMT 45.360443 -123.868362 33,000 190 534 0
2021-05-16 00:21:51 GMT 45.366783 -123.866760 33,000 190 534 0
2021-05-16 00:21:48 GMT 45.375549 -123.864571 33,000 190 534 0
2021-05-16 00:21:45 GMT 45.384109 -123.862480 33,000 190 534 0
2021-05-16 00:21:42 GMT 45.392120 -123.860519 33,000 190 534 0
2021-05-16 00:21:38 GMT 45.402119 -123.858055 33,000 190 534 0
2021-05-16 00:21:34 GMT 45.410172 -123.856049 33,000 190 534 0
2021-05-16 00:21:31 GMT 45.417202 -123.854301 33,000 190 534 0
2021-05-16 00:21:24 GMT 45.435974 -123.849663 33,000 190 534 0
2021-05-16 00:21:21 GMT 45.443024 -123.847893 33,000 190 534 0
2021-05-16 00:21:17 GMT 45.452766 -123.845459 33,000 191 535 -64
2021-05-16 00:21:13 GMT 45.461285 -123.843315 33,000 191 534 -64
2021-05-16 00:21:10 GMT 45.468613 -123.841484 33,000 191 534 -64
2021-05-16 00:21:03 GMT 45.486099 -123.837105 33,000 191 534 -64
2021-05-16 00:21:00 GMT 45.494614 -123.835014 33,000 191 534 0
2021-05-16 00:20:56 GMT 45.503368 -123.832802 33,000 191 534 0
2021-05-16 00:20:52 GMT 45.512100 -123.830635 33,000 191 534 0
2021-05-16 00:20:49 GMT 45.519665 -123.828712 33,000 191 534 0
2021-05-16 00:20:45 GMT 45.528397 -123.826515 33,000 190 533 64
2021-05-16 00:20:42 GMT 45.537369 -123.824287 33,000 190 533 64
2021-05-16 00:20:39 GMT 45.544418 -123.822525 33,000 190 533 64
2021-05-16 00:20:35 GMT 45.554623 -123.819969 33,000 190 533 0
2021-05-16 00:20:31 GMT 45.564072 -123.817635 33,000 190 533 0
2021-05-16 00:20:28 GMT 45.570877 -123.815918 33,000 190 533 0
2021-05-16 00:20:24 GMT 45.579391 -123.813843 33,000 190 533 0
2021-05-16 00:20:21 GMT 45.588364 -123.811562 33,000 190 533 0
2021-05-16 00:20:18 GMT 45.596832 -123.809486 33,000 190 533 0
2021-05-16 00:20:14 GMT 45.606064 -123.807129 33,000 190 533 0
2021-05-16 00:20:10 GMT 45.616013 -123.804665 33,000 191 533 0
2021-05-16 00:20:07 GMT 45.620632 -123.803490 33,000 191 533 0
2021-05-16 00:20:04 GMT 45.628876 -123.801445 33,000 191 533 0
2021-05-16 00:20:00 GMT 45.639038 -123.798836 33,000 191 533 0
2021-05-16 00:19:57 GMT 45.647774 -123.796692 33,000 191 533 0
2021-05-16 00:19:53 GMT 45.656982 -123.794350 33,000 191 533 0
2021-05-16 00:19:49 GMT 45.666676 -123.791885 33,000 191 533 0
2021-05-16 00:19:46 GMT 45.671749 -123.790581 33,000 191 533 0
2021-05-16 00:19:42 GMT 45.680969 -123.788254 33,000 191 532 0
2021-05-16 00:19:39 GMT 45.689716 -123.786049 33,000 191 532 0
2021-05-16 00:19:35 GMT 45.697678 -123.783989 33,000 191 532 0
2021-05-16 00:19:31 GMT 45.706650 -123.781754 33,000 190 532 0
2021-05-16 00:19:28 GMT 45.717545 -123.779007 33,000 190 532 0
2021-05-16 00:19:24 GMT 45.735489 -123.774521 33,000 190 532 0
2021-05-16 00:19:20 GMT 45.735489 -123.774521 33,000 190 532 0
2021-05-16 00:19:16 GMT 45.744232 -123.772316 33,000 190 532 0
2021-05-16 00:19:13 GMT 45.750748 -123.770668 33,000 190 532 0
2021-05-16 00:19:09 GMT 45.761688 -123.767921 33,000 191 532 64
2021-05-16 00:19:05 GMT 45.771332 -123.765472 33,000 191 532 64
2021-05-16 00:19:01 GMT 45.783241 -123.762497 33,000 191 532 0
2021-05-16 00:18:56 GMT 45.800186 -123.758240 33,000 191 532 0
2021-05-16 00:18:53 GMT 45.800186 -123.758240 33,000 191 532 0
2021-05-16 00:18:49 GMT 45.809830 -123.755760 33,000 191 532 0
2021-05-16 00:18:46 GMT 45.816650 -123.754089 33,000 190 532 0
2021-05-16 00:18:43 GMT 45.824844 -123.752007 33,000 190 532 0
2021-05-16 00:18:40 GMT 45.833817 -123.749733 33,000 190 532 0
2021-05-16 00:18:37 GMT 45.837204 -123.748863 33,000 190 532 0
2021-05-16 00:18:34 GMT 45.845673 -123.746719 33,000 190 532 0
2021-05-16 00:18:31 GMT 45.851761 -123.745247 33,000 190 532 0
2021-05-16 00:18:28 GMT 45.862381 -123.742516 33,000 190 532 0
2021-05-16 00:18:23 GMT 45.872086 -123.740089 33,000 190 533 0
2021-05-16 00:18:19 GMT 45.884216 -123.737007 33,000 191 533 0
2021-05-16 00:18:16 GMT 45.888336 -123.736000 33,000 191 532 0
2021-05-16 00:18:13 GMT 45.897060 -123.733795 33,000 191 532 0
2021-05-16 00:18:10 GMT 45.902893 -123.732315 33,000 191 532 0
2021-05-16 00:18:07 GMT 45.913029 -123.729744 33,000 191 532 0
2021-05-16 00:18:03 GMT 45.921036 -123.727684 33,000 191 532 0
2021-05-16 00:18:00 GMT 45.928802 -123.725754 33,000 191 532 0
2021-05-16 00:17:56 GMT 45.938492 -123.723289 33,000 191 532 0
2021-05-16 00:17:52 GMT 45.947205 -123.721062 33,000 191 532 0
2021-05-16 00:17:49 GMT 45.954208 -123.719254 33,000 191 532 0
2021-05-16 00:17:46 GMT 45.964657 -123.716629 33,000 191 532 0
2021-05-16 00:17:43 GMT 45.977463 -123.713287 33,000 191 532 0
2021-05-16 00:17:40 GMT 45.977463 -123.713287 33,000 191 532 0
2021-05-16 00:17:37 GMT 45.985474 -123.711281 33,000 191 532 0
2021-05-16 00:17:34 GMT 45.994171 -123.709076 33,000 191 532 0
2021-05-16 00:17:31 GMT 45.997566 -123.708183 33,000 191 532 0
2021-05-16 00:17:28 GMT 46.004837 -123.706322 33,000 191 532 0
2021-05-16 00:17:25 GMT 46.015228 -123.703712 33,000 190 532 0
2021-05-16 00:17:20 GMT 46.024895 -123.701248 33,000 190 532 0
2021-05-16 00:17:16 GMT 46.036999 -123.698227 33,000 190 532 0
2021-05-16 00:17:12 GMT 46.046722 -123.695740 33,000 191 532 0
2021-05-16 00:17:09 GMT 46.054688 -123.693726 33,000 191 532 0
2021-05-16 00:17:05 GMT 46.061951 -123.691910 33,000 191 531 0
2021-05-16 00:17:01 GMT 46.071121 -123.689575 33,000 191 531 0
2021-05-16 00:16:58 GMT 46.080093 -123.687302 33,000 191 531 0
2021-05-16 00:16:55 GMT 46.086857 -123.685524 33,000 191 531 0
2021-05-16 00:16:51 GMT 46.096771 -123.683052 33,000 191 531 0
2021-05-16 00:16:47 GMT 46.105942 -123.680717 33,000 191 531 0
2021-05-16 00:16:44 GMT 46.112923 -123.678932 33,000 191 530 0
2021-05-16 00:16:41 GMT 46.122841 -123.676392 33,000 190 530 0
2021-05-16 00:16:38 GMT 46.126465 -123.675507 33,000 190 530 0
2021-05-16 00:16:33 GMT 46.141647 -123.671585 33,000 191 530 0
2021-05-16 00:16:28 GMT 46.151276 -123.669144 33,000 191 530 0
2021-05-16 00:16:25 GMT 46.158279 -123.667336 33,000 191 530 0
2021-05-16 00:16:22 GMT 46.165741 -123.665459 33,000 191 530 0
2021-05-16 00:16:19 GMT 46.173954 -123.663345 33,000 191 530 0
2021-05-16 00:16:16 GMT 46.181450 -123.661423 33,000 191 530 0
2021-05-16 00:16:12 GMT 46.191319 -123.658951 33,000 191 530 0
2021-05-16 00:16:07 GMT 46.202133 -123.656143 33,000 191 530 0
2021-05-16 00:16:03 GMT 46.213711 -123.653183 33,000 191 529 0
2021-05-16 00:15:59 GMT 46.222649 -123.650917 33,000 191 529 0
2021-05-16 00:15:55 GMT 46.232986 -123.648239 33,000 191 529 0
2021-05-16 00:15:51 GMT 46.242874 -123.645699 33,000 191 529 0
2021-05-16 00:15:47 GMT 46.248642 -123.644226 33,000 191 529 0
2021-05-16 00:15:44 GMT 46.257065 -123.642014 33,000 191 528 0
2021-05-16 00:15:41 GMT 46.266918 -123.639519 33,000 191 528 0
2021-05-16 00:15:38 GMT 46.272949 -123.637993 33,000 191 528 0
2021-05-16 00:15:34 GMT 46.283020 -123.635384 33,000 191 528 0
2021-05-16 00:15:30 GMT 46.292664 -123.632927 33,000 191 528 0
2021-05-16 00:15:27 GMT 46.298401 -123.631432 33,000 191 528 0
2021-05-16 00:15:23 GMT 46.307281 -123.629150 33,000 191 528 0
2021-05-16 00:15:19 GMT 46.317627 -123.626472 33,000 191 528 0
2021-05-16 00:15:16 GMT 46.326004 -123.624329 33,000 191 528 0
2021-05-16 00:15:13 GMT 46.333008 -123.622520 33,000 191 528 0
2021-05-16 00:15:10 GMT 46.341637 -123.620293 33,000 191 528 0
2021-05-16 00:15:06 GMT 46.349083 -123.618370 33,000 191 527 0
2021-05-16 00:15:03 GMT 46.362259 -123.615013 33,000 191 527 0
2021-05-16 00:15:00 GMT 46.362259 -123.615013 33,000 191 527 0
2021-05-16 00:14:56 GMT 46.374268 -123.611916 33,000 191 527 0
2021-05-16 00:14:53 GMT 46.379295 -123.610611 33,000 191 527 0
2021-05-16 00:14:50 GMT 46.385284 -123.609123 33,000 191 527 0
2021-05-16 00:14:47 GMT 46.392982 -123.607109 33,000 191 527 0
2021-05-16 00:14:44 GMT 46.399452 -123.605461 33,000 191 527 0
2021-05-16 00:14:41 GMT 46.408539 -123.603088 33,000 191 527 0
2021-05-16 00:14:38 GMT 46.414536 -123.601547 33,000 191 527 0
2021-05-16 00:14:35 GMT 46.424377 -123.599007 33,000 191 527 0
2021-05-16 00:14:31 GMT 46.435135 -123.596191 33,000 191 527 0
2021-05-16 00:14:28 GMT 46.441132 -123.594650 33,000 191 527 0
2021-05-16 00:14:24 GMT 46.449543 -123.592484 33,000 191 527 0
2021-05-16 00:14:21 GMT 46.454803 -123.591110 33,000 191 527 0
2021-05-16 00:14:18 GMT 46.463696 -123.588776 33,000 191 527 0
2021-05-16 00:14:14 GMT 46.475418 -123.585739 33,000 191 527 0
2021-05-16 00:14:09 GMT 46.483841 -123.583527 33,000 191 527 0
2021-05-16 00:14:06 GMT 46.493179 -123.581116 33,000 191 527 0
2021-05-16 00:14:00 GMT 46.505630 -123.577904 33,000 191 527 0
2021-05-16 00:13:56 GMT 46.519043 -123.574417 33,000 191 527 0
2021-05-16 00:13:53 GMT 46.525040 -123.572876 33,000 191 527 0
2021-05-16 00:13:50 GMT 46.530304 -123.571472 33,000 191 527 0
2021-05-16 00:13:46 GMT 46.541111 -123.568726 33,000 191 526 0
2021-05-16 00:13:42 GMT 46.550423 -123.566322 33,000 191 526 0
2021-05-16 00:13:38 GMT 46.557873 -123.564400 33,000 191 526 0
2021-05-16 00:13:35 GMT 46.566715 -123.562065 33,000 191 526 0
2021-05-16 00:13:32 GMT 46.575096 -123.559937 33,000 191 526 0
2021-05-16 00:13:28 GMT 46.583221 -123.557808 33,000 191 525 0
2021-05-16 00:13:24 GMT 46.609314 -123.551041 33,000 191 524 0
2021-05-16 00:13:18 GMT 46.609314 -123.551041 33,000 191 525 0
2021-05-16 00:13:15 GMT 46.616943 -123.549088 33,000 191 525 0
2021-05-16 00:13:11 GMT 46.626255 -123.546684 33,000 191 525 0
2021-05-16 00:13:06 GMT 46.634171 -123.544624 33,000 191 525 0
2021-05-16 00:13:03 GMT 46.642967 -123.542290 33,000 191 525 0
2021-05-16 00:12:57 GMT 46.656097 -123.538918 33,000 191 525 0
2021-05-16 00:12:54 GMT 46.666618 -123.536179 33,000 191 524 0
2021-05-16 00:12:51 GMT 46.674271 -123.534225 33,000 191 524 0
2021-05-16 00:12:47 GMT 46.681641 -123.532280 33,000 191 524 0
2021-05-16 00:12:43 GMT 46.692856 -123.529404 33,000 191 524 0
2021-05-16 00:12:38 GMT 46.703339 -123.526657 33,000 191 524 0
2021-05-16 00:12:32 GMT 46.723129 -123.521553 33,000 191 523 0
2021-05-16 00:12:26 GMT 46.731419 -123.519356 33,000 191 523 0
2021-05-16 00:12:20 GMT 46.747150 -123.515236 33,000 191 523 0
2021-05-16 00:12:16 GMT 46.755707 -123.513054 33,000 191 523 0
2021-05-16 00:12:13 GMT 46.764282 -123.510773 33,000 191 523 0
2021-05-16 00:12:10 GMT 46.769028 -123.509575 33,000 191 523 0
2021-05-16 00:12:07 GMT 46.776901 -123.507500 33,000 191 523 0
2021-05-16 00:12:04 GMT 46.782120 -123.506157 33,000 191 523 0
2021-05-16 00:12:01 GMT 46.792099 -123.503548 33,000 191 523 0
2021-05-16 00:11:54 GMT 46.805649 -123.499992 33,000 191 522 -64
2021-05-16 00:11:49 GMT 46.818512 -123.496643 33,025 191 522 64
2021-05-16 00:11:46 GMT 46.826340 -123.494568 33,000 191 522 -128
2021-05-16 00:11:44 GMT 46.830872 -123.493362 33,000 191 522 -128
2021-05-16 00:11:39 GMT 46.842499 -123.490349 33,025 191 522 64
2021-05-16 00:11:35 GMT 46.854130 -123.487289 33,025 191 522 128
2021-05-16 00:11:32 GMT 46.861267 -123.485390 33,000 191 522 960
2021-05-16 00:11:28 GMT 46.867218 -123.483849 32,975 191 522 576
2021-05-16 00:11:24 GMT 46.876968 -123.481247 32,925 191 522 768
2021-05-16 00:11:21 GMT 46.886215 -123.478844 32,875 191 522 960
2021-05-16 00:11:18 GMT 46.893082 -123.476990 32,825 191 522 1024
2021-05-16 00:11:15 GMT 46.911118 -123.472252 32,725 191 521 1024
2021-05-16 00:11:11 GMT 46.911118 -123.472252 32,700 191 521 1024
2021-05-16 00:11:08 GMT 46.916786 -123.470764 32,650 191 521 1024
2021-05-16 00:11:05 GMT 46.924610 -123.468651 32,575 191 521 1088
2021-05-16 00:11:02 GMT 46.930569 -123.467102 32,550 191 521 1088
2021-05-16 00:10:57 GMT 46.942158 -123.464005 32,450 191 521 1088
2021-05-16 00:10:51 GMT 46.958771 -123.459618 32,325 191 521 1152
2021-05-16 00:10:48 GMT 46.964676 -123.458038 32,250 191 521 1152
2021-05-16 00:10:45 GMT 46.977493 -123.454704 32,100 191 521 1152
2021-05-16 00:10:43 GMT 46.977493 -123.454704 32,100 191 521 1216
2021-05-16 00:10:39 GMT 46.985092 -123.452682 32,100 191 521 1216
2021-05-16 00:10:36 GMT 46.992416 -123.450760 32,000 191 522 1216
2021-05-16 00:10:33 GMT 46.999329 -123.448906 32,000 191 522 1216
2021-05-16 00:10:30 GMT 47.008308 -123.446541 31,925 191 522 1216
2021-05-16 00:10:26 GMT 47.016876 -123.444283 31,850 191 522 1216
2021-05-16 00:10:23 GMT 47.024918 -123.442177 31,750 191 522 1216
2021-05-16 00:10:20 GMT 47.030869 -123.440666 31,700 191 522 1216
2021-05-16 00:10:17 GMT 47.039429 -123.438400 31,625 191 522 1216
2021-05-16 00:10:14 GMT 47.044155 -123.437172 31,600 191 522 1216
2021-05-16 00:10:11 GMT 47.052246 -123.435036 31,525 191 522 1216
2021-05-16 00:10:08 GMT 47.058197 -123.433456 31,475 191 522 1216
2021-05-16 00:10:04 GMT 47.067200 -123.430977 31,400 191 522 1152
2021-05-16 00:10:02 GMT 47.073158 -123.429352 31,275 190 523 1216
2021-05-16 00:09:59 GMT 47.080513 -123.427315 31,275 190 523 1216
2021-05-16 00:09:56 GMT 47.088593 -123.425217 31,225 190 523 1216
2021-05-16 00:09:53 GMT 47.093128 -123.424141 31,225 189 523 1216
2021-05-16 00:09:50 GMT 47.102646 -123.422058 31,075 187 523 1280
2021-05-16 00:09:47 GMT 47.108643 -123.420891 31,050 187 524 1280
2021-05-16 00:09:44 GMT 47.116104 -123.419586 30,975 186 524 1280
2021-05-16 00:09:41 GMT 47.122833 -123.418556 30,925 186 524 1280
2021-05-16 00:09:38 GMT 47.132950 -123.417183 30,825 184 524 1344
2021-05-16 00:09:34 GMT 47.139725 -123.416496 30,275 176 526 960
2021-05-16 00:09:32 GMT 47.144104 -123.416115 30,700 183 525 1408
2021-05-16 00:09:29 GMT 47.151352 -123.415535 30,650 183 525 1408
2021-05-16 00:09:26 GMT 47.157898 -123.415123 30,575 181 526 1344
2021-05-16 00:09:23 GMT 47.166634 -123.414848 30,550 181 526 1344
2021-05-16 00:09:20 GMT 47.175152 -123.414780 30,400 178 526 1152
2021-05-16 00:09:17 GMT 47.183674 -123.414917 30,350 178 526 1088
2021-05-16 00:09:14 GMT 47.188293 -123.415123 30,350 177 526 1088
2021-05-16 00:09:11 GMT 47.195591 -123.415482 30,300 176 526 1024
2021-05-16 00:09:07 GMT 47.204063 -123.416183 30,225 175 526 960
2021-05-16 00:09:04 GMT 47.213047 -123.417168 30,175 175 525 960
2021-05-16 00:09:01 GMT 47.221985 -123.418213 30,125 175 525 1024
2021-05-16 00:08:57 GMT 47.230957 -123.419243 30,025 175 524 960
2021-05-16 00:08:54 GMT 47.237206 -123.419991 30,000 175 524 896
2021-05-16 00:08:52 GMT 47.240845 -123.420410 29,975 175 524 832
2021-05-16 00:08:49 GMT 47.250988 -123.421608 29,925 175 523 704
2021-05-16 00:08:46 GMT 47.258484 -123.422455 29,900 175 522 704
2021-05-16 00:08:43 GMT 47.262577 -123.422943 29,875 175 522 640
2021-05-16 00:08:41 GMT 47.276264 -123.424568 29,775 175 519 832
2021-05-16 00:08:38 GMT 47.276264 -123.424568 29,800 175 520 704
2021-05-16 00:08:35 GMT 47.284225 -123.425552 29,750 175 520 768
2021-05-16 00:08:32 GMT 47.291626 -123.426399 29,750 175 519 768
2021-05-16 00:08:29 GMT 47.297379 -123.427071 29,700 175 519 832
2021-05-16 00:08:24 GMT 47.309830 -123.428513 29,625 175 518 896
2021-05-16 00:08:22 GMT 47.316055 -123.429268 29,600 175 518 896
2021-05-16 00:08:19 GMT 47.329880 -123.430847 29,550 175 517 896
2021-05-16 00:08:16 GMT 47.329880 -123.430847 29,500 175 517 896
2021-05-16 00:08:12 GMT 47.339901 -123.432030 29,475 175 516 832
2021-05-16 00:08:09 GMT 47.345814 -123.432732 29,425 175 516 768
2021-05-16 00:08:06 GMT 47.354370 -123.433731 29,375 175 515 704
2021-05-16 00:08:03 GMT 47.358894 -123.434280 29,275 175 514 640
2021-05-16 00:08:00 GMT 47.368835 -123.435448 29,300 175 513 640
2021-05-16 00:07:57 GMT 47.373608 -123.436043 29,275 175 512 640
2021-05-16 00:07:54 GMT 47.381607 -123.436958 29,250 175 512 640
2021-05-16 00:07:52 GMT 47.388222 -123.437737 29,225 175 511 704
2021-05-16 00:07:49 GMT 47.401676 -123.439285 29,200 175 510 768
2021-05-16 00:07:46 GMT 47.401676 -123.439285 29,125 175 502 1024
2021-05-16 00:07:42 GMT 47.408474 -123.440132 29,100 175 509 832
2021-05-16 00:07:39 GMT 47.418575 -123.441322 29,025 175 508 832
2021-05-16 00:07:34 GMT 47.426769 -123.442245 28,875 175 508 960
2021-05-16 00:07:31 GMT 47.436630 -123.443413 28,925 175 507 960
2021-05-16 00:07:28 GMT 47.446693 -123.444565 28,875 175 507 960
2021-05-16 00:07:25 GMT 47.452744 -123.445335 28,825 175 506 960
2021-05-16 00:07:22 GMT 47.457630 -123.445908 28,775 175 506 960
2021-05-16 00:07:19 GMT 47.463226 -123.446571 28,750 175 505 960
2021-05-16 00:07:16 GMT 47.469318 -123.447243 28,700 175 505 960
2021-05-16 00:07:13 GMT 47.476532 -123.448158 28,650 175 505 1024
2021-05-16 00:07:11 GMT 47.483284 -123.448929 28,600 175 504 1024
2021-05-16 00:07:08 GMT 47.487473 -123.449425 28,575 175 504 1024
2021-05-16 00:07:06 GMT 47.492313 -123.449989 28,375 175 502 1024
2021-05-16 00:07:03 GMT 47.500462 -123.450974 28,475 175 503 1024
2021-05-16 00:07:01 GMT 47.506744 -123.451752 28,400 175 502 1024
2021-05-16 00:06:58 GMT 47.511585 -123.452316 28,400 175 502 1024
2021-05-16 00:06:56 GMT 47.515091 -123.452751 28,375 175 502 1024
2021-05-16 00:06:53 GMT 47.523148 -123.453712 28,300 175 501 1024
2021-05-16 00:06:51 GMT 47.528503 -123.454330 28,250 175 501 960
2021-05-16 00:06:48 GMT 47.534721 -123.455132 28,200 175 500 960
2021-05-16 00:06:46 GMT 47.539562 -123.455696 28,200 175 500 960
2021-05-16 00:06:43 GMT 47.547867 -123.456665 28,100 175 499 1088
2021-05-16 00:06:40 GMT 47.555008 -123.457558 28,075 175 499 1088
2021-05-16 00:06:37 GMT 47.560089 -123.458176 28,050 175 499 1088
2021-05-16 00:06:34 GMT 47.567448 -123.459000 27,950 175 498 1088
2021-05-16 00:06:31 GMT 47.576660 -123.460098 27,900 175 498 1088
2021-05-16 00:06:27 GMT 47.584908 -123.461113 27,825 175 497 1024
2021-05-16 00:06:24 GMT 47.592728 -123.462021 27,775 175 497 1088
2021-05-16 00:06:20 GMT 47.601425 -123.463051 27,725 175 496 1088
2021-05-16 00:06:16 GMT 47.609440 -123.464005 27,650 175 496 1088
2021-05-16 00:06:13 GMT 47.614929 -123.464699 27,600 175 495 1088
2021-05-16 00:06:10 GMT 47.624313 -123.465797 27,525 175 495 1088
2021-05-16 00:06:06 GMT 47.632736 -123.466827 27,350 175 493 1024
2021-05-16 00:06:03 GMT 47.638676 -123.467522 27,425 175 494 1024
2021-05-16 00:06:01 GMT 47.645050 -123.468338 27,375 175 493 1024
2021-05-16 00:05:58 GMT 47.651848 -123.469147 27,325 175 493 1088
2021-05-16 00:05:55 GMT 47.657761 -123.469849 27,275 175 492 1152
2021-05-16 00:05:52 GMT 47.662975 -123.470482 27,225 175 492 1216
2021-05-16 00:05:50 GMT 47.667984 -123.471085 27,150 175 492 1280
2021-05-16 00:05:47 GMT 47.675446 -123.471977 27,125 175 492 1344
2021-05-16 00:05:45 GMT 47.679977 -123.472527 27,075 175 492 1344
2021-05-16 00:05:42 GMT 47.688160 -123.473511 27,025 175 491 1408
2021-05-16 00:05:39 GMT 47.693375 -123.474144 26,925 175 491 1472
2021-05-16 00:05:36 GMT 47.701080 -123.475067 26,825 175 491 1472
2021-05-16 00:05:33 GMT 47.706711 -123.475754 26,800 175 491 1408
2021-05-16 00:05:29 GMT 47.714882 -123.476677 25,525 175 484 1152
2021-05-16 00:05:26 GMT 47.723923 -123.477745 26,625 175 490 1088
2021-05-16 00:05:23 GMT 47.729553 -123.478432 26,600 175 490 1088
2021-05-16 00:05:19 GMT 47.739304 -123.479530 26,475 175 489 1088
2021-05-16 00:05:16 GMT 47.746262 -123.480354 26,425 175 488 1152
2021-05-16 00:05:13 GMT 47.753937 -123.481255 26,375 175 488 1152
2021-05-16 00:05:08 GMT 47.762924 -123.482346 26,300 175 487 1152
2021-05-16 00:05:05 GMT 47.768555 -123.483032 26,275 175 487 1152
2021-05-16 00:05:02 GMT 47.775490 -123.483864 26,200 175 486 1152
2021-05-16 00:04:58 GMT 47.787174 -123.485199 26,075 175 485 1216
2021-05-16 00:04:55 GMT 47.794327 -123.486053 26,025 175 485 1216
2021-05-16 00:04:52 GMT 47.800117 -123.486748 25,975 175 484 1216
2021-05-16 00:04:48 GMT 47.805935 -123.487457 25,925 175 484 1152
2021-05-16 00:04:45 GMT 47.814194 -123.488457 25,850 175 483 1088
2021-05-16 00:04:42 GMT 47.829117 -123.490242 25,800 175 482 1024
2021-05-16 00:04:39 GMT 47.829117 -123.490242 25,750 175 481 1024
2021-05-16 00:04:35 GMT 47.838181 -123.491341 25,675 175 480 1024
2021-05-16 00:04:32 GMT 47.845093 -123.492165 25,625 175 480 1088
2021-05-16 00:04:29 GMT 47.848160 -123.492508 25,600 175 480 1088
2021-05-16 00:04:24 GMT 47.863846 -123.494431 25,375 175 478 1280
2021-05-16 00:04:22 GMT 47.869583 -123.495117 25,425 175 478 1280
2021-05-16 00:04:20 GMT 47.869583 -123.495117 25,400 175 478 1280
2021-05-16 00:04:15 GMT 47.882561 -123.496681 25,275 175 477 1280
2021-05-16 00:04:12 GMT 47.888077 -123.497314 25,200 175 476 1280
2021-05-16 00:04:09 GMT 47.892700 -123.497864 25,200 175 476 1280
2021-05-16 00:04:04 GMT 47.903229 -123.499146 25,050 175 475 1344
2021-05-16 00:04:02 GMT 47.908722 -123.499847 25,000 175 475 1344
2021-05-16 00:04:00 GMT 47.915520 -123.500626 24,950 175 475 1408
2021-05-16 00:03:54 GMT 47.927532 -123.502106 24,800 175 474 1408
2021-05-16 00:03:51 GMT 47.933212 -123.502808 24,725 175 474 1408
2021-05-16 00:03:48 GMT 47.941963 -123.503860 24,650 175 474 1408
2021-05-16 00:03:44 GMT 47.950062 -123.504852 24,575 175 473 1344
2021-05-16 00:03:41 GMT 47.956146 -123.505554 24,475 175 472 1344
2021-05-16 00:03:38 GMT 47.962463 -123.506310 24,450 175 472 1344
2021-05-16 00:03:34 GMT 47.970310 -123.507317 24,350 175 472 1344
2021-05-16 00:03:31 GMT 47.984436 -123.508987 24,275 175 471 1280
2021-05-16 00:03:27 GMT 47.996567 -123.510498 24,200 175 470 1280
2021-05-16 00:03:23 GMT 47.996567 -123.510498 24,100 175 470 1280
2021-05-16 00:03:19 GMT 48.005646 -123.511612 24,000 175 469 1344
2021-05-16 00:03:16 GMT 48.009979 -123.512146 23,950 175 469 1344
2021-05-16 00:03:11 GMT 48.020355 -123.513443 23,850 175 468 1408
2021-05-16 00:03:09 GMT 48.025131 -123.514000 23,800 175 468 1408
2021-05-16 00:03:06 GMT 48.041260 -123.515976 23,600 175 465 1472
2021-05-16 00:03:02 GMT 48.041260 -123.515976 23,600 175 467 1472
2021-05-16 00:02:59 GMT 48.047962 -123.516754 23,525 175 467 1536
2021-05-16 00:02:55 GMT 48.055710 -123.517708 23,450 175 466 1472
2021-05-16 00:02:51 GMT 48.063000 -123.518585 23,375 175 466 1472
2021-05-16 00:02:48 GMT 48.068573 -123.519287 23,300 175 465 1472
2021-05-16 00:02:45 GMT 48.075211 -123.520042 23,225 175 465 1472
2021-05-16 00:02:41 GMT 48.086151 -123.521416 23,100 175 464 1344
2021-05-16 00:02:37 GMT 48.094700 -123.522385 23,000 175 463 1216
2021-05-16 00:02:34 GMT 48.099426 -123.522995 22,950 175 462 1088
2021-05-16 00:02:31 GMT 48.105194 -123.523682 22,925 175 462 1024
2021-05-16 00:02:29 GMT 48.118160 -123.525276 22,875 175 461 960
2021-05-16 00:02:26 GMT 48.118160 -123.525276 22,825 175 460 960
2021-05-16 00:02:23 GMT 48.121140 -123.525627 22,775 175 458 1024
2021-05-16 00:02:20 GMT 48.137856 -123.527672 22,700 175 457 1088
2021-05-16 00:02:17 GMT 48.137856 -123.527672 22,650 175 457 1152
2021-05-16 00:02:14 GMT 48.144150 -123.528419 22,600 175 456 1152
2021-05-16 00:02:10 GMT 48.149826 -123.529106 22,525 175 455 1216
2021-05-16 00:02:08 GMT 48.156143 -123.529861 22,500 175 454 1280
2021-05-16 00:02:05 GMT 48.162598 -123.530624 22,425 175 454 1344
2021-05-16 00:02:00 GMT 48.171185 -123.531715 22,300 175 452 1408
2021-05-16 00:01:58 GMT 48.177658 -123.532455 22,250 175 452 1472
2021-05-16 00:01:54 GMT 48.183895 -123.533234 22,125 175 451 1472
2021-05-16 00:01:50 GMT 48.193298 -123.534393 22,025 175 450 1536
2021-05-16 00:01:47 GMT 48.198257 -123.534988 21,950 175 450 1536
2021-05-16 00:01:44 GMT 48.206799 -123.535980 21,900 175 450 1536
2021-05-16 00:01:40 GMT 48.218575 -123.537430 21,775 175 449 1472
2021-05-16 00:01:38 GMT 48.218575 -123.537430 21,750 175 448 1472
2021-05-16 00:01:35 GMT 48.222748 -123.537949 21,650 175 448 1472
2021-05-16 00:01:32 GMT 48.236546 -123.539597 21,600 175 447 1472
2021-05-16 00:01:29 GMT 48.242550 -123.540390 21,500 175 447 1536
2021-05-16 00:01:26 GMT 48.242550 -123.540390 21,400 175 446 1536
2021-05-16 00:01:23 GMT 48.249939 -123.541260 21,375 175 446 1536
2021-05-16 00:01:20 GMT 48.253647 -123.541756 21,325 175 446 1600
2021-05-16 00:01:17 GMT 48.262894 -123.542847 21,225 175 445 1600
2021-05-16 00:01:14 GMT 48.267014 -123.543373 21,175 175 444 1600
2021-05-16 00:01:10 GMT 48.275391 -123.544426 21,050 175 444 1600
2021-05-16 00:01:08 GMT 48.284821 -123.545593 21,000 175 443 1600
2021-05-16 00:01:05 GMT 48.284821 -123.545593 20,925 175 443 1600
2021-05-16 00:01:02 GMT 48.291733 -123.546402 20,850 175 442 1536
2021-05-16 00:00:58 GMT 48.297638 -123.547173 20,775 175 442 1536
2021-05-16 00:00:55 GMT 48.307213 -123.548340 20,650 175 441 1536
2021-05-16 00:00:51 GMT 48.313339 -123.549080 20,575 175 440 1536
2021-05-16 00:00:48 GMT 48.319408 -123.549858 20,500 175 440 1600
2021-05-16 00:00:45 GMT 48.326706 -123.550766 20,400 175 439 1664
2021-05-16 00:00:42 GMT 48.332977 -123.551544 20,275 175 439 1856
2021-05-16 00:00:39 GMT 48.338261 -123.552177 20,225 175 439 1920
2021-05-16 00:00:35 GMT 48.348358 -123.553444 20,050 175 438 1984
2021-05-16 00:00:32 GMT 48.353394 -123.554077 19,950 175 438 1920
2021-05-16 00:00:29 GMT 48.357468 -123.554573 19,725 175 438 1856
2021-05-16 00:00:26 GMT 48.364330 -123.555351 19,850 175 438 1856
2021-05-16 00:00:23 GMT 48.369553 -123.556046 19,675 175 438 1728
2021-05-16 00:00:20 GMT 48.377224 -123.556946 19,600 175 437 1728
2021-05-16 00:00:16 GMT 48.385509 -123.557953 19,500 175 437 1664
2021-05-16 00:00:12 GMT 48.391525 -123.558655 19,375 175 436 1664
2021-05-16 00:00:09 GMT 48.398392 -123.559502 19,325 175 435 1664
2021-05-16 00:00:07 GMT 48.402786 -123.559990 19,275 175 435 1664
2021-05-16 00:00:03 GMT 48.412445 -123.561188 19,150 175 434 1664
2021-05-15 23:59:59 GMT 48.419029 -123.562004 19,050 175 433 1600
2021-05-15 23:59:54 GMT 48.429783 -123.563309 18,675 175 431 1728
2021-05-15 23:59:51 GMT 48.435600 -123.564026 18,825 175 431 1664
2021-05-15 23:59:48 GMT 48.440735 -123.564644 18,775 175 431 1664
2021-05-15 23:59:45 GMT 48.444717 -123.565132 18,700 175 430 1728
2021-05-15 23:59:42 GMT 48.453663 -123.566269 18,575 175 430 1792
2021-05-15 23:59:38 GMT 48.461391 -123.567207 18,450 175 429 1792
2021-05-15 23:59:35 GMT 48.465729 -123.567741 18,375 175 428 1792
2021-05-15 23:59:31 GMT 48.474052 -123.568794 18,300 175 428 1792
2021-05-15 23:59:28 GMT 48.479778 -123.569450 17,800 175 425 1792
2021-05-15 23:59:25 GMT 48.486671 -123.570312 18,075 175 427 1792
2021-05-15 23:59:23 GMT 48.490585 -123.570839 18,025 175 426 1792
2021-05-15 23:59:19 GMT 48.498074 -123.571762 17,900 175 425 1792
2021-05-15 23:59:16 GMT 48.503540 -123.572388 17,825 175 425 1792
2021-05-15 23:59:12 GMT 48.512974 -123.573570 17,650 175 424 1792
2021-05-15 23:59:09 GMT 48.518604 -123.574287 17,575 175 423 1792
2021-05-15 23:59:06 GMT 48.526428 -123.575203 17,250 175 422 1792
2021-05-15 23:59:02 GMT 48.529358 -123.575554 17,425 175 422 1792
2021-05-15 23:58:59 GMT 48.537735 -123.576614 17,250 175 421 1856
2021-05-15 23:58:56 GMT 48.544144 -123.577385 17,175 175 421 1856
2021-05-15 23:58:51 GMT 48.554626 -123.578659 16,950 175 420 1920
2021-05-15 23:58:48 GMT 48.560410 -123.579353 16,925 175 419 1920
2021-05-15 23:58:45 GMT 48.565620 -123.579926 16,825 175 419 1856
2021-05-15 23:58:42 GMT 48.570278 -123.580505 16,750 175 418 1792
2021-05-15 23:58:38 GMT 48.576828 -123.581329 16,650 175 417 1728
2021-05-15 23:58:36 GMT 48.581635 -123.581894 16,550 175 416 1664
2021-05-15 23:58:33 GMT 48.587219 -123.582527 16,475 175 416 1664
2021-05-15 23:58:31 GMT 48.590111 -123.582893 16,450 175 415 1664
2021-05-15 23:58:28 GMT 48.596020 -123.583618 16,375 175 415 1664
2021-05-15 23:58:25 GMT 48.603653 -123.584572 16,275 175 413 1664
2021-05-15 23:58:22 GMT 48.609192 -123.585274 16,200 175 412 1664
2021-05-15 23:58:18 GMT 48.615097 -123.585983 16,100 175 411 1728
2021-05-15 23:58:16 GMT 48.619621 -123.586578 16,025 175 411 1728
2021-05-15 23:58:13 GMT 48.625114 -123.587227 15,925 175 410 1792
2021-05-15 23:58:10 GMT 48.630981 -123.587952 15,850 175 409 1856
2021-05-15 23:58:07 GMT 48.638168 -123.588867 15,700 175 408 1920
2021-05-15 23:58:04 GMT 48.643970 -123.589539 15,625 175 408 1920
2021-05-15 23:57:58 GMT 48.653000 -123.590630 15,475 175 406 1856
2021-05-15 23:57:54 GMT 48.662018 -123.591682 15,325 175 406 1856
2021-05-15 23:57:50 GMT 48.670212 -123.592743 15,200 175 404 1856
2021-05-15 23:57:46 GMT 48.677124 -123.593513 15,050 175 403 1792
2021-05-15 23:57:43 GMT 48.683445 -123.594315 14,900 175 402 1792
2021-05-15 23:57:38 GMT 48.691780 -123.595253 14,825 175 401 1856
2021-05-15 23:57:35 GMT 48.696579 -123.595840 14,750 175 400 1856
2021-05-15 23:57:31 GMT 48.702667 -123.596611 14,625 175 399 1920
2021-05-15 23:57:28 GMT 48.709488 -123.597458 14,525 175 399 1920
2021-05-15 23:57:25 GMT 48.715942 -123.598236 14,375 175 398 2048
2021-05-15 23:57:22 GMT 48.721985 -123.598938 14,300 175 397 2112
2021-05-15 23:57:17 GMT 48.729671 -123.599876 14,150 175 396 2176
2021-05-15 23:57:14 GMT 48.734436 -123.600487 14,050 175 396 2112
2021-05-15 23:57:10 GMT 48.740986 -123.601250 13,925 175 394 1856
2021-05-15 23:57:07 GMT 48.747734 -123.602119 13,775 175 394 1920
2021-05-15 23:57:04 GMT 48.752838 -123.602737 13,700 175 393 1856
2021-05-15 23:57:01 GMT 48.760300 -123.603729 13,600 175 392 1856
2021-05-15 23:56:57 GMT 48.767147 -123.604576 13,425 175 391 2048
2021-05-15 23:56:53 GMT 48.772568 -123.605347 13,375 175 390 2112
2021-05-15 23:56:49 GMT 48.778839 -123.606117 13,100 175 389 2304
2021-05-15 23:56:45 GMT 48.788910 -123.607460 13,025 175 389 2368
2021-05-15 23:56:42 GMT 48.794449 -123.608162 12,875 174 388 2432
2021-05-15 23:56:39 GMT 48.798203 -123.608658 12,725 174 388 2368
2021-05-15 23:56:36 GMT 48.804657 -123.609505 12,675 174 388 2368
2021-05-15 23:56:33 GMT 48.809696 -123.610138 12,575 174 387 2304
2021-05-15 23:56:29 GMT 48.817337 -123.611191 12,400 174 387 2240
2021-05-15 23:56:25 GMT 48.824661 -123.612175 12,250 174 386 2176
2021-05-15 23:56:22 GMT 48.827316 -123.612602 12,150 174 385 2112
2021-05-15 23:56:19 GMT 48.832645 -123.613319 12,100 174 384 1984
2021-05-15 23:56:15 GMT 48.842049 -123.614624 11,950 174 382 1728
2021-05-15 23:56:12 GMT 48.847321 -123.615349 11,850 174 380 1536
2021-05-15 23:56:07 GMT 48.855606 -123.616470 11,750 174 378 1280
2021-05-15 23:56:04 GMT 48.861328 -123.617317 11,700 174 375 1152
2021-05-15 23:55:59 GMT 48.873413 -123.618942 11,600 175 368 1152
2021-05-15 23:55:56 GMT 48.873413 -123.618942 11,525 175 368 1152
2021-05-15 23:55:53 GMT 48.879181 -123.619713 11,500 175 367 1088
2021-05-15 23:55:50 GMT 48.884132 -123.620407 11,450 175 364 1152
2021-05-15 23:55:47 GMT 48.891350 -123.621346 11,375 175 362 1088
2021-05-15 23:55:44 GMT 48.893864 -123.621635 11,300 175 360 1088
2021-05-15 23:55:41 GMT 48.900658 -123.622498 11,250 175 357 1024
2021-05-15 23:55:38 GMT 48.904476 -123.622932 11,200 175 352 1088
2021-05-15 23:55:35 GMT 48.908249 -123.623367 11,150 175 352 1088
2021-05-15 23:55:32 GMT 48.913971 -123.624092 11,125 175 351 1088
2021-05-15 23:55:28 GMT 48.921066 -123.624992 11,050 176 347 1024
2021-05-15 23:55:25 GMT 48.924911 -123.625465 11,000 178 345 1024
2021-05-15 23:55:21 GMT 48.930500 -123.625679 10,900 185 339 1024
2021-05-15 23:55:18 GMT 48.937901 -123.625107 10,875 189 336 1024
2021-05-15 23:55:15 GMT 48.941158 -123.624527 10,825 192 333 960
2021-05-15 23:55:12 GMT 48.945908 -123.623299 10,775 196 331 960
2021-05-15 23:55:09 GMT 48.950409 -123.621613 10,725 199 329 960
2021-05-15 23:55:05 GMT 48.956039 -123.618866 10,650 205 324 896
2021-05-15 23:55:02 GMT 48.959499 -123.616646 10,600 209 320 896
2021-05-15 23:54:59 GMT 48.964294 -123.613029 10,575 213 317 832
2021-05-15 23:54:54 GMT 48.970905 -123.606819 10,500 215 313 896
2021-05-15 23:54:51 GMT 48.975002 -123.602554 10,450 215 310 896
2021-05-15 23:54:47 GMT 48.979111 -123.598236 10,400 215 306 896
2021-05-15 23:54:44 GMT 48.981995 -123.595139 10,350 215 304 896
2021-05-15 23:54:40 GMT 48.986641 -123.590263 10,300 215 299 832
2021-05-15 23:54:36 GMT 48.991295 -123.585274 10,225 215 295 1024
2021-05-15 23:54:33 GMT 48.995438 -123.580940 10,175 215 293 1344
2021-05-15 23:54:30 GMT 48.998795 -123.577385 10,100 215 292 1984
2021-05-15 23:54:26 GMT 49.003212 -123.572632 9,950 216 292 2112
2021-05-15 23:54:22 GMT 49.006760 -123.568863 9,775 216 291 2112
2021-05-15 23:54:19 GMT 49.010056 -123.565254 9,725 216 290 2112
2021-05-15 23:54:16 GMT 49.012802 -123.562294 9,550 217 290 2112
2021-05-15 23:54:13 GMT 49.017471 -123.557106 9,450 217 290 2112
2021-05-15 23:54:10 GMT 49.024071 -123.549713 9,350 217 289 2112
2021-05-15 23:54:07 GMT 49.024071 -123.549713 9,275 217 288 2048
2021-05-15 23:54:03 GMT 49.026955 -123.546463 9,175 217 288 2048
2021-05-15 23:54:00 GMT 49.031143 -123.541763 9,050 217 287 2112
2021-05-15 23:53:56 GMT 49.034775 -123.537743 8,925 217 287 2112
2021-05-15 23:53:51 GMT 49.041458 -123.530411 8,700 216 285 2240
2021-05-15 23:53:47 GMT 49.044132 -123.527458 8,625 216 285 2240
2021-05-15 23:53:44 GMT 49.047253 -123.524055 8,500 216 284 2240
2021-05-15 23:53:41 GMT 49.051952 -123.518929 8,350 216 284 2176
2021-05-15 23:53:38 GMT 49.053444 -123.517334 8,250 216 284 2176
2021-05-15 23:53:35 GMT 49.057755 -123.512741 8,150 216 283 2176
2021-05-15 23:53:31 GMT 49.061050 -123.509148 8,025 216 282 2176
2021-05-15 23:53:28 GMT 49.064800 -123.505196 7,850 215 281 2240
2021-05-15 23:53:25 GMT 49.068649 -123.501114 7,775 215 281 2240
2021-05-15 23:53:22 GMT 49.071877 -123.497749 7,650 215 280 2304
2021-05-15 23:53:17 GMT 49.077648 -123.491753 7,425 215 279 2240
2021-05-15 23:53:14 GMT 49.079681 -123.489639 7,375 215 279 2240
2021-05-15 23:53:11 GMT 49.082912 -123.486328 7,275 215 277 2240
2021-05-15 23:53:06 GMT 49.088745 -123.480270 7,075 215 277 2240
2021-05-15 23:53:03 GMT 49.091263 -123.477592 6,975 215 276 2240
2021-05-15 23:52:58 GMT 49.097580 -123.470978 6,750 215 275 2304
2021-05-15 23:52:54 GMT 49.101746 -123.466537 6,600 215 274 2304
2021-05-15 23:52:51 GMT 49.105488 -123.462547 6,450 216 273 2368
2021-05-15 23:52:47 GMT 49.109665 -123.458160 6,300 215 272 2368
2021-05-15 23:52:44 GMT 49.110794 -123.456909 6,150 215 272 2304
2021-05-15 23:52:40 GMT 49.116394 -123.451042 6,050 215 271 2240
2021-05-15 23:52:37 GMT 49.119499 -123.447731 5,900 215 270 2176
2021-05-15 23:52:34 GMT 49.121521 -123.445625 5,900 215 270 2176
2021-05-15 23:52:28 GMT 49.127701 -123.439217 5,650 215 267 2240
2021-05-15 23:52:25 GMT 49.131416 -123.435371 5,475 214 266 2368
2021-05-15 23:52:22 GMT 49.134212 -123.432556 5,400 214 266 2496
2021-05-15 23:52:18 GMT 49.138687 -123.428017 5,225 214 265 2496
2021-05-15 23:52:15 GMT 49.141380 -123.425255 5,100 214 265 2560
2021-05-15 23:52:11 GMT 49.144825 -123.421715 4,950 215 265 2752
2021-05-15 23:52:07 GMT 49.149479 -123.416870 4,750 216 265 2816
2021-05-15 23:52:04 GMT 49.152008 -123.414215 4,550 217 266 2688
2021-05-15 23:52:01 GMT 49.155396 -123.410477 4,475 217 265 2560
2021-05-15 23:51:58 GMT 49.159119 -123.406174 4,325 218 264 2368
2021-05-15 23:51:55 GMT 49.162376 -123.402489 4,075 224 262 2240
2021-05-15 23:51:51 GMT 49.164597 -123.399849 4,100 221 263 2304
2021-05-15 23:51:46 GMT 49.169636 -123.393158 3,875 228 262 2368
2021-05-15 23:51:42 GMT 49.173080 -123.387238 3,600 239 259 2560
2021-05-15 23:51:34 GMT 49.178158 -123.373428 3,350 254 257 2368
2021-05-15 23:51:30 GMT 49.179291 -123.368225 3,250 257 256 2176
2021-05-15 23:51:22 GMT 49.181213 -123.352165 2,925 262 250 1984
2021-05-15 23:51:19 GMT 49.181461 -123.349579 2,825 262 248 1600
2021-05-15 23:51:13 GMT 49.182678 -123.337379 2,700 262 244 1152
2021-05-15 23:51:10 GMT 49.183186 -123.332443 2,550 262 230 960
2021-05-15 23:51:01 GMT 49.184673 -123.317345 2,525 262 228 1024
2021-05-15 23:50:58 GMT 49.185001 -123.314163 2,475 262 227 1152
2021-05-15 23:50:49 GMT 49.186630 -123.298767 2,225 261 219 1856
2021-05-15 23:50:39 GMT 49.188492 -123.282730 1,950 261 211 896
2021-05-15 23:50:35 GMT 49.189144 -123.276863 1,925 261 198 896
2021-05-15 23:50:30 GMT 49.189747 -123.271301 1,875 261 200 832
2021-05-15 23:50:27 GMT 49.190353 -123.265518 1,800 262 191 1216
2021-05-15 23:50:23 GMT 49.190689 -123.262238 1,750 262 191 1216
2021-05-15 23:50:18 GMT 49.191467 -123.254066 1,625 263 185 1216
2021-05-15 23:50:14 GMT 49.191982 -123.247955 1,525 264 183 1152
2021-05-15 23:50:09 GMT 49.192383 -123.242302 1,450 268 179 960
2021-05-15 23:50:06 GMT 49.192474 -123.239906 1,425 272 176 960
2021-05-15 23:50:00 GMT 49.192261 -123.231400 1,275 278 172 1600
2021-05-15 23:49:57 GMT 49.191925 -123.227585 1,150 279 171 2240
We lost coverage of the aircraft here for a total of 9 minutes
2021-05-15 23:40:50 GMT 49.199421 -123.185364 0 188 15
2021-05-15 23:40:46 GMT 49.199604 -123.185333 0 188 15
2021-05-15 23:40:37 GMT 49.200233 -123.185158 0 188 14
2021-05-15 23:40:23 GMT 49.200977 -123.184959 0 230 11
2021-05-15 23:40:07 GMT 49.201061 -123.183502 0 281 15
2021-05-15 23:40:04 GMT 49.201050 -123.183334 0 281 15
2021-05-15 23:39:54 GMT 49.200920 -123.182213 0 278 14
2021-05-15 23:39:25 GMT 49.200634 -123.179665 0 281 12
2021-05-15 23:39:23 GMT 49.200611 -123.179436 0 281 11
2021-05-15 23:39:11 GMT 49.200462 -123.178619 0 334 10
2021-05-15 23:39:02 GMT 49.200069 -123.178474 0 2 11
We lost coverage of the aircraft here for a total of 109 minutes
2021-05-15 21:50:26 GMT 49.198231 -123.175682 0 154 5 0
2021-05-15 21:50:06 GMT 49.198803 -123.176056 0 157 8 0
2021-05-15 21:49:41 GMT 49.199284 -123.176758 0 101 8 0
2021-05-15 21:49:34 GMT 49.199326 -123.177101 0 98 11 0
2021-05-15 21:49:25 GMT 49.199409 -123.177834 0 115 9 0
2021-05-15 21:49:16 GMT 49.199558 -123.178314 0 160 8 0
2021-05-15 21:49:06 GMT 49.199898 -123.178436 0 182 9 0
2021-05-15 21:48:57 GMT 49.200302 -123.178406 0 140 9 0
2021-05-15 21:48:31 GMT 49.200665 -123.179955 0 101 18 0
2021-05-15 21:48:16 GMT 49.200886 -123.181900 0 98 16 0
2021-05-15 21:48:13 GMT 49.200909 -123.182106 0 98 16 0
2021-05-15 21:48:03 GMT 49.201023 -123.183220 0 98 15 0
2021-05-15 21:47:43 GMT 49.201252 -123.185188 0 98 15 0
2021-05-15 21:47:41 GMT 49.201286 -123.185486 0 101 15 0
2021-05-15 21:46:57 GMT 49.201641 -123.188507 0 149 7 0
2021-05-15 21:46:50 GMT 49.201839 -123.188744 0 205 9 0
2021-05-15 21:46:38 GMT 49.202168 -123.188324 0 250 12 0
2021-05-15 21:46:28 GMT 49.202339 -123.187569 0 250 15 0
2021-05-15 21:46:16 GMT 49.202614 -123.186424 0 250 14 0
2021-05-15 21:46:06 GMT 49.202827 -123.185509 0 250 15 0
2021-05-15 21:45:55 GMT 49.203140 -123.183075 0 281 53 0
2021-05-15 21:45:45 GMT 49.203140 -123.183075 0 275 25 0
2021-05-15 21:45:36 GMT 49.202820 -123.180122 -50 281 72 0
2021-05-15 21:45:15 GMT 49.201126 -123.165115 -150 280 125 -448
2021-05-15 21:45:03 GMT 49.200085 -123.155945 0 280 126 -704
2021-05-15 21:44:52 GMT 49.198975 -123.146385 150 280 126 -768
2021-05-15 21:44:47 GMT 49.198406 -123.140984 200 280 127 -576
2021-05-15 21:44:42 GMT 49.197510 -123.133217 300 280 127 -768
2021-05-15 21:44:39 GMT 49.197662 -123.134552 275 280 127 -704
2021-05-15 21:44:27 GMT 49.196449 -123.123993 425 280 126 -576
2021-05-15 21:44:16 GMT 49.195335 -123.114311 525 280 130 -576
2021-05-15 21:44:05 GMT 49.194214 -123.104202 675 281 131 -768
2021-05-15 21:43:56 GMT 49.193115 -123.095184 775 281 132 -704
2021-05-15 21:43:45 GMT 49.192028 -123.085686 900 280 132 -704
2021-05-15 21:43:35 GMT 49.190956 -123.076073 1,025 280 134 -704
2021-05-15 21:43:24 GMT 49.189796 -123.065811 1,150 281 145 -704
2021-05-15 21:43:19 GMT 49.189133 -123.060608 1,225 281 146 -896
2021-05-15 21:43:14 GMT 49.188492 -123.055046 1,300 280 147 -768
2021-05-15 21:43:10 GMT 49.187981 -123.050850 1,350 280 147 -768
2021-05-15 21:43:03 GMT 49.187233 -123.043839 1,450 280 146 -768
2021-05-15 21:42:59 GMT 49.186863 -123.040298 1,475 280 146 -640
2021-05-15 21:42:55 GMT 49.186352 -123.035889 1,525 281 146 -576
2021-05-15 21:42:52 GMT 49.186066 -123.033279 1,550 280 146 -640
2021-05-15 21:42:48 GMT 49.185513 -123.028587 1,600 280 145 -640
2021-05-15 21:42:42 GMT 49.184830 -123.022156 1,675 280 146 -768
2021-05-15 21:42:37 GMT 49.184372 -123.017998 1,725 281 147 -896
2021-05-15 21:42:31 GMT 49.183502 -123.010818 1,850 281 150 -1024
2021-05-15 21:42:24 GMT 49.182632 -123.003700 1,950 281 151 -896
2021-05-15 21:42:21 GMT 49.182346 -123.001266 2,000 281 155 -768
2021-05-15 21:42:17 GMT 49.181808 -122.996872 2,025 280 157 -704
2021-05-15 21:42:12 GMT 49.181305 -122.992645 2,075 280 160 -704
2021-05-15 21:42:09 GMT 49.180756 -122.987579 2,125 280 163 -896
2021-05-15 21:42:03 GMT 49.179974 -122.980957 2,200 280 167 -832
2021-05-15 21:41:59 GMT 49.179554 -122.977051 2,250 280 169 -896
2021-05-15 21:41:56 GMT 49.179089 -122.973007 2,325 280 170 -896
2021-05-15 21:41:53 GMT 49.178806 -122.970619 2,350 280 170 -832
2021-05-15 21:41:49 GMT 49.178101 -122.964691 2,425 281 172 -896
2021-05-15 21:41:46 GMT 49.177551 -122.959763 2,475 280 174 -1024
2021-05-15 21:41:42 GMT 49.177094 -122.955742 2,550 280 174 -960
2021-05-15 21:41:38 GMT 49.176666 -122.952118 2,650 281 174 -960
2021-05-15 21:41:35 GMT 49.176178 -122.947998 2,675 281 174 -1024
2021-05-15 21:41:31 GMT 49.175629 -122.943207 2,750 281 174 -960
2021-05-15 21:41:28 GMT 49.175224 -122.939613 2,750 281 175 -896
2021-05-15 21:41:24 GMT 49.174431 -122.933037 2,825 281 175 -704
2021-05-15 21:41:21 GMT 49.174061 -122.930077 2,850 281 177 -448
2021-05-15 21:41:18 GMT 49.173843 -122.928139 2,875 281 178 -320
2021-05-15 21:41:13 GMT 49.172802 -122.919807 2,900 281 183 -320
2021-05-15 21:41:10 GMT 49.172432 -122.916489 2,925 281 185 -320
2021-05-15 21:41:07 GMT 49.172012 -122.913139 2,925 281 185 -320
2021-05-15 21:41:02 GMT 49.171360 -122.907448 2,950 281 189 -320
2021-05-15 21:40:59 GMT 49.170822 -122.902855 2,975 281 192 -256
2021-05-15 21:40:56 GMT 49.170288 -122.898705 3,000 281 195 -192
2021-05-15 21:40:53 GMT 49.169125 -122.888802 3,000 281 198 -192
2021-05-15 21:40:49 GMT 49.169125 -122.888802 3,025 281 200 -448
2021-05-15 21:40:45 GMT 49.168522 -122.883957 3,050 281 201 -512
2021-05-15 21:40:41 GMT 49.167892 -122.878914 3,075 281 202 -896
2021-05-15 21:40:36 GMT 49.166840 -122.870247 3,200 281 201 -1024
2021-05-15 21:40:32 GMT 49.165558 -122.859756 3,275 281 201 -832
2021-05-15 21:40:28 GMT 49.165558 -122.859756 3,325 281 202 -832
2021-05-15 21:40:24 GMT 49.164890 -122.854256 3,375 281 202 -896
2021-05-15 21:40:21 GMT 49.164330 -122.849625 3,425 280 203 -896
2021-05-15 21:40:17 GMT 49.163631 -122.843842 3,500 279 204 -1024
2021-05-15 21:40:14 GMT 49.163212 -122.839867 3,525 279 204 -1024
2021-05-15 21:40:10 GMT 49.162582 -122.833488 3,600 277 207 -768
2021-05-15 21:40:05 GMT 49.162170 -122.827499 3,625 275 207 -640
2021-05-15 21:40:02 GMT 49.162048 -122.823822 3,675 271 210 -640
2021-05-15 21:39:58 GMT 49.162048 -122.817894 3,725 266 212 -768
2021-05-15 21:39:55 GMT 49.162468 -122.811462 3,775 259 215 -832
2021-05-15 21:39:51 GMT 49.163307 -122.806259 3,825 255 217 -768
2021-05-15 21:39:48 GMT 49.164284 -122.802216 3,850 245 222 -768
2021-05-15 21:39:45 GMT 49.165100 -122.799332 3,875 239 225 -960
2021-05-15 21:39:42 GMT 49.167076 -122.793831 3,950 237 225 -1344
2021-05-15 21:39:38 GMT 49.170055 -122.787254 4,100 232 226 -1728
2021-05-15 21:39:34 GMT 49.172653 -122.782219 4,200 231 226 -1728
2021-05-15 21:39:27 GMT 49.177048 -122.774048 4,400 232 227 -1728
2021-05-15 21:39:22 GMT 49.179474 -122.769470 4,825 232 228 -1792
2021-05-15 21:39:16 GMT 49.184235 -122.760452 4,750 232 228 -1792
2021-05-15 21:39:13 GMT 49.186569 -122.756088 4,825 232 228 -1792
2021-05-15 21:39:08 GMT 49.189316 -122.750809 4,950 232 227 -1792
2021-05-15 21:39:04 GMT 49.191608 -122.746559 5,075 231 228 -1728
2021-05-15 21:39:01 GMT 49.193657 -122.742653 5,125 231 228 -1728
2021-05-15 21:38:54 GMT 49.198593 -122.733475 5,400 231 228 -1728
2021-05-15 21:38:51 GMT 49.200577 -122.729683 5,425 231 228 -1728
2021-05-15 21:38:46 GMT 49.203598 -122.724113 5,550 232 228 -1728
2021-05-15 21:38:42 GMT 49.206322 -122.718948 5,750 232 228 -1664
2021-05-15 21:38:39 GMT 49.209229 -122.713409 5,800 232 228 -1664
2021-05-15 21:38:36 GMT 49.210464 -122.710999 5,850 232 228 -1600
2021-05-15 21:38:33 GMT 49.212845 -122.706512 5,975 232 228 -1600
2021-05-15 21:38:30 GMT 49.214767 -122.702850 6,125 232 228 -1472
2021-05-15 21:38:25 GMT 49.217167 -122.698349 6,100 232 228 -1600
2021-05-15 21:38:21 GMT 49.220398 -122.692352 6,250 231 230 -1408
2021-05-15 21:38:16 GMT 49.224243 -122.685028 6,375 231 230 -1408
2021-05-15 21:38:09 GMT 49.228958 -122.676155 6,525 231 233 -1216
2021-05-15 21:38:05 GMT 49.230789 -122.672707 6,575 232 235 -1088
2021-05-15 21:38:01 GMT 49.234486 -122.665749 6,650 231 238 -768
2021-05-15 21:37:58 GMT 49.236557 -122.661789 6,675 231 240 -768
2021-05-15 21:37:54 GMT 49.238388 -122.658340 6,725 231 242 -768
2021-05-15 21:37:50 GMT 49.242096 -122.651436 6,775 232 248 -704
2021-05-15 21:37:45 GMT 49.245705 -122.644646 6,850 231 250 -768
2021-05-15 21:37:41 GMT 49.248684 -122.638931 6,875 231 255 -640
2021-05-15 21:37:37 GMT 49.251755 -122.633224 6,925 231 258 -384
2021-05-15 21:37:34 GMT 49.253292 -122.630264 6,925 231 260 -448
2021-05-15 21:37:27 GMT 49.258713 -122.620094 7,000 232 263 -448
2021-05-15 21:37:24 GMT 49.261021 -122.615730 7,025 232 265 -384
2021-05-15 21:37:18 GMT 49.265583 -122.607063 7,050 232 270 -320
2021-05-15 21:37:14 GMT 49.269119 -122.600410 7,075 232 273 -256
2021-05-15 21:37:08 GMT 49.274139 -122.590874 7,100 232 278 -320
2021-05-15 21:37:03 GMT 49.277359 -122.584801 7,125 232 279 -704
2021-05-15 21:36:59 GMT 49.281189 -122.577560 7,225 232 280 -1152
2021-05-15 21:36:56 GMT 49.283970 -122.572296 7,300 232 281 -1152
2021-05-15 21:36:53 GMT 49.285927 -122.568535 7,325 232 282 -1088
2021-05-15 21:36:48 GMT 49.289696 -122.561378 7,450 232 282 -1344
2021-05-15 21:36:45 GMT 49.292721 -122.555672 7,500 232 282 -1472
2021-05-15 21:36:42 GMT 49.295013 -122.551292 7,575 232 282 -1536
2021-05-15 21:36:37 GMT 49.298309 -122.545044 7,675 232 282 -1600
2021-05-15 21:36:34 GMT 49.301704 -122.538689 7,775 231 283 -1664
2021-05-15 21:36:31 GMT 49.303753 -122.534782 7,850 231 284 -1600
2021-05-15 21:36:26 GMT 49.308151 -122.526573 7,975 231 285 -1088
2021-05-15 21:36:21 GMT 49.312508 -122.518372 8,075 231 287 -1152
2021-05-15 21:36:16 GMT 49.315720 -122.512451 8,225 231 288 -1216
2021-05-15 21:36:10 GMT 49.321518 -122.501503 8,275 231 288 -1216
2021-05-15 21:36:06 GMT 49.324860 -122.495163 8,375 231 290 -1216
2021-05-15 21:36:02 GMT 49.328754 -122.487869 8,475 231 290 -1216
2021-05-15 21:35:59 GMT 49.330151 -122.485268 8,500 232 290 -1216
2021-05-15 21:35:54 GMT 49.335297 -122.475586 8,625 231 292 -1152
2021-05-15 21:35:50 GMT 49.339050 -122.468475 8,700 231 292 -1088
2021-05-15 21:35:46 GMT 49.342300 -122.462433 8,775 231 293 -1152
2021-05-15 21:35:43 GMT 49.344162 -122.458817 8,825 232 294 -1152
2021-05-15 21:35:39 GMT 49.347748 -122.452026 8,875 232 295 -1024
2021-05-15 21:35:33 GMT 49.353565 -122.440895 9,000 232 296 -1024
2021-05-15 21:35:29 GMT 49.356537 -122.435165 9,075 232 297 -1216
2021-05-15 21:35:25 GMT 49.360035 -122.428391 9,150 232 297 -1344
2021-05-15 21:35:21 GMT 49.363129 -122.422485 9,250 232 297 -1344
2021-05-15 21:35:17 GMT 49.365601 -122.417694 9,300 232 298 -1344
2021-05-15 21:35:10 GMT 49.372002 -122.405258 9,525 232 298 -1408
2021-05-15 21:35:07 GMT 49.374977 -122.399475 9,550 232 298 -1408
2021-05-15 21:35:02 GMT 49.379215 -122.391167 9,675 233 298 -1472
2021-05-15 21:34:59 GMT 49.380939 -122.387772 9,725 233 298 -1472
2021-05-15 21:34:56 GMT 49.384617 -122.380394 9,825 233 297 -1472
2021-05-15 21:34:52 GMT 49.388199 -122.373169 9,950 234 297 -1472
2021-05-15 21:34:49 GMT 49.389362 -122.370857 9,975 234 297 -1472
2021-05-15 21:34:46 GMT 49.394157 -122.361023 10,125 234 297 -1536
2021-05-15 21:34:40 GMT 49.398163 -122.352783 10,250 234 296 -1600
2021-05-15 21:34:37 GMT 49.400581 -122.347870 10,325 234 297 -1536
2021-05-15 21:34:34 GMT 49.403137 -122.342484 10,400 236 296 -1536
2021-05-15 21:34:29 GMT 49.406216 -122.335724 10,500 237 296 -1344
2021-05-15 21:34:26 GMT 49.408356 -122.330811 10,600 238 296 -1216
2021-05-15 21:34:23 GMT 49.416039 -122.311874 10,675 239 297 -1152
2021-05-15 21:34:16 GMT 49.416039 -122.311874 10,750 239 299 -896
2021-05-15 21:34:12 GMT 49.419109 -122.304070 10,850 239 302 -640
2021-05-15 21:34:09 GMT 49.421173 -122.298958 10,850 239 303 -640
2021-05-15 21:34:04 GMT 49.424278 -122.291061 10,900 239 305 -640
2021-05-15 21:34:01 GMT 49.426758 -122.284805 10,925 239 307 -704
2021-05-15 21:33:58 GMT 49.428982 -122.279243 10,975 239 308 -640
2021-05-15 21:33:55 GMT 49.431931 -122.271759 11,000 239 311 -512
2021-05-15 21:33:51 GMT 49.434940 -122.264175 11,050 239 314 -512
2021-05-15 21:33:47 GMT 49.436600 -122.259979 11,050 239 315 -512
2021-05-15 21:33:43 GMT 49.439713 -122.252174 11,075 239 318 -512
2021-05-15 21:33:38 GMT 49.444668 -122.239525 11,150 239 323 -640
2021-05-15 21:33:34 GMT 49.447834 -122.231514 11,200 239 325 -768
2021-05-15 21:33:29 GMT 49.451385 -122.222397 11,300 239 327 -1152
2021-05-15 21:33:26 GMT 49.453033 -122.218201 11,300 239 327 -1152
2021-05-15 21:33:22 GMT 49.455841 -122.211021 11,400 239 328 -1600
2021-05-15 21:33:17 GMT 49.460403 -122.199486 11,550 239 328 -1664
2021-05-15 21:33:12 GMT 49.464455 -122.189270 11,700 239 330 -1664
2021-05-15 21:33:07 GMT 49.468830 -122.178284 11,850 239 330 -1664
2021-05-15 21:33:02 GMT 49.472786 -122.168266 11,975 239 331 -1664
2021-05-15 21:32:56 GMT 49.477066 -122.157486 12,125 239 331 -1664
2021-05-15 21:32:51 GMT 49.481232 -122.147079 12,275 239 331 -1664
2021-05-15 21:32:44 GMT 49.485958 -122.135231 12,425 239 331 -1600
2021-05-15 21:32:40 GMT 49.490707 -122.123650 12,600 239 332 -1600
2021-05-15 21:32:35 GMT 49.494339 -122.114670 12,725 239 332 -1664
2021-05-15 21:32:32 GMT 49.497116 -122.107834 12,825 239 333 -1664
2021-05-15 21:32:29 GMT 49.498669 -122.104057 12,825 239 333 -1664
2021-05-15 21:32:24 GMT 49.503113 -122.092941 13,025 239 332 -1664
2021-05-15 21:32:20 GMT 49.507282 -122.082451 13,150 237 333 -1664
2021-05-15 21:32:14 GMT 49.511032 -122.073570 13,300 235 334 -1664
2021-05-15 21:32:11 GMT 49.514740 -122.065620 13,425 232 335 -1600
2021-05-15 21:32:08 GMT 49.516068 -122.063019 13,425 232 335 -1600
2021-05-15 21:32:03 GMT 49.524765 -122.047119 13,600 228 336 -1600
2021-05-15 21:32:00 GMT 49.524765 -122.047119 13,750 224 338 -1600
2021-05-15 21:31:57 GMT 49.528336 -122.041412 13,750 224 338 -1600
2021-05-15 21:31:51 GMT 49.534981 -122.031609 13,925 221 338 -1600
2021-05-15 21:31:48 GMT 49.538544 -122.026878 14,000 219 339 -1600
2021-05-15 21:31:41 GMT 49.547596 -122.016090 14,200 218 340 -1600
2021-05-15 21:31:38 GMT 49.552250 -122.010674 14,300 218 342 -1600
2021-05-15 21:31:33 GMT 49.556808 -122.005417 14,450 218 342 -1600
2021-05-15 21:31:29 GMT 49.562210 -121.999123 14,500 218 342 -1664
2021-05-15 21:31:26 GMT 49.565643 -121.995148 14,575 218 343 -1664
2021-05-15 21:31:19 GMT 49.575947 -121.983055 14,800 218 343 -1664
2021-05-15 21:31:14 GMT 49.581390 -121.976669 14,950 218 344 -1600
2021-05-15 21:31:11 GMT 49.585693 -121.971657 15,000 218 344 -1600
2021-05-15 21:31:06 GMT 49.592789 -121.963348 15,175 218 345 -1600
2021-05-15 21:30:58 GMT 49.601944 -121.952652 15,375 218 346 -1600
2021-05-15 21:30:55 GMT 49.605148 -121.948967 15,425 218 346 -1600
2021-05-15 21:30:50 GMT 49.611790 -121.941193 15,575 218 347 -1600
2021-05-15 21:30:45 GMT 49.618168 -121.933769 15,700 218 348 -1664
2021-05-15 21:30:41 GMT 49.622402 -121.928871 15,800 218 348 -1600
2021-05-15 21:30:36 GMT 49.629852 -121.920181 16,000 218 349 -1600
2021-05-15 21:30:33 GMT 49.632412 -121.917137 16,000 218 349 -1600
2021-05-15 21:30:29 GMT 49.639629 -121.908752 16,150 218 349 -1664
2021-05-15 21:30:24 GMT 49.645912 -121.901329 16,300 218 351 -1664
2021-05-15 21:30:21 GMT 49.648499 -121.898300 16,350 218 351 -1664
2021-05-15 21:30:17 GMT 49.653130 -121.892868 16,450 218 351 -1664
2021-05-15 21:30:14 GMT 49.658157 -121.886925 16,550 218 351 -1664
2021-05-15 21:30:11 GMT 49.661499 -121.882973 16,625 218 351 -1664
2021-05-15 21:30:08 GMT 49.665882 -121.877869 16,725 218 351 -1600
2021-05-15 21:30:03 GMT 49.673309 -121.869171 16,875 218 353 -1664
2021-05-15 21:29:56 GMT 49.679810 -121.861580 17,000 218 354 -1664
2021-05-15 21:29:53 GMT 49.685810 -121.854637 17,175 218 354 -1664
2021-05-15 21:29:50 GMT 49.688557 -121.851372 17,200 218 354 -1664
2021-05-15 21:29:47 GMT 49.693352 -121.845726 17,300 218 355 -1664
2021-05-15 21:29:42 GMT 49.698982 -121.839195 17,475 218 355 -1664
2021-05-15 21:29:39 GMT 49.703979 -121.833389 17,575 218 358 -1664
2021-05-15 21:29:35 GMT 49.708832 -121.827682 17,625 218 356 -1664
2021-05-15 21:29:29 GMT 49.715927 -121.819366 17,775 218 357 -1664
2021-05-15 21:29:24 GMT 49.722382 -121.811852 17,900 218 358 -1664
2021-05-15 21:29:18 GMT 49.730732 -121.802078 18,075 218 360 -1664
2021-05-15 21:29:13 GMT 49.736691 -121.795174 18,200 218 360 -1664
2021-05-15 21:29:09 GMT 49.743019 -121.787682 18,350 218 360 -1664
2021-05-15 21:29:02 GMT 49.751774 -121.777435 18,525 218 361 -1664
2021-05-15 21:28:59 GMT 49.756939 -121.771271 18,775 218 362 -1728
2021-05-15 21:28:53 GMT 49.763180 -121.763924 18,775 218 362 -1728
2021-05-15 21:28:48 GMT 49.771698 -121.753906 19,350 218 363 -1792
2021-05-15 21:28:44 GMT 49.777328 -121.747299 19,075 218 363 -1856
2021-05-15 21:28:37 GMT 49.786686 -121.736237 19,350 218 364 -2368
2021-05-15 21:28:32 GMT 49.791229 -121.730904 19,400 218 366 -1536
2021-05-15 21:28:29 GMT 49.796696 -121.724434 19,475 218 366 -1536
2021-05-15 21:28:23 GMT 49.804379 -121.715378 19,675 218 365 -2496
2021-05-15 21:28:15 GMT 49.814804 -121.703003 20,000 218 364 -1856
2021-05-15 21:28:12 GMT 49.818832 -121.698303 20,075 218 365 -1664
2021-05-15 21:28:07 GMT 49.826210 -121.689621 20,225 218 366 -1664
2021-05-15 21:28:01 GMT 49.834717 -121.679581 20,400 218 367 -1664
2021-05-15 21:27:56 GMT 49.839157 -121.674309 20,500 218 368 -1664
2021-05-15 21:27:47 GMT 49.853863 -121.656883 20,800 218 369 -1728
2021-05-15 21:27:41 GMT 49.860611 -121.648865 20,925 218 370 -1728
2021-05-15 21:27:37 GMT 49.867126 -121.641060 21,075 218 370 -1728
2021-05-15 21:27:34 GMT 49.871227 -121.636246 21,550 218 374 -1728
2021-05-15 21:27:31 GMT 49.874622 -121.632240 21,225 218 372 -1664
2021-05-15 21:27:26 GMT 49.882259 -121.623177 21,375 218 373 -1664
2021-05-15 21:27:23 GMT 49.884888 -121.620094 21,450 218 373 -1664
2021-05-15 21:27:13 GMT 49.899078 -121.603477 21,725 218 378 -1728
2021-05-15 21:27:05 GMT 49.910843 -121.589600 21,975 218 377 -1728
2021-05-15 21:27:02 GMT 49.914871 -121.584824 22,050 218 378 -1728
2021-05-15 21:26:53 GMT 49.925411 -121.572403 23,325 218 380 -1728
2021-05-15 21:26:48 GMT 49.932816 -121.563644 22,425 218 381 -1728
2021-05-15 21:26:45 GMT 49.937565 -121.558006 22,525 218 381 -1728
2021-05-15 21:26:42 GMT 49.940781 -121.554176 22,575 218 381 -1728
2021-05-15 21:26:32 GMT 49.956757 -121.535172 22,900 218 384 -1728
2021-05-15 21:26:21 GMT 49.970337 -121.519035 23,300 218 387 -1728
2021-05-15 21:26:15 GMT 49.981647 -121.505524 23,400 218 390 -1728
2021-05-15 21:26:12 GMT 49.985188 -121.501289 23,475 218 390 -1728
2021-05-15 21:26:03 GMT 49.996216 -121.488190 23,700 218 390 -1728
2021-05-15 21:26:00 GMT 50.001205 -121.482193 23,800 218 391 -1728
2021-05-15 21:25:56 GMT 50.007248 -121.475037 23,975 218 393 -1728
2021-05-15 21:25:53 GMT 50.011440 -121.470039 24,000 218 394 -1728
2021-05-15 21:25:49 GMT 50.026016 -121.452698 24,475 218 396 -1728
2021-05-15 21:25:43 GMT 50.026016 -121.452698 24,300 218 395 -1728
2021-05-15 21:25:34 GMT 50.038071 -121.438339 24,550 218 396 -1728
2021-05-15 21:25:27 GMT 50.050598 -121.423355 24,800 218 399 -1728
2021-05-15 21:25:19 GMT 50.062325 -121.409470 25,025 218 402 -1792
2021-05-15 21:25:14 GMT 50.067444 -121.403305 25,100 218 400 -1792
2021-05-15 21:25:11 GMT 50.072563 -121.397141 25,225 218 402 -1792
2021-05-15 21:25:08 GMT 50.078754 -121.389725 25,350 218 402 -1792
2021-05-15 21:25:03 GMT 50.085972 -121.381111 25,500 218 403 -1792
2021-05-15 21:24:56 GMT 50.093674 -121.371895 25,650 218 404 -1792
2021-05-15 21:24:51 GMT 50.102509 -121.361198 25,825 218 405 -1728
2021-05-15 21:24:46 GMT 50.108414 -121.354111 25,950 218 405 -1728
2021-05-15 21:24:36 GMT 50.123817 -121.335457 26,250 218 407 -1792
2021-05-15 21:24:25 GMT 50.139462 -121.316605 26,575 218 409 -1792
2021-05-15 21:24:20 GMT 50.149475 -121.304527 26,775 218 409 -1792
2021-05-15 21:24:16 GMT 50.155014 -121.297882 26,875 218 411 -1792
2021-05-15 21:24:11 GMT 50.162968 -121.288246 27,025 218 414 -1792
2021-05-15 21:24:04 GMT 50.171265 -121.278290 27,200 218 412 -1792
2021-05-15 21:23:59 GMT 50.179230 -121.268608 27,350 218 414 -1792
2021-05-15 21:23:53 GMT 50.188152 -121.257812 27,500 218 414 -1792
2021-05-15 21:23:50 GMT 50.194519 -121.250107 27,675 218 415 -1856
2021-05-15 21:23:45 GMT 50.201328 -121.241852 27,800 219 420 -1856
2021-05-15 21:23:42 GMT 50.205872 -121.236298 27,900 218 417 -1856
2021-05-15 21:23:32 GMT 50.221394 -121.217430 28,200 219 418 -1856
2021-05-15 21:23:27 GMT 50.228668 -121.208473 28,350 219 420 -1856
2021-05-15 21:23:24 GMT 50.236633 -121.198784 28,525 218 421 -1856
2021-05-15 21:23:17 GMT 50.242760 -121.191299 28,625 218 422 -1856
2021-05-15 21:23:09 GMT 50.257553 -121.173347 28,925 219 423 -1856
2021-05-15 21:23:01 GMT 50.268223 -121.160347 29,125 219 430 -1856
2021-05-15 21:22:58 GMT 50.272568 -121.155060 29,250 218 426 -1856
2021-05-15 21:22:55 GMT 50.277374 -121.149200 29,325 218 427 -1920
2021-05-15 21:22:52 GMT 50.281860 -121.143707 29,425 219 428 -1856
2021-05-15 21:22:49 GMT 50.287777 -121.136444 29,550 218 428 -1856
2021-05-15 21:22:41 GMT 50.298248 -121.123688 29,750 219 430 -1856
2021-05-15 21:22:38 GMT 50.303558 -121.117218 29,850 219 430 -1856
2021-05-15 21:22:32 GMT 50.331394 -121.083145 30,275 218 433 -1920
2021-05-15 21:22:20 GMT 50.331394 -121.083145 30,625 219 435 -1920
2021-05-15 21:22:10 GMT 50.348389 -121.062431 30,775 219 438 -1984
2021-05-15 21:22:03 GMT 50.360458 -121.047653 31,025 219 438 -1984
2021-05-15 21:22:00 GMT 50.365402 -121.041580 31,125 219 439 -1984
2021-05-15 21:21:57 GMT 50.370033 -121.035934 31,225 219 440 -1984
2021-05-15 21:21:45 GMT 50.388283 -121.013512 31,575 219 442 -1984
2021-05-15 21:21:34 GMT 50.407471 -120.989975 31,975 219 445 -1984
2021-05-15 21:21:24 GMT 50.421566 -120.972610 32,275 219 447 -1984
2021-05-15 21:21:17 GMT 50.434891 -120.956223 32,525 219 449 -1984
2021-05-15 21:21:14 GMT 50.438965 -120.951233 32,625 219 450 -1984
2021-05-15 21:21:03 GMT 50.455811 -120.930489 32,950 219 452 -1984
2021-05-15 21:20:56 GMT 50.472729 -120.909515 34,525 219 462 -2112
2021-05-15 21:20:53 GMT 50.472729 -120.909515 33,300 219 455 -1984
2021-05-15 21:20:44 GMT 50.486481 -120.892616 33,600 219 457 -2048
2021-05-15 21:20:35 GMT 50.502274 -120.873169 33,925 219 459 -2048
2021-05-15 21:20:26 GMT 50.517151 -120.854744 34,250 219 462 -2112
2021-05-15 21:20:24 GMT 50.522003 -120.848740 34,250 219 462 -2112
2021-05-15 21:20:17 GMT 50.531895 -120.836548 34,525 219 462 -2112
2021-05-15 21:20:12 GMT 50.550430 -120.813614 34,825 219 465 -2112
2021-05-15 21:20:07 GMT 50.550430 -120.813614 34,925 219 468 -2112
2021-05-15 21:20:03 GMT 50.556702 -120.805878 35,050 219 467 -2112
2021-05-15 21:19:55 GMT 50.569107 -120.790558 35,300 219 468 -2112
2021-05-15 21:19:52 GMT 50.575562 -120.782578 35,425 219 469 -2112
2021-05-15 21:19:46 GMT 50.584595 -120.771370 35,625 219 470 -2112
2021-05-15 21:19:41 GMT 50.592636 -120.761505 35,800 219 472 -2112
2021-05-15 21:19:37 GMT 50.600468 -120.751770 35,950 219 472 -2112
2021-05-15 21:19:32 GMT 50.611126 -120.738556 36,175 219 474 -2112
2021-05-15 21:19:27 GMT 50.617813 -120.730278 36,300 219 474 -2112
2021-05-15 21:19:21 GMT 50.627934 -120.717697 36,500 219 476 -2112
2021-05-15 21:19:15 GMT 50.637756 -120.705452 36,700 219 477 -2112
2021-05-15 21:19:11 GMT 50.646240 -120.694931 36,875 219 477 -2176
2021-05-15 21:19:06 GMT 50.653381 -120.686111 37,025 219 478 -2176
2021-05-15 21:18:56 GMT 50.671921 -120.662987 37,425 219 478 -2048
2021-05-15 21:18:46 GMT 50.687847 -120.643082 37,725 219 478 -1600
2021-05-15 21:18:37 GMT 50.704788 -120.621864 37,925 219 477 -832
2021-05-15 21:18:26 GMT 50.722412 -120.599815 38,000 219 476 -64
2021-05-15 21:18:17 GMT 50.738937 -120.579109 38,000 219 476 0
2021-05-15 21:18:07 GMT 50.756287 -120.557281 38,000 219 476 0
2021-05-15 21:17:57 GMT 50.772949 -120.536423 38,000 219 475 0
2021-05-15 21:17:47 GMT 50.790619 -120.514153 38,000 219 476 0
2021-05-15 21:17:36 GMT 50.809708 -120.490181 38,000 219 475 0
2021-05-15 21:17:27 GMT 50.828064 -120.467094 38,000 219 475 0
2021-05-15 21:17:17 GMT 50.842987 -120.448311 38,000 219 474 0
2021-05-15 21:17:15 GMT 50.845890 -120.444641 38,000 219 474 0
2021-05-15 21:17:07 GMT 50.859764 -120.427170 38,000 219 474 0
2021-05-15 21:17:03 GMT 50.864372 -120.421371 38,000 219 474 0
2021-05-15 21:16:56 GMT 50.877228 -120.405182 38,000 219 474 0
2021-05-15 21:16:46 GMT 50.894676 -120.383148 38,000 219 474 0
2021-05-15 21:16:36 GMT 50.911575 -120.361786 38,000 219 473 64
2021-05-15 21:16:25 GMT 50.929173 -120.339508 38,000 219 474 0
2021-05-15 21:16:16 GMT 50.945251 -120.319145 38,000 219 474 0
2021-05-15 21:16:05 GMT 50.964569 -120.294647 38,000 219 475 0
2021-05-15 21:15:55 GMT 50.981873 -120.272751 38,000 219 475 0
2021-05-15 21:15:45 GMT 50.998302 -120.251846 38,000 219 475 0
2021-05-15 21:15:35 GMT 51.015381 -120.230141 38,000 219 475 0
2021-05-15 21:15:26 GMT 51.031540 -120.209656 38,000 219 476 0
2021-05-15 21:15:11 GMT 51.057610 -120.176620 38,000 219 476 0
2021-05-15 21:15:05 GMT 51.066360 -120.165482 38,000 219 476 0
2021-05-15 21:14:54 GMT 51.085556 -120.140991 38,000 219 476 0
2021-05-15 21:14:45 GMT 51.100998 -120.121307 38,000 219 476 0
2021-05-15 21:14:26 GMT 51.136047 -120.076332 38,000 219 475 0
2021-05-15 21:14:23 GMT 51.139481 -120.071953 38,000 219 475 0
2021-05-15 21:14:15 GMT 51.153831 -120.053558 38,000 219 475 0
2021-05-15 21:13:57 GMT 51.184418 -120.014343 38,000 219 475 0
2021-05-15 21:13:54 GMT 51.187820 -120.009972 38,000 219 475 0
2021-05-15 21:13:46 GMT 51.202854 -119.990692 38,000 219 475 0
2021-05-15 21:13:35 GMT 51.220963 -119.967438 38,000 219 475 0
2021-05-15 21:13:25 GMT 51.237488 -119.946136 38,000 220 474 0
2021-05-15 21:12:59 GMT 51.283249 -119.887009 38,000 220 474 0
2021-05-15 21:12:51 GMT 51.295490 -119.871216 38,000 220 474 0
2021-05-15 21:12:40 GMT 51.315884 -119.844742 38,000 220 474 0
2021-05-15 21:12:31 GMT 51.332687 -119.822998 38,000 220 474 0
2021-05-15 21:11:36 GMT 51.427048 -119.700500 38,000 220 473 64
2021-05-15 21:11:34 GMT 51.428909 -119.698105 38,000 220 473 64
2021-05-15 21:11:22 GMT 51.445995 -119.675827 38,000 220 473 64
2021-05-15 21:10:23 GMT 51.549480 -119.542847 38,000 218 471 0
2021-05-15 21:10:17 GMT 51.557953 -119.532471 38,000 218 471 0
2021-05-15 21:10:09 GMT 51.573036 -119.514160 38,000 217 471 0
2021-05-15 21:10:01 GMT 51.585697 -119.499207 38,000 216 472 0
2021-05-15 21:09:50 GMT 51.605301 -119.477058 38,000 215 473 0
2021-05-15 21:09:40 GMT 51.623547 -119.457626 38,000 213 474 0
2021-05-15 21:09:31 GMT 51.640686 -119.440689 38,000 211 475 0
2021-05-15 21:09:20 GMT 51.661331 -119.421310 38,000 211 475 0
2021-05-15 21:09:09 GMT 51.682388 -119.401627 38,000 211 475 0
2021-05-15 21:09:00 GMT 51.699234 -119.385834 38,000 211 474 0
2021-05-15 21:08:51 GMT 51.716858 -119.369347 38,000 211 475 0
2021-05-15 21:08:41 GMT 51.736759 -119.350662 38,000 211 475 0
2021-05-15 21:08:16 GMT 51.783600 -119.306847 38,000 211 474 0
2021-05-15 21:03:49 GMT 52.282211 -118.831581 38,000 211 468 0
2021-05-15 21:02:52 GMT 52.389816 -118.727417 38,000 211 470 0
2021-05-15 21:02:45 GMT 52.400875 -118.716690 38,000 211 471 0
2021-05-15 21:02:36 GMT 52.419029 -118.699112 38,000 211 472 0
2021-05-15 21:02:26 GMT 52.437149 -118.681488 38,000 211 472 0
2021-05-15 21:01:08 GMT 52.582523 -118.539345 38,000 211 472 0
2021-05-15 21:01:02 GMT 52.593925 -118.528122 38,000 211 472 64
2021-05-15 21:00:50 GMT 52.616959 -118.505478 38,000 211 473 0
2021-05-15 21:00:28 GMT 52.657379 -118.465576 38,000 211 473 0
2021-05-15 21:00:04 GMT 52.703369 -118.420456 38,000 211 474 -64
2021-05-15 21:00:00 GMT 52.712769 -118.411179 38,000 211 474 -64
2021-05-15 20:59:49 GMT 52.731117 -118.393066 38,000 212 473 0
2021-05-15 20:59:38 GMT 52.751953 -118.372421 38,000 211 474 0
2021-05-15 20:59:27 GMT 52.771866 -118.352737 38,000 211 475 0
2021-05-15 20:59:17 GMT 52.791679 -118.333191 38,000 212 477 0
2021-05-15 20:59:08 GMT 52.810181 -118.314819 38,000 212 478 64
2021-05-15 20:58:55 GMT 52.831856 -118.293091 38,000 212 477 64
2021-05-15 20:58:47 GMT 52.848801 -118.276062 38,000 212 477 0
2021-05-15 20:58:35 GMT 52.870102 -118.254776 38,000 212 477 0
2021-05-15 20:58:22 GMT 52.895958 -118.229134 38,000 211 476 0
2021-05-15 20:58:14 GMT 52.909550 -118.215637 38,000 212 476 0
2021-05-15 20:58:03 GMT 52.929893 -118.195389 38,000 212 476 0
2021-05-15 20:57:41 GMT 52.970901 -118.154297 38,000 212 476 -64
2021-05-15 20:57:33 GMT 52.987667 -118.137474 38,000 212 476 0
2021-05-15 20:57:17 GMT 53.016312 -118.108826 38,000 212 477 0
2021-05-15 20:56:48 GMT 53.072063 -118.052727 38,000 212 476 0
2021-05-15 20:56:16 GMT 53.133545 -117.990654 38,000 212 476 0
2021-05-15 20:56:09 GMT 53.144642 -117.979515 38,000 212 476 -64
2021-05-15 20:55:54 GMT 53.174526 -117.949303 38,000 212 475 64
2021-05-15 20:55:48 GMT 53.184082 -117.939644 38,000 212 475 64
2021-05-15 20:53:40 GMT 53.422394 -117.696297 38,000 212 469 0
2021-05-15 20:53:32 GMT 53.436401 -117.681938 38,000 212 468 64
2021-05-15 20:53:22 GMT 53.455032 -117.662712 38,000 212 469 0
2021-05-15 20:53:11 GMT 53.478699 -117.638130 38,000 212 467 0
2021-05-15 20:52:51 GMT 53.514313 -117.601532 38,000 212 465 0
2021-05-15 20:52:39 GMT 53.534088 -117.581177 38,000 212 465 0
2021-05-15 20:52:31 GMT 53.550900 -117.563812 38,000 212 465 0
2021-05-15 20:52:20 GMT 53.569710 -117.544342 38,000 212 465 0
2021-05-15 20:52:09 GMT 53.588928 -117.524437 38,000 212 465 0
2021-05-15 20:52:00 GMT 53.608299 -117.504272 38,000 212 467 0
2021-05-15 20:51:48 GMT 53.626968 -117.484810 38,000 212 466 0
2021-05-15 20:51:39 GMT 53.646378 -117.464645 38,000 212 466 0
2021-05-15 20:51:27 GMT 53.665649 -117.444633 38,000 212 467 0
2021-05-15 20:51:18 GMT 53.684505 -117.424942 38,000 212 467 0
2021-05-15 20:51:07 GMT 53.703552 -117.405083 38,000 212 467 0
2021-05-15 20:50:56 GMT 53.722771 -117.385040 38,000 212 467 0
2021-05-15 20:50:46 GMT 53.741997 -117.365005 38,000 212 467 0
2021-05-15 20:50:35 GMT 53.761414 -117.344658 38,000 212 467 0
2021-05-15 20:50:25 GMT 53.781601 -117.323387 38,000 212 468 0
2021-05-15 20:50:14 GMT 53.800655 -117.303368 38,000 212 468 0
2021-05-15 20:50:05 GMT 53.818314 -117.284935 38,000 212 468 0
2021-05-15 20:49:53 GMT 53.838318 -117.263908 38,000 212 468 0
2021-05-15 20:49:24 GMT 53.892548 -117.206757 38,000 212 467 0
2021-05-15 20:49:22 GMT 53.895668 -117.203522 38,000 212 467 0
2021-05-15 20:48:52 GMT 53.952530 -117.143448 38,000 212 467 0
2021-05-15 20:48:41 GMT 53.971390 -117.123596 38,000 212 466 0
2021-05-15 20:48:31 GMT 53.991302 -117.102409 38,000 213 467 0
2021-05-15 20:48:20 GMT 54.009384 -117.083260 38,000 213 467 0
2021-05-15 20:48:10 GMT 54.029644 -117.061668 38,000 213 467 0
2021-05-15 20:47:59 GMT 54.048080 -117.042038 38,000 213 467 0
2021-05-15 20:47:49 GMT 54.066559 -117.022331 38,000 213 467 0
2021-05-15 20:47:38 GMT 54.086426 -117.001099 38,000 213 467 0
2021-05-15 20:47:27 GMT 54.105244 -116.981049 38,000 213 466 0
2021-05-15 20:47:18 GMT 54.124004 -116.960938 38,000 213 466 0
2021-05-15 20:47:06 GMT 54.143463 -116.940125 38,000 213 465 0
2021-05-15 20:46:56 GMT 54.163651 -116.918541 38,000 213 464 0
2021-05-15 20:46:45 GMT 54.182877 -116.897903 38,000 213 464 0
2021-05-15 20:46:36 GMT 54.199886 -116.879669 38,000 213 464 0
2021-05-15 20:46:25 GMT 54.219086 -116.859062 38,000 213 464 0
2021-05-15 20:46:14 GMT 54.237762 -116.838974 38,000 213 464 0
2021-05-15 20:46:05 GMT 54.256439 -116.818802 38,000 213 464 0
2021-05-15 20:45:53 GMT 54.275848 -116.797852 38,000 213 464 0
2021-05-15 20:45:43 GMT 54.295807 -116.776344 38,000 213 465 0
2021-05-15 20:45:32 GMT 54.314163 -116.756554 38,000 213 466 0
2021-05-15 20:45:23 GMT 54.332375 -116.736893 38,000 213 467 0
2021-05-15 20:45:12 GMT 54.352951 -116.714592 38,000 213 467 0
2021-05-15 20:45:00 GMT 54.372082 -116.693863 37,975 213 467 0
2021-05-15 20:44:49 GMT 54.394707 -116.669312 38,000 213 468 64
2021-05-15 20:44:40 GMT 54.409836 -116.652832 38,000 213 468 0
2021-05-15 20:44:27 GMT 54.434464 -116.626091 38,000 213 468 0
2021-05-15 20:44:19 GMT 54.448151 -116.611153 38,000 213 468 0
2021-05-15 20:44:08 GMT 54.467331 -116.590309 38,000 213 468 0
2021-05-15 20:43:57 GMT 54.488892 -116.566795 38,000 213 469 -64
2021-05-15 20:43:45 GMT 54.508945 -116.544884 38,000 213 468 0
2021-05-15 20:43:37 GMT 54.527008 -116.525162 38,000 213 468 0
2021-05-15 20:43:26 GMT 54.543777 -116.506775 38,000 213 468 0
2021-05-15 20:43:16 GMT 54.564056 -116.484566 38,000 213 468 0
2021-05-15 20:43:06 GMT 54.581570 -116.465485 38,000 213 468 0
2021-05-15 20:42:56 GMT 54.601257 -116.443924 38,000 213 468 -64
2021-05-15 20:42:44 GMT 54.620022 -116.423370 38,000 213 468 0
2021-05-15 20:42:35 GMT 54.639713 -116.401726 38,000 213 468 0
2021-05-15 20:42:24 GMT 54.657715 -116.381973 38,000 213 467 0
2021-05-15 20:42:14 GMT 54.676804 -116.360886 38,000 213 467 0
2021-05-15 20:42:03 GMT 54.695663 -116.340042 38,000 213 467 0
2021-05-15 20:41:52 GMT 54.714935 -116.318802 38,000 213 467 0
2021-05-15 20:41:38 GMT 54.742584 -116.288345 38,000 213 467 0
2021-05-15 20:41:31 GMT 54.753113 -116.276711 38,000 213 466 0
2021-05-15 20:41:22 GMT 54.771965 -116.255829 38,000 213 466 0
2021-05-15 20:41:11 GMT 54.790260 -116.235519 38,000 213 466 0
2021-05-15 20:41:01 GMT 54.809208 -116.214378 38,000 213 465 0
2021-05-15 20:40:50 GMT 54.827591 -116.193748 38,000 213 464 0
2021-05-15 20:40:39 GMT 54.846821 -116.172096 38,000 214 464 0
2021-05-15 20:40:29 GMT 54.865303 -116.151123 38,000 214 464 0
2021-05-15 20:40:19 GMT 54.884109 -116.129646 38,000 214 464 0
2021-05-15 20:40:09 GMT 54.903618 -116.107262 38,000 214 466 0
2021-05-15 20:39:57 GMT 54.922440 -116.085663 38,000 214 466 0
2021-05-15 20:39:48 GMT 54.940063 -116.065468 38,000 214 467 0
2021-05-15 20:39:37 GMT 54.959518 -116.043251 38,000 213 469 0
2021-05-15 20:39:27 GMT 54.978939 -116.021782 38,000 212 471 0
2021-05-15 20:39:15 GMT 54.998817 -116.001396 38,000 211 473 0
2021-05-15 20:39:05 GMT 55.018227 -115.981583 38,000 211 474 64
2021-05-15 20:38:55 GMT 55.037827 -115.961525 38,000 211 474 64
2021-05-15 20:38:44 GMT 55.057205 -115.941628 38,000 211 473 0
2021-05-15 20:38:35 GMT 55.076370 -115.921989 38,000 211 472 0
2021-05-15 20:38:24 GMT 55.096481 -115.901321 38,000 211 472 0
2021-05-15 20:38:14 GMT 55.115799 -115.881531 38,000 211 471 -64
2021-05-15 20:38:03 GMT 55.135353 -115.861481 38,000 211 471 0
2021-05-15 20:37:53 GMT 55.155045 -115.841255 38,000 211 471 0
2021-05-15 20:37:42 GMT 55.174530 -115.821182 38,000 211 471 0
2021-05-15 20:37:31 GMT 55.194351 -115.800667 38,000 211 470 0
2021-05-15 20:37:21 GMT 55.213562 -115.780754 38,000 211 470 0
2021-05-15 20:37:11 GMT 55.232803 -115.760841 38,000 211 470 0
2021-05-15 20:37:01 GMT 55.253174 -115.739838 38,000 211 469 0
2021-05-15 20:36:49 GMT 55.272591 -115.719826 38,000 211 469 0
2021-05-15 20:36:40 GMT 55.292175 -115.699608 38,000 211 468 0
2021-05-15 20:36:28 GMT 55.312298 -115.678795 38,000 211 468 0
2021-05-15 20:36:19 GMT 55.331131 -115.659294 38,000 211 468 0
2021-05-15 20:36:07 GMT 55.350632 -115.639099 38,000 211 468 0
2021-05-15 20:35:57 GMT 55.369766 -115.619148 38,000 211 467 0
2021-05-15 20:35:47 GMT 55.389954 -115.598145 38,000 211 466 0
2021-05-15 20:35:36 GMT 55.408474 -115.578751 38,000 211 466 0
2021-05-15 20:35:27 GMT 55.427307 -115.559044 38,000 211 465 0
2021-05-15 20:35:15 GMT 55.447765 -115.537544 38,000 211 464 0
2021-05-15 20:35:06 GMT 55.466537 -115.517830 38,000 211 464 64
2021-05-15 20:34:55 GMT 55.484589 -115.498924 38,000 211 463 0
2021-05-15 20:34:44 GMT 55.504234 -115.478241 38,000 211 464 0
2021-05-15 20:34:34 GMT 55.523926 -115.457642 38,000 211 464 0
2021-05-15 20:34:23 GMT 55.543102 -115.437553 38,000 211 464 0
2021-05-15 20:34:14 GMT 55.562576 -115.417038 38,000 211 465 0
2021-05-15 20:34:01 GMT 55.583359 -115.395065 38,000 211 464 0
2021-05-15 20:33:52 GMT 55.601433 -115.376099 38,000 211 464 0
2021-05-15 20:33:42 GMT 55.619247 -115.357193 38,000 211 465 0
2021-05-15 20:33:31 GMT 55.640808 -115.334389 38,000 211 465 0
2021-05-15 20:33:21 GMT 55.658463 -115.315765 38,000 211 465 0
2021-05-15 20:33:11 GMT 55.676708 -115.296364 38,000 211 465 0
2021-05-15 20:33:00 GMT 55.696632 -115.275337 38,000 212 465 0
2021-05-15 20:32:49 GMT 55.715954 -115.254738 38,000 212 465 0
2021-05-15 20:32:40 GMT 55.734898 -115.234566 38,000 212 465 0
2021-05-15 20:32:29 GMT 55.754013 -115.214203 38,000 212 465 0
2021-05-15 20:32:19 GMT 55.772964 -115.193977 38,000 212 465 0
2021-05-15 20:32:07 GMT 55.793041 -115.172600 38,000 212 465 0
2021-05-15 20:31:58 GMT 55.812195 -115.152199 38,000 212 465 0
2021-05-15 20:31:46 GMT 55.831512 -115.131477 38,000 212 466 0
2021-05-15 20:31:36 GMT 55.850674 -115.110970 38,000 212 466 0
2021-05-15 20:31:25 GMT 55.871063 -115.088997 38,000 212 466 0
2021-05-15 20:31:15 GMT 55.890427 -115.068222 38,000 212 466 0
2021-05-15 20:31:06 GMT 55.908119 -115.049171 38,000 212 466 0
2021-05-15 20:30:54 GMT 55.927811 -115.027969 38,000 212 466 0
2021-05-15 20:30:45 GMT 55.946434 -115.007973 38,000 212 466 0
2021-05-15 20:30:29 GMT 55.974426 -114.977753 38,000 212 467 0
2021-05-15 20:30:15 GMT 55.983334 -114.883331 38,000 210 470
2021-05-15 20:29:15 GMT 56.083332 -114.766670 38,000 211 470
2021-05-15 20:28:14 GMT 56.216667 -114.633331 38,000 211 460
2021-05-15 20:27:14 GMT 56.316666 -114.533333 38,000 213 460
2021-05-15 20:26:14 GMT 56.416668 -114.400002 38,000 211 460
2021-05-15 20:25:15 GMT 56.549999 -114.266670 38,000 212 460
2021-05-15 20:24:15 GMT 56.650002 -114.133331 38,000 212 450
2021-05-15 20:23:14 GMT 56.750000 -114.033333 38,000 211 450
2021-05-15 20:22:14 GMT 56.866669 -113.900002 38,000 212 450
2021-05-15 20:21:14 GMT 56.966667 -113.766670 38,000 212 450
2021-05-15 20:20:14 GMT 57.083332 -113.666664 38,000 214 450
2021-05-15 20:19:15 GMT 57.183334 -113.533333 38,000 213 450
2021-05-15 20:18:14 GMT 57.299999 -113.383331 38,000 210 460
2021-05-15 20:17:14 GMT 57.383331 -113.283333 38,000 213 460
2021-05-15 20:16:14 GMT 57.500000 -113.150002 38,000 213 460
2021-05-15 20:15:14 GMT 57.616669 -113.033333 38,000 215 460
2021-05-15 20:14:14 GMT 57.700001 -112.900002 38,000 211 460
2021-05-15 20:13:15 GMT 57.816666 -112.766670 38,000 212 460
2021-05-15 20:12:14 GMT 57.933334 -112.616669 38,000 213 460
2021-05-15 20:11:14 GMT 58.049999 -112.500000 38,000 213 460
2021-05-15 20:10:14 GMT 58.150002 -112.366669 38,000 213 460
2021-05-15 20:09:14 GMT 58.250000 -112.216667 38,000 212 460
2021-05-15 20:08:14 GMT 58.366669 -112.099998 38,000 215 460
2021-05-15 20:07:14 GMT 58.466667 -111.966667 38,000 213 460
2021-05-15 20:06:14 GMT 58.583332 -111.816666 38,000 214 460
We lost coverage of the aircraft here for a total of 8 minutes
2021-05-15 19:58:44 GMT 59.380127 -110.860481 38,000 215 467 0
2021-05-15 19:58:41 GMT 59.385452 -110.853333 38,000 215 468 0
2021-05-15 19:58:30 GMT 59.404285 -110.827713 38,000 215 469 0
2021-05-15 19:58:15 GMT 59.430588 -110.791901 38,000 215 469 -64
2021-05-15 19:58:09 GMT 59.440041 -110.779030 38,000 215 469 -64
2021-05-15 19:57:57 GMT 59.462292 -110.748718 38,000 215 469 0
2021-05-15 19:57:48 GMT 59.477600 -110.727814 38,000 215 469 0
2021-05-15 19:57:39 GMT 59.494644 -110.704399 38,000 215 469 0
2021-05-15 19:54:51 GMT 59.793457 -110.289825 38,000 216 472 0
2021-05-15 19:53:00 GMT 59.991669 -110.013397 38,000 219 471 0
2021-05-15 19:52:52 GMT 60.006672 -109.989624 38,000 219 471 0
2021-05-15 19:52:12 GMT 60.073700 -109.883080 38,000 219 471 0
2021-05-15 19:52:08 GMT 60.080692 -109.872009 38,000 219 472 0
2021-05-15 19:51:58 GMT 60.098236 -109.844055 38,000 219 471 0
2021-05-15 19:51:49 GMT 60.113525 -109.819618 38,000 219 471 0
2021-05-15 19:51:39 GMT 60.130692 -109.792152 38,000 219 471 0
2021-05-15 19:50:39 GMT 60.233185 -109.627548 38,000 219 472 0
2021-05-15 19:50:28 GMT 60.250305 -109.599892 38,000 219 472 0
2021-05-15 19:50:18 GMT 60.267471 -109.572144 38,000 219 473 0
2021-05-15 19:50:08 GMT 60.285141 -109.543633 38,000 219 473 0
2021-05-15 19:49:59 GMT 60.300430 -109.518913 38,000 219 472 0
2021-05-15 19:49:49 GMT 60.318249 -109.489944 38,000 219 472 0
2021-05-15 19:49:39 GMT 60.334808 -109.462944 38,000 219 471 0
2021-05-15 19:49:29 GMT 60.351562 -109.435669 38,000 219 471 0
2021-05-15 19:49:19 GMT 60.368317 -109.408386 38,000 219 471 0
2021-05-15 19:49:08 GMT 60.385712 -109.380074 38,000 219 470 0
2021-05-15 19:48:58 GMT 60.402740 -109.352226 38,000 219 470 0
2021-05-15 19:48:48 GMT 60.419449 -109.324951 38,000 219 470 0
2021-05-15 19:48:38 GMT 60.436302 -109.297287 38,000 220 469 0
2021-05-15 19:48:28 GMT 60.453278 -109.269447 38,000 220 469 0
2021-05-15 19:48:17 GMT 60.471954 -109.238762 38,000 220 469 0
2021-05-15 19:48:08 GMT 60.487045 -109.213814 38,000 220 469 0
2021-05-15 19:47:58 GMT 60.504314 -109.185265 38,000 220 469 0
2021-05-15 19:47:48 GMT 60.521072 -109.157692 38,000 220 468 0
2021-05-15 19:47:38 GMT 60.538055 -109.129852 38,000 220 468 0
2021-05-15 19:47:28 GMT 60.555153 -109.101593 38,000 220 468 0
2021-05-15 19:47:17 GMT 60.573029 -109.071968 38,000 220 468 0
2021-05-15 19:47:07 GMT 60.589226 -109.045097 38,000 220 467 0
2021-05-15 19:46:57 GMT 60.605942 -109.017334 38,000 220 467 0
2021-05-15 19:46:46 GMT 60.624748 -108.986046 38,000 220 467 0
2021-05-15 19:46:36 GMT 60.640778 -108.959373 38,000 220 467 0
2021-05-15 19:46:27 GMT 60.656616 -108.932945 38,000 220 468 0
2021-05-15 19:46:16 GMT 60.675110 -108.901978 38,000 220 468 0
2021-05-15 19:46:06 GMT 60.691956 -108.873756 38,000 220 468 0
2021-05-15 19:45:57 GMT 60.706585 -108.849106 38,000 220 468 0
2021-05-15 19:45:46 GMT 60.723763 -108.820267 38,000 220 468 0
2021-05-15 19:45:37 GMT 60.739590 -108.793686 38,000 220 468 0
2021-05-15 19:45:27 GMT 60.756767 -108.764847 38,000 220 467 0
2021-05-15 19:45:17 GMT 60.773575 -108.736595 38,000 220 468 0
2021-05-15 19:45:07 GMT 60.790237 -108.708488 38,000 220 468 0
2021-05-15 19:44:57 GMT 60.806351 -108.681206 38,000 220 468 0
2021-05-15 19:44:46 GMT 60.824158 -108.651093 38,000 220 468 0
2021-05-15 19:44:37 GMT 60.840145 -108.624084 38,000 220 468 0
2021-05-15 19:44:27 GMT 60.857162 -108.595215 38,000 220 469 0
2021-05-15 19:44:17 GMT 60.873642 -108.567177 38,000 220 469 0
2021-05-15 19:44:06 GMT 60.890980 -108.537758 38,000 220 469 0
2021-05-15 19:43:57 GMT 60.906433 -108.511475 38,000 220 469 0
2021-05-15 19:43:46 GMT 60.923889 -108.481552 38,000 220 469 0
2021-05-15 19:43:37 GMT 60.939671 -108.454582 38,000 220 469 0
2021-05-15 19:43:26 GMT 60.957596 -108.423882 38,000 220 468 0
We lost coverage of the aircraft here for a total of 77 minutes
2021-05-15 18:26:13 GMT 67.466667 -89.883331 38,000 244 480
2021-05-15 18:25:13 GMT 67.533333 -89.566666 38,000 245 490
2021-05-15 18:24:12 GMT 67.583336 -89.250000 38,000 243 490
2021-05-15 18:23:12 GMT 67.650002 -88.916664 38,000 245 490
2021-05-15 18:22:13 GMT 67.699997 -88.633331 38,000 246 490
2021-05-15 18:21:13 GMT 67.766670 -88.283333 38,000 247 490
2021-05-15 18:20:13 GMT 67.816666 -87.949997 38,000 245 490
2021-05-15 18:19:13 GMT 67.866669 -87.650002 38,000 246 490
2021-05-15 18:18:12 GMT 67.916664 -87.333336 38,000 246 490
2021-05-15 18:17:12 GMT 67.983330 -87.000000 38,000 246 490
2021-05-15 18:16:13 GMT 68.033333 -86.666664 38,000 247 500
2021-05-15 18:15:13 GMT 68.083336 -86.333336 38,000 247 490
2021-05-15 18:14:13 GMT 68.150002 -86.000000 38,000 251 490
2021-05-15 18:13:12 GMT 68.199997 -85.599998 38,000 248 490
2021-05-15 18:12:12 GMT 68.250000 -85.266670 38,000 248 490
2021-05-15 18:11:12 GMT 68.283333 -84.949997 38,000 247 490
2021-05-15 18:10:13 GMT 68.349998 -84.616669 38,000 249 490
2021-05-15 18:09:13 GMT 68.400002 -84.250000 38,000 248 490
2021-05-15 18:08:12 GMT 68.449997 -83.900002 38,000 248 490
2021-05-15 18:07:12 GMT 68.500000 -83.533333 38,000 248 490
2021-05-15 18:06:12 GMT 68.550003 -83.216667 38,000 251 490
2021-05-15 18:05:12 GMT 68.599998 -82.866669 38,000 251 490
2021-05-15 18:04:13 GMT 68.650002 -82.516670 38,000 253 490
2021-05-15 18:03:13 GMT 68.683334 -82.133331 38,000 249 490
2021-05-15 18:02:12 GMT 68.733330 -81.783333 38,000 251 490
2021-05-15 18:01:12 GMT 68.766670 -81.433334 38,000 249 490
2021-05-15 18:00:12 GMT 68.833336 -81.050003 38,000 253 490
2021-05-15 17:59:12 GMT 68.866669 -80.699997 38,000 254 490
2021-05-15 17:58:13 GMT 68.916664 -80.349998 38,000 258 490
2021-05-15 17:57:12 GMT 68.949997 -79.983330 38,000 261 490
2021-05-15 17:56:12 GMT 68.983330 -79.599998 38,000 263 500
2021-05-15 17:55:12 GMT 69.000000 -79.233330 38,000 261 500
2021-05-15 17:54:12 GMT 69.016670 -78.849998 38,000 261 500
2021-05-15 17:53:13 GMT 69.033333 -78.483330 38,000 263 490
2021-05-15 17:52:13 GMT 69.066666 -78.083336 38,000 265 490
2021-05-15 17:51:12 GMT 69.083336 -77.733330 38,000 268 490
2021-05-15 17:50:12 GMT 69.083336 -77.300003 38,000 263 490
2021-05-15 17:49:12 GMT 69.099998 -76.933334 38,000 265 490
2021-05-15 17:48:12 GMT 69.099998 -76.566666 38,000 263 490
2021-05-15 17:47:13 GMT 69.133331 -76.183334 38,000 268 490
2021-05-15 17:46:12 GMT 69.133331 -75.816666 38,000 266 490
2021-05-15 17:45:12 GMT 69.150002 -75.383331 38,000 268 490
2021-05-15 17:44:12 GMT 69.150002 -75.016670 38,000 265 490
2021-05-15 17:43:12 GMT 69.166664 -74.616669 38,000 265 490
2021-05-15 17:42:12 GMT 69.166664 -74.250000 38,000 266 490
2021-05-15 17:41:12 GMT 69.183334 -73.866669 38,000 268 490
2021-05-15 17:40:12 GMT 69.199997 -73.500000 38,000 270 490
2021-05-15 17:39:12 GMT 69.199997 -73.066666 38,000 270 480
2021-05-15 17:38:12 GMT 69.199997 -72.699997 38,000 270 480
2021-05-15 17:37:12 GMT 69.199997 -72.333336 38,000 270 480
2021-05-15 17:36:12 GMT 69.199997 -71.933334 37,400 268 480
2021-05-15 17:35:12 GMT 69.199997 -71.583336 37,000 268 480
2021-05-15 17:34:12 GMT 69.199997 -71.216667 37,000 270 480
2021-05-15 17:33:12 GMT 69.216667 -70.816666 37,000 270 480
2021-05-15 17:32:12 GMT 69.216667 -70.449997 37,000 272 480
2021-05-15 17:31:12 GMT 69.199997 -70.083336 37,000 272 480
2021-05-15 17:30:11 GMT 69.216667 -69.683334 37,000 275 480
2021-05-15 17:29:12 GMT 69.199997 -69.333336 37,000 272 480
2021-05-15 17:28:12 GMT 69.183334 -68.933334 37,000 270 480
2021-05-15 17:27:12 GMT 69.183334 -68.583336 37,000 275 480
2021-05-15 17:26:12 GMT 69.183334 -68.183334 37,000 275 480
2021-05-15 17:25:12 GMT 69.183334 -67.816666 37,000 277 480
2021-05-15 17:24:11 GMT 69.150002 -67.433334 37,000 272 480
2021-05-15 17:23:12 GMT 69.150002 -67.033333 37,000 277 480
2021-05-15 17:22:12 GMT 69.133331 -66.683334 37,000 275 480
2021-05-15 17:21:12 GMT 69.133331 -66.316666 37,000 277 480
2021-05-15 17:20:12 GMT 69.099998 -65.933334 37,000 277 480
2021-05-15 17:19:11 GMT 69.099998 -65.533333 37,000 277 480
2021-05-15 17:18:11 GMT 69.083336 -65.183334 37,000 277 480
2021-05-15 17:17:12 GMT 69.050003 -64.800003 37,000 275 480
2021-05-15 17:16:12 GMT 69.050003 -64.416664 37,000 277 480
2021-05-15 17:15:12 GMT 69.033333 -64.050003 37,000 277 480
2021-05-15 17:14:12 GMT 69.016670 -63.700001 37,000 279 480
2021-05-15 17:13:11 GMT 69.000000 -63.349998 37,000 279 480
We lost coverage of the aircraft here for a total of 7 minutes
2021-05-15 17:06:13 GMT 68.993675 -61.225159 37,000 267 470 0
2021-05-15 17:06:11 GMT 68.993912 -61.213760 37,000 267 470 0
2021-05-15 17:06:10 GMT 68.994141 -61.205383 37,000 267 470 0
2021-05-15 17:06:08 GMT 68.994370 -61.193325 37,000 267 470 0
2021-05-15 17:06:06 GMT 68.994789 -61.175171 37,000 267 470 0
2021-05-15 17:06:05 GMT 68.994789 -61.175171 37,000 267 470 0
2021-05-15 17:06:03 GMT 68.995209 -61.154160 37,000 267 470 0
2021-05-15 17:05:59 GMT 68.995537 -61.140839 37,000 267 470 0
2021-05-15 17:05:58 GMT 68.995697 -61.132378 37,000 267 470 0
2021-05-15 17:05:57 GMT 68.995789 -61.127537 37,000 267 470 0
2021-05-15 17:05:55 GMT 68.996063 -61.115505 37,000 267 470 0
2021-05-15 17:05:54 GMT 68.996239 -61.107056 37,000 267 470 0
2021-05-15 17:05:53 GMT 68.996376 -61.100464 37,000 267 470 0
2021-05-15 17:05:51 GMT 68.996567 -61.091438 37,000 267 470 0
2021-05-15 17:05:50 GMT 68.996704 -61.084808 37,000 267 470 0
2021-05-15 17:05:49 GMT 68.996841 -61.079407 37,000 267 470 0
2021-05-15 17:05:48 GMT 68.996979 -61.072735 37,000 267 470 0
2021-05-15 17:05:45 GMT 68.997353 -61.054733 37,000 267 470 0
2021-05-15 17:05:44 GMT 68.997635 -61.041962 37,000 267 470 0
2021-05-15 17:05:42 GMT 68.997757 -61.036507 37,000 267 470 0
2021-05-15 17:05:41 GMT 68.997894 -61.029968 37,000 267 470 -64
2021-05-15 17:05:40 GMT 68.998238 -61.012436 37,000 267 470 -64
2021-05-15 17:05:38 GMT 68.998238 -61.012436 37,000 267 470 0
2021-05-15 17:05:37 GMT 68.998352 -61.006950 37,000 267 470 0
2021-05-15 17:05:35 GMT 68.998672 -60.991909 37,000 267 470 0
2021-05-15 17:05:34 GMT 68.998840 -60.985931 37,000 267 470 0
2021-05-15 17:05:33 GMT 68.998947 -60.980530 37,000 267 470 0
2021-05-15 17:05:31 GMT 68.999176 -60.970196 37,000 267 470 0
2021-05-15 17:05:30 GMT 68.999268 -60.964180 37,000 267 470 0
2021-05-15 17:05:28 GMT 68.999542 -60.952148 37,000 267 469 0
2021-05-15 17:05:26 GMT 68.999817 -60.937630 37,000 267 469 0
2021-05-15 17:05:25 GMT 69.000053 -60.927429 37,000 267 469 0
2021-05-15 17:05:23 GMT 69.000183 -60.921413 37,000 267 469 0
2021-05-15 17:04:53 GMT 69.003845 -60.738045 37,000 268 503 0
We lost coverage of the aircraft here for a total of 111 minutes
2021-05-15 15:13:59 GMT 63.336273 -27.302082 36,000 301 503 0
2021-05-15 15:13:55 GMT 63.331650 -27.284863 36,000 301 503 0
2021-05-15 15:13:50 GMT 63.325336 -27.261366 36,000 301 503 0
2021-05-15 15:13:45 GMT 63.319611 -27.240177 36,000 301 503 0
2021-05-15 15:13:40 GMT 63.313614 -27.217995 36,000 302 502 0
2021-05-15 15:13:35 GMT 63.307755 -27.196339 36,000 302 502 0
2021-05-15 15:13:30 GMT 63.301804 -27.174259 36,000 302 502 0
2021-05-15 15:13:25 GMT 63.295807 -27.152182 36,000 302 503 0
2021-05-15 15:13:21 GMT 63.289948 -27.130632 36,000 302 503 0
2021-05-15 15:13:16 GMT 63.284317 -27.109926 36,000 302 502 0
2021-05-15 15:13:11 GMT 63.278225 -27.087452 36,000 302 501 0
2021-05-15 15:13:05 GMT 63.271179 -27.061544 36,000 302 501 0
2021-05-15 15:13:01 GMT 63.266399 -27.043945 36,000 302 501 0
2021-05-15 15:12:56 GMT 63.260330 -27.021507 36,000 302 501 0
2021-05-15 15:12:51 GMT 63.254471 -26.999958 36,000 302 501 0
2021-05-15 15:12:46 GMT 63.248474 -26.977985 36,000 302 501 0
2021-05-15 15:12:41 GMT 63.242386 -26.955589 36,000 302 501 0
2021-05-15 15:12:36 GMT 63.236282 -26.933313 36,000 302 501 0
2021-05-15 15:12:31 GMT 63.230301 -26.911327 36,000 302 501 0
2021-05-15 15:12:26 GMT 63.224316 -26.889479 36,000 302 501 0
2021-05-15 15:12:21 GMT 63.218079 -26.866735 36,000 302 502 0
2021-05-15 15:12:16 GMT 63.212074 -26.844873 36,000 302 501 0
2021-05-15 15:12:11 GMT 63.206314 -26.823860 36,000 302 501 0
2021-05-15 15:12:05 GMT 63.199924 -26.800726 36,000 302 501 0
2021-05-15 15:12:01 GMT 63.194153 -26.779703 36,000 302 501 0
2021-05-15 15:11:56 GMT 63.188007 -26.757519 36,000 302 501 0
2021-05-15 15:11:51 GMT 63.182514 -26.737448 36,000 302 501 0
2021-05-15 15:11:46 GMT 63.176086 -26.714314 36,000 302 501 0
2021-05-15 15:11:41 GMT 63.169849 -26.691601 36,000 302 501 0
2021-05-15 15:11:36 GMT 63.164169 -26.671106 36,000 302 501 0
2021-05-15 15:11:31 GMT 63.158066 -26.648865 36,000 302 501 0
2021-05-15 15:11:26 GMT 63.152020 -26.627163 36,000 302 500 0
2021-05-15 15:11:21 GMT 63.146118 -26.605835 36,000 302 500 0
2021-05-15 15:11:16 GMT 63.140213 -26.584473 36,000 302 500 0
2021-05-15 15:11:11 GMT 63.133942 -26.561890 36,000 302 500 0
2021-05-15 15:11:04 GMT 63.126205 -26.534018 36,000 302 500 0
2021-05-15 15:11:01 GMT 63.121994 -26.518759 36,000 302 500 0
2021-05-15 15:10:56 GMT 63.115337 -26.494904 36,000 302 501 0
2021-05-15 15:10:51 GMT 63.109425 -26.473669 36,000 302 501 0
2021-05-15 15:10:45 GMT 63.102264 -26.448059 36,000 302 500 0
2021-05-15 15:10:41 GMT 63.097549 -26.431173 36,000 302 500 0
2021-05-15 15:10:35 GMT 63.089996 -26.404318 36,000 302 500 0
2021-05-15 15:10:31 GMT 63.085144 -26.386923 36,000 302 500 0
2021-05-15 15:10:26 GMT 63.079075 -26.365286 36,000 302 500 0
2021-05-15 15:10:20 GMT 63.072418 -26.341452 36,000 302 501 0
2021-05-15 15:10:16 GMT 63.067062 -26.322397 36,000 302 501 0
2021-05-15 15:10:11 GMT 63.060497 -26.299051 36,000 302 501 0
2021-05-15 15:10:06 GMT 63.054794 -26.278788 36,000 302 501 0
2021-05-15 15:10:00 GMT 63.048256 -26.255423 36,000 302 501 0
2021-05-15 15:09:56 GMT 63.042671 -26.235563 36,000 302 500 0
2021-05-15 15:09:51 GMT 63.036575 -26.213989 36,000 302 500 0
2021-05-15 15:09:46 GMT 63.030441 -26.192425 36,000 302 500 0
2021-05-15 15:09:41 GMT 63.024124 -26.170044 36,000 302 500 0
2021-05-15 15:09:36 GMT 63.017998 -26.148518 36,000 302 500 0
2021-05-15 15:09:30 GMT 63.011536 -26.125692 36,000 303 500 0
2021-05-15 15:09:25 GMT 63.005428 -26.104149 36,000 303 500 0
2021-05-15 15:09:20 GMT 62.999451 -26.083069 36,000 303 500 0
2021-05-15 15:09:15 GMT 62.992722 -26.059469 36,000 303 500 0
2021-05-15 15:09:10 GMT 62.986633 -26.038006 36,000 303 500 0
2021-05-15 15:09:04 GMT 62.980011 -26.014780 36,000 303 499 0
2021-05-15 15:09:00 GMT 62.974377 -25.995131 36,000 303 499 0
2021-05-15 15:08:53 GMT 62.965942 -25.965576 36,000 303 499 0
2021-05-15 15:08:50 GMT 62.961914 -25.951435 36,000 303 499 0
2021-05-15 15:08:45 GMT 62.956177 -25.931326 36,000 303 499 0
2021-05-15 15:08:40 GMT 62.950058 -25.909931 36,000 303 499 0
2021-05-15 15:08:35 GMT 62.943840 -25.888016 36,000 303 499 0
2021-05-15 15:08:30 GMT 62.937508 -25.865831 36,000 303 499 0
2021-05-15 15:08:25 GMT 62.931381 -25.844421 36,000 303 499 0
2021-05-15 15:08:19 GMT 62.925018 -25.822245 36,000 303 499 0
2021-05-15 15:08:15 GMT 62.919525 -25.803019 36,000 303 499 0
2021-05-15 15:08:10 GMT 62.913300 -25.781216 36,000 303 499 0
2021-05-15 15:08:05 GMT 62.906921 -25.759031 36,000 303 499 0
2021-05-15 15:08:00 GMT 62.900547 -25.736847 36,000 303 499 0
2021-05-15 15:07:55 GMT 62.894623 -25.716349 36,000 303 499 0
2021-05-15 15:07:50 GMT 62.888626 -25.695436 36,000 303 499 0
2021-05-15 15:07:45 GMT 62.882355 -25.673725 36,000 303 499 0
2021-05-15 15:07:40 GMT 62.876431 -25.653288 36,000 303 499 0
2021-05-15 15:07:35 GMT 62.870289 -25.631948 36,000 303 499 0
2021-05-15 15:07:29 GMT 62.863491 -25.608603 36,000 303 499 0
2021-05-15 15:07:24 GMT 62.857346 -25.587263 36,000 303 499 0
2021-05-15 15:07:20 GMT 62.851685 -25.567730 36,000 303 499 0
2021-05-15 15:07:15 GMT 62.845596 -25.546976 36,000 303 499 0
2021-05-15 15:07:10 GMT 62.839050 -25.524515 36,000 303 499 0
2021-05-15 15:07:01 GMT 62.828018 -25.486755 36,000 303 499 0
2021-05-15 15:06:58 GMT 62.824081 -25.473227 36,000 303 499 0
2021-05-15 15:06:53 GMT 62.818893 -25.455322 36,000 303 499 0
2021-05-15 15:06:50 GMT 62.814564 -25.440533 36,000 303 499 0
2021-05-15 15:06:45 GMT 62.808514 -25.419828 36,000 303 499 0
2021-05-15 15:06:40 GMT 62.802246 -25.398153 36,000 303 499 0
2021-05-15 15:06:35 GMT 62.795929 -25.376587 36,000 303 499 0
2021-05-15 15:06:30 GMT 62.789845 -25.355810 36,000 303 498 0
2021-05-15 15:06:24 GMT 62.783066 -25.332541 36,000 303 499 0
2021-05-15 15:06:20 GMT 62.777298 -25.313110 36,000 303 499 0
2021-05-15 15:06:15 GMT 62.771084 -25.292006 36,000 303 499 0
2021-05-15 15:06:10 GMT 62.764614 -25.270035 36,000 303 499 0
2021-05-15 15:06:05 GMT 62.758514 -25.249434 36,000 303 499 0
2021-05-15 15:06:00 GMT 62.752045 -25.227463 36,000 303 499 0
2021-05-15 15:05:55 GMT 62.745808 -25.206333 36,000 303 499 0
2021-05-15 15:05:50 GMT 62.739853 -25.186056 36,000 303 499 0
2021-05-15 15:05:45 GMT 62.733353 -25.164185 36,000 303 499 0
2021-05-15 15:05:40 GMT 62.727219 -25.143534 36,000 303 499 0
2021-05-15 15:05:35 GMT 62.720993 -25.122477 36,000 303 499 0
2021-05-15 15:05:30 GMT 62.714859 -25.101828 36,000 303 499 0
2021-05-15 15:05:25 GMT 62.708519 -25.080414 36,000 303 499 0
2021-05-15 15:05:20 GMT 62.702271 -25.059305 36,000 303 499 0
2021-05-15 15:05:15 GMT 62.695770 -25.037436 36,000 303 499 0
2021-05-15 15:05:10 GMT 62.689804 -25.017242 36,000 303 499 0
2021-05-15 15:05:05 GMT 62.683289 -24.995375 36,000 303 499 0
2021-05-15 15:04:59 GMT 62.676537 -24.972769 36,000 303 499 0
2021-05-15 15:04:53 GMT 62.670067 -24.950903 36,000 303 499 0
2021-05-15 15:04:49 GMT 62.664433 -24.931993 36,000 303 499 0
2021-05-15 15:04:44 GMT 62.658142 -24.910990 36,000 303 499 0
2021-05-15 15:04:39 GMT 62.651642 -24.889118 36,000 303 499 0
2021-05-15 15:04:34 GMT 62.645626 -24.869034 36,000 303 499 0
2021-05-15 15:04:29 GMT 62.639465 -24.848532 36,000 304 498 0
2021-05-15 15:04:24 GMT 62.632690 -24.825949 36,000 304 498 0
2021-05-15 15:04:19 GMT 62.626511 -24.805401 36,000 304 499 0
2021-05-15 15:04:13 GMT 62.619602 -24.782410 36,000 304 499 0
2021-05-15 15:04:09 GMT 62.613972 -24.763605 36,000 304 499 0
2021-05-15 15:04:04 GMT 62.607826 -24.743113 36,000 304 499 0
2021-05-15 15:03:59 GMT 62.601379 -24.721781 36,000 304 498 0
2021-05-15 15:03:54 GMT 62.594833 -24.700113 36,000 304 498 0
2021-05-15 15:03:49 GMT 62.588783 -24.680046 36,000 304 498 0
2021-05-15 15:03:44 GMT 62.582500 -24.659237 36,000 304 498 0
2021-05-15 15:03:39 GMT 62.575836 -24.637146 36,000 304 498 0
2021-05-15 15:03:34 GMT 62.569794 -24.617191 36,000 304 498 0
2021-05-15 15:03:29 GMT 62.563881 -24.597544 36,000 304 498 -64
2021-05-15 15:03:24 GMT 62.556931 -24.574686 36,000 304 498 -64
2021-05-15 15:03:19 GMT 62.551025 -24.555054 36,000 304 498 0
2021-05-15 15:03:13 GMT 62.544205 -24.532572 36,000 304 498 0
2021-05-15 15:03:09 GMT 62.537842 -24.511820 36,000 304 499 0
2021-05-15 15:03:04 GMT 62.532166 -24.493103 36,000 304 498 0
2021-05-15 15:02:58 GMT 62.524796 -24.468994 36,000 304 499 0
2021-05-15 15:02:54 GMT 62.519096 -24.450285 36,000 304 499 0
2021-05-15 15:02:49 GMT 62.512859 -24.430002 36,000 304 499 0
2021-05-15 15:02:44 GMT 62.506119 -24.408060 36,000 304 499 0
2021-05-15 15:02:39 GMT 62.500011 -24.388063 36,000 304 499 0
2021-05-15 15:02:34 GMT 62.493401 -24.366514 36,000 304 499 0
2021-05-15 15:02:21 GMT 62.477005 -24.313150 36,000 304 499 0
2021-05-15 15:02:17 GMT 62.472061 -24.296976 36,000 304 499 0
2021-05-15 15:02:12 GMT 62.465561 -24.275877 36,000 304 499 0
2021-05-15 15:02:04 GMT 62.455692 -24.243551 36,000 304 498 0
2021-05-15 15:02:03 GMT 62.454163 -24.238586 36,000 304 498 0
2021-05-15 15:01:57 GMT 62.447159 -24.215902 36,000 304 498 0
2021-05-15 15:01:53 GMT 62.441711 -24.198099 36,000 304 498 0
2021-05-15 15:01:48 GMT 62.435349 -24.177551 36,000 304 498 0
2021-05-15 15:01:43 GMT 62.428894 -24.156494 36,000 304 497 0
2021-05-15 15:01:37 GMT 62.422127 -24.134640 36,000 304 497 0
2021-05-15 15:01:32 GMT 62.415283 -24.112455 36,000 304 497 0
2021-05-15 15:01:28 GMT 62.409897 -24.095257 36,000 304 497 0
2021-05-15 15:01:23 GMT 62.403183 -24.073475 36,000 304 497 0
2021-05-15 15:01:18 GMT 62.397175 -24.054144 36,000 304 496 0
2021-05-15 15:01:11 GMT 62.388382 -24.025879 36,000 304 497 0
2021-05-15 15:01:08 GMT 62.383907 -24.011465 36,000 304 497 0
2021-05-15 15:01:03 GMT 62.377949 -23.992239 36,000 304 497 0
2021-05-15 15:00:57 GMT 62.370667 -23.968912 36,000 304 497 0
2021-05-15 15:00:48 GMT 62.358120 -23.928751 36,000 304 497 0
2021-05-15 15:00:42 GMT 62.352493 -23.910727 36,000 304 497 0
2021-05-15 15:00:38 GMT 62.346760 -23.892305 36,000 304 497 0
2021-05-15 15:00:08 GMT 62.307240 -23.766386 36,000 305 497 0
2021-05-15 15:00:04 GMT 62.302258 -23.750540 36,000 305 497 0
2021-05-15 14:59:59 GMT 62.295692 -23.729729 36,000 305 497 0
2021-05-15 14:59:54 GMT 62.289036 -23.708496 36,000 305 497 0
2021-05-15 14:59:49 GMT 62.283142 -23.689676 36,000 305 497 0
2021-05-15 14:59:44 GMT 62.276562 -23.668882 36,000 305 497 0
2021-05-15 14:59:38 GMT 62.269363 -23.646036 36,000 305 497 0
2021-05-15 14:59:34 GMT 62.263733 -23.628134 36,000 305 497 0
2021-05-15 14:59:29 GMT 62.257053 -23.606977 36,000 305 498 0
2021-05-15 14:59:24 GMT 62.250584 -23.586590 36,000 305 498 0
2021-05-15 14:59:19 GMT 62.244553 -23.567505 36,000 305 498 0
2021-05-15 14:59:14 GMT 62.237686 -23.545938 36,000 305 498 0
2021-05-15 14:59:09 GMT 62.231003 -23.524780 36,000 305 497 0
2021-05-15 14:59:04 GMT 62.224838 -23.505356 36,000 305 497 0
2021-05-15 14:58:59 GMT 62.218506 -23.485413 36,000 305 497 0
2021-05-15 14:58:54 GMT 62.211914 -23.464762 36,000 305 497 0
2021-05-15 14:58:48 GMT 62.205460 -23.444418 36,000 305 497 0
2021-05-15 14:58:43 GMT 62.198456 -23.422546 36,000 305 497 0
2021-05-15 14:58:38 GMT 62.192368 -23.403524 36,000 305 497 0
2021-05-15 14:58:32 GMT 62.185223 -23.381336 36,000 305 497 0
2021-05-15 14:58:28 GMT 62.179127 -23.362322 36,000 305 497 0
2021-05-15 14:58:23 GMT 62.172546 -23.341675 36,000 305 497 0
2021-05-15 14:58:18 GMT 62.165905 -23.321016 36,000 305 497 0
2021-05-15 14:58:13 GMT 62.159855 -23.302002 36,000 305 497 0
2021-05-15 14:58:08 GMT 62.152962 -23.280453 36,000 305 497 0
2021-05-15 14:58:03 GMT 62.146225 -23.259481 36,000 305 498 0
2021-05-15 14:57:57 GMT 62.139633 -23.238831 36,000 305 498 0
2021-05-15 14:57:53 GMT 62.133644 -23.220238 36,000 305 498 0
2021-05-15 14:57:48 GMT 62.126999 -23.199594 36,000 305 498 0
2021-05-15 14:57:43 GMT 62.120750 -23.180237 36,000 305 499 0
2021-05-15 14:57:38 GMT 62.113953 -23.159281 36,000 305 499 0
2021-05-15 14:57:33 GMT 62.107681 -23.139856 36,000 305 499 0
2021-05-15 14:57:28 GMT 62.101135 -23.119650 36,000 305 499 0
2021-05-15 14:57:23 GMT 62.094215 -23.098246 36,000 305 499 0
2021-05-15 14:57:18 GMT 62.087418 -23.077291 36,000 305 498 0
2021-05-15 14:57:13 GMT 62.080902 -23.057163 36,000 305 498 0
2021-05-15 14:57:08 GMT 62.074997 -23.039017 36,000 305 498 0
2021-05-15 14:57:02 GMT 62.067719 -23.016457 36,000 305 498 0
2021-05-15 14:56:58 GMT 62.061676 -22.997915 36,000 305 497 0
2021-05-15 14:56:53 GMT 62.055157 -22.977804 36,000 305 497 0
2021-05-15 14:56:48 GMT 62.047943 -22.955729 36,000 305 497 0
2021-05-15 14:56:43 GMT 62.041901 -22.937296 36,000 305 497 0
2021-05-15 14:56:38 GMT 62.034954 -22.916056 36,000 305 497 0
2021-05-15 14:56:33 GMT 62.028809 -22.897238 36,000 305 497 0
2021-05-15 14:56:27 GMT 62.021732 -22.875570 36,000 305 497 0
2021-05-15 14:56:23 GMT 62.015587 -22.856852 36,000 305 497 0
2021-05-15 14:56:17 GMT 62.007843 -22.833220 36,000 305 497 0
2021-05-15 14:56:13 GMT 62.002365 -22.816467 36,000 305 497 0
2021-05-15 14:56:07 GMT 61.995392 -22.795258 36,000 305 496 0
2021-05-15 14:56:03 GMT 61.989380 -22.776896 36,000 305 496 0
2021-05-15 14:55:58 GMT 61.982437 -22.755726 36,000 305 497 0
2021-05-15 14:55:52 GMT 61.975250 -22.733852 36,000 305 497 0
2021-05-15 14:55:48 GMT 61.969593 -22.716675 36,000 305 497 0
2021-05-15 14:55:43 GMT 61.962799 -22.695890 36,000 305 497 0
2021-05-15 14:55:38 GMT 61.956421 -22.676392 36,000 305 496 0
2021-05-15 14:55:32 GMT 61.949615 -22.655672 36,000 306 496 0
2021-05-15 14:55:28 GMT 61.943298 -22.636543 36,000 306 496 0
2021-05-15 14:55:23 GMT 61.936497 -22.615866 36,000 306 496 0
2021-05-15 14:55:18 GMT 61.929886 -22.595926 36,000 306 496 0
2021-05-15 14:55:13 GMT 61.923340 -22.576021 36,000 306 497 0
2021-05-15 14:55:08 GMT 61.916897 -22.556559 36,000 306 497 0
2021-05-15 14:55:03 GMT 61.910568 -22.537472 36,000 306 497 0
2021-05-15 14:54:58 GMT 61.903976 -22.517559 36,000 306 497 0
2021-05-15 14:54:53 GMT 61.897110 -22.496960 36,000 306 496 0
2021-05-15 14:54:48 GMT 61.890381 -22.476751 36,000 306 496 0
2021-05-15 14:54:43 GMT 61.883789 -22.456839 36,000 306 496 0
2021-05-15 14:54:38 GMT 61.877468 -22.437845 36,000 306 497 0
2021-05-15 14:54:33 GMT 61.871017 -22.418486 36,000 306 496 0
2021-05-15 14:54:28 GMT 61.864105 -22.397886 36,000 306 496 0
2021-05-15 14:54:22 GMT 61.856873 -22.376110 36,000 306 496 0
2021-05-15 14:54:18 GMT 61.851303 -22.359516 36,000 306 496 0
2021-05-15 14:54:13 GMT 61.844414 -22.338968 36,000 306 497 0
2021-05-15 14:54:08 GMT 61.837944 -22.319641 36,000 306 497 0
2021-05-15 14:54:03 GMT 61.831192 -22.299400 36,000 306 497 0
2021-05-15 14:53:58 GMT 61.824463 -22.279293 36,000 306 497 0
2021-05-15 14:53:53 GMT 61.817974 -22.259928 36,000 306 497 0
2021-05-15 14:53:48 GMT 61.811504 -22.240499 36,000 306 497 0
2021-05-15 14:53:43 GMT 61.804848 -22.220764 36,000 306 496 0
2021-05-15 14:53:38 GMT 61.797955 -22.200216 36,000 306 496 0
2021-05-15 14:53:32 GMT 61.790928 -22.179361 36,000 306 497 0
2021-05-15 14:53:27 GMT 61.783905 -22.158443 36,000 306 497 0
2021-05-15 14:53:23 GMT 61.778030 -22.141113 36,000 306 497 0
2021-05-15 14:53:18 GMT 61.771095 -22.120667 36,000 306 497 0
2021-05-15 14:53:13 GMT 61.764297 -22.100525 36,000 306 497 0
2021-05-15 14:53:08 GMT 61.757767 -22.081244 36,000 306 497 0
2021-05-15 14:53:03 GMT 61.751080 -22.061563 36,000 306 496 0
2021-05-15 14:52:58 GMT 61.744419 -22.041931 36,000 306 496 0
2021-05-15 14:52:52 GMT 61.737625 -22.021898 36,000 306 496 0
2021-05-15 14:52:47 GMT 61.731125 -22.002672 36,000 306 496 0
2021-05-15 14:52:42 GMT 61.724636 -21.983541 36,000 306 495 0
2021-05-15 14:52:37 GMT 61.717701 -21.963095 36,000 306 495 0
2021-05-15 14:52:32 GMT 61.711578 -21.945091 36,000 306 495 0
2021-05-15 14:52:27 GMT 61.704437 -21.924004 36,000 306 495 0
2021-05-15 14:52:22 GMT 61.697891 -21.904875 36,000 306 495 0
2021-05-15 14:52:17 GMT 61.691212 -21.885376 36,000 306 495 -64
2021-05-15 14:52:11 GMT 61.684044 -21.864218 36,000 306 495 -64
2021-05-15 14:52:07 GMT 61.677795 -21.845921 36,000 306 495 -64
2021-05-15 14:52:02 GMT 61.670868 -21.825562 36,025 306 496 -64
2021-05-15 14:51:57 GMT 61.664444 -21.806845 36,000 306 497 128
2021-05-15 14:51:52 GMT 61.657745 -21.787359 36,000 306 497 448
2021-05-15 14:51:47 GMT 61.650513 -21.766270 35,925 306 496 768
2021-05-15 14:51:42 GMT 61.644196 -21.747927 35,850 306 496 1024
2021-05-15 14:51:35 GMT 61.635452 -21.722618 35,750 306 496 1024
2021-05-15 14:51:31 GMT 61.630089 -21.707052 35,675 306 496 960
2021-05-15 14:51:27 GMT 61.623917 -21.689171 35,600 306 496 832
2021-05-15 14:51:21 GMT 61.616402 -21.667379 35,525 306 495 768
2021-05-15 14:51:14 GMT 61.606613 -21.639046 35,425 306 494 768
2021-05-15 14:51:10 GMT 61.601669 -21.624723 35,375 306 494 896
2021-05-15 14:51:03 GMT 61.592606 -21.598335 35,250 306 494 1024
2021-05-15 14:51:02 GMT 61.590591 -21.592548 35,225 307 494 1152
2021-05-15 14:50:55 GMT 61.581757 -21.567045 35,100 307 494 1088
2021-05-15 14:50:49 GMT 61.573063 -21.541849 35,000 306 494 896
2021-05-15 14:50:47 GMT 61.570221 -21.533813 34,975 306 494 832
2021-05-15 14:50:41 GMT 61.562897 -21.512506 34,900 306 493 960
2021-05-15 14:50:37 GMT 61.557003 -21.495462 34,825 306 493 1088
2021-05-15 14:50:32 GMT 61.549942 -21.475035 34,725 307 493 1152
2021-05-15 14:50:27 GMT 61.543129 -21.455383 34,625 307 493 1152
2021-05-15 14:50:21 GMT 61.535633 -21.433819 34,525 307 493 1024
2021-05-15 14:50:17 GMT 61.529907 -21.417236 34,450 307 493 1024
2021-05-15 14:50:12 GMT 61.523300 -21.398424 34,375 307 493 1088
2021-05-15 14:50:06 GMT 61.516205 -21.378119 34,275 307 493 1152
2021-05-15 14:50:01 GMT 61.508820 -21.357016 34,175 307 492 1088
2021-05-15 14:49:57 GMT 61.502930 -21.340158 34,075 307 493 960
2021-05-15 14:49:52 GMT 61.496201 -21.320932 34,025 307 491 512
2021-05-15 14:49:47 GMT 61.489780 -21.302591 34,000 307 491 128
2021-05-15 14:49:41 GMT 61.482330 -21.281128 34,000 307 491 0
2021-05-15 14:49:37 GMT 61.476013 -21.263155 34,000 307 491 0
2021-05-15 14:49:32 GMT 61.469345 -21.243998 34,000 307 491 0
2021-05-15 14:49:27 GMT 61.462360 -21.224161 34,000 307 491 0
2021-05-15 14:49:20 GMT 61.454029 -21.200460 34,000 307 492 0
2021-05-15 14:49:17 GMT 61.449188 -21.186741 34,000 307 492 0
2021-05-15 14:49:12 GMT 61.442596 -21.168104 34,000 307 492 0
2021-05-15 14:49:05 GMT 61.432800 -21.140341 34,000 307 491 0
2021-05-15 14:49:02 GMT 61.428890 -21.129251 34,000 307 491 0
2021-05-15 14:48:57 GMT 61.422043 -21.109936 34,000 307 491 0
2021-05-15 14:48:51 GMT 61.415726 -21.091984 34,000 307 491 0
2021-05-15 14:48:45 GMT 61.407394 -21.068441 34,000 307 492 0
2021-05-15 14:48:41 GMT 61.401718 -21.052551 34,000 307 492 0
2021-05-15 14:48:36 GMT 61.395172 -21.033915 34,000 307 491 0
2021-05-15 14:48:31 GMT 61.388294 -21.014404 34,000 307 491 0
2021-05-15 14:48:26 GMT 61.381714 -20.995756 34,000 307 492 0
2021-05-15 14:48:21 GMT 61.374847 -20.976334 34,000 307 492 0
2021-05-15 14:48:16 GMT 61.367722 -20.956217 34,000 307 492 0
2021-05-15 14:48:11 GMT 61.361252 -20.937981 34,000 307 492 0
2021-05-15 14:48:06 GMT 61.354248 -20.918262 34,000 307 492 0
2021-05-15 14:47:58 GMT 61.344398 -20.890503 34,000 307 492 0
2021-05-15 14:47:56 GMT 61.341156 -20.881380 34,000 307 492 0
2021-05-15 14:47:47 GMT 61.329620 -20.849207 34,000 307 492 0
2021-05-15 14:47:46 GMT 61.327744 -20.843811 34,000 307 492 0
2021-05-15 14:47:41 GMT 61.320419 -20.823408 34,000 307 492 0
2021-05-15 14:47:36 GMT 61.313908 -20.805155 34,000 307 493 -64
2021-05-15 14:47:30 GMT 61.306458 -20.784367 34,000 307 493 0
2021-05-15 14:47:26 GMT 61.300049 -20.766514 34,000 307 493 0
2021-05-15 14:47:21 GMT 61.293423 -20.747986 34,000 307 493 0
2021-05-15 14:47:15 GMT 61.285858 -20.726788 34,000 307 492 0
2021-05-15 14:47:11 GMT 61.279877 -20.710144 34,000 307 492 0
2021-05-15 14:47:06 GMT 61.272995 -20.690886 34,000 307 492 0
2021-05-15 14:47:01 GMT 61.266048 -20.671591 34,000 307 492 0
2021-05-15 14:46:56 GMT 61.259533 -20.653482 34,000 307 492 0
2021-05-15 14:46:51 GMT 61.252598 -20.634359 34,000 307 492 0
2021-05-15 14:46:46 GMT 61.246216 -20.616629 34,000 307 492 0
2021-05-15 14:46:41 GMT 61.239422 -20.597738 34,000 307 492 0
2021-05-15 14:46:36 GMT 61.232346 -20.578205 34,000 307 492 0
2021-05-15 14:46:31 GMT 61.225800 -20.560127 34,000 307 492 0
2021-05-15 14:46:26 GMT 61.218891 -20.540976 34,000 307 491 0
2021-05-15 14:46:21 GMT 61.211536 -20.520630 34,000 307 491 0
2021-05-15 14:46:16 GMT 61.205292 -20.503332 34,000 307 491 0
2021-05-15 14:46:11 GMT 61.197922 -20.483126 34,000 307 491 0
2021-05-15 14:46:06 GMT 61.191101 -20.464390 34,000 308 491 0
2021-05-15 14:46:01 GMT 61.184303 -20.445658 34,000 308 491 0
2021-05-15 14:45:56 GMT 61.177509 -20.426941 34,000 308 491 0
2021-05-15 14:45:51 GMT 61.170803 -20.408529 34,000 308 491 0
2021-05-15 14:45:46 GMT 61.163864 -20.389448 34,000 308 491 0
2021-05-15 14:45:41 GMT 61.157181 -20.371105 34,000 308 491 0
2021-05-15 14:45:36 GMT 61.150227 -20.352072 34,000 307 490 0
2021-05-15 14:45:31 GMT 61.143448 -20.333340 34,000 307 490 0
2021-05-15 14:45:26 GMT 61.136776 -20.315042 34,000 307 490 0
2021-05-15 14:45:21 GMT 61.129669 -20.295671 34,000 308 489 0
2021-05-15 14:45:16 GMT 61.123169 -20.277721 34,000 308 489 0
2021-05-15 14:45:10 GMT 61.114986 -20.255432 34,000 308 489 0
2021-05-15 14:45:06 GMT 61.109543 -20.240479 34,000 308 489 0
2021-05-15 14:45:01 GMT 61.102341 -20.220827 34,000 308 488 0
2021-05-15 14:44:56 GMT 61.095932 -20.203367 34,000 308 488 0
2021-05-15 14:44:50 GMT 61.087738 -20.181198 34,000 308 488 0
2021-05-15 14:44:45 GMT 61.081612 -20.164591 34,000 308 488 0
2021-05-15 14:44:39 GMT 61.074097 -20.144217 34,000 308 488 0
2021-05-15 14:44:35 GMT 61.067692 -20.126953 34,000 308 487 0
2021-05-15 14:44:30 GMT 61.060337 -20.107016 34,000 308 487 0
2021-05-15 14:44:25 GMT 61.053772 -20.089417 34,000 308 487 0
2021-05-15 14:44:20 GMT 61.046417 -20.069471 34,000 308 486 0
2021-05-15 14:44:15 GMT 61.039810 -20.051943 34,000 309 486 0
2021-05-15 14:44:09 GMT 61.031982 -20.031771 34,000 310 486 0
2021-05-15 14:44:03 GMT 61.024704 -20.013491 34,000 310 486 0
2021-05-15 14:43:58 GMT 61.016968 -19.994453 34,000 311 486 0
2021-05-15 14:43:54 GMT 61.010788 -19.979679 34,000 312 485 0
2021-05-15 14:43:45 GMT 60.998016 -19.950035 34,000 312 485 0
2021-05-15 14:43:36 GMT 60.984268 -19.919683 34,000 314 485 0
2021-05-15 14:43:33 GMT 60.979755 -19.910070 34,000 315 485 0
2021-05-15 14:43:28 GMT 60.971237 -19.892357 34,000 315 485 0
2021-05-15 14:43:24 GMT 60.964554 -19.878624 34,000 315 485 0
2021-05-15 14:43:18 GMT 60.954437 -19.857788 34,000 315 486 0
2021-05-15 14:43:14 GMT 60.948257 -19.845001 34,000 315 486 0
2021-05-15 14:43:08 GMT 60.938881 -19.825809 34,000 316 487 0
2021-05-15 14:41:34 GMT 60.789459 -19.520811 34,000 316 488 0
2021-05-15 14:41:32 GMT 60.786236 -19.514269 34,000 316 488 0
We lost coverage of the aircraft here for a total of 38 minutes
2021-05-15 14:03:54 GMT 56.967976 -12.927364 34,000 310 493 0
2021-05-15 14:03:31 GMT 56.934364 -12.851966 34,000 310 496 0
2021-05-15 14:03:21 GMT 56.920578 -12.821302 34,000 310 496 0
2021-05-15 14:03:13 GMT 56.908859 -12.795124 34,000 310 496 0
2021-05-15 14:03:03 GMT 56.893616 -12.761135 34,000 310 496 0
2021-05-15 14:02:52 GMT 56.877319 -12.724915 34,000 310 496 0
2021-05-15 14:02:42 GMT 56.863266 -12.693501 34,000 310 496 0
2021-05-15 14:02:32 GMT 56.848476 -12.660503 34,000 310 496 0
2021-05-15 14:02:22 GMT 56.834278 -12.628873 34,000 310 496 0
2021-05-15 14:02:16 GMT 56.825573 -12.609470 34,000 310 496 0
2021-05-15 14:02:12 GMT 56.819893 -12.596888 34,000 310 496 0
2021-05-15 14:02:02 GMT 56.805042 -12.563929 34,000 310 497 0
2021-05-15 14:01:58 GMT 56.799690 -12.551968 34,000 310 497 0
2021-05-15 14:01:52 GMT 56.789886 -12.530336 34,000 310 497 0
2021-05-15 14:01:47 GMT 56.784046 -12.517415 34,000 310 497 0
2021-05-15 14:01:41 GMT 56.774460 -12.496090 34,000 310 497 0
2021-05-15 14:01:37 GMT 56.769196 -12.484503 34,000 310 497 0
2021-05-15 14:01:31 GMT 56.760315 -12.464848 34,000 310 497 0
2021-05-15 14:01:24 GMT 56.750252 -12.442548 34,000 310 497 0
2021-05-15 14:01:21 GMT 56.745174 -12.431296 34,000 310 497 0
2021-05-15 14:01:15 GMT 56.736378 -12.411893 34,000 310 497 0
2021-05-15 14:01:10 GMT 56.730091 -12.398071 34,000 310 497 0
2021-05-15 14:01:00 GMT 56.715500 -12.365885 34,000 310 497 0
2021-05-15 14:00:55 GMT 56.707031 -12.347260 34,000 310 497 0
2021-05-15 14:00:50 GMT 56.699974 -12.331888 34,000 310 497 0
2021-05-15 14:00:45 GMT 56.685822 -12.300789 34,000 310 496 0
2021-05-15 14:00:40 GMT 56.685822 -12.300789 34,000 310 497 0
2021-05-15 14:00:34 GMT 56.677025 -12.281563 34,000 310 496 0
2021-05-15 14:00:31 GMT 56.672928 -12.272587 34,000 310 496 0
2021-05-15 14:00:27 GMT 56.666924 -12.259413 34,000 310 497 0
2021-05-15 14:00:24 GMT 56.662407 -12.249490 34,000 310 497 0
2021-05-15 14:00:19 GMT 56.655518 -12.234428 34,000 310 496 0
2021-05-15 14:00:16 GMT 56.650269 -12.222891 34,000 310 496 0
2021-05-15 14:00:07 GMT 56.637222 -12.194470 34,000 310 497 0
2021-05-15 13:59:57 GMT 56.621998 -12.161156 34,000 310 497 0
2021-05-15 13:59:50 GMT 56.612175 -12.139715 34,000 310 497 0
2021-05-15 13:59:46 GMT 56.606735 -12.127876 34,000 310 497 0
2021-05-15 13:59:39 GMT 56.595612 -12.103672 34,000 310 497 0
2021-05-15 13:59:36 GMT 56.592361 -12.096613 34,000 310 497 0
2021-05-15 13:59:26 GMT 56.577805 -12.065069 34,000 310 496 0
2021-05-15 13:59:16 GMT 56.562271 -12.031317 34,000 310 496 0
2021-05-15 13:59:06 GMT 56.548027 -12.000418 34,000 310 496 0
2021-05-15 13:59:01 GMT 56.540817 -11.984919 34,000 311 496 0
2021-05-15 13:58:56 GMT 56.532852 -11.967773 34,000 310 496 0
2021-05-15 13:58:52 GMT 56.527870 -11.956902 34,000 310 496 0
2021-05-15 13:58:46 GMT 56.518158 -11.935980 34,000 310 495 0
2021-05-15 13:58:42 GMT 56.512894 -11.924577 34,000 310 495 0
2021-05-15 13:58:35 GMT 56.501450 -11.899858 34,000 310 495 0
2021-05-15 13:58:27 GMT 56.490116 -11.875448 34,000 310 495 0
2021-05-15 13:58:16 GMT 56.474899 -11.842596 34,000 310 494 0
2021-05-15 13:58:13 GMT 56.469772 -11.831526 34,000 310 494 0
2021-05-15 13:58:05 GMT 56.457718 -11.805582 34,000 310 494 0
2021-05-15 13:58:00 GMT 56.451431 -11.792021 34,000 310 494 0
2021-05-15 13:57:55 GMT 56.443085 -11.774098 34,000 311 493 0
2021-05-15 13:57:52 GMT 56.439236 -11.765842 34,000 311 494 0
2021-05-15 13:57:45 GMT 56.429260 -11.744468 34,000 311 494 0
2021-05-15 13:57:35 GMT 56.414383 -11.712674 34,000 311 494 0
2021-05-15 13:57:25 GMT 56.399803 -11.681643 34,000 311 494 0
2021-05-15 13:57:22 GMT 56.395245 -11.671858 34,000 311 494 0
2021-05-15 13:57:15 GMT 56.379787 -11.638899 34,000 311 495 0
2021-05-15 13:57:12 GMT 56.379787 -11.638899 34,000 311 495 0
2021-05-15 13:57:05 GMT 56.369614 -11.617293 34,000 311 494 0
2021-05-15 13:57:00 GMT 56.363251 -11.603726 34,000 311 494 0
2021-05-15 13:56:55 GMT 56.355011 -11.586165 34,000 311 494 0
2021-05-15 13:56:52 GMT 56.350319 -11.576071 34,000 311 494 0
2021-05-15 13:56:44 GMT 56.339100 -11.552210 34,000 311 495 0
2021-05-15 13:56:41 GMT 56.334686 -11.542802 34,000 311 495 0
2021-05-15 13:56:37 GMT 56.327461 -11.527491 34,000 311 495 0
2021-05-15 13:56:34 GMT 56.324532 -11.521225 34,000 311 495 0
2021-05-15 13:56:31 GMT 56.320526 -11.512728 34,000 311 495 0
2021-05-15 13:56:24 GMT 56.310196 -11.490784 34,000 311 494 0
2021-05-15 13:56:21 GMT 56.305489 -11.480799 34,000 311 494 0
2021-05-15 13:56:14 GMT 56.294678 -11.457908 34,000 311 495 0
2021-05-15 13:56:10 GMT 56.288174 -11.444149 34,000 311 495 0
2021-05-15 13:56:04 GMT 56.279282 -11.425438 34,000 311 495 0
2021-05-15 13:56:00 GMT 56.274536 -11.415461 34,000 311 495 0
2021-05-15 13:55:54 GMT 56.264618 -11.394539 34,000 311 495 0
2021-05-15 13:55:50 GMT 56.259842 -11.384499 34,000 311 495 0
2021-05-15 13:55:43 GMT 56.249302 -11.362352 34,000 311 495 0
2021-05-15 13:55:40 GMT 56.244553 -11.352289 34,000 311 495 0
2021-05-15 13:55:33 GMT 56.234032 -11.330166 34,000 311 495 0
2021-05-15 13:55:30 GMT 56.229584 -11.320745 34,000 311 495 0
2021-05-15 13:55:23 GMT 56.218437 -11.297293 34,000 311 496 0
2021-05-15 13:55:20 GMT 56.215164 -11.290450 34,000 311 496 0
2021-05-15 13:55:13 GMT 56.203903 -11.266729 34,000 311 495 0
2021-05-15 13:55:09 GMT 56.198887 -11.256094 34,000 311 495 0
2021-05-15 13:55:03 GMT 56.189388 -11.236095 34,000 311 495 0
2021-05-15 13:55:00 GMT 56.185059 -11.227083 34,000 311 495 0
2021-05-15 13:54:53 GMT 56.174194 -11.204307 34,000 311 496 0
2021-05-15 13:54:50 GMT 56.169571 -11.194652 34,000 311 496 0
2021-05-15 13:54:42 GMT 56.158291 -11.170950 34,000 311 496 0
2021-05-15 13:54:39 GMT 56.154419 -11.162858 34,000 311 497 0
2021-05-15 13:54:33 GMT 56.144302 -11.141635 34,000 311 497 0
2021-05-15 13:54:30 GMT 56.140091 -11.132927 34,000 311 497 0
2021-05-15 13:54:20 GMT 56.125332 -11.102028 34,000 311 497 0
2021-05-15 13:54:10 GMT 56.110245 -11.070557 34,000 311 497 0
2021-05-15 13:54:00 GMT 56.094727 -11.038263 34,000 311 497 0
2021-05-15 13:53:52 GMT 56.083054 -11.013960 34,000 311 497 0
2021-05-15 13:53:49 GMT 56.079899 -11.007442 34,000 311 497 0
2021-05-15 13:53:39 GMT 56.064770 -10.976114 34,000 311 496 0
2021-05-15 13:53:29 GMT 56.049179 -10.943798 34,000 311 496 0
2021-05-15 13:53:19 GMT 56.033752 -10.911921 34,000 311 496 0
2021-05-15 13:53:09 GMT 56.018726 -10.881014 34,000 311 495 0
2021-05-15 13:53:00 GMT 56.004810 -10.852261 34,000 311 495 0
2021-05-15 13:52:51 GMT 55.990631 -10.822948 34,000 311 494 0
2021-05-15 13:52:48 GMT 55.988235 -10.818014 34,000 311 494 0
2021-05-15 13:52:41 GMT 55.976166 -10.793069 34,000 311 494 0
2021-05-15 13:52:38 GMT 55.972595 -10.785742 34,000 311 494 0
2021-05-15 13:52:33 GMT 55.964260 -10.768576 34,000 311 492 0
2021-05-15 13:52:31 GMT 55.960213 -10.760250 34,000 311 493 0
2021-05-15 13:52:28 GMT 55.958164 -10.755959 34,000 311 492 0
2021-05-15 13:52:19 GMT 55.944763 -10.728399 34,000 312 491 0
2021-05-15 13:52:10 GMT 55.930885 -10.699997 34,000 312 491 0
2021-05-15 13:52:07 GMT 55.926132 -10.690280 34,000 312 491 0
2021-05-15 13:51:57 GMT 55.912125 -10.661631 34,000 312 491 0
2021-05-15 13:51:48 GMT 55.897087 -10.630903 34,000 311 491 0
2021-05-15 13:51:36 GMT 55.881088 -10.598061 34,000 312 490 0
2021-05-15 13:51:29 GMT 55.869621 -10.574684 34,000 312 490 0
2021-05-15 13:51:26 GMT 55.865799 -10.566850 34,000 312 490 0
2021-05-15 13:51:17 GMT 55.851234 -10.537090 34,000 312 489 0
2021-05-15 13:51:08 GMT 55.838882 -10.512002 34,000 312 489 0
2021-05-15 13:51:05 GMT 55.834854 -10.503845 34,000 312 488 0
2021-05-15 13:50:58 GMT 55.823441 -10.480614 34,000 312 488 0
2021-05-15 13:50:55 GMT 55.819565 -10.472801 34,000 312 488 0
2021-05-15 13:50:49 GMT 55.808395 -10.450162 34,000 312 489 0
2021-05-15 13:50:46 GMT 55.804688 -10.442671 34,000 312 489 0
2021-05-15 13:50:38 GMT 55.793510 -10.420017 34,000 312 489 0
2021-05-15 13:50:35 GMT 55.789673 -10.412209 34,000 312 489 0
2021-05-15 13:50:28 GMT 55.778797 -10.390234 34,000 312 488 0
2021-05-15 13:50:25 GMT 55.774467 -10.381479 34,000 312 488 0
2021-05-15 13:50:20 GMT 55.768524 -10.369429 34,000 312 488 0
2021-05-15 13:50:16 GMT 55.762318 -10.356760 34,000 312 488 0
2021-05-15 13:50:12 GMT 55.755341 -10.342629 34,000 312 488 0
2021-05-15 13:50:08 GMT 55.748657 -10.329063 34,000 312 488 0
2021-05-15 13:50:04 GMT 55.743607 -10.318823 34,000 312 488 0
2021-05-15 13:50:01 GMT 55.739456 -10.310419 34,000 312 488 0
2021-05-15 13:49:58 GMT 55.732479 -10.296335 34,000 312 488 0
2021-05-15 13:49:54 GMT 55.728291 -10.287924 34,000 312 488 0
2021-05-15 13:49:50 GMT 55.722977 -10.277127 34,000 312 487 0
2021-05-15 13:49:46 GMT 55.717484 -10.266058 34,000 312 487 0
2021-05-15 13:49:43 GMT 55.711990 -10.254988 34,000 312 487 0
2021-05-15 13:49:40 GMT 55.708832 -10.248746 34,000 312 487 0
2021-05-15 13:49:35 GMT 55.701416 -10.233765 34,000 312 487 0
2021-05-15 13:49:32 GMT 55.696655 -10.224193 34,000 312 487 0
2021-05-15 13:49:26 GMT 55.686722 -10.204218 34,000 312 487 0
2021-05-15 13:49:21 GMT 55.680759 -10.192308 34,000 312 487 0
2021-05-15 13:49:15 GMT 55.670380 -10.171452 34,000 312 486 0
2021-05-15 13:49:12 GMT 55.666489 -10.163685 34,000 312 486 0
2021-05-15 13:49:05 GMT 55.656372 -10.143377 34,000 312 486 0
2021-05-15 13:49:02 GMT 55.651474 -10.133556 34,000 312 486 0
2021-05-15 13:48:55 GMT 55.640625 -10.111833 34,000 312 486 0
2021-05-15 13:48:51 GMT 55.635590 -10.101679 34,000 312 486 0
2021-05-15 13:48:45 GMT 55.627121 -10.084700 34,000 312 486 0
2021-05-15 13:48:41 GMT 55.620892 -10.072145 34,000 312 486 0
2021-05-15 13:48:35 GMT 55.612244 -10.054987 34,000 312 486 0
2021-05-15 13:48:32 GMT 55.605858 -10.042191 34,000 312 486 0
2021-05-15 13:48:24 GMT 55.595474 -10.021420 34,000 312 486 0
2021-05-15 13:48:21 GMT 55.589935 -10.010433 34,000 312 486 0
2021-05-15 13:48:14 GMT 55.580292 -9.991150 34,000 312 486 0
2021-05-15 13:48:11 GMT 55.575348 -9.981412 34,000 312 486 0
2021-05-15 13:48:03 GMT 55.564590 -9.960105 34,000 312 485 0
2021-05-15 13:48:00 GMT 55.559536 -9.950094 34,000 312 486 0
2021-05-15 13:47:55 GMT 55.551762 -9.934731 34,000 312 486 0
2021-05-15 13:47:51 GMT 55.544632 -9.920488 34,000 312 485 0
2021-05-15 13:47:46 GMT 55.534241 -9.899847 34,000 312 485 0
2021-05-15 13:47:43 GMT 55.534241 -9.899847 34,000 312 485 0
2021-05-15 13:47:40 GMT 55.529022 -9.889443 34,000 312 485 0
2021-05-15 13:47:38 GMT 55.524574 -9.880657 34,000 312 485 0
2021-05-15 13:47:33 GMT 55.519318 -9.870272 34,000 312 485 0
2021-05-15 13:47:30 GMT 55.513962 -9.859730 34,000 312 485 0
2021-05-15 13:47:27 GMT 55.509495 -9.850874 34,000 312 486 0
2021-05-15 13:47:23 GMT 55.504559 -9.841089 34,000 312 486 0
2021-05-15 13:47:20 GMT 55.498741 -9.829674 34,000 312 486 0
2021-05-15 13:47:16 GMT 55.493088 -9.818448 34,000 312 486 0
2021-05-15 13:47:13 GMT 55.483200 -9.798972 34,000 312 486 0
2021-05-15 13:47:09 GMT 55.483200 -9.798972 34,000 312 486 0
2021-05-15 13:47:03 GMT 55.473789 -9.780407 34,000 312 486 0
2021-05-15 13:46:59 GMT 55.467037 -9.767189 34,000 312 486 0
2021-05-15 13:46:56 GMT 55.458378 -9.750023 34,000 312 487 0
2021-05-15 13:46:52 GMT 55.458378 -9.750023 34,000 312 486 0
2021-05-15 13:46:47 GMT 55.450745 -9.735003 34,000 312 486 0
2021-05-15 13:46:44 GMT 55.444786 -9.723244 34,000 312 487 0
2021-05-15 13:46:41 GMT 55.441483 -9.716741 34,000 312 487 0
2021-05-15 13:46:35 GMT 55.432774 -9.699679 34,000 312 487 0
2021-05-15 13:46:32 GMT 55.428120 -9.690524 34,000 312 487 0
2021-05-15 13:46:26 GMT 55.417511 -9.669584 34,000 312 487 0
2021-05-15 13:46:22 GMT 55.412567 -9.659891 34,000 312 487 0
2021-05-15 13:46:18 GMT 55.405636 -9.646329 34,000 312 487 0
2021-05-15 13:46:14 GMT 55.398010 -9.631294 34,000 312 487 0
2021-05-15 13:46:09 GMT 55.393486 -9.622525 34,000 313 487 0
2021-05-15 13:46:07 GMT 55.390179 -9.616033 34,000 313 487 0
2021-05-15 13:46:04 GMT 55.385525 -9.606961 34,000 313 487 0
2021-05-15 13:46:01 GMT 55.381474 -9.599055 34,000 313 487 0
2021-05-15 13:45:57 GMT 55.374847 -9.586137 34,000 313 487 0
2021-05-15 13:45:54 GMT 55.370350 -9.577332 34,000 313 487 0
2021-05-15 13:45:51 GMT 55.366608 -9.569980 34,000 313 487 0
2021-05-15 13:45:47 GMT 55.359222 -9.555609 34,000 313 487 0
2021-05-15 13:45:43 GMT 55.354843 -9.547119 34,000 313 487 0
2021-05-15 13:45:40 GMT 55.349167 -9.536052 34,000 313 487 0
2021-05-15 13:45:35 GMT 55.336807 -9.511979 34,000 313 487 0
2021-05-15 13:45:32 GMT 55.336807 -9.511979 34,000 313 487 0
2021-05-15 13:45:25 GMT 55.328064 -9.495015 34,000 313 487 0
2021-05-15 13:45:22 GMT 55.322075 -9.483282 34,000 313 487 0
2021-05-15 13:45:20 GMT 55.320583 -9.480369 34,000 313 487 0
2021-05-15 13:45:16 GMT 55.312317 -9.464318 34,000 313 487 0
2021-05-15 13:45:13 GMT 55.309460 -9.458729 34,000 313 487 0
2021-05-15 13:45:10 GMT 55.304199 -9.448492 34,000 313 487 0
2021-05-15 13:45:06 GMT 55.298939 -9.438255 34,000 313 487 0
2021-05-15 13:45:03 GMT 55.293633 -9.428017 34,000 313 487 0
2021-05-15 13:45:00 GMT 55.289581 -9.420111 34,000 313 487 0
2021-05-15 13:44:56 GMT 55.284439 -9.410194 34,000 313 487 0
2021-05-15 13:44:53 GMT 55.278580 -9.398804 34,000 313 487 0
2021-05-15 13:44:50 GMT 55.274231 -9.390322 34,000 313 487 0
2021-05-15 13:44:46 GMT 55.268005 -9.378366 34,000 313 487 0
2021-05-15 13:44:43 GMT 55.264118 -9.370755 34,000 313 487 0
2021-05-15 13:44:40 GMT 55.259262 -9.361402 34,000 313 487 0
2021-05-15 13:44:36 GMT 55.253998 -9.351223 34,000 313 487 0
2021-05-15 13:44:33 GMT 55.242783 -9.329574 34,000 313 487 0
2021-05-15 13:44:29 GMT 55.242783 -9.329574 34,000 313 487 0
2021-05-15 13:44:25 GMT 55.236324 -9.317072 34,000 313 487 0
2021-05-15 13:44:21 GMT 55.230698 -9.306228 34,000 313 487 0
2021-05-15 13:44:19 GMT 55.227539 -9.300169 34,000 313 487 0
2021-05-15 13:44:15 GMT 55.221313 -9.288213 34,000 313 488 0
2021-05-15 13:44:10 GMT 55.215408 -9.276823 34,000 313 487 0
2021-05-15 13:44:08 GMT 55.211609 -9.269553 34,000 313 488 0
2021-05-15 13:44:05 GMT 55.199966 -9.247076 34,000 313 489 0
2021-05-15 13:44:02 GMT 55.199966 -9.247076 34,000 313 488 0
2021-05-15 13:43:59 GMT 55.197220 -9.241832 34,000 313 488 0
2021-05-15 13:43:56 GMT 55.192844 -9.233426 34,000 313 489 0
2021-05-15 13:43:50 GMT 55.183731 -9.215914 34,000 313 488 0
2021-05-15 13:43:48 GMT 55.181168 -9.210986 34,000 313 488 0
2021-05-15 13:43:43 GMT 55.168716 -9.187075 34,000 313 489 0
2021-05-15 13:43:38 GMT 55.166309 -9.182406 34,000 313 489 0
2021-05-15 13:43:35 GMT 55.159607 -9.169626 34,000 313 488 0
2021-05-15 13:43:31 GMT 55.154617 -9.160013 34,000 313 489 0
2021-05-15 13:43:28 GMT 55.149902 -9.150965 34,000 313 489 0
2021-05-15 13:43:24 GMT 55.143173 -9.138211 34,000 313 489 0
2021-05-15 13:43:20 GMT 55.138000 -9.128346 34,000 313 489 0
2021-05-15 13:43:17 GMT 55.133911 -9.120483 34,000 313 489 0
2021-05-15 13:43:14 GMT 55.129490 -9.112077 34,000 313 489 0
2021-05-15 13:43:10 GMT 55.122364 -9.098428 34,000 313 489 0
2021-05-15 13:43:06 GMT 55.116268 -9.086775 34,000 313 489 0
2021-05-15 13:43:02 GMT 55.110355 -9.075456 34,000 313 489 0
2021-05-15 13:42:59 GMT 55.107281 -9.069630 34,000 313 489 0
2021-05-15 13:42:57 GMT 55.103348 -9.062105 34,000 313 489 0
2021-05-15 13:42:54 GMT 55.098633 -9.053138 34,000 313 489 0
2021-05-15 13:42:50 GMT 55.092682 -9.041748 34,000 313 489 0
2021-05-15 13:42:47 GMT 55.087967 -9.032781 34,000 313 489 0
2021-05-15 13:42:44 GMT 55.082977 -9.023168 34,000 313 489 0
2021-05-15 13:42:40 GMT 55.077026 -9.011859 34,000 313 489 0
2021-05-15 13:42:38 GMT 55.072906 -9.004023 34,000 313 489 0
2021-05-15 13:42:34 GMT 55.068512 -8.995622 34,000 313 489 0
2021-05-15 13:42:30 GMT 55.062241 -8.983747 34,000 313 489 0
2021-05-15 13:42:27 GMT 55.057251 -8.974134 34,000 313 489 0
2021-05-15 13:42:23 GMT 55.051140 -8.962513 34,000 313 489 0
2021-05-15 13:42:20 GMT 55.046391 -8.953525 34,000 313 489 0
2021-05-15 13:42:18 GMT 55.042465 -8.946022 34,000 313 489 0
2021-05-15 13:42:15 GMT 55.039551 -8.940541 34,000 313 489 0
2021-05-15 13:42:12 GMT 55.034801 -8.931469 34,000 313 489 0
2021-05-15 13:42:08 GMT 55.026749 -8.916154 34,000 313 489 0
2021-05-15 13:42:04 GMT 55.021999 -8.907166 34,000 313 489 0
2021-05-15 13:42:01 GMT 55.017574 -8.898759 34,000 313 489 0
2021-05-15 13:41:59 GMT 55.008545 -8.881697 34,000 313 489 0
2021-05-15 13:41:55 GMT 55.008545 -8.881697 34,000 313 489 0
2021-05-15 13:41:49 GMT 54.999527 -8.864594 34,000 313 489 0
2021-05-15 13:41:46 GMT 54.994953 -8.855896 34,000 313 489 0
2021-05-15 13:41:43 GMT 54.990669 -8.847823 34,000 313 489 0
2021-05-15 13:41:40 GMT 54.985794 -8.838582 34,000 313 489 0
2021-05-15 13:41:37 GMT 54.979797 -8.827272 34,000 313 489 0
2021-05-15 13:41:33 GMT 54.974934 -8.818026 34,000 313 489 0
2021-05-15 13:41:30 GMT 54.970642 -8.809985 34,000 313 489 0
2021-05-15 13:41:26 GMT 54.962860 -8.795202 34,000 313 489 0
2021-05-15 13:41:23 GMT 54.959656 -8.789143 34,000 313 489 0
2021-05-15 13:41:20 GMT 54.955055 -8.780490 34,000 313 489 0
2021-05-15 13:41:16 GMT 54.948029 -8.767251 34,000 313 488 0
2021-05-15 13:41:13 GMT 54.939274 -8.750777 34,000 313 488 0
2021-05-15 13:41:10 GMT 54.939274 -8.750777 34,000 313 489 0
2021-05-15 13:41:06 GMT 54.933151 -8.739301 34,000 313 489 0
2021-05-15 13:41:03 GMT 54.928104 -8.729803 34,000 313 489 0
2021-05-15 13:41:00 GMT 54.924240 -8.722645 34,000 313 489 0
2021-05-15 13:40:54 GMT 54.913857 -8.703003 34,000 313 489 0
2021-05-15 13:40:51 GMT 54.908340 -8.692609 34,000 313 489 0
2021-05-15 13:40:46 GMT 54.902664 -8.681946 34,000 313 488 0
2021-05-15 13:40:43 GMT 54.898819 -8.674756 34,000 313 488 0
2021-05-15 13:40:40 GMT 54.893143 -8.664093 34,000 313 489 0
2021-05-15 13:40:36 GMT 54.887650 -8.653731 34,000 313 489 0
2021-05-15 13:40:33 GMT 54.882900 -8.644825 34,000 313 488 0
2021-05-15 13:40:30 GMT 54.878151 -8.635920 34,000 313 488 0
2021-05-15 13:40:26 GMT 54.867397 -8.615861 34,000 313 489 0
2021-05-15 13:40:23 GMT 54.867397 -8.615861 34,000 313 489 0
2021-05-15 13:40:19 GMT 54.862511 -8.606623 34,000 313 488 0
2021-05-15 13:40:16 GMT 54.855286 -8.593167 34,000 313 488 64
2021-05-15 13:40:13 GMT 54.852814 -8.588562 34,000 313 488 0
2021-05-15 13:40:09 GMT 54.847137 -8.577980 34,000 313 488 0
2021-05-15 13:40:05 GMT 54.839447 -8.563681 34,000 313 488 -64
2021-05-15 13:40:03 GMT 54.837296 -8.559723 34,000 313 488 0
2021-05-15 13:40:00 GMT 54.831135 -8.548196 34,000 313 488 0
2021-05-15 13:39:57 GMT 54.827454 -8.541385 34,000 313 488 0
2021-05-15 13:39:54 GMT 54.823196 -8.533307 34,000 313 488 0
2021-05-15 13:39:51 GMT 54.818287 -8.524142 34,000 313 488 0
2021-05-15 13:39:49 GMT 54.815826 -8.519574 34,000 313 488 64
2021-05-15 13:39:45 GMT 54.807541 -8.504145 34,000 313 488 0
2021-05-15 13:39:42 GMT 54.805710 -8.500671 34,000 313 488 0
2021-05-15 13:39:39 GMT 54.800831 -8.491516 34,000 313 488 0
2021-05-15 13:39:34 GMT 54.792355 -8.475786 34,000 313 488 0
2021-05-15 13:39:31 GMT 54.787766 -8.467228 34,000 313 488 0
2021-05-15 13:39:29 GMT 54.784676 -8.461553 34,000 313 488 0
2021-05-15 13:39:24 GMT 54.777134 -8.447488 34,000 313 488 0
2021-05-15 13:39:21 GMT 54.771927 -8.437742 34,000 313 489 0
2021-05-15 13:39:19 GMT 54.769917 -8.434004 34,000 313 489 0
2021-05-15 13:39:17 GMT 54.765656 -8.426029 34,000 313 488 0
2021-05-15 13:39:14 GMT 54.761810 -8.418920 34,000 313 488 0
2021-05-15 13:39:10 GMT 54.753952 -8.404291 34,000 314 489 0
2021-05-15 13:39:04 GMT 54.745197 -8.388062 34,000 314 489 -64
2021-05-15 13:39:01 GMT 54.741486 -8.381195 34,000 314 488 -64
2021-05-15 13:38:59 GMT 54.738419 -8.375460 34,000 314 488 -64
2021-05-15 13:38:56 GMT 54.733795 -8.366921 34,000 314 489 -128
2021-05-15 13:38:54 GMT 54.729931 -8.359847 34,000 314 489 -128
2021-05-15 13:38:51 GMT 54.726105 -8.352679 34,000 314 489 -128
2021-05-15 13:38:49 GMT 54.723175 -8.347267 34,025 313 490 -64
2021-05-15 13:38:46 GMT 54.717918 -8.337541 34,025 313 490 0
2021-05-15 13:38:43 GMT 54.714066 -8.330383 34,025 313 490 128
2021-05-15 13:38:40 GMT 54.708515 -8.320146 34,000 313 490 256
2021-05-15 13:38:38 GMT 54.706234 -8.315818 34,000 313 491 384
2021-05-15 13:38:35 GMT 54.702667 -8.309218 33,975 313 491 512
2021-05-15 13:38:31 GMT 54.694656 -8.294355 33,925 313 491 896
2021-05-15 13:38:29 GMT 54.692364 -8.290017 33,850 313 490 1152
2021-05-15 13:38:26 GMT 54.686962 -8.280029 33,825 313 490 1152
2021-05-15 13:38:24 GMT 54.684029 -8.274619 33,775 313 490 1216
2021-05-15 13:38:21 GMT 54.679562 -8.266296 33,725 313 490 1216
2021-05-15 13:38:18 GMT 54.676163 -8.260054 33,675 314 491 1280
2021-05-15 13:38:15 GMT 54.670898 -8.250329 33,625 314 491 1408
2021-05-15 13:38:11 GMT 54.664104 -8.237749 33,500 314 491 1600
2021-05-15 13:38:08 GMT 54.656204 -8.223105 33,425 314 492 1600
2021-05-15 13:38:06 GMT 54.656204 -8.223105 33,350 314 492 1600
2021-05-15 13:38:02 GMT 54.650803 -8.213088 33,200 314 493 1472
2021-05-15 13:37:59 GMT 54.645218 -8.202829 33,175 314 493 1344
2021-05-15 13:37:56 GMT 54.640366 -8.193862 33,100 314 493 1216
2021-05-15 13:37:53 GMT 54.637436 -8.188450 33,075 314 493 1152
2021-05-15 13:37:50 GMT 54.632126 -8.178739 33,000 313 493 1088
2021-05-15 13:37:48 GMT 54.629837 -8.174394 32,975 313 493 1088
2021-05-15 13:37:46 GMT 54.625141 -8.165838 32,925 313 493 1024
2021-05-15 13:37:44 GMT 54.623604 -8.162925 32,925 313 493 1024
2021-05-15 13:37:41 GMT 54.617432 -8.151452 32,850 313 492 1088
2021-05-15 13:37:39 GMT 54.615875 -8.148610 32,825 313 492 1088
2021-05-15 13:37:36 GMT 54.609825 -8.137373 32,750 313 492 1152
2021-05-15 13:37:32 GMT 54.603493 -8.125638 32,675 313 492 1216
2021-05-15 13:37:29 GMT 54.600220 -8.119624 32,625 313 492 1344
2021-05-15 13:37:26 GMT 54.593903 -8.107910 32,525 313 492 1472
2021-05-15 13:37:23 GMT 54.590652 -8.101852 32,475 313 492 1664
2021-05-15 13:37:20 GMT 54.586487 -8.094096 32,400 313 493 1920
2021-05-15 13:37:18 GMT 54.582321 -8.086422 32,300 313 493 2176
2021-05-15 13:37:15 GMT 54.573326 -8.069708 32,050 313 496 2240
2021-05-15 13:37:12 GMT 54.573326 -8.069708 32,050 313 496 2240
2021-05-15 13:37:09 GMT 54.569138 -8.061884 31,975 313 496 2176
2021-05-15 13:37:06 GMT 54.562546 -8.049666 31,825 313 498 2048
2021-05-15 13:37:02 GMT 54.556011 -8.037498 31,700 313 499 1856
2021-05-15 13:36:58 GMT 54.552380 -8.030839 31,625 313 499 1792
2021-05-15 13:36:56 GMT 54.547852 -8.022443 31,550 313 500 1728
2021-05-15 13:36:52 GMT 54.540619 -8.009033 31,425 314 500 1536
2021-05-15 13:36:49 GMT 54.537903 -8.004123 31,325 314 500 1344
2021-05-15 13:36:46 GMT 54.531292 -7.991888 31,300 314 500 1216
2021-05-15 13:36:43 GMT 54.527298 -7.984718 31,200 314 500 1152
2021-05-15 13:36:39 GMT 54.521713 -7.974620 31,200 314 500 1152
2021-05-15 13:36:37 GMT 54.518677 -7.969166 31,125 314 500 1216
2021-05-15 13:36:33 GMT 54.512299 -7.957764 31,025 314 500 1344
2021-05-15 13:36:30 GMT 54.507660 -7.949416 31,000 314 500 1344
2021-05-15 13:36:27 GMT 54.502289 -7.939620 30,900 313 500 1280
2021-05-15 13:36:23 GMT 54.495117 -7.926151 30,825 312 500 1024
2021-05-15 13:36:19 GMT 54.488976 -7.914401 30,775 312 498 832
2021-05-15 13:36:16 GMT 54.480652 -7.897958 30,725 311 498 832
2021-05-15 13:36:13 GMT 54.480652 -7.897958 30,675 310 497 896
2021-05-15 13:36:10 GMT 54.476917 -7.890431 30,650 310 497 896
2021-05-15 13:36:08 GMT 54.474125 -7.884688 30,625 310 496 896
2021-05-15 13:36:05 GMT 54.469437 -7.875016 30,475 309 496 1152
2021-05-15 13:36:03 GMT 54.461563 -7.858214 30,525 309 496 1152
2021-05-15 13:36:00 GMT 54.461563 -7.858214 30,475 309 495 1216
2021-05-15 13:35:58 GMT 54.457878 -7.850148 30,425 308 495 1344
2021-05-15 13:35:54 GMT 54.453690 -7.840909 30,350 308 495 1408
2021-05-15 13:35:51 GMT 54.449081 -7.830589 30,250 307 495 1344
2021-05-15 13:35:48 GMT 54.444992 -7.821135 30,200 306 495 1216
2021-05-15 13:35:45 GMT 54.435654 -7.798920 30,100 306 494 1088
2021-05-15 13:35:41 GMT 54.430847 -7.786964 30,050 305 494 1024
2021-05-15 13:35:38 GMT 54.430847 -7.786964 30,000 304 493 960
2021-05-15 13:35:35 GMT 54.428642 -7.781483 29,975 304 493 960
2021-05-15 13:35:33 GMT 54.424850 -7.771777 29,925 304 492 896
2021-05-15 13:35:30 GMT 54.422104 -7.764587 29,900 304 492 896
2021-05-15 13:35:28 GMT 54.419998 -7.759013 29,875 304 492 896
2021-05-15 13:35:25 GMT 54.415749 -7.747941 29,825 304 491 960
2021-05-15 13:35:22 GMT 54.411530 -7.736879 29,775 304 491 1024
2021-05-15 13:35:19 GMT 54.408325 -7.728478 29,725 304 489 1088
2021-05-15 13:35:17 GMT 54.405716 -7.721611 29,675 304 489 1152
2021-05-15 13:35:14 GMT 54.402481 -7.713235 29,650 304 489 1152
2021-05-15 13:35:12 GMT 54.395733 -7.695423 29,600 304 488 1152
2021-05-15 13:35:09 GMT 54.395733 -7.695423 29,525 304 488 1152
2021-05-15 13:35:05 GMT 54.390793 -7.682432 29,450 304 487 1152
2021-05-15 13:35:02 GMT 54.384140 -7.665045 29,400 304 487 1216
2021-05-15 13:34:59 GMT 54.384140 -7.665045 29,350 304 486 1216
2021-05-15 13:34:57 GMT 54.380554 -7.655723 29,275 304 486 1280
2021-05-15 13:34:54 GMT 54.377621 -7.647983 29,275 304 486 1344
2021-05-15 13:34:50 GMT 54.368359 -7.623929 29,100 304 485 1536
2021-05-15 13:34:47 GMT 54.368359 -7.623929 29,050 304 485 1536
2021-05-15 13:34:44 GMT 54.365425 -7.616189 29,025 304 485 1536
2021-05-15 13:34:41 GMT 54.360626 -7.603670 28,875 304 485 1344
2021-05-15 13:34:38 GMT 54.357327 -7.595048 28,825 304 485 1152
2021-05-15 13:34:35 GMT 54.353741 -7.585727 28,775 304 484 1024
2021-05-15 13:34:33 GMT 54.351379 -7.579678 28,725 304 483 896
2021-05-15 13:34:30 GMT 54.348202 -7.571328 28,650 304 482 896
2021-05-15 13:34:27 GMT 54.343918 -7.560258 28,650 304 482 896
2021-05-15 13:34:24 GMT 54.340336 -7.551020 28,650 304 482 960
2021-05-15 13:34:20 GMT 54.334946 -7.537025 28,550 304 479 1152
2021-05-15 13:34:17 GMT 54.330917 -7.526604 28,475 304 478 1216
2021-05-15 13:34:14 GMT 54.328217 -7.519657 28,425 304 478 1088
2021-05-15 13:34:11 GMT 54.324692 -7.510529 28,350 304 477 1088
2021-05-15 13:34:08 GMT 54.318829 -7.495422 28,325 304 476 1088
2021-05-15 13:34:06 GMT 54.318829 -7.495422 28,250 304 476 1024
2021-05-15 13:34:03 GMT 54.315010 -7.485768 28,250 304 476 1088
2021-05-15 13:34:00 GMT 54.309906 -7.472561 28,150 304 474 1216
2021-05-15 13:33:57 GMT 54.306152 -7.462948 28,100 305 474 1216
2021-05-15 13:33:54 GMT 54.303818 -7.457051 27,925 306 473 1216
2021-05-15 13:33:51 GMT 54.300205 -7.448065 27,950 306 473 1216
2021-05-15 13:33:48 GMT 54.296623 -7.439159 27,925 306 472 1216
2021-05-15 13:33:45 GMT 54.288242 -7.419184 27,850 306 471 1216
2021-05-15 13:33:42 GMT 54.288242 -7.419184 27,800 307 471 1280
2021-05-15 13:33:39 GMT 54.284637 -7.410763 27,750 307 471 1344
2021-05-15 13:33:36 GMT 54.280792 -7.401789 27,650 308 469 1472
2021-05-15 13:33:33 GMT 54.275951 -7.390891 27,575 308 469 1472
2021-05-15 13:33:29 GMT 54.270905 -7.379674 27,500 309 469 1472
2021-05-15 13:33:26 GMT 54.267200 -7.371503 27,400 309 468 1472
2021-05-15 13:33:23 GMT 54.263710 -7.363990 27,325 310 468 1408
2021-05-15 13:33:20 GMT 54.259472 -7.355104 27,225 310 467 1344
2021-05-15 13:33:17 GMT 54.254791 -7.345459 27,150 311 465 1280
2021-05-15 13:33:14 GMT 54.250629 -7.337009 27,150 311 465 1280
2021-05-15 13:33:10 GMT 54.245136 -7.326184 27,075 311 465 1216
2021-05-15 13:33:08 GMT 54.243027 -7.321995 27,025 311 465 1216
2021-05-15 13:33:05 GMT 54.234474 -7.305100 26,925 311 463 1152
2021-05-15 13:33:02 GMT 54.234474 -7.305100 26,925 311 463 1152
2021-05-15 13:32:59 GMT 54.229706 -7.295785 26,850 311 462 1216
2021-05-15 13:32:56 GMT 54.226048 -7.288621 26,750 312 461 1216
2021-05-15 13:32:53 GMT 54.222153 -7.280954 26,725 312 460 1216
2021-05-15 13:32:50 GMT 54.217388 -7.271576 26,650 312 460 1216
2021-05-15 13:32:48 GMT 54.214600 -7.266122 26,625 312 460 1152
2021-05-15 13:32:45 GMT 54.210983 -7.258981 26,575 311 459 1216
2021-05-15 13:32:42 GMT 54.206543 -7.250250 26,500 312 458 1216
2021-05-15 13:32:39 GMT 54.196701 -7.230966 26,425 312 457 1408
2021-05-15 13:32:36 GMT 54.196701 -7.230966 26,300 312 457 1408
2021-05-15 13:32:33 GMT 54.193222 -7.224217 26,275 311 455 1408
2021-05-15 13:32:30 GMT 54.189240 -7.216370 26,225 311 455 1408
2021-05-15 13:32:28 GMT 54.187130 -7.212282 26,175 311 455 1344
2021-05-15 13:32:25 GMT 54.181778 -7.201700 25,750 311 454 1344
2021-05-15 13:32:20 GMT 54.175865 -7.190148 26,000 311 452 1344
2021-05-15 13:32:17 GMT 54.170929 -7.180429 25,900 311 452 1472
2021-05-15 13:32:14 GMT 54.168045 -7.174779 25,875 311 452 1472
2021-05-15 13:32:10 GMT 54.161865 -7.162694 25,750 311 451 1472
2021-05-15 13:32:08 GMT 54.160492 -7.160025 25,725 311 451 1472
2021-05-15 13:32:05 GMT 54.151611 -7.142648 25,550 311 449 1472
2021-05-15 13:31:59 GMT 54.147263 -7.134051 25,450 311 449 1472
2021-05-15 13:31:56 GMT 54.138996 -7.117767 25,400 311 448 1472
2021-05-15 13:31:53 GMT 54.138996 -7.117767 25,300 312 447 1472
2021-05-15 13:31:50 GMT 54.134766 -7.109488 25,250 312 447 1472
2021-05-15 13:31:48 GMT 54.133301 -7.106585 25,250 312 447 1472
2021-05-15 13:31:46 GMT 54.129089 -7.098345 25,150 312 446 1536
2021-05-15 13:31:43 GMT 54.124466 -7.089321 25,075 312 446 1536
2021-05-15 13:31:40 GMT 54.121078 -7.082729 25,000 312 446 1536
2021-05-15 13:31:38 GMT 54.119614 -7.079825 24,975 312 445 1536
2021-05-15 13:31:35 GMT 54.114464 -7.069783 24,550 312 440 1664
2021-05-15 13:31:32 GMT 54.111328 -7.063738 24,825 311 445 1536
2021-05-15 13:31:29 GMT 54.106339 -7.053929 24,725 312 444 1536
2021-05-15 13:31:27 GMT 54.103775 -7.048985 24,675 312 444 1536
2021-05-15 13:31:23 GMT 54.098557 -7.038705 24,550 312 442 1472
2021-05-15 13:31:20 GMT 54.093842 -7.029524 24,500 312 442 1472
2021-05-15 13:31:18 GMT 54.092468 -7.026855 24,475 312 442 1408
2021-05-15 13:31:14 GMT 54.084732 -7.011710 24,275 312 441 1472
2021-05-15 13:31:11 GMT 54.081528 -7.005432 24,250 312 440 1536
2021-05-15 13:31:08 GMT 54.079082 -7.000714 24,225 312 440 1600
2021-05-15 13:31:04 GMT 54.073078 -6.989001 24,075 312 439 1728
2021-05-15 13:31:01 GMT 54.065506 -6.974200 23,975 312 439 1728
2021-05-15 13:30:58 GMT 54.065506 -6.974200 23,925 312 438 1664
2021-05-15 13:30:55 GMT 54.057083 -6.957877 23,800 312 437 1344
2021-05-15 13:30:52 GMT 54.057083 -6.957877 23,775 312 437 1344
2021-05-15 13:30:48 GMT 54.052036 -6.948045 23,700 312 435 1280
2021-05-15 13:30:46 GMT 54.049522 -6.943198 23,625 312 435 1472
2021-05-15 13:30:43 GMT 54.044868 -6.934231 23,550 312 434 1600
2021-05-15 13:30:40 GMT 54.040604 -6.926017 23,500 312 434 1792
2021-05-15 13:30:37 GMT 54.031586 -6.908674 23,250 312 433 2048
2021-05-15 13:30:33 GMT 54.031586 -6.908674 23,250 312 433 2048
2021-05-15 13:30:30 GMT 54.027374 -6.900513 23,150 312 433 1984
2021-05-15 13:30:28 GMT 54.025780 -6.897475 23,100 312 433 1920
2021-05-15 13:30:26 GMT 54.022614 -6.891336 23,000 312 433 1856
2021-05-15 13:30:23 GMT 54.018906 -6.884190 22,900 312 432 1856
2021-05-15 13:30:20 GMT 54.014145 -6.875018 22,850 312 432 1856
2021-05-15 13:30:17 GMT 54.011490 -6.869986 22,800 312 432 1792
2021-05-15 13:30:13 GMT 54.005390 -6.858296 22,625 312 431 1792
2021-05-15 13:30:10 GMT 54.000778 -6.849426 22,525 312 431 1728
2021-05-15 13:30:07 GMT 53.997986 -6.844090 22,500 312 430 1728
2021-05-15 13:30:03 GMT 53.991379 -6.831477 22,300 312 429 1728
2021-05-15 13:30:00 GMT 53.987282 -6.823641 22,250 312 429 1728
2021-05-15 13:29:58 GMT 53.986084 -6.821411 22,225 312 429 1664
2021-05-15 13:29:55 GMT 53.980957 -6.811602 22,100 312 427 1664
2021-05-15 13:29:52 GMT 53.977505 -6.805142 22,050 312 427 1664
2021-05-15 13:29:49 GMT 53.973953 -6.798340 21,925 312 427 1600
2021-05-15 13:29:46 GMT 53.970802 -6.792378 21,925 312 427 1600
2021-05-15 13:29:43 GMT 53.965805 -6.782881 21,750 312 424 1600
2021-05-15 13:29:40 GMT 53.961353 -6.774445 21,700 312 424 1600
2021-05-15 13:29:37 GMT 53.957932 -6.768049 21,575 312 423 1664
2021-05-15 13:29:34 GMT 53.953766 -6.760146 21,525 313 422 1664
2021-05-15 13:29:31 GMT 53.950104 -6.753217 21,475 312 422 1664
2021-05-15 13:29:28 GMT 53.946442 -6.746312 21,400 312 422 1728
2021-05-15 13:29:25 GMT 53.942413 -6.738700 21,275 312 420 1792
2021-05-15 13:29:22 GMT 53.934723 -6.724279 21,175 313 419 1856
2021-05-15 13:29:19 GMT 53.934723 -6.724279 21,125 313 419 1856
2021-05-15 13:29:17 GMT 53.932907 -6.720886 21,025 312 419 1856
2021-05-15 13:29:14 GMT 53.927879 -6.711354 20,700 312 418 1856
2021-05-15 13:29:11 GMT 53.924110 -6.704245 20,875 312 418 1856
2021-05-15 13:29:07 GMT 53.915077 -6.687281 20,725 312 417 1792
2021-05-15 13:29:04 GMT 53.911076 -6.679768 20,650 313 416 1728
2021-05-15 13:29:01 GMT 53.911076 -6.679768 20,575 313 416 1728
2021-05-15 13:28:57 GMT 53.905701 -6.669564 20,450 313 415 1728
2021-05-15 13:28:54 GMT 53.901947 -6.662659 20,275 313 413 1664
2021-05-15 13:28:51 GMT 53.894485 -6.648690 20,250 313 412 1664
2021-05-15 13:28:48 GMT 53.894485 -6.648690 20,200 313 412 1664
2021-05-15 13:28:46 GMT 53.892315 -6.644628 20,175 313 412 1664
2021-05-15 13:28:42 GMT 53.886337 -6.633466 20,050 313 410 1664
2021-05-15 13:28:38 GMT 53.881577 -6.624677 19,875 313 409 1728
2021-05-15 13:28:36 GMT 53.879047 -6.619909 19,875 313 409 1792
2021-05-15 13:28:33 GMT 53.874996 -6.612396 19,750 313 407 1856
2021-05-15 13:28:30 GMT 53.871319 -6.605530 19,700 313 407 1856
2021-05-15 13:28:27 GMT 53.868156 -6.599633 19,625 313 407 1856
2021-05-15 13:28:24 GMT 53.863586 -6.591169 19,475 313 406 1920
2021-05-15 13:28:21 GMT 53.860565 -6.585496 19,325 313 405 1920
2021-05-15 13:28:18 GMT 53.855911 -6.576771 19,300 313 404 1920
2021-05-15 13:28:16 GMT 53.853058 -6.571394 19,225 313 404 1920
2021-05-15 13:28:13 GMT 53.850559 -6.566755 18,725 312 401 2112
2021-05-15 13:28:10 GMT 53.845901 -6.558030 19,050 312 402 2048
2021-05-15 13:28:07 GMT 53.843296 -6.553102 19,000 312 402 2048
2021-05-15 13:28:04 GMT 53.838223 -6.543489 18,825 312 401 2112
2021-05-15 13:28:00 GMT 53.832550 -6.532706 18,675 312 401 2112
2021-05-15 13:27:57 GMT 53.830719 -6.529253 18,625 312 401 2112
2021-05-15 13:27:53 GMT 53.824951 -6.518188 18,450 312 399 2112
2021-05-15 13:27:50 GMT 53.821789 -6.512065 18,350 311 399 2112
2021-05-15 13:27:47 GMT 53.818157 -6.505037 18,275 311 399 2048
2021-05-15 13:27:44 GMT 53.814899 -6.498655 17,450 310 396 2048
2021-05-15 13:27:41 GMT 53.810852 -6.490644 18,025 311 397 2048
2021-05-15 13:27:38 GMT 53.807373 -6.483738 17,900 310 396 2048
2021-05-15 13:27:35 GMT 53.803253 -6.475499 17,825 310 396 2112
2021-05-15 13:27:32 GMT 53.800323 -6.469535 17,025 307 390 1920
2021-05-15 13:27:28 GMT 53.794090 -6.456649 17,525 309 394 2176
2021-05-15 13:27:23 GMT 53.790039 -6.448328 17,375 309 393 2112
2021-05-15 13:27:20 GMT 53.787094 -6.442069 17,325 309 393 2048
2021-05-15 13:27:17 GMT 53.783291 -6.433949 17,200 308 392 1984
2021-05-15 13:27:14 GMT 53.779846 -6.426436 17,075 308 391 1984
2021-05-15 13:27:11 GMT 53.772861 -6.410926 16,975 307 390 1920
2021-05-15 13:27:08 GMT 53.772861 -6.410926 16,900 307 389 1856
2021-05-15 13:27:06 GMT 53.771896 -6.408718 16,825 307 389 1856
2021-05-15 13:27:03 GMT 53.767960 -6.399693 15,800 305 384 1792
2021-05-15 13:27:00 GMT 53.765030 -6.392787 16,675 306 386 1728
2021-05-15 13:26:57 GMT 53.761734 -6.384940 16,600 305 384 1792
2021-05-15 13:26:51 GMT 53.756470 -6.371835 16,425 304 383 2048
2021-05-15 13:26:48 GMT 53.751167 -6.358418 16,225 304 380 2112
2021-05-15 13:26:43 GMT 53.744888 -6.342329 15,700 304 379 2112
2021-05-15 13:26:40 GMT 53.744888 -6.342329 16,000 304 379 2112
2021-05-15 13:26:37 GMT 53.741913 -6.334638 15,800 304 377 2112
2021-05-15 13:26:32 GMT 53.738205 -6.325065 15,750 304 377 2112
2021-05-15 13:26:29 GMT 53.735340 -6.317623 15,625 303 375 2048
2021-05-15 13:26:26 GMT 53.731567 -6.307800 15,525 303 374 2112
2021-05-15 13:26:22 GMT 53.727539 -6.297285 15,350 303 373 2176
2021-05-15 13:26:19 GMT 53.725204 -6.291164 15,275 303 372 2240
2021-05-15 13:26:16 GMT 53.722446 -6.283857 15,150 303 372 2304
2021-05-15 13:26:12 GMT 53.719139 -6.275051 15,025 303 370 2432
2021-05-15 13:26:09 GMT 53.716187 -6.267229 14,850 303 370 2560
2021-05-15 13:26:06 GMT 53.710110 -6.250898 14,700 302 370 2624
2021-05-15 13:26:03 GMT 53.710110 -6.250898 13,975 300 365 2240
2021-05-15 13:26:00 GMT 53.707397 -6.243530 14,400 302 368 2560
2021-05-15 13:25:56 GMT 53.704285 -6.234977 14,275 301 368 2560
2021-05-15 13:25:53 GMT 53.702087 -6.228777 13,625 300 364 2240
2021-05-15 13:25:50 GMT 53.698883 -6.219674 14,000 301 367 2560
2021-05-15 13:25:47 GMT 53.696888 -6.213980 13,950 301 367 2496
2021-05-15 13:25:45 GMT 53.695358 -6.209551 13,875 300 366 2432
2021-05-15 13:25:41 GMT 53.691238 -6.197466 13,675 300 365 2304
2021-05-15 13:25:37 GMT 53.688416 -6.189019 13,525 299 364 2176
2021-05-15 13:25:35 GMT 53.685856 -6.181344 13,450 299 363 2112
2021-05-15 13:25:30 GMT 53.680069 -6.163173 13,275 299 360 1728
2021-05-15 13:25:27 GMT 53.680069 -6.163173 13,200 298 357 1536
2021-05-15 13:25:24 GMT 53.677803 -6.156060 13,125 299 355 1280
2021-05-15 13:25:21 GMT 53.675308 -6.148185 13,075 299 353 1088
2021-05-15 13:25:17 GMT 53.672497 -6.139419 13,025 300 349 1024
2021-05-15 13:25:15 GMT 53.670639 -6.133667 12,950 302 346 1024
2021-05-15 13:25:12 GMT 53.668121 -6.126447 12,900 304 343 1152
2021-05-15 13:25:09 GMT 53.665512 -6.119385 12,875 306 342 1408
2021-05-15 13:25:06 GMT 53.663727 -6.114990 12,825 307 342 1728
2021-05-15 13:25:04 GMT 53.660484 -6.107752 12,700 312 339 2432
2021-05-15 13:25:00 GMT 53.657043 -6.100865 12,500 317 339 2624
2021-05-15 13:24:57 GMT 53.654156 -6.095958 12,400 320 339 2688
2021-05-15 13:24:55 GMT 53.651409 -6.091596 12,300 322 340 2688
2021-05-15 13:24:52 GMT 53.647751 -6.086583 12,125 327 340 2432
2021-05-15 13:24:49 GMT 53.643402 -6.081417 12,050 329 340 2240
2021-05-15 13:24:46 GMT 53.634789 -6.073178 11,900 334 338 1920
2021-05-15 13:24:43 GMT 53.634789 -6.073178 11,825 337 337 1792
2021-05-15 13:24:40 GMT 53.631855 -6.070754 11,775 337 336 1728
2021-05-15 13:24:36 GMT 53.621063 -6.063590 11,625 340 334 1664
2021-05-15 13:24:33 GMT 53.621063 -6.063590 11,550 343 330 1664
2021-05-15 13:24:30 GMT 53.617859 -6.061785 11,525 343 330 1792
2021-05-15 13:24:26 GMT 53.612629 -6.058960 11,400 345 327 1984
2021-05-15 13:24:24 GMT 53.608841 -6.057234 11,200 347 325 2304
2021-05-15 13:24:20 GMT 53.602715 -6.054679 11,150 349 325 2304
2021-05-15 13:24:17 GMT 53.598862 -6.053388 11,025 351 323 2304
2021-05-15 13:24:14 GMT 53.592819 -6.051662 10,900 353 321 1856
2021-05-15 13:24:10 GMT 53.588287 -6.050563 10,775 355 318 1408
2021-05-15 13:24:07 GMT 53.584167 -6.049779 10,750 356 315 1152
2021-05-15 13:24:04 GMT 53.578629 -6.049072 10,675 358 310 704
2021-05-15 13:24:00 GMT 53.569477 -6.048458 10,650 359 301 576
2021-05-15 13:23:57 GMT 53.565102 -6.048216 10,625 359 298 768
2021-05-15 13:23:54 GMT 53.565102 -6.048216 10,500 359 294 1536
2021-05-15 13:23:50 GMT 53.559235 -6.048054 10,525 359 293 1664
2021-05-15 13:23:47 GMT 53.555695 -6.047895 10,425 359 291 2176
2021-05-15 13:23:44 GMT 53.548992 -6.047570 10,225 359 289 2816
2021-05-15 13:23:40 GMT 53.546200 -6.047408 10,100 359 289 2816
2021-05-15 13:23:37 GMT 53.542568 -6.047247 9,975 359 289 2752
2021-05-15 13:23:35 GMT 53.540039 -6.047110 9,900 359 288 2688
2021-05-15 13:23:32 GMT 53.534592 -6.046875 9,725 359 288 2624
2021-05-15 13:23:29 GMT 53.531906 -6.046681 9,625 358 287 2560
2021-05-15 13:23:26 GMT 53.527130 -6.046404 9,475 358 285 2560
2021-05-15 13:23:23 GMT 53.524364 -6.046196 9,350 357 282 2944
2021-05-15 13:23:20 GMT 53.518616 -6.045698 9,200 357 283 2816
2021-05-15 13:23:17 GMT 53.515987 -6.045469 8,900 356 283 3264
2021-05-15 13:23:14 GMT 53.511017 -6.044992 8,900 357 282 3328
2021-05-15 13:23:11 GMT 53.507793 -6.044662 8,750 356 282 3392
2021-05-15 13:23:07 GMT 53.502548 -6.043971 8,525 356 282 3328
2021-05-15 13:23:03 GMT 53.497467 -6.043265 8,325 355 283 3200
2021-05-15 13:22:59 GMT 53.492805 -6.042561 8,125 355 282 3072
2021-05-15 13:22:56 GMT 53.487965 -6.041753 7,875 354 281 2944
2021-05-15 13:22:52 GMT 53.483959 -6.041107 7,800 354 280 2880
2021-05-15 13:22:49 GMT 53.479294 -6.040283 7,625 354 279 2816
2021-05-15 13:22:46 GMT 53.476227 -6.039734 7,450 354 278 2816
2021-05-15 13:22:43 GMT 53.471237 -6.038792 7,325 354 277 3072
2021-05-15 13:22:40 GMT 53.467804 -6.038086 7,200 354 276 3264
2021-05-15 13:22:37 GMT 53.463593 -6.037223 7,000 354 276 3392
2021-05-15 13:22:33 GMT 53.458496 -6.036260 6,775 356 277 3456
2021-05-15 13:22:30 GMT 53.455330 -6.035695 6,525 358 277 3456
2021-05-15 13:22:27 GMT 53.451511 -6.035210 6,450 0 278 3328
2021-05-15 13:22:23 GMT 53.445740 -6.035104 6,225 5 276 2944
2021-05-15 13:22:19 GMT 53.440750 -6.035810 6,050 11 274 2624
2021-05-15 13:22:16 GMT 53.437641 -6.036826 5,950 13 276 2496
2021-05-15 13:22:12 GMT 53.431820 -6.039653 5,750 23 272 2048
2021-05-15 13:22:09 GMT 53.425770 -6.044904 5,600 36 264 1792
2021-05-15 13:22:06 GMT 53.425770 -6.044904 5,600 36 264 1792
2021-05-15 13:22:00 GMT 53.420647 -6.052013 5,375 53 256 1600
2021-05-15 13:21:57 GMT 53.417816 -6.057469 5,325 58 253 1600
2021-05-15 13:21:50 GMT 53.414131 -6.068411 5,050 78 244 1920
2021-05-15 13:21:47 GMT 53.412827 -6.074712 5,000 80 242 1792
2021-05-15 13:21:40 GMT 53.412094 -6.093802 4,800 93 231 1024
2021-05-15 13:21:37 GMT 53.412094 -6.093802 4,775 95 226 960
2021-05-15 13:21:35 GMT 53.412231 -6.096235 4,750 95 224 960
2021-05-15 13:21:32 GMT 53.412548 -6.102178 4,700 95 217 960
2021-05-15 13:21:27 GMT 53.412968 -6.110337 4,625 94 211 1024
2021-05-15 13:21:25 GMT 53.413059 -6.112276 4,600 94 210 1024
2021-05-15 13:21:20 GMT 53.413525 -6.121647 4,525 94 200 960
2021-05-15 13:21:16 GMT 53.413853 -6.129563 4,425 94 194 960
2021-05-15 13:21:12 GMT 53.414062 -6.134609 4,375 93 188 1152
2021-05-15 13:21:07 GMT 53.414337 -6.141436 4,275 93 183 1408
2021-05-15 13:21:04 GMT 53.414474 -6.144418 4,225 93 181 1408
2021-05-15 13:21:00 GMT 53.414688 -6.151132 4,125 93 175 1344
2021-05-15 13:20:55 GMT 53.414932 -6.157994 4,000 93 171 1600
2021-05-15 13:20:50 GMT 53.415161 -6.163644 3,775 93 169 2240
2021-05-15 13:20:46 GMT 53.415390 -6.169608 3,700 93 169 2240
2021-05-15 13:20:44 GMT 53.415436 -6.171884 3,625 93 168 2240
2021-05-15 13:20:41 GMT 53.415619 -6.176498 3,525 94 168 2176
2021-05-15 13:20:37 GMT 53.415947 -6.183849 3,300 95 164 2304
2021-05-15 13:20:30 GMT 53.416225 -6.189342 3,150 95 165 2304
2021-05-15 13:20:27 GMT 53.416489 -6.194092 2,975 95 164 2240
2021-05-15 13:20:24 GMT 53.416645 -6.197016 2,925 95 164 2240
2021-05-15 13:20:20 GMT 53.417019 -6.203236 2,750 96 163 2176
2021-05-15 13:20:17 GMT 53.417202 -6.206387 2,575 96 163 2176
2021-05-15 13:20:14 GMT 53.417404 -6.209630 2,550 96 163 2048
2021-05-15 13:20:11 GMT 53.417770 -6.214730 2,400 96 162 2112
2021-05-15 13:20:05 GMT 53.418274 -6.222462 2,200 96 160 2112
2021-05-15 13:19:57 GMT 53.418869 -6.231445 1,750 96 161 2816
2021-05-15 13:19:54 GMT 53.419159 -6.235145 1,750 96 161 2752
2021-05-15 13:19:50 GMT 53.419464 -6.239842 1,575 96 160 2496
2021-05-15 13:19:47 GMT 53.419765 -6.244031 1,425 96 159 2368
2021-05-15 13:19:36 GMT 53.420609 -6.256949 975 95 159 2688
2021-05-15 13:19:26 GMT 53.421299 -6.269397 700 95 140 192
2021-05-15 13:17:30 GMT 53.423950 -6.286161 0 275 24
2021-05-15 13:17:24 GMT 53.423882 -6.285063 0 275 22
2021-05-15 13:17:12 GMT 53.423779 -6.283231 0 275 21
2021-05-15 13:17:01 GMT 53.423687 -6.281433 0 275 22
2021-05-15 13:16:47 GMT 53.423546 -6.279030 0 275 22
2021-05-15 13:16:36 GMT 53.423454 -6.277313 0 275 21
2021-05-15 13:16:32 GMT 53.423412 -6.276627 0 275 21
2021-05-15 13:16:07 GMT 53.423195 -6.272664 0 275 20
2021-05-15 13:16:03 GMT 53.423172 -6.272193 0 275 19
2021-05-15 13:15:53 GMT 53.423080 -6.270643 0 275 19
2021-05-15 13:15:43 GMT 53.423012 -6.269250 0 275 19
2021-05-15 13:15:21 GMT 53.422852 -6.266307 0 275 17
2021-05-15 13:15:11 GMT 53.422783 -6.265130 0 275 17
2021-05-15 13:15:00 GMT 53.422707 -6.263722 0 275 17
2021-05-15 13:14:51 GMT 53.422661 -6.262510 0 264 16
2021-05-15 13:14:42 GMT 53.422791 -6.261541 0 239 16
2021-05-15 13:14:32 GMT 53.423233 -6.260571 0 225 18
2021-05-15 13:14:22 GMT 53.423836 -6.259539 0 225 19
2021-05-15 13:14:11 GMT 53.424465 -6.258460 0 225 18
2021-05-15 13:14:02 GMT 53.425037 -6.257499 0 225 17
2021-05-15 13:13:52 GMT 53.425552 -6.256596 0 225 17
2021-05-15 13:13:41 GMT 53.426090 -6.255674 0 225 16
2021-05-15 13:13:32 GMT 53.426559 -6.254876 0 225 13
2021-05-15 13:13:21 GMT 53.426983 -6.254183 0 225 14
2021-05-15 13:13:11 GMT 53.427406 -6.253477 0 230 11
2021-05-15 13:13:00 GMT 53.427692 -6.252731 0 286 10
2021-05-15 13:12:51 GMT 53.427540 -6.252129 0 317 10
2021-05-15 13:12:41 GMT 53.427246 -6.251633 0 300 8
2021-05-15 13:12:30 GMT 53.427052 -6.251103 0 334 13
2021-05-15 13:12:20 GMT 53.426514 -6.250711 0 337 12
2021-05-15 13:12:10 GMT 53.426033 -6.250357 0 337 11
2021-05-15 13:12:00 GMT 53.425587 -6.250044 0 337 10
2021-05-15 13:11:50 GMT 53.425152 -6.249706 0 337 10
2021-05-15 13:11:40 GMT 53.424751 -6.249435 0 337 9
2021-05-15 13:11:29 GMT 53.424397 -6.249181 0 337 8
2021-05-15 13:11:19 GMT 53.424057 -6.248939 0 331 9
2021-05-15 13:11:09 GMT 53.423710 -6.248615 0 300 9
2021-05-15 13:10:59 GMT 53.423546 -6.248070 0 250 7
2021-05-15 13:10:49 GMT 53.423653 -6.247572 0 213 10
2021-05-15 13:10:39 GMT 53.424007 -6.247277 0 163 7
2021-05-15 13:10:29 GMT 53.424313 -6.247464 0 157 7
2021-05-15 13:10:19 GMT 53.424557 -6.247626 0 157 4
2021-05-15 13:10:05 GMT 53.424675 -6.247707 0 160 0
2021-05-15 13:09:55 GMT 53.424671 -6.247709 0 160 0
2021-05-15 13:09:35 GMT 53.424675 -6.247707 0 160 0
2021-05-15 13:09:10 GMT 53.424671 -6.247709 0 160 0
2021-05-15 13:08:45 GMT 53.424675 -6.247707 0 160 0
2021-05-15 13:07:45 GMT 53.424671 -6.247709 0 160 0
2021-05-15 13:07:11 GMT 53.424675 -6.247707 0 160 0
2021-05-15 13:06:56 GMT 53.424671 -6.247709 0 160 0
2021-05-15 13:06:46 GMT 53.424675 -6.247707 0 160 0
2021-05-15 13:06:35 GMT 53.424671 -6.247709 0 160 0
2021-05-15 13:06:25 GMT 53.424675 -6.247707 0 160 0
2021-05-15 13:06:15 GMT 53.424618 -6.247666 0 157 2
2021-05-15 13:06:05 GMT 53.424545 -6.247586 0 154 3
2021-05-15 13:05:55 GMT 53.424477 -6.247454 0 143 3
2021-05-15 13:05:45 GMT 53.424419 -6.247303 0 132 2
2021-05-15 13:05:35 GMT 53.424408 -6.247160 0 118 2
2021-05-15 13:05:25 GMT 53.424431 -6.247003 0 101 2
2021-05-15 13:05:15 GMT 53.424454 -6.246858 0 90 3
2021-05-15 13:05:04 GMT 53.424522 -6.246758 0 70 2
2021-05-15 13:04:54 GMT 53.424603 -6.246669 0 56 3
2021-05-15 13:04:44 GMT 53.424709 -6.246596 0 39 3
2021-05-15 13:04:34 GMT 53.424805 -6.246556 0 28 3
2021-05-15 13:04:24 GMT 53.424923 -6.246552 0 14 3
2021-05-15 13:04:14 GMT 53.425037 -6.246495 0 16 3
2021-05-15 13:04:03 GMT 53.425175 -6.246414 0 16 3
2021-05-15 13:03:53 GMT 53.425282 -6.246333 0 19 3
2021-05-15 13:03:40 GMT 53.425404 -6.246257 0 19 0
2021-05-15 13:03:11 GMT 53.425449 -6.246238 0 19 0
2021-05-15 13:02:50 GMT 53.425442 -6.246232 0 19 0
2021-05-15 13:02:40 GMT 53.425449 -6.246238 0 19 0
2021-05-15 13:02:30 GMT 53.425442 -6.246232 0 19 0
We lost coverage of the aircraft here for a total of 107 minutes
2021-05-15 11:15:58 GMT 53.425453 -6.246232 0 19 0 0
2021-05-15 11:15:31 GMT 53.425449 -6.246238 0 19 0 0
2021-05-15 11:15:21 GMT 53.425396 -6.246273 0 19 3 0
2021-05-15 11:15:11 GMT 53.425266 -6.246354 0 19 5 0
2021-05-15 11:15:01 GMT 53.425014 -6.246512 0 19 7 0
2021-05-15 11:14:50 GMT 53.424706 -6.246708 0 19 7 0
2021-05-15 11:14:40 GMT 53.424419 -6.246899 0 22 8 0
2021-05-15 11:14:30 GMT 53.424107 -6.247101 0 30 8 0
2021-05-15 11:14:20 GMT 53.423801 -6.247404 0 39 8 0
2021-05-15 11:14:10 GMT 53.423512 -6.247848 0 28 9 0
2021-05-15 11:13:59 GMT 53.423115 -6.248131 0 348 12 0
2021-05-15 11:13:50 GMT 53.422604 -6.247868 0 337 13 0
2021-05-15 11:13:37 GMT 53.421894 -6.247464 0 11 14 0
2021-05-15 11:13:30 GMT 53.421455 -6.247709 0 42 12 0
2021-05-15 11:13:20 GMT 53.421066 -6.248356 0 47 14 0
2021-05-15 11:13:09 GMT 53.420612 -6.249141 0 53 13 0
2021-05-15 11:12:59 GMT 53.420322 -6.249946 0 78 14 0
2021-05-15 11:12:49 GMT 53.420300 -6.251261 0 95 23 0
2021-05-15 11:12:39 GMT 53.420391 -6.253119 0 95 27 0
2021-05-15 11:12:29 GMT 53.420517 -6.255203 0 95 29 0
2021-05-15 11:12:19 GMT 53.420635 -6.257421 0 95 35 0
2021-05-15 11:12:08 GMT 53.420799 -6.260349 0 95 44 0
2021-05-15 11:11:58 GMT 53.420998 -6.264004 750 95 54 0
2021-05-15 11:11:46 GMT 53.421310 -6.269437 0 95 70 0
2021-05-15 11:11:36 GMT 53.421616 -6.275391 600 95 112 -128
2021-05-15 11:11:23 GMT 53.422348 -6.288417 700 95 134 -768
2021-05-15 11:11:17 GMT 53.422668 -6.294381 800 95 134 -768
2021-05-15 11:11:08 GMT 53.423206 -6.304214 925 95 133 -704
2021-05-15 11:11:00 GMT 53.423676 -6.313019 1,025 95 130 -768
2021-05-15 11:10:57 GMT 53.423767 -6.314634 1,050 95 130 -704
2021-05-15 11:10:53 GMT 53.424088 -6.320827 1,100 95 131 -768
2021-05-15 11:10:50 GMT 53.424133 -6.321847 1,100 95 131 -768
2021-05-15 11:10:47 GMT 53.424328 -6.325055 1,175 95 131 -704
2021-05-15 11:10:43 GMT 53.424591 -6.329930 1,200 95 131 -768
2021-05-15 11:10:37 GMT 53.424866 -6.335031 1,275 95 130 -768
2021-05-15 11:10:32 GMT 53.425209 -6.341212 1,350 95 132 -704
2021-05-15 11:10:27 GMT 53.425461 -6.345703 1,400 95 133 -704
2021-05-15 11:10:21 GMT 53.425781 -6.351432 1,475 95 135 -768
2021-05-15 11:10:17 GMT 53.426003 -6.355833 1,525 95 134 -704
2021-05-15 11:10:13 GMT 53.426235 -6.359872 1,575 95 133 -768
2021-05-15 11:10:10 GMT 53.426376 -6.362732 1,600 95 132 -640
2021-05-15 11:10:07 GMT 53.426605 -6.366658 1,650 95 131 -704
2021-05-15 11:10:03 GMT 53.426842 -6.370616 1,700 95 131 -832
2021-05-15 11:10:00 GMT 53.426979 -6.373120 1,725 95 131 -768
2021-05-15 11:09:57 GMT 53.427120 -6.376513 1,775 95 131 -704
2021-05-15 11:09:53 GMT 53.427353 -6.380795 1,825 95 131 -704
2021-05-15 11:09:47 GMT 53.427704 -6.386823 1,900 95 131 -704
2021-05-15 11:09:44 GMT 53.427795 -6.389256 1,925 95 131 -640
2021-05-15 11:09:41 GMT 53.428001 -6.392831 1,950 95 132 -704
2021-05-15 11:09:38 GMT 53.428162 -6.395769 2,025 95 132 -768
2021-05-15 11:09:34 GMT 53.428375 -6.399617 2,075 95 132 -768
2021-05-15 11:09:31 GMT 53.428574 -6.402989 2,100 95 132 -768
2021-05-15 11:09:26 GMT 53.428802 -6.407776 2,150 95 131 -704
2021-05-15 11:09:23 GMT 53.429031 -6.411543 2,200 95 132 -768
2021-05-15 11:09:20 GMT 53.429119 -6.413511 2,225 95 133 -768
2021-05-15 11:09:16 GMT 53.429352 -6.417712 2,275 95 136 -704
2021-05-15 11:09:11 GMT 53.429680 -6.423851 2,325 95 141 -704
2021-05-15 11:09:07 GMT 53.429901 -6.428022 2,400 95 145 -832
2021-05-15 11:09:04 GMT 53.430099 -6.431364 2,450 94 150 -704
2021-05-15 11:09:01 GMT 53.430267 -6.435242 2,450 95 152 -704
2021-05-15 11:08:57 GMT 53.430542 -6.439872 2,550 95 156 -832
2021-05-15 11:08:52 GMT 53.430817 -6.445208 2,575 95 156 -832
2021-05-15 11:08:47 GMT 53.431137 -6.451800 2,650 95 159 -832
2021-05-15 11:08:43 GMT 53.431412 -6.456822 2,725 94 163 -896
2021-05-15 11:08:39 GMT 53.431641 -6.460667 2,750 95 164 -896
2021-05-15 11:08:36 GMT 53.431866 -6.465293 2,800 95 167 -960
2021-05-15 11:08:32 GMT 53.432144 -6.470543 2,875 95 170 -960
2021-05-15 11:08:29 GMT 53.432327 -6.473851 2,900 95 171 -960
2021-05-15 11:08:26 GMT 53.432518 -6.477571 2,975 95 174 -1024
2021-05-15 11:08:23 GMT 53.432831 -6.483503 3,050 95 177 -1024
2021-05-15 11:08:20 GMT 53.432968 -6.486171 3,075 95 179 -1024
2021-05-15 11:08:15 GMT 53.433289 -6.492292 3,125 95 181 -960
2021-05-15 11:08:12 GMT 53.433563 -6.497471 3,175 95 183 -1024
2021-05-15 11:08:09 GMT 53.433777 -6.500837 3,300 95 184 -1024
2021-05-15 11:08:06 GMT 53.434067 -6.505868 3,300 95 184 -1024
2021-05-15 11:08:05 GMT 53.434147 -6.507299 3,325 95 184 -1024
2021-05-15 11:08:03 GMT 53.434334 -6.510530 3,350 95 184 -1024
2021-05-15 11:08:02 GMT 53.434429 -6.511984 3,375 95 184 -896
2021-05-15 11:08:01 GMT 53.434525 -6.513245 3,400 95 184 -832
2021-05-15 11:08:00 GMT 53.434616 -6.514814 3,400 95 184 -832
2021-05-15 11:07:55 GMT 53.434982 -6.521484 3,450 94 185 -192
2021-05-15 11:07:52 GMT 53.435219 -6.526364 3,450 93 187 -64
2021-05-15 11:07:47 GMT 53.435440 -6.533020 3,450 92 194 -64
2021-05-15 11:07:45 GMT 53.435486 -6.536080 3,475 92 194 -64
2021-05-15 11:07:42 GMT 53.435577 -6.540397 3,475 92 196 0
2021-05-15 11:07:41 GMT 53.435577 -6.541574 3,475 95 199 64
2021-05-15 11:07:38 GMT 53.435730 -6.547367 3,475 105 205 128
2021-05-15 11:07:37 GMT 53.435825 -6.548902 3,450 105 205 128
2021-05-15 11:07:36 GMT 53.435917 -6.550598 3,450 105 205 128
2021-05-15 11:07:35 GMT 53.436150 -6.553426 3,450 108 206 128
2021-05-15 11:07:30 GMT 53.437359 -6.560534 3,450 117 207 64
2021-05-15 11:07:26 GMT 53.438942 -6.565381 3,425 131 207 -64
2021-05-15 11:07:24 GMT 53.440014 -6.567805 3,450 144 205 0
2021-05-15 11:07:21 GMT 53.441971 -6.571278 3,450 144 205 0
2021-05-15 11:07:20 GMT 53.442673 -6.572335 3,450 144 205 0
2021-05-15 11:07:19 GMT 53.443317 -6.573217 3,450 144 205 0
2021-05-15 11:07:17 GMT 53.444996 -6.575317 3,450 146 205 64
2021-05-15 11:07:14 GMT 53.446747 -6.577201 3,450 150 205 0
2021-05-15 11:07:13 GMT 53.448811 -6.579356 3,450 151 205 0
2021-05-15 11:07:11 GMT 53.448811 -6.579356 3,450 152 204 64
2021-05-15 11:07:09 GMT 53.450909 -6.581214 3,450 153 205 0
2021-05-15 11:07:06 GMT 53.455856 -6.585048 3,450 158 203 0
2021-05-15 11:07:03 GMT 53.459747 -6.587559 3,450 159 203 0
2021-05-15 11:06:59 GMT 53.459747 -6.587559 3,450 160 202 -64
2021-05-15 11:06:54 GMT 53.463615 -6.589858 3,450 160 202 -64
2021-05-15 11:06:49 GMT 53.468224 -6.592685 3,450 160 199 64
2021-05-15 11:06:45 GMT 53.471924 -6.594936 3,450 160 199 64
2021-05-15 11:06:42 GMT 53.473995 -6.596240 3,450 159 200 0
2021-05-15 11:06:39 GMT 53.477280 -6.598232 3,450 159 202 0
2021-05-15 11:06:35 GMT 53.480530 -6.600272 3,450 159 204 64
2021-05-15 11:06:32 GMT 53.482189 -6.601329 3,450 159 207 64
2021-05-15 11:06:30 GMT 53.484051 -6.602460 3,450 159 207 64
2021-05-15 11:06:29 GMT 53.484936 -6.603026 3,450 159 207 64
2021-05-15 11:06:28 GMT 53.485748 -6.603568 3,450 159 207 64
2021-05-15 11:06:25 GMT 53.489410 -6.605844 3,450 159 212 -64
2021-05-15 11:06:22 GMT 53.492661 -6.607884 3,450 159 212 -64
2021-05-15 11:06:21 GMT 53.492661 -6.607884 3,450 159 213 0
2021-05-15 11:06:20 GMT 53.493504 -6.608438 3,450 159 216 0
2021-05-15 11:06:19 GMT 53.494537 -6.609061 3,450 159 216 0
2021-05-15 11:06:16 GMT 53.496948 -6.610538 3,450 160 217 -64
2021-05-15 11:06:15 GMT 53.498253 -6.611346 3,450 160 219 0
2021-05-15 11:06:14 GMT 53.499321 -6.611992 3,450 160 221 0
2021-05-15 11:06:13 GMT 53.500351 -6.612592 3,450 161 221 0
2021-05-15 11:06:12 GMT 53.501312 -6.613142 3,450 161 222 64
2021-05-15 11:06:09 GMT 53.504150 -6.614711 3,450 162 226 0
2021-05-15 11:06:08 GMT 53.505234 -6.615304 3,450 162 226 0
2021-05-15 11:06:02 GMT 53.512161 -6.618949 3,425 162 234 0
2021-05-15 11:05:58 GMT 53.517105 -6.621617 3,450 162 237 0
2021-05-15 11:05:52 GMT 53.522179 -6.624271 3,425 162 243 0
2021-05-15 11:05:48 GMT 53.525948 -6.626210 3,450 165 251 0
2021-05-15 11:05:42 GMT 53.533310 -6.629857 3,450 165 251 0
2021-05-15 11:05:38 GMT 53.537247 -6.631505 3,450 167 251 0
2021-05-15 11:05:31 GMT 53.544849 -6.634288 3,450 167 252 0
2021-05-15 11:05:28 GMT 53.548855 -6.635742 3,450 167 253 -192
2021-05-15 11:05:21 GMT 53.556164 -6.638327 3,500 167 253 -384
2021-05-15 11:05:18 GMT 53.560089 -6.639744 3,500 167 253 -448
2021-05-15 11:05:17 GMT 53.561329 -6.640266 3,500 169 253 -832
2021-05-15 11:05:11 GMT 53.568787 -6.642805 3,575 169 253 -832
2021-05-15 11:05:06 GMT 53.573620 -6.644386 3,650 170 255 -1344
2021-05-15 11:05:02 GMT 53.579453 -6.645944 3,750 173 254 -1280
2021-05-15 11:04:58 GMT 53.588745 -6.647199 3,850 177 256 -1280
2021-05-15 11:04:49 GMT 53.594742 -6.647592 4,050 177 256 -1280
2021-05-15 11:04:44 GMT 53.599594 -6.647859 4,125 177 256 -1344
2021-05-15 11:04:41 GMT 53.603256 -6.648141 4,200 177 256 -1216
2021-05-15 11:04:35 GMT 53.609894 -6.648612 4,300 177 256 -1280
2021-05-15 11:04:31 GMT 53.615562 -6.648990 4,400 177 257 -1280
2021-05-15 11:04:27 GMT 53.620914 -6.649394 4,525 177 257 -1216
2021-05-15 11:04:24 GMT 53.622803 -6.649475 4,525 177 257 -1216
2021-05-15 11:04:21 GMT 53.627426 -6.649789 4,625 177 258 -1152
2021-05-15 11:04:15 GMT 53.634464 -6.650283 4,725 177 258 -1216
2021-05-15 11:04:10 GMT 53.640427 -6.650652 4,825 177 259 -1344
2021-05-15 11:04:06 GMT 53.645355 -6.650929 4,925 177 258 -1408
2021-05-15 11:04:03 GMT 53.648071 -6.651123 4,975 177 258 -1472
2021-05-15 11:04:00 GMT 53.651920 -6.651414 5,250 177 258 -1408
2021-05-15 11:03:56 GMT 53.657646 -6.651737 5,250 177 260 -832
2021-05-15 11:03:53 GMT 53.663464 -6.652222 5,250 177 260 -832
2021-05-15 11:03:50 GMT 53.663464 -6.652222 5,250 177 260 -832
2021-05-15 11:03:45 GMT 53.669472 -6.652706 5,325 177 260 -704
2021-05-15 11:03:41 GMT 53.675613 -6.653110 5,375 177 259 -768
2021-05-15 11:03:36 GMT 53.681122 -6.653477 5,450 177 259 -256
2021-05-15 11:03:33 GMT 53.684097 -6.653713 5,450 177 259 -192
2021-05-15 11:03:30 GMT 53.687805 -6.653948 5,450 177 259 0
2021-05-15 11:03:26 GMT 53.692608 -6.654241 5,450 177 259 64
2021-05-15 11:03:23 GMT 53.696053 -6.654484 5,450 177 259 0
2021-05-15 11:03:20 GMT 53.700520 -6.654807 5,450 177 259 0
2021-05-15 11:03:16 GMT 53.706253 -6.655204 5,450 177 261 0
2021-05-15 11:03:13 GMT 53.708771 -6.655361 5,450 177 259 0
2021-05-15 11:03:10 GMT 53.711739 -6.655534 5,450 177 259 64
2021-05-15 11:03:03 GMT 53.720261 -6.656067 5,450 177 260 0
2021-05-15 11:03:00 GMT 53.724075 -6.656342 5,450 177 260 0
2021-05-15 11:02:56 GMT 53.728638 -6.656695 5,450 177 261 64
2021-05-15 11:02:53 GMT 53.732269 -6.656988 5,450 177 260 -64
2021-05-15 11:02:49 GMT 53.736504 -6.657230 5,450 177 260 -64
2021-05-15 11:02:46 GMT 53.740929 -6.657553 5,450 177 260 0
2021-05-15 11:02:43 GMT 53.744293 -6.657715 5,450 177 260 0
2021-05-15 11:02:40 GMT 53.748276 -6.658029 5,450 177 260 64
2021-05-15 11:02:33 GMT 53.756653 -6.658657 5,450 177 260 0
2021-05-15 11:02:29 GMT 53.760864 -6.658970 5,450 177 261 0
2021-05-15 11:02:23 GMT 53.768719 -6.659573 5,450 177 262 64
2021-05-15 11:02:20 GMT 53.772442 -6.659815 5,450 177 261 0
2021-05-15 11:02:16 GMT 53.776073 -6.660058 5,450 177 260 64
2021-05-15 11:02:13 GMT 53.780411 -6.660383 5,450 177 260 0
2021-05-15 11:02:10 GMT 53.784267 -6.660623 5,450 177 261 0
2021-05-15 11:02:07 GMT 53.786781 -6.660785 5,450 177 261 0
2021-05-15 11:02:04 GMT 53.791351 -6.661089 5,450 177 261 -128
2021-05-15 11:02:00 GMT 53.797028 -6.661482 5,475 177 261 -128
2021-05-15 11:01:56 GMT 53.799820 -6.661639 5,475 177 261 -192
2021-05-15 11:01:55 GMT 53.801632 -6.661754 5,475 177 261 -256
2021-05-15 11:01:53 GMT 53.804031 -6.661952 5,475 177 261 -256
2021-05-15 11:01:51 GMT 53.806427 -6.662077 5,500 177 261 -384
2021-05-15 11:01:49 GMT 53.808846 -6.662239 5,500 177 261 -448
2021-05-15 11:01:48 GMT 53.810165 -6.662345 5,500 177 262 -576
2021-05-15 11:01:47 GMT 53.811493 -6.662423 5,525 177 262 -640
2021-05-15 11:01:44 GMT 53.814514 -6.662659 5,550 177 263 -832
2021-05-15 11:01:43 GMT 53.815750 -6.662737 5,550 177 263 -960
2021-05-15 11:01:42 GMT 53.817551 -6.662885 5,575 177 263 -1024
2021-05-15 11:01:41 GMT 53.818764 -6.662966 5,600 177 263 -1152
2021-05-15 11:01:39 GMT 53.821323 -6.663127 5,650 177 263 -1216
2021-05-15 11:01:37 GMT 53.823257 -6.663286 5,675 177 263 -1216
2021-05-15 11:01:36 GMT 53.827194 -6.663522 5,725 177 263 -1280
2021-05-15 11:01:34 GMT 53.827194 -6.663522 5,750 177 263 -1280
2021-05-15 11:01:33 GMT 53.828400 -6.663612 5,775 177 264 -1280
2021-05-15 11:01:31 GMT 53.830719 -6.663757 5,800 177 264 -1344
2021-05-15 11:01:30 GMT 53.831936 -6.663854 5,825 177 264 -1280
2021-05-15 11:01:29 GMT 53.833145 -6.663935 5,850 177 264 -1280
2021-05-15 11:01:28 GMT 53.836304 -6.664150 5,900 177 264 -1344
2021-05-15 11:01:25 GMT 53.838360 -6.664258 5,950 177 264 -1344
2021-05-15 11:01:23 GMT 53.840691 -6.664420 5,975 177 264 -1344
2021-05-15 11:01:22 GMT 53.841900 -6.664501 6,025 177 263 -1344
2021-05-15 11:01:20 GMT 53.844360 -6.664699 6,075 177 264 -1344
2021-05-15 11:01:19 GMT 53.845322 -6.664699 6,075 177 264 -1344
2021-05-15 11:01:18 GMT 53.849075 -6.664934 6,150 177 264 -1280
2021-05-15 11:01:16 GMT 53.849075 -6.664934 6,150 177 264 -1280
2021-05-15 11:01:14 GMT 53.851536 -6.665147 6,200 177 264 -1216
2021-05-15 11:01:13 GMT 53.853104 -6.665248 6,225 177 264 -1216
2021-05-15 11:01:12 GMT 53.854191 -6.665308 6,225 177 264 -1216
2021-05-15 11:01:11 GMT 53.855167 -6.665389 6,250 177 264 -1216
2021-05-15 11:01:10 GMT 53.858826 -6.665641 6,300 177 264 -1152
2021-05-15 11:01:08 GMT 53.858826 -6.665641 6,300 177 264 -1152
2021-05-15 11:01:06 GMT 53.862522 -6.665874 6,375 177 264 -1216
2021-05-15 11:01:03 GMT 53.864960 -6.666112 6,400 177 265 -1280
2021-05-15 11:01:02 GMT 53.866150 -6.666190 6,425 177 265 -1344
2021-05-15 11:01:00 GMT 53.868622 -6.666358 6,475 177 265 -1344
2021-05-15 11:00:59 GMT 53.870342 -6.666520 6,500 177 265 -1344
2021-05-15 11:00:57 GMT 53.872787 -6.666661 6,550 177 265 -1280
2021-05-15 11:00:54 GMT 53.876175 -6.666896 6,600 177 265 -1216
2021-05-15 11:00:52 GMT 53.878738 -6.667053 6,650 177 265 -1216
2021-05-15 11:00:50 GMT 53.881187 -6.667247 6,700 177 266 -1216
2021-05-15 11:00:48 GMT 53.883888 -6.667409 6,725 177 266 -1216
2021-05-15 11:00:46 GMT 53.885750 -6.667570 6,750 177 266 -1152
2021-05-15 11:00:44 GMT 53.888351 -6.667681 6,800 177 267 -1216
2021-05-15 11:00:43 GMT 53.889587 -6.667838 6,825 177 267 -1280
2021-05-15 11:00:41 GMT 53.892548 -6.667974 6,875 177 267 -1280
2021-05-15 11:00:40 GMT 53.893753 -6.668073 6,900 177 267 -1280
2021-05-15 11:00:37 GMT 53.896832 -6.668297 6,950 177 267 -1344
2021-05-15 11:00:36 GMT 53.898331 -6.668387 6,975 177 267 -1344
2021-05-15 11:00:35 GMT 53.899670 -6.668459 7,000 177 267 -1344
2021-05-15 11:00:34 GMT 53.901997 -6.668620 7,050 177 267 -1344
2021-05-15 11:00:32 GMT 53.903137 -6.668780 7,075 177 267 -1344
2021-05-15 11:00:31 GMT 53.904373 -6.668858 7,075 177 267 -1344
2021-05-15 11:00:30 GMT 53.905609 -6.668937 7,100 177 267 -1344
2021-05-15 11:00:29 GMT 53.906937 -6.669015 7,125 177 267 -1344
2021-05-15 11:00:26 GMT 53.910782 -6.669329 7,200 177 267 -1408
2021-05-15 11:00:24 GMT 53.912979 -6.669486 7,250 177 267 -1408
2021-05-15 11:00:22 GMT 53.915451 -6.669671 7,300 177 267 -1408
2021-05-15 11:00:21 GMT 53.917175 -6.669751 7,325 177 267 -1408
2021-05-15 11:00:20 GMT 53.917831 -6.669800 7,350 177 267 -1408
2021-05-15 11:00:19 GMT 53.921738 -6.670155 7,400 177 267 -1408
2021-05-15 11:00:17 GMT 53.921738 -6.670155 7,425 177 267 -1408
2021-05-15 11:00:16 GMT 53.924110 -6.670317 7,450 177 267 -1344
2021-05-15 11:00:14 GMT 53.925835 -6.670478 7,500 177 267 -1344
2021-05-15 11:00:13 GMT 53.927181 -6.670559 7,525 177 267 -1280
2021-05-15 11:00:12 GMT 53.928314 -6.670663 7,525 177 268 -1280
2021-05-15 11:00:10 GMT 53.930283 -6.670741 7,575 177 268 -1216
2021-05-15 11:00:09 GMT 53.931652 -6.670882 7,600 177 268 -1216
2021-05-15 11:00:08 GMT 53.933121 -6.670977 7,625 177 268 -1216
2021-05-15 11:00:07 GMT 53.934212 -6.671044 7,625 177 268 -1216
2021-05-15 11:00:06 GMT 53.936588 -6.671205 7,675 177 269 -1216
2021-05-15 11:00:04 GMT 53.937843 -6.671286 7,700 177 269 -1216
2021-05-15 11:00:03 GMT 53.938934 -6.671369 7,700 177 269 -1216
2021-05-15 11:00:01 GMT 53.941772 -6.671605 7,750 177 269 -1152
2021-05-15 11:00:00 GMT 53.942917 -6.671690 7,775 177 269 -1152
2021-05-15 10:59:58 GMT 53.946899 -6.671997 7,825 177 270 -1152
2021-05-15 10:59:56 GMT 53.948135 -6.672076 7,850 177 270 -1088
2021-05-15 10:59:55 GMT 53.949509 -6.672154 7,875 177 271 -1088
2021-05-15 10:59:54 GMT 53.950287 -6.672232 7,875 177 271 -1024
2021-05-15 10:59:52 GMT 53.952648 -6.672417 7,925 177 271 -1024
2021-05-15 10:59:51 GMT 53.953903 -6.672498 7,925 177 272 -1024
2021-05-15 10:59:50 GMT 53.955414 -6.672625 7,950 177 272 -1024
2021-05-15 10:59:48 GMT 53.958420 -6.672821 8,000 177 272 -960
2021-05-15 10:59:47 GMT 53.959030 -6.672939 8,000 177 273 -960
2021-05-15 10:59:46 GMT 53.960312 -6.673017 8,025 177 273 -960
2021-05-15 10:59:45 GMT 53.962921 -6.673174 8,050 177 274 -1024
2021-05-15 10:59:42 GMT 53.965485 -6.673410 8,075 177 274 -1088
2021-05-15 10:59:40 GMT 53.969650 -6.673723 8,150 177 274 -1344
2021-05-15 10:59:38 GMT 53.970795 -6.673802 8,175 177 274 -1472
2021-05-15 10:59:37 GMT 53.971920 -6.673871 8,200 177 274 -1536
2021-05-15 10:59:36 GMT 53.975098 -6.674116 8,250 177 274 -1536
2021-05-15 10:59:33 GMT 53.977135 -6.674275 8,275 177 274 -1600
2021-05-15 10:59:32 GMT 53.978256 -6.674351 8,325 177 275 -1664
2021-05-15 10:59:31 GMT 53.979630 -6.674430 8,350 177 275 -1728
2021-05-15 10:59:30 GMT 53.980911 -6.674508 8,375 177 275 -1792
2021-05-15 10:59:27 GMT 53.984722 -6.674760 8,475 177 275 -1920
2021-05-15 10:59:26 GMT 53.985977 -6.674841 8,500 177 275 -1920
2021-05-15 10:59:25 GMT 53.987003 -6.674921 8,525 177 275 -1984
2021-05-15 10:59:24 GMT 53.988400 -6.675002 8,575 177 275 -1984
2021-05-15 10:59:23 GMT 53.991211 -6.675214 8,650 177 275 -2176
2021-05-15 10:59:21 GMT 53.992447 -6.675293 8,675 177 275 -2176
2021-05-15 10:59:20 GMT 53.993500 -6.675371 8,700 177 274 -2240
2021-05-15 10:59:19 GMT 53.994873 -6.675450 8,750 177 274 -2304
2021-05-15 10:59:18 GMT 53.995880 -6.675528 8,775 177 274 -2304
2021-05-15 10:59:16 GMT 53.998688 -6.675729 8,875 177 274 -2368
2021-05-15 10:59:15 GMT 54.000092 -6.675842 8,925 177 274 -2368
2021-05-15 10:59:14 GMT 54.001202 -6.675891 8,950 177 274 -2432
2021-05-15 10:59:11 GMT 54.004990 -6.676156 9,075 177 274 -2560
2021-05-15 10:59:10 GMT 54.006416 -6.676214 9,125 177 274 -2560
2021-05-15 10:59:08 GMT 54.009068 -6.676456 9,225 177 275 -2688
2021-05-15 10:59:07 GMT 54.009811 -6.676456 9,250 177 275 -2688
2021-05-15 10:59:06 GMT 54.011581 -6.676549 9,300 177 275 -2688
2021-05-15 10:59:04 GMT 54.013641 -6.676705 9,375 177 276 -2688
2021-05-15 10:59:03 GMT 54.015167 -6.676779 9,425 177 276 -2688
2021-05-15 10:59:01 GMT 54.017727 -6.676941 9,500 177 277 -2624
2021-05-15 10:59:00 GMT 54.018860 -6.677019 9,550 177 277 -2624
2021-05-15 10:58:58 GMT 54.021404 -6.677183 9,650 177 278 -2560
2021-05-15 10:58:57 GMT 54.022568 -6.677255 9,675 177 279 -2496
2021-05-15 10:58:56 GMT 54.025360 -6.677426 9,775 177 280 -2432
2021-05-15 10:58:53 GMT 54.027969 -6.677647 9,850 177 281 -2240
2021-05-15 10:58:52 GMT 54.029251 -6.677726 9,900 177 282 -2240
2021-05-15 10:58:50 GMT 54.033134 -6.677991 10,000 177 284 -2048
2021-05-15 10:58:48 GMT 54.034332 -6.678040 10,025 177 285 -1920
2021-05-15 10:58:47 GMT 54.035614 -6.678196 10,075 177 286 -1920
2021-05-15 10:58:45 GMT 54.038361 -6.678353 10,125 177 288 -1792
2021-05-15 10:58:43 GMT 54.040863 -6.678557 10,200 177 290 -1664
2021-05-15 10:58:42 GMT 54.042480 -6.678667 10,225 177 291 -1664
2021-05-15 10:58:41 GMT 54.044216 -6.678718 10,250 177 292 -1600
2021-05-15 10:58:40 GMT 54.047699 -6.678981 10,300 177 296 -1472
2021-05-15 10:58:38 GMT 54.047699 -6.678981 10,325 177 296 -1472
2021-05-15 10:58:37 GMT 54.049072 -6.679060 10,350 177 297 -1472
2021-05-15 10:58:36 GMT 54.052361 -6.679284 10,400 177 300 -1472
2021-05-15 10:58:34 GMT 54.053604 -6.679374 10,425 177 301 -1472
2021-05-15 10:58:33 GMT 54.054977 -6.679531 10,450 177 302 -1472
2021-05-15 10:58:32 GMT 54.056488 -6.679609 10,475 177 304 -1472
2021-05-15 10:58:30 GMT 54.059006 -6.679766 10,525 177 306 -1472
2021-05-15 10:58:29 GMT 54.060696 -6.679930 10,550 177 308 -1472
2021-05-15 10:58:27 GMT 54.064911 -6.680237 10,625 177 312 -1536
2021-05-15 10:58:25 GMT 54.065781 -6.680315 10,650 177 313 -1536
2021-05-15 10:58:24 GMT 54.068935 -6.680495 10,700 177 316 -1600
2021-05-15 10:58:22 GMT 54.070221 -6.680629 10,725 177 317 -1600
2021-05-15 10:58:21 GMT 54.071541 -6.680738 10,750 177 318 -1664
2021-05-15 10:58:20 GMT 54.074753 -6.680943 10,800 177 321 -1728
2021-05-15 10:58:18 GMT 54.076263 -6.681100 10,825 177 323 -1728
2021-05-15 10:58:17 GMT 54.077732 -6.681222 10,850 177 324 -1792
2021-05-15 10:58:16 GMT 54.079224 -6.681303 10,875 177 325 -1792
2021-05-15 10:58:14 GMT 54.082062 -6.681545 10,950 177 328 -1856
2021-05-15 10:58:13 GMT 54.083679 -6.681649 10,975 177 329 -1856
2021-05-15 10:58:12 GMT 54.084915 -6.681728 11,000 177 331 -1856
2021-05-15 10:58:11 GMT 54.086563 -6.681806 11,025 177 332 -1856
2021-05-15 10:58:08 GMT 54.091324 -6.682120 11,125 177 336 -1920
2021-05-15 10:58:07 GMT 54.092674 -6.682273 11,150 177 337 -1920
2021-05-15 10:58:05 GMT 54.095810 -6.682434 11,225 177 339 -1920
2021-05-15 10:58:04 GMT 54.097191 -6.682515 11,250 177 340 -1920
2021-05-15 10:58:03 GMT 54.098774 -6.682676 11,275 177 341 -1920
2021-05-15 10:58:02 GMT 54.100498 -6.682757 11,325 177 342 -1920
2021-05-15 10:58:01 GMT 54.105835 -6.683140 11,400 177 344 -1984
2021-05-15 10:57:59 GMT 54.105835 -6.683140 11,425 177 344 -1984
2021-05-15 10:57:58 GMT 54.107437 -6.683297 11,450 177 345 -1984
2021-05-15 10:57:56 GMT 54.109947 -6.683403 11,500 177 347 -1920
2021-05-15 10:57:54 GMT 54.113483 -6.683727 11,575 177 348 -1792
2021-05-15 10:57:53 GMT 54.115067 -6.683807 11,600 177 349 -1792
2021-05-15 10:57:52 GMT 54.116684 -6.683925 11,650 177 350 -1664
2021-05-15 10:57:51 GMT 54.118141 -6.684050 11,675 177 351 -1600
2021-05-15 10:57:50 GMT 54.123169 -6.684373 11,725 177 352 -1536
2021-05-15 10:57:48 GMT 54.123169 -6.684373 11,750 177 353 -1536
2021-05-15 10:57:47 GMT 54.124603 -6.684474 11,775 177 354 -1536
2021-05-15 10:57:45 GMT 54.127869 -6.684696 11,825 177 355 -1408
2021-05-15 10:57:42 GMT 54.132614 -6.685024 11,875 177 358 -1152
2021-05-15 10:57:40 GMT 54.135921 -6.685261 11,900 177 360 -960
2021-05-15 10:57:38 GMT 54.139526 -6.685573 11,925 177 362 -704
2021-05-15 10:57:37 GMT 54.141220 -6.685652 11,950 177 363 -640
2021-05-15 10:57:36 GMT 54.142719 -6.685746 11,950 177 364 -512
2021-05-15 10:57:34 GMT 54.146584 -6.686069 11,975 177 366 -320
2021-05-15 10:57:32 GMT 54.149918 -6.686279 11,975 177 368 -128
2021-05-15 10:57:31 GMT 54.151470 -6.686392 11,975 177 369 -64
2021-05-15 10:57:29 GMT 54.156406 -6.686716 11,975 177 371 0
2021-05-15 10:57:28 GMT 54.156406 -6.686716 11,975 177 372 0
2021-05-15 10:57:27 GMT 54.157928 -6.686829 11,975 177 372 0
2021-05-15 10:57:26 GMT 54.162918 -6.687143 12,000 177 374 0
2021-05-15 10:57:23 GMT 54.164459 -6.687281 12,000 177 374 0
2021-05-15 10:57:21 GMT 54.167404 -6.687456 12,000 177 375 0
2021-05-15 10:57:19 GMT 54.173817 -6.687927 12,000 177 375 0
2021-05-15 10:57:17 GMT 54.173817 -6.687927 12,000 177 375 0
2021-05-15 10:57:16 GMT 54.175537 -6.688089 12,000 177 375 0
2021-05-15 10:57:15 GMT 54.178986 -6.688331 12,000 177 375 0
2021-05-15 10:57:12 GMT 54.182613 -6.688574 12,000 177 375 0
2021-05-15 10:57:11 GMT 54.185898 -6.688790 12,000 177 375 0
2021-05-15 10:57:09 GMT 54.187820 -6.688947 12,000 177 375 0
2021-05-15 10:57:08 GMT 54.189560 -6.689026 12,000 177 375 0
2021-05-15 10:57:07 GMT 54.191090 -6.689139 12,000 177 375 0
2021-05-15 10:57:05 GMT 54.194717 -6.689381 12,000 177 374 0
2021-05-15 10:57:04 GMT 54.196487 -6.689543 12,000 177 374 0
2021-05-15 10:57:02 GMT 54.200256 -6.689785 12,000 177 374 0
2021-05-15 10:57:00 GMT 54.203705 -6.689968 12,000 177 374 0
2021-05-15 10:56:59 GMT 54.204590 -6.690028 12,000 177 374 0
2021-05-15 10:56:57 GMT 54.208740 -6.690360 12,000 177 374 0
2021-05-15 10:56:56 GMT 54.210640 -6.690431 12,000 177 374 0
2021-05-15 10:56:53 GMT 54.215149 -6.690752 12,000 177 374 0
2021-05-15 10:56:52 GMT 54.217018 -6.690916 12,000 177 374 0
2021-05-15 10:56:51 GMT 54.218765 -6.690988 12,000 177 374 0
2021-05-15 10:56:49 GMT 54.221191 -6.691145 12,000 177 374 0
2021-05-15 10:56:48 GMT 54.228470 -6.691643 12,000 177 374 0
2021-05-15 10:56:46 GMT 54.228470 -6.691643 12,000 177 374 0
2021-05-15 10:56:43 GMT 54.233124 -6.691966 12,000 177 374 0
2021-05-15 10:56:42 GMT 54.235016 -6.692086 12,000 177 374 0
2021-05-15 10:56:41 GMT 54.236755 -6.692209 12,000 177 374 0
2021-05-15 10:56:39 GMT 54.239319 -6.692400 12,000 177 374 0
2021-05-15 10:56:38 GMT 54.241928 -6.692557 12,000 177 373 0
2021-05-15 10:56:36 GMT 54.247089 -6.692936 12,000 177 373 0
2021-05-15 10:56:35 GMT 54.247089 -6.692936 12,000 177 373 0
2021-05-15 10:56:34 GMT 54.248657 -6.693028 12,000 177 373 0
2021-05-15 10:56:32 GMT 54.252594 -6.693342 12,000 177 373 0
2021-05-15 10:56:31 GMT 54.254166 -6.693420 12,000 177 373 0
2021-05-15 10:56:30 GMT 54.256027 -6.693577 12,000 177 373 0
2021-05-15 10:56:29 GMT 54.257446 -6.693656 12,000 177 372 0
2021-05-15 10:56:27 GMT 54.261017 -6.693891 12,000 177 372 0
2021-05-15 10:56:26 GMT 54.262592 -6.693986 12,000 177 372 0
2021-05-15 10:56:25 GMT 54.264313 -6.694147 12,000 177 372 0
2021-05-15 10:56:24 GMT 54.266174 -6.694309 12,000 177 372 0
2021-05-15 10:56:22 GMT 54.269806 -6.694551 12,000 177 372 0
2021-05-15 10:56:21 GMT 54.271530 -6.694632 12,000 177 372 0
2021-05-15 10:56:20 GMT 54.273251 -6.694794 12,000 177 372 0
2021-05-15 10:56:19 GMT 54.274601 -6.694874 12,000 177 372 0
2021-05-15 10:56:16 GMT 54.279259 -6.695168 12,000 177 372 0
2021-05-15 10:56:15 GMT 54.282349 -6.695440 12,000 177 371 0
2021-05-15 10:56:12 GMT 54.286800 -6.695751 12,000 177 372 0
2021-05-15 10:56:11 GMT 54.288521 -6.695834 12,000 177 372 0
2021-05-15 10:56:10 GMT 54.289547 -6.695917 12,000 177 372 0
2021-05-15 10:56:08 GMT 54.293289 -6.696248 12,000 177 372 0
2021-05-15 10:56:07 GMT 54.295029 -6.696329 12,000 177 372 0
2021-05-15 10:56:06 GMT 54.296722 -6.696490 12,000 177 372 0
2021-05-15 10:56:05 GMT 54.300339 -6.696732 12,000 177 372 0
2021-05-15 10:56:02 GMT 54.303280 -6.696916 12,000 177 372 0
2021-05-15 10:56:00 GMT 54.306862 -6.697249 12,000 177 372 0
2021-05-15 10:55:59 GMT 54.308441 -6.697379 12,000 177 372 0
2021-05-15 10:55:57 GMT 54.312012 -6.697621 12,000 177 372 0
2021-05-15 10:55:56 GMT 54.313751 -6.697702 12,000 177 372 0
2021-05-15 10:55:55 GMT 54.315475 -6.697832 12,000 177 372 0
2021-05-15 10:55:54 GMT 54.317368 -6.698025 12,000 177 372 0
2021-05-15 10:55:52 GMT 54.320782 -6.698248 12,000 177 372 0
2021-05-15 10:55:51 GMT 54.322506 -6.698414 12,000 177 372 0
2021-05-15 10:55:50 GMT 54.324051 -6.698510 12,000 177 372 0
2021-05-15 10:55:49 GMT 54.327484 -6.698747 12,000 177 372 0
2021-05-15 10:55:47 GMT 54.329208 -6.698914 12,000 177 371 0
2021-05-15 10:55:46 GMT 54.330933 -6.698997 12,000 177 371 0
2021-05-15 10:55:45 GMT 54.332977 -6.699156 12,000 177 371 0
2021-05-15 10:55:44 GMT 54.334717 -6.699317 12,000 177 371 0
2021-05-15 10:55:41 GMT 54.339340 -6.699641 12,000 177 371 0
2021-05-15 10:55:40 GMT 54.341221 -6.699746 12,000 177 371 0
2021-05-15 10:55:39 GMT 54.344650 -6.699964 12,000 177 371 0
2021-05-15 10:55:37 GMT 54.346527 -6.700079 12,000 177 371 0
2021-05-15 10:55:36 GMT 54.348248 -6.700245 12,000 177 371 0
2021-05-15 10:55:34 GMT 54.355957 -6.700772 12,000 177 371 0
2021-05-15 10:55:32 GMT 54.355957 -6.700772 12,000 177 371 0
2021-05-15 10:55:31 GMT 54.357651 -6.700933 12,000 177 371 0
2021-05-15 10:55:29 GMT 54.361267 -6.701175 12,000 177 371 0
2021-05-15 10:55:28 GMT 54.362961 -6.701256 12,000 177 371 0
2021-05-15 10:55:27 GMT 54.364868 -6.701410 12,000 177 371 0
2021-05-15 10:55:26 GMT 54.366219 -6.701494 12,000 177 371 0
2021-05-15 10:55:24 GMT 54.369476 -6.701743 12,000 177 371 0
2021-05-15 10:55:23 GMT 54.371197 -6.701827 12,000 177 371 0
2021-05-15 10:55:22 GMT 54.373058 -6.701993 12,000 177 371 0
2021-05-15 10:55:20 GMT 54.376648 -6.702226 12,000 177 371 0
2021-05-15 10:55:19 GMT 54.378387 -6.702306 12,000 177 371 0
2021-05-15 10:55:18 GMT 54.380264 -6.702468 12,000 177 370 0
2021-05-15 10:55:16 GMT 54.383011 -6.702630 12,000 177 370 0
2021-05-15 10:55:15 GMT 54.385399 -6.702825 12,000 177 370 0
2021-05-15 10:55:14 GMT 54.386745 -6.702909 12,000 177 370 0
2021-05-15 10:55:13 GMT 54.392212 -6.703276 12,000 177 370 0
2021-05-15 10:55:11 GMT 54.392212 -6.703276 12,000 177 369 0
2021-05-15 10:55:10 GMT 54.393265 -6.703357 12,000 177 369 0
2021-05-15 10:55:09 GMT 54.394939 -6.703491 12,000 177 369 0
2021-05-15 10:55:08 GMT 54.398895 -6.703760 12,000 177 369 0
2021-05-15 10:55:05 GMT 54.401596 -6.703991 12,000 177 368 0
2021-05-15 10:55:04 GMT 54.403973 -6.704157 12,000 177 368 0
2021-05-15 10:55:02 GMT 54.406540 -6.704326 12,000 177 368 0
2021-05-15 10:55:00 GMT 54.410629 -6.704656 12,000 177 368 0
2021-05-15 10:54:59 GMT 54.412491 -6.704811 12,000 177 367 0
2021-05-15 10:54:58 GMT 54.414368 -6.704972 12,000 177 367 0
2021-05-15 10:54:57 GMT 54.415192 -6.704989 12,000 177 367 0
2021-05-15 10:54:56 GMT 54.418442 -6.705215 12,000 177 367 0
2021-05-15 10:54:54 GMT 54.420959 -6.705457 12,000 177 367 0
2021-05-15 10:54:53 GMT 54.422653 -6.705538 12,000 177 367 0
2021-05-15 10:54:52 GMT 54.425571 -6.705738 12,000 177 366 0
2021-05-15 10:54:50 GMT 54.427433 -6.705905 12,000 177 366 0
2021-05-15 10:54:49 GMT 54.429291 -6.706022 12,000 177 366 0
2021-05-15 10:54:48 GMT 54.430786 -6.706155 12,000 177 366 0
2021-05-15 10:54:47 GMT 54.432507 -6.706238 12,000 177 366 0
2021-05-15 10:54:45 GMT 54.436047 -6.706571 12,000 177 366 0
2021-05-15 10:54:44 GMT 54.437897 -6.706669 12,000 177 366 0
2021-05-15 10:54:43 GMT 54.439583 -6.706820 12,000 177 366 0
2021-05-15 10:54:42 GMT 54.441257 -6.706904 12,000 177 366 0
2021-05-15 10:54:41 GMT 54.444489 -6.707153 12,000 177 366 0
2021-05-15 10:54:39 GMT 54.446365 -6.707234 12,000 177 366 0
2021-05-15 10:54:38 GMT 54.448196 -6.707403 12,000 177 366 0
2021-05-15 10:54:36 GMT 54.451733 -6.707653 12,000 177 366 0
2021-05-15 10:54:35 GMT 54.452591 -6.707719 12,000 177 366 0
2021-05-15 10:54:33 GMT 54.459370 -6.708152 12,000 177 366 0
2021-05-15 10:54:31 GMT 54.459370 -6.708152 12,000 177 366 0
2021-05-15 10:54:29 GMT 54.461884 -6.708319 12,000 177 366 0
2021-05-15 10:54:28 GMT 54.464447 -6.708527 12,000 177 366 0
2021-05-15 10:54:25 GMT 54.470169 -6.708901 12,000 177 366 0
2021-05-15 10:54:24 GMT 54.472046 -6.709011 12,000 177 366 0
2021-05-15 10:54:22 GMT 54.474884 -6.709254 12,000 177 366 0
2021-05-15 10:54:21 GMT 54.476578 -6.709334 12,000 177 366 0
2021-05-15 10:54:20 GMT 54.480316 -6.709650 12,000 177 366 0
2021-05-15 10:54:18 GMT 54.481995 -6.709733 12,000 177 366 0
2021-05-15 10:54:17 GMT 54.483669 -6.709817 12,000 177 366 0
2021-05-15 10:54:16 GMT 54.485367 -6.709981 12,000 177 366 0
2021-05-15 10:54:14 GMT 54.488754 -6.710223 12,000 177 366 0
2021-05-15 10:54:13 GMT 54.490448 -6.710304 12,000 177 366 0
2021-05-15 10:54:12 GMT 54.492142 -6.710399 12,000 177 366 0
2021-05-15 10:54:10 GMT 54.495495 -6.710649 12,000 177 366 0
2021-05-15 10:54:09 GMT 54.497040 -6.710789 12,000 177 366 0
2021-05-15 10:54:08 GMT 54.498707 -6.710899 12,000 177 366 0
2021-05-15 10:54:05 GMT 54.503780 -6.711232 12,000 177 366 0
2021-05-15 10:54:02 GMT 54.508209 -6.711596 12,000 177 366 0
2021-05-15 10:54:00 GMT 54.511414 -6.711814 12,000 177 366 0
2021-05-15 10:53:58 GMT 54.515121 -6.712081 12,000 177 366 0
2021-05-15 10:53:57 GMT 54.516998 -6.712162 12,000 177 366 0
2021-05-15 10:53:55 GMT 54.520020 -6.712404 12,000 177 366 0
2021-05-15 10:53:54 GMT 54.521896 -6.712566 12,000 177 366 0
2021-05-15 10:53:53 GMT 54.523422 -6.712646 12,000 177 366 0
2021-05-15 10:53:52 GMT 54.525425 -6.712813 12,000 177 366 0
2021-05-15 10:53:50 GMT 54.528809 -6.713050 12,000 177 366 0
2021-05-15 10:53:48 GMT 54.532036 -6.713312 12,000 177 366 0
2021-05-15 10:53:46 GMT 54.535576 -6.713562 12,000 177 366 0
2021-05-15 10:53:44 GMT 54.539474 -6.713858 12,000 177 366 0
2021-05-15 10:53:42 GMT 54.542885 -6.714061 12,000 177 367 0
2021-05-15 10:53:40 GMT 54.546234 -6.714311 12,000 177 367 0
2021-05-15 10:53:38 GMT 54.549820 -6.714561 12,000 177 367 0
2021-05-15 10:53:37 GMT 54.551331 -6.714747 12,000 177 367 0
2021-05-15 10:53:35 GMT 54.554707 -6.714977 12,000 177 367 -64
2021-05-15 10:53:34 GMT 54.556431 -6.715060 12,000 177 367 -64
2021-05-15 10:53:33 GMT 54.558105 -6.715227 12,000 177 367 0
2021-05-15 10:53:32 GMT 54.563366 -6.715560 12,000 177 367 0
2021-05-15 10:53:30 GMT 54.563366 -6.715560 12,000 177 367 0
2021-05-15 10:53:28 GMT 54.566254 -6.715809 12,000 177 367 0
2021-05-15 10:53:27 GMT 54.567928 -6.715892 12,000 177 367 0
2021-05-15 10:53:26 GMT 54.569649 -6.715976 12,000 177 367 0
2021-05-15 10:53:25 GMT 54.571514 -6.716142 12,000 177 367 0
2021-05-15 10:53:23 GMT 54.574356 -6.716362 12,000 177 367 0
2021-05-15 10:53:22 GMT 54.576401 -6.716475 12,000 177 367 0
2021-05-15 10:53:21 GMT 54.578075 -6.716642 12,000 177 367 0
2021-05-15 10:53:20 GMT 54.579620 -6.716766 12,000 177 367 0
2021-05-15 10:53:18 GMT 54.583012 -6.716974 12,000 177 367 0
2021-05-15 10:53:17 GMT 54.584686 -6.717058 12,000 177 367 0
2021-05-15 10:53:16 GMT 54.586411 -6.717224 12,000 177 367 0
2021-05-15 10:53:15 GMT 54.588272 -6.717391 12,000 177 367 0
2021-05-15 10:53:12 GMT 54.593346 -6.717723 12,000 177 367 0
2021-05-15 10:53:11 GMT 54.595207 -6.717890 12,000 177 367 0
2021-05-15 10:53:10 GMT 54.598606 -6.718140 12,000 177 367 0
2021-05-15 10:53:07 GMT 54.602325 -6.718382 12,000 177 367 0
2021-05-15 10:53:06 GMT 54.605541 -6.718639 12,000 177 368 0
2021-05-15 10:53:04 GMT 54.607224 -6.718705 12,000 177 368 0
2021-05-15 10:53:02 GMT 54.609604 -6.718947 12,000 177 368 0
2021-05-15 10:53:01 GMT 54.614014 -6.719222 12,000 177 368 0
2021-05-15 10:52:58 GMT 54.616562 -6.719432 12,000 177 368 0
2021-05-15 10:52:57 GMT 54.618950 -6.719555 12,000 177 368 0
2021-05-15 10:52:54 GMT 54.626072 -6.720137 12,000 177 367 0
2021-05-15 10:52:52 GMT 54.627281 -6.720220 12,000 177 367 0
2021-05-15 10:52:51 GMT 54.628960 -6.720387 12,000 177 367 0
2021-05-15 10:52:49 GMT 54.636269 -6.720886 12,000 177 367 0
2021-05-15 10:52:47 GMT 54.636269 -6.720886 12,000 177 367 0
2021-05-15 10:52:45 GMT 54.639153 -6.721136 12,000 177 367 0
2021-05-15 10:52:44 GMT 54.640827 -6.721219 12,000 177 367 0
2021-05-15 10:52:43 GMT 54.642517 -6.721371 12,000 177 367 0
2021-05-15 10:52:41 GMT 54.645218 -6.721532 12,000 177 366 0
2021-05-15 10:52:40 GMT 54.647598 -6.721694 12,000 177 366 0
2021-05-15 10:52:39 GMT 54.650002 -6.721885 12,000 177 366 0
2021-05-15 10:52:38 GMT 54.651489 -6.722017 12,000 177 366 0
2021-05-15 10:52:36 GMT 54.653549 -6.722179 12,000 177 366 0
2021-05-15 10:52:35 GMT 54.658611 -6.722551 12,000 177 366 0
2021-05-15 10:52:32 GMT 54.661312 -6.722717 12,000 177 366 0
2021-05-15 10:52:30 GMT 54.664524 -6.722967 12,000 177 366 0
2021-05-15 10:52:29 GMT 54.666897 -6.723133 12,000 177 366 0
2021-05-15 10:52:27 GMT 54.670258 -6.723390 12,000 177 366 0
2021-05-15 10:52:25 GMT 54.673836 -6.723716 12,000 177 366 0
2021-05-15 10:52:24 GMT 54.675339 -6.723794 12,000 177 366 0
2021-05-15 10:52:23 GMT 54.677048 -6.723883 12,000 177 366 0
2021-05-15 10:52:22 GMT 54.678722 -6.724049 12,000 177 366 0
2021-05-15 10:52:20 GMT 54.682114 -6.724279 12,000 177 366 0
2021-05-15 10:52:19 GMT 54.683762 -6.724441 12,000 177 366 0
2021-05-15 10:52:17 GMT 54.686821 -6.724632 12,000 177 366 0
2021-05-15 10:52:16 GMT 54.688339 -6.724764 12,000 177 366 0
2021-05-15 10:52:15 GMT 54.690220 -6.724881 12,000 177 366 0
2021-05-15 10:52:14 GMT 54.691727 -6.725006 12,000 177 366 0
2021-05-15 10:52:12 GMT 54.695110 -6.725297 12,000 177 366 0
2021-05-15 10:52:10 GMT 54.697109 -6.725381 12,000 177 366 0
2021-05-15 10:52:08 GMT 54.700516 -6.725652 12,000 177 365 0
2021-05-15 10:52:07 GMT 54.702164 -6.725814 12,000 177 365 0
2021-05-15 10:52:06 GMT 54.705551 -6.726056 12,000 177 365 0
2021-05-15 10:52:04 GMT 54.707260 -6.726130 12,000 177 365 0
2021-05-15 10:52:03 GMT 54.709122 -6.726299 12,000 177 365 0
2021-05-15 10:52:02 GMT 54.712143 -6.726541 12,000 177 365 0
2021-05-15 10:52:00 GMT 54.713974 -6.726622 12,000 177 365 0
2021-05-15 10:51:59 GMT 54.715668 -6.726783 12,000 177 365 0
2021-05-15 10:51:58 GMT 54.717361 -6.726864 12,000 177 365 0
2021-05-15 10:51:56 GMT 54.720711 -6.727128 12,000 177 365 0
2021-05-15 10:51:55 GMT 54.722260 -6.727268 12,000 177 365 0
2021-05-15 10:51:53 GMT 54.725601 -6.727461 12,000 177 365 0
2021-05-15 10:51:52 GMT 54.726952 -6.727545 12,000 177 365 0
2021-05-15 10:51:51 GMT 54.729492 -6.727753 12,000 177 365 0
2021-05-15 10:51:49 GMT 54.734390 -6.728076 12,000 177 365 0
2021-05-15 10:51:47 GMT 54.735718 -6.728237 12,000 177 365 0
2021-05-15 10:51:46 GMT 54.737751 -6.728377 12,000 177 365 0
2021-05-15 10:51:45 GMT 54.740936 -6.728561 12,000 177 365 0
2021-05-15 10:51:43 GMT 54.742630 -6.728722 12,000 177 365 0
2021-05-15 10:51:42 GMT 54.744507 -6.728803 12,000 177 365 0
2021-05-15 10:51:41 GMT 54.747711 -6.729043 12,000 177 365 0
2021-05-15 10:51:39 GMT 54.749222 -6.729126 12,000 177 365 0
2021-05-15 10:51:38 GMT 54.751099 -6.729288 12,000 177 365 0
2021-05-15 10:51:36 GMT 54.754463 -6.729542 12,000 177 365 0
2021-05-15 10:51:35 GMT 54.756138 -6.729625 12,000 177 365 0
2021-05-15 10:51:33 GMT 54.759338 -6.729853 12,000 177 365 0
2021-05-15 10:51:32 GMT 54.761353 -6.730042 12,000 177 365 0
2021-05-15 10:51:30 GMT 54.764557 -6.730257 12,000 177 365 0
2021-05-15 10:51:29 GMT 54.766426 -6.730374 12,000 177 365 0
2021-05-15 10:51:28 GMT 54.767963 -6.730458 12,000 177 365 0
2021-05-15 10:51:27 GMT 54.769821 -6.730661 12,000 177 365 0
2021-05-15 10:51:25 GMT 54.773163 -6.730903 12,000 177 365 0
2021-05-15 10:51:24 GMT 54.774853 -6.730957 12,000 177 366 0
2021-05-15 10:51:23 GMT 54.778061 -6.731226 12,000 177 366 0
2021-05-15 10:51:21 GMT 54.779938 -6.731388 12,000 177 366 0
2021-05-15 10:51:20 GMT 54.781788 -6.731456 12,000 177 366 0
2021-05-15 10:51:19 GMT 54.783466 -6.731623 12,000 177 366 0
2021-05-15 10:51:18 GMT 54.785328 -6.731706 12,000 177 366 0
2021-05-15 10:51:17 GMT 54.788353 -6.731956 12,000 177 366 0
2021-05-15 10:51:15 GMT 54.790215 -6.732122 12,000 177 366 0
2021-05-15 10:51:14 GMT 54.791748 -6.732196 12,000 177 366 0
2021-05-15 10:51:13 GMT 54.793442 -6.732276 12,000 177 365 0
2021-05-15 10:51:11 GMT 54.796967 -6.732600 12,000 177 365 0
2021-05-15 10:51:10 GMT 54.798500 -6.732705 12,000 177 365 0
2021-05-15 10:51:09 GMT 54.802185 -6.732923 12,000 177 365 0
2021-05-15 10:51:07 GMT 54.803715 -6.733038 12,000 177 365 0
2021-05-15 10:51:06 GMT 54.805389 -6.733204 12,000 177 365 0
2021-05-15 10:51:05 GMT 54.808777 -6.733407 12,000 177 365 0
2021-05-15 10:51:03 GMT 54.810326 -6.733537 12,000 177 365 0
2021-05-15 10:51:02 GMT 54.812347 -6.733650 12,000 177 365 0
2021-05-15 10:51:00 GMT 54.816376 -6.733953 12,000 177 364 0
2021-05-15 10:50:58 GMT 54.818573 -6.734054 12,000 177 364 0
2021-05-15 10:50:56 GMT 54.821915 -6.734296 12,000 177 364 0
2021-05-15 10:50:55 GMT 54.823963 -6.734453 12,000 177 364 0
2021-05-15 10:50:54 GMT 54.825642 -6.734619 12,000 177 364 0
2021-05-15 10:50:52 GMT 54.828995 -6.734869 12,000 177 364 0
2021-05-15 10:50:51 GMT 54.830658 -6.734942 12,000 177 364 0
2021-05-15 10:50:50 GMT 54.832207 -6.735035 12,000 177 364 0
2021-05-15 10:50:49 GMT 54.833881 -6.735202 12,000 177 364 0
2021-05-15 10:50:48 GMT 54.837250 -6.735427 12,000 177 364 0
2021-05-15 10:50:46 GMT 54.838722 -6.735535 12,000 177 364 0
2021-05-15 10:50:45 GMT 54.840446 -6.735701 12,000 177 364 0
2021-05-15 10:50:44 GMT 54.843937 -6.735951 12,000 177 364 0
2021-05-15 10:50:42 GMT 54.845657 -6.736034 12,000 177 364 0
2021-05-15 10:50:41 GMT 54.849010 -6.736284 12,000 177 364 0
2021-05-15 10:50:39 GMT 54.851028 -6.736477 12,000 177 364 0
2021-05-15 10:50:38 GMT 54.852547 -6.736617 12,000 177 364 0
2021-05-15 10:50:37 GMT 54.856041 -6.736866 12,000 177 364 0
2021-05-15 10:50:35 GMT 54.857574 -6.736962 12,000 177 364 0
2021-05-15 10:50:34 GMT 54.859268 -6.737123 12,000 177 363 0
2021-05-15 10:50:33 GMT 54.861420 -6.737285 12,000 177 363 0
2021-05-15 10:50:31 GMT 54.863113 -6.737366 12,000 177 363 0
2021-05-15 10:50:30 GMT 54.865448 -6.737608 12,000 177 363 0
2021-05-15 10:50:29 GMT 54.867279 -6.737689 12,000 177 363 0
2021-05-15 10:50:28 GMT 54.869167 -6.737865 12,000 177 363 0
2021-05-15 10:50:27 GMT 54.870667 -6.737931 12,000 177 363 0
2021-05-15 10:50:25 GMT 54.874008 -6.738198 12,000 177 363 0
2021-05-15 10:50:24 GMT 54.876205 -6.738335 12,000 177 363 0
2021-05-15 10:50:23 GMT 54.878201 -6.738531 12,000 177 363 0
2021-05-15 10:50:22 GMT 54.879730 -6.738577 12,000 177 363 0
2021-05-15 10:50:20 GMT 54.882385 -6.738820 12,000 177 363 0
2021-05-15 10:50:19 GMT 54.884079 -6.738901 12,000 177 363 0
2021-05-15 10:50:18 GMT 54.886436 -6.739030 12,000 177 363 0
2021-05-15 10:50:16 GMT 54.890766 -6.739363 12,000 177 363 0
2021-05-15 10:50:15 GMT 54.890766 -6.739363 12,000 177 363 0
2021-05-15 10:50:14 GMT 54.894150 -6.739628 12,000 177 363 0
2021-05-15 10:50:12 GMT 54.895798 -6.739708 12,000 177 363 0
2021-05-15 10:50:11 GMT 54.897812 -6.739870 12,000 177 363 0
2021-05-15 10:50:10 GMT 54.901337 -6.740112 12,000 177 363 0
2021-05-15 10:50:08 GMT 54.903030 -6.740193 12,000 177 363 0
2021-05-15 10:50:07 GMT 54.904503 -6.740362 12,000 177 363 0
2021-05-15 10:50:06 GMT 54.906364 -6.740445 12,000 177 363 0
2021-05-15 10:50:04 GMT 54.909714 -6.740695 12,000 177 363 0
2021-05-15 10:50:03 GMT 54.911224 -6.740839 12,000 177 363 0
2021-05-15 10:50:02 GMT 54.912880 -6.740945 12,000 177 363 0
2021-05-15 10:50:01 GMT 54.916077 -6.741162 12,000 177 363 0
2021-05-15 10:49:59 GMT 54.917908 -6.741243 12,000 177 363 0
2021-05-15 10:49:58 GMT 54.919769 -6.741444 12,000 177 363 0
2021-05-15 10:49:56 GMT 54.923447 -6.741647 12,000 177 363 0
2021-05-15 10:49:55 GMT 54.925140 -6.741809 12,000 177 363 0
2021-05-15 10:49:54 GMT 54.926834 -6.741890 12,000 177 363 0
2021-05-15 10:49:53 GMT 54.927635 -6.741943 12,000 177 363 0
2021-05-15 10:49:51 GMT 54.931175 -6.742193 12,000 177 363 0
2021-05-15 10:49:50 GMT 54.932850 -6.742360 12,000 177 363 0
2021-05-15 10:49:49 GMT 54.935211 -6.742536 12,000 177 363 0
2021-05-15 10:49:48 GMT 54.936714 -6.742609 12,000 177 363 0
2021-05-15 10:49:45 GMT 54.940887 -6.742940 12,000 177 363 0
2021-05-15 10:49:44 GMT 54.944584 -6.743192 12,000 177 363 -64
2021-05-15 10:49:42 GMT 54.946289 -6.743344 12,000 177 363 -64
2021-05-15 10:49:41 GMT 54.948624 -6.743505 12,000 177 363 -64
2021-05-15 10:49:40 GMT 54.950123 -6.743608 12,000 177 362 -64
2021-05-15 10:49:39 GMT 54.953613 -6.743858 12,000 177 362 0
2021-05-15 10:49:36 GMT 54.956638 -6.744024 12,000 177 362 0
2021-05-15 10:49:35 GMT 54.958317 -6.744191 12,000 177 362 0
2021-05-15 10:49:33 GMT 54.961479 -6.744357 12,000 177 362 0
2021-05-15 10:49:32 GMT 54.963158 -6.744523 12,000 177 362 0
2021-05-15 10:49:31 GMT 54.964832 -6.744607 12,000 177 362 0
2021-05-15 10:49:29 GMT 54.968697 -6.744940 12,000 177 362 0
2021-05-15 10:49:27 GMT 54.972015 -6.745121 12,000 177 362 0
2021-05-15 10:49:26 GMT 54.973709 -6.745282 12,000 177 362 0
2021-05-15 10:49:24 GMT 54.976517 -6.745522 12,000 177 362 0
2021-05-15 10:49:23 GMT 54.978378 -6.745605 12,000 177 362 0
2021-05-15 10:49:22 GMT 54.979729 -6.745689 12,000 177 362 0
2021-05-15 10:49:21 GMT 54.981358 -6.745855 12,000 177 362 0
2021-05-15 10:49:19 GMT 54.984898 -6.746105 12,000 177 361 0
2021-05-15 10:49:17 GMT 54.988403 -6.746333 12,000 177 361 0
2021-05-15 10:49:16 GMT 54.990391 -6.746438 12,000 177 361 0
2021-05-15 10:49:15 GMT 54.991741 -6.746521 12,000 177 361 0
2021-05-15 10:49:14 GMT 54.993416 -6.746687 12,000 177 361 64
2021-05-15 10:49:13 GMT 54.994720 -6.746771 12,000 177 361 0
2021-05-15 10:49:12 GMT 54.998383 -6.747060 12,000 177 360 0
2021-05-15 10:49:10 GMT 55.000725 -6.747187 12,000 177 360 0
2021-05-15 10:49:09 GMT 55.002228 -6.747302 12,000 177 360 0
2021-05-15 10:49:08 GMT 55.003704 -6.747437 12,000 177 360 0
2021-05-15 10:49:06 GMT 55.007034 -6.747706 12,000 177 359 0
2021-05-15 10:49:05 GMT 55.008545 -6.747769 12,000 177 359 0
2021-05-15 10:49:04 GMT 55.009850 -6.747853 12,000 177 359 0
2021-05-15 10:49:03 GMT 55.013340 -6.748102 12,000 177 359 0
2021-05-15 10:49:01 GMT 55.015015 -6.748269 12,000 177 359 0
2021-05-15 10:49:00 GMT 55.016644 -6.748352 12,000 177 358 0
2021-05-15 10:48:59 GMT 55.018459 -6.748519 12,000 177 358 0
2021-05-15 10:48:58 GMT 55.021637 -6.748756 12,000 177 358 0
2021-05-15 10:48:55 GMT 55.025257 -6.749018 12,000 177 358 0
2021-05-15 10:48:53 GMT 55.028549 -6.749321 12,000 177 357 0
2021-05-15 10:48:52 GMT 55.030197 -6.749402 12,000 177 357 0
2021-05-15 10:48:50 GMT 55.032852 -6.749645 12,000 177 357 0
2021-05-15 10:48:49 GMT 55.035324 -6.749806 12,000 177 357 0
2021-05-15 10:48:48 GMT 55.036800 -6.749933 12,000 177 357 0
2021-05-15 10:48:47 GMT 55.038479 -6.750100 12,000 177 357 0
2021-05-15 10:48:45 GMT 55.042740 -6.750372 12,000 177 356 0
2021-05-15 10:48:42 GMT 55.046219 -6.750614 12,000 177 356 0
2021-05-15 10:48:41 GMT 55.050163 -6.750932 12,000 177 355 0
2021-05-15 10:48:38 GMT 55.053097 -6.751182 12,000 177 355 0
2021-05-15 10:48:37 GMT 55.054913 -6.751348 12,000 177 355 64
2021-05-15 10:48:35 GMT 55.058540 -6.751598 12,000 177 355 0
2021-05-15 10:48:33 GMT 55.063290 -6.751931 12,000 177 354 0
2021-05-15 10:48:31 GMT 55.064758 -6.752068 12,000 177 354 0
2021-05-15 10:48:30 GMT 55.066360 -6.752149 12,000 177 354 0
2021-05-15 10:48:29 GMT 55.068192 -6.752310 12,000 177 353 0
2021-05-15 10:48:27 GMT 55.071442 -6.752553 12,000 177 353 0
2021-05-15 10:48:26 GMT 55.073227 -6.752714 12,000 177 353 0
2021-05-15 10:48:25 GMT 55.074696 -6.752846 12,000 177 353 0
2021-05-15 10:48:24 GMT 55.077953 -6.753096 12,000 177 353 0
2021-05-15 10:48:22 GMT 55.079258 -6.753179 12,000 177 353 0
2021-05-15 10:48:21 GMT 55.080563 -6.753263 12,000 177 353 0
2021-05-15 10:48:19 GMT 55.084332 -6.753512 12,000 177 353 0
2021-05-15 10:48:18 GMT 55.086136 -6.753684 12,000 177 353 0
2021-05-15 10:48:17 GMT 55.087601 -6.753764 12,000 177 353 0
2021-05-15 10:48:16 GMT 55.090988 -6.754095 12,000 177 353 0
2021-05-15 10:48:14 GMT 55.092617 -6.754178 12,000 177 353 0
2021-05-15 10:48:13 GMT 55.093597 -6.754261 12,000 177 353 0
2021-05-15 10:48:12 GMT 55.095886 -6.754411 12,000 177 353 0
2021-05-15 10:48:11 GMT 55.099136 -6.754653 12,000 177 352 -64
2021-05-15 10:48:09 GMT 55.100601 -6.754815 12,000 177 352 0
2021-05-15 10:48:08 GMT 55.102249 -6.754895 12,000 177 352 0
2021-05-15 10:48:07 GMT 55.103851 -6.754976 12,000 177 352 0
2021-05-15 10:48:04 GMT 55.108612 -6.755380 12,000 177 352 0
2021-05-15 10:48:03 GMT 55.112000 -6.755622 12,000 177 352 0
2021-05-15 10:48:01 GMT 55.113647 -6.755784 12,000 177 352 0
2021-05-15 10:48:00 GMT 55.115105 -6.755843 12,000 177 352 0
2021-05-15 10:47:59 GMT 55.116734 -6.756009 12,000 177 352 0
2021-05-15 10:47:58 GMT 55.120132 -6.756259 12,000 177 352 0
2021-05-15 10:47:56 GMT 55.121761 -6.756342 12,000 177 352 0
2021-05-15 10:47:55 GMT 55.123528 -6.756509 12,000 177 352 0
2021-05-15 10:47:54 GMT 55.125156 -6.756592 12,000 177 352 0
2021-05-15 10:47:52 GMT 55.128571 -6.756834 12,000 177 353 0
2021-05-15 10:47:51 GMT 55.130184 -6.757008 12,000 177 353 0
2021-05-15 10:47:50 GMT 55.131817 -6.757091 12,000 177 353 0
2021-05-15 10:47:48 GMT 55.134933 -6.757319 12,000 177 353 0
2021-05-15 10:47:47 GMT 55.136562 -6.757424 12,000 177 353 0
2021-05-15 10:47:46 GMT 55.138046 -6.757561 12,000 177 353 0
2021-05-15 10:47:45 GMT 55.139820 -6.757674 12,000 177 354 0
2021-05-15 10:47:43 GMT 55.143593 -6.758007 12,000 177 354 0
2021-05-15 10:47:42 GMT 55.145050 -6.758127 12,000 177 354 0
2021-05-15 10:47:41 GMT 55.145874 -6.758173 12,000 177 353 0
2021-05-15 10:47:39 GMT 55.149925 -6.758423 12,000 177 353 0
2021-05-15 10:47:38 GMT 55.151733 -6.758611 12,000 177 353 0
2021-05-15 10:47:37 GMT 55.153229 -6.758673 12,000 177 353 0
2021-05-15 10:47:36 GMT 55.154022 -6.758773 12,000 177 353 0
2021-05-15 10:47:35 GMT 55.157455 -6.759015 12,000 177 353 0
2021-05-15 10:47:33 GMT 55.158909 -6.759172 12,000 177 353 0
2021-05-15 10:47:32 GMT 55.160538 -6.759255 12,000 177 353 0
2021-05-15 10:47:31 GMT 55.162167 -6.759338 12,000 177 353 64
2021-05-15 10:47:30 GMT 55.163982 -6.759505 12,000 177 353 64
2021-05-15 10:47:28 GMT 55.167389 -6.759742 12,000 177 353 64
2021-05-15 10:47:27 GMT 55.169010 -6.759921 12,000 177 353 64
2021-05-15 10:47:26 GMT 55.170967 -6.760004 12,000 177 353 64
2021-05-15 10:47:24 GMT 55.174393 -6.760308 12,000 177 353 0
2021-05-15 10:47:23 GMT 55.175858 -6.760389 12,000 177 353 0
2021-05-15 10:47:22 GMT 55.179153 -6.760631 12,000 177 354 0
2021-05-15 10:47:20 GMT 55.180939 -6.760792 12,000 177 354 0
2021-05-15 10:47:19 GMT 55.182587 -6.760873 12,000 177 354 0
2021-05-15 10:47:18 GMT 55.183395 -6.761003 12,000 177 354 0
2021-05-15 10:47:17 GMT 55.187485 -6.761277 12,000 177 354 0
2021-05-15 10:47:15 GMT 55.188950 -6.761358 12,000 177 354 0
2021-05-15 10:47:14 GMT 55.190552 -6.761519 12,000 177 354 0
2021-05-15 10:47:13 GMT 55.193497 -6.761752 12,000 177 354 0
2021-05-15 10:47:11 GMT 55.194992 -6.761843 12,000 177 354 0
2021-05-15 10:47:10 GMT 55.197453 -6.762002 12,000 177 354 0
2021-05-15 10:47:09 GMT 55.200394 -6.762247 12,000 177 354 0
2021-05-15 10:47:07 GMT 55.202156 -6.762335 12,000 177 354 0
2021-05-15 10:47:06 GMT 55.203964 -6.762489 12,000 177 354 0
2021-05-15 10:47:05 GMT 55.205429 -6.762650 12,000 177 354 0
2021-05-15 10:47:04 GMT 55.210327 -6.762974 12,000 177 353 0
2021-05-15 10:47:02 GMT 55.210327 -6.762974 12,000 177 353 0
2021-05-15 10:47:00 GMT 55.214584 -6.763250 12,000 177 353 0
2021-05-15 10:46:58 GMT 55.216866 -6.763417 12,000 177 353 0
2021-05-15 10:46:57 GMT 55.217697 -6.763539 12,000 177 353 0
2021-05-15 10:46:56 GMT 55.219612 -6.763666 12,000 177 353 0
2021-05-15 10:46:54 GMT 55.222919 -6.763916 12,000 177 353 -64
2021-05-15 10:46:53 GMT 55.224548 -6.763999 12,000 177 353 -64
2021-05-15 10:46:52 GMT 55.226807 -6.764185 12,000 177 353 -64
2021-05-15 10:46:51 GMT 55.229248 -6.764332 12,000 177 354 -64
2021-05-15 10:46:49 GMT 55.231705 -6.764508 12,000 177 354 -64
2021-05-15 10:46:48 GMT 55.233170 -6.764589 12,000 177 354 -64
2021-05-15 10:46:45 GMT 55.236786 -6.764912 12,000 177 354 0
2021-05-15 10:46:44 GMT 55.239395 -6.765081 12,000 177 354 0
2021-05-15 10:46:43 GMT 55.244144 -6.765414 12,000 177 355 0
2021-05-15 10:46:41 GMT 55.244144 -6.765414 12,000 177 355 0
2021-05-15 10:46:40 GMT 55.245941 -6.765559 12,000 177 355 0
2021-05-15 10:46:39 GMT 55.252991 -6.766043 12,000 177 356 0
2021-05-15 10:46:36 GMT 55.252991 -6.766043 12,000 177 356 0
2021-05-15 10:46:35 GMT 55.254433 -6.766163 12,000 177 356 0
2021-05-15 10:46:34 GMT 55.257923 -6.766413 12,000 177 357 0
2021-05-15 10:46:32 GMT 55.259399 -6.766528 12,000 177 357 0
2021-05-15 10:46:31 GMT 55.261185 -6.766663 12,000 177 358 0
2021-05-15 10:46:29 GMT 55.264481 -6.766851 12,000 177 358 0
2021-05-15 10:46:27 GMT 55.267456 -6.767093 12,000 177 358 0
2021-05-15 10:46:26 GMT 55.269424 -6.767245 12,000 177 358 0
2021-05-15 10:46:25 GMT 55.270935 -6.767336 12,000 177 358 64
2021-05-15 10:46:23 GMT 55.274220 -6.767578 12,000 177 359 64
2021-05-15 10:46:22 GMT 55.276062 -6.767740 12,000 177 359 64
2021-05-15 10:46:17 GMT 55.284321 -6.768327 12,000 177 359 0
2021-05-15 10:46:15 GMT 55.287506 -6.768548 12,000 177 359 0
2021-05-15 10:46:13 GMT 55.290985 -6.768790 12,000 177 359 0
2021-05-15 10:46:12 GMT 55.292633 -6.768871 12,000 177 359 0
2021-05-15 10:46:11 GMT 55.294464 -6.769032 12,000 177 359 0
2021-05-15 10:46:08 GMT 55.299408 -6.769355 12,000 177 359 0
2021-05-15 10:46:07 GMT 55.301079 -6.769492 12,000 177 359 0
2021-05-15 10:46:05 GMT 55.302887 -6.769678 12,000 177 358 0
2021-05-15 10:46:02 GMT 55.309177 -6.770158 12,000 177 358 0
2021-05-15 10:46:00 GMT 55.314148 -6.770486 12,000 177 358 0
2021-05-15 10:45:55 GMT 55.319595 -6.770890 12,000 177 358 0
2021-05-15 10:45:52 GMT 55.324722 -6.771294 12,000 177 358 0
2021-05-15 10:45:49 GMT 55.330856 -6.771779 12,000 177 358 0
2021-05-15 10:45:45 GMT 55.336784 -6.772156 12,000 177 358 0
2021-05-15 10:45:42 GMT 55.340607 -6.772425 12,000 177 358 0
2021-05-15 10:45:39 GMT 55.350704 -6.773238 12,000 177 359 0
2021-05-15 10:45:36 GMT 55.350704 -6.773238 12,000 177 359 0
2021-05-15 10:45:33 GMT 55.356804 -6.773654 12,000 177 359 0
2021-05-15 10:45:31 GMT 55.358643 -6.773798 12,000 177 359 0
2021-05-15 10:45:27 GMT 55.365601 -6.774283 12,000 177 359 -64
2021-05-15 10:45:25 GMT 55.369743 -6.774653 12,000 177 359 0
2021-05-15 10:45:22 GMT 55.374538 -6.774986 12,000 177 358 0
2021-05-15 10:45:19 GMT 55.379658 -6.775318 12,000 177 358 0
2021-05-15 10:45:16 GMT 55.383804 -6.775651 12,000 177 358 0
2021-05-15 10:45:12 GMT 55.391418 -6.776222 12,000 177 358 0
2021-05-15 10:45:09 GMT 55.396374 -6.776567 12,000 177 359 0
2021-05-15 10:45:05 GMT 55.403000 -6.777030 12,000 177 360 0
2021-05-15 10:45:02 GMT 55.408661 -6.777482 12,000 177 360 0
2021-05-15 10:44:59 GMT 55.417099 -6.778080 12,000 177 360 0
2021-05-15 10:44:56 GMT 55.417099 -6.778080 12,000 177 361 0
2021-05-15 10:44:51 GMT 55.425793 -6.778731 12,000 177 361 0
2021-05-15 10:44:47 GMT 55.433613 -6.779314 12,000 177 361 64
2021-05-15 10:44:42 GMT 55.439621 -6.779776 12,000 177 362 0
2021-05-15 10:44:39 GMT 55.444794 -6.780146 12,000 177 361 0
2021-05-15 10:44:36 GMT 55.451488 -6.780624 12,000 177 361 0
2021-05-15 10:44:29 GMT 55.462967 -6.781561 12,000 177 361 64
2021-05-15 10:44:26 GMT 55.467644 -6.781912 12,000 177 361 0
2021-05-15 10:44:22 GMT 55.473137 -6.782427 12,000 177 360 64
2021-05-15 10:44:18 GMT 55.481461 -6.783142 12,000 177 360 64
2021-05-15 10:44:15 GMT 55.485428 -6.783457 12,000 177 360 64
2021-05-15 10:44:12 GMT 55.490406 -6.783886 12,000 176 359 64
2021-05-15 10:44:09 GMT 55.495422 -6.784307 12,000 176 359 64
2021-05-15 10:44:06 GMT 55.501392 -6.784916 12,000 176 359 64
2021-05-15 10:44:02 GMT 55.507874 -6.785473 11,975 176 359 64
2021-05-15 10:43:59 GMT 55.512680 -6.785972 12,000 176 360 -256
2021-05-15 10:43:55 GMT 55.518127 -6.786555 12,000 176 360 -256
2021-05-15 10:43:52 GMT 55.523598 -6.787148 12,000 176 360 -256
2021-05-15 10:43:49 GMT 55.529606 -6.787834 12,025 175 360 -448
2021-05-15 10:43:46 GMT 55.534424 -6.788469 12,050 175 361 -640
2021-05-15 10:43:42 GMT 55.539917 -6.789218 12,075 175 360 -832
2021-05-15 10:43:38 GMT 55.551498 -6.790882 12,200 174 359 -1280
2021-05-15 10:43:35 GMT 55.551498 -6.790882 12,200 174 359 -1920
2021-05-15 10:43:32 GMT 55.557632 -6.791881 12,325 174 359 -1920
2021-05-15 10:43:29 GMT 55.562073 -6.792630 12,400 174 359 -2048
2021-05-15 10:43:26 GMT 55.568989 -6.793928 12,500 173 360 -2112
2021-05-15 10:43:21 GMT 55.575130 -6.795044 12,725 173 360 -2112
2021-05-15 10:43:18 GMT 55.580429 -6.796126 12,800 173 360 -2176
2021-05-15 10:43:15 GMT 55.584721 -6.797018 12,900 173 361 -2176
2021-05-15 10:43:12 GMT 55.590492 -6.798134 12,975 173 361 -2176
2021-05-15 10:43:09 GMT 55.596130 -6.799205 13,100 174 361 -2112
2021-05-15 10:43:05 GMT 55.601944 -6.800204 13,225 175 362 -1984
2021-05-15 10:43:01 GMT 55.607952 -6.800966 13,325 177 363 -1920
2021-05-15 10:42:57 GMT 55.615677 -6.801619 13,800 177 367 -1856
2021-05-15 10:42:54 GMT 55.619404 -6.801910 13,800 177 367 -1856
2021-05-15 10:42:51 GMT 55.625595 -6.802425 13,800 177 367 -1856
2021-05-15 10:42:47 GMT 55.632385 -6.802868 13,800 177 367 -1856
2021-05-15 10:42:44 GMT 55.637421 -6.803284 13,875 177 367 -1792
2021-05-15 10:42:41 GMT 55.641655 -6.803541 13,950 177 368 -1792
2021-05-15 10:42:37 GMT 55.649826 -6.804116 14,100 177 371 -1728
2021-05-15 10:42:35 GMT 55.653248 -6.804399 14,150 177 371 -1728
2021-05-15 10:42:33 GMT 55.654968 -6.804485 14,300 178 372 -1792
2021-05-15 10:42:30 GMT 55.661636 -6.804865 14,300 178 372 -1792
2021-05-15 10:42:28 GMT 55.665070 -6.805032 14,350 178 373 -1856
2021-05-15 10:42:25 GMT 55.668686 -6.805281 14,525 178 373 -1856
2021-05-15 10:42:22 GMT 55.675220 -6.805601 14,525 178 375 -1792
2021-05-15 10:42:21 GMT 55.676743 -6.805697 14,575 178 375 -1792
2021-05-15 10:42:20 GMT 55.678478 -6.805773 14,600 178 375 -1792
2021-05-15 10:42:18 GMT 55.685394 -6.806114 14,700 178 376 -1792
2021-05-15 10:42:16 GMT 55.685394 -6.806114 14,725 178 377 -1728
2021-05-15 10:42:15 GMT 55.687325 -6.806202 14,750 178 377 -1728
2021-05-15 10:42:14 GMT 55.689056 -6.806280 14,775 178 377 -1792
2021-05-15 10:42:12 GMT 55.692535 -6.806446 14,825 178 377 -1792
2021-05-15 10:42:11 GMT 55.694447 -6.806545 14,875 178 378 -1792
2021-05-15 10:42:09 GMT 55.697937 -6.806779 14,925 178 378 -1792
2021-05-15 10:42:06 GMT 55.705078 -6.807112 15,050 178 379 -1856
2021-05-15 10:42:04 GMT 55.706829 -6.807232 15,075 178 380 -1920
2021-05-15 10:42:03 GMT 55.708595 -6.807318 15,100 178 380 -1920
2021-05-15 10:42:01 GMT 55.711899 -6.807528 15,175 178 380 -1920
2021-05-15 10:42:00 GMT 55.713673 -6.807575 15,200 178 381 -1920
2021-05-15 10:41:58 GMT 55.718765 -6.807861 15,300 178 382 -1920
2021-05-15 10:41:56 GMT 55.720516 -6.807919 15,325 178 382 -1856
2021-05-15 10:41:55 GMT 55.722282 -6.808004 15,350 178 383 -1856
2021-05-15 10:41:54 GMT 55.724579 -6.808111 15,400 178 383 -1856
2021-05-15 10:41:53 GMT 55.727406 -6.808262 15,450 178 383 -1792
2021-05-15 10:41:51 GMT 55.729874 -6.808348 15,475 178 384 -1728
2021-05-15 10:41:50 GMT 55.731445 -6.808444 15,500 178 384 -1728
2021-05-15 10:41:49 GMT 55.733414 -6.808527 15,550 178 384 -1728
2021-05-15 10:41:48 GMT 55.736618 -6.808610 15,600 178 385 -1728
2021-05-15 10:41:46 GMT 55.738392 -6.808691 15,625 178 385 -1792
2021-05-15 10:41:45 GMT 55.740162 -6.808777 15,650 178 386 -1856
2021-05-15 10:41:44 GMT 55.745682 -6.809027 15,725 178 386 -1920
2021-05-15 10:41:42 GMT 55.745682 -6.809027 15,750 178 386 -1920
2021-05-15 10:41:41 GMT 55.747650 -6.809110 15,775 178 387 -1984
2021-05-15 10:41:39 GMT 55.751007 -6.809206 15,850 178 387 -2048
2021-05-15 10:41:38 GMT 55.752960 -6.809292 15,875 178 387 -2112
2021-05-15 10:41:36 GMT 55.756393 -6.809443 15,950 178 387 -2112
2021-05-15 10:41:35 GMT 55.759945 -6.809549 16,025 178 388 -2176
2021-05-15 10:41:33 GMT 55.761387 -6.809635 16,050 178 388 -2240
2021-05-15 10:41:32 GMT 55.763714 -6.809721 16,100 178 388 -2240
2021-05-15 10:41:31 GMT 55.767300 -6.809807 16,175 178 388 -2240
2021-05-15 10:41:29 GMT 55.771225 -6.810025 16,250 178 388 -2240
2021-05-15 10:41:27 GMT 55.772141 -6.810064 16,275 178 388 -2240
2021-05-15 10:41:26 GMT 55.773911 -6.810064 16,300 178 388 -2240
2021-05-15 10:41:25 GMT 55.776424 -6.810236 16,375 178 389 -2176
2021-05-15 10:41:23 GMT 55.779648 -6.810358 16,425 178 389 -2176
2021-05-15 10:41:20 GMT 55.788620 -6.810774 16,600 178 389 -2176
2021-05-15 10:41:18 GMT 55.788620 -6.810774 16,600 178 390 -2112
2021-05-15 10:41:16 GMT 55.792236 -6.810941 16,675 178 390 -2112
2021-05-15 10:41:14 GMT 55.795837 -6.811180 16,750 178 390 -2048
2021-05-15 10:41:13 GMT 55.797455 -6.811274 16,775 178 390 -2048
2021-05-15 10:41:12 GMT 55.799049 -6.811352 16,825 178 391 -2048
2021-05-15 10:41:11 GMT 55.801025 -6.811440 16,850 178 391 -2048
2021-05-15 10:41:09 GMT 55.804634 -6.811695 16,925 178 391 -1984
2021-05-15 10:41:08 GMT 55.806450 -6.811781 16,950 178 391 -1984
2021-05-15 10:41:06 GMT 55.810593 -6.812038 17,025 178 392 -1984
2021-05-15 10:41:05 GMT 55.816406 -6.812356 17,100 178 392 -1984
2021-05-15 10:41:03 GMT 55.816406 -6.812356 17,125 178 393 -2048
2021-05-15 10:41:02 GMT 55.819656 -6.812522 17,200 178 393 -2112
2021-05-15 10:41:00 GMT 55.821301 -6.812639 17,225 178 393 -2176
2021-05-15 10:40:59 GMT 55.823303 -6.812725 17,275 178 393 -2176
2021-05-15 10:40:58 GMT 55.824921 -6.812855 17,300 178 393 -2176
2021-05-15 10:40:56 GMT 55.828720 -6.813022 17,375 178 393 -2304
2021-05-15 10:40:55 GMT 55.830551 -6.813188 17,425 178 393 -2368
2021-05-15 10:40:54 GMT 55.832336 -6.813271 17,475 178 393 -2496
2021-05-15 10:40:53 GMT 55.833984 -6.813354 17,500 178 393 -2560
2021-05-15 10:40:51 GMT 55.837967 -6.813604 17,600 178 393 -2560
2021-05-15 10:40:50 GMT 55.839615 -6.813687 17,625 178 393 -2688
2021-05-15 10:40:49 GMT 55.840714 -6.813771 17,650 178 393 -2752
2021-05-15 10:40:48 GMT 55.843231 -6.813854 17,725 178 394 -2880
2021-05-15 10:40:47 GMT 55.846672 -6.814098 17,825 178 394 -2944
2021-05-15 10:40:45 GMT 55.848675 -6.814184 17,875 178 394 -3008
2021-05-15 10:40:44 GMT 55.850491 -6.814270 17,925 178 395 -2944
2021-05-15 10:40:43 GMT 55.852341 -6.814353 17,975 178 395 -2944
2021-05-15 10:40:42 GMT 55.855225 -6.814520 18,050 178 396 -2944
2021-05-15 10:40:40 GMT 55.857788 -6.814686 18,125 178 396 -2944
2021-05-15 10:40:39 GMT 55.859612 -6.814785 18,175 178 396 -2944
2021-05-15 10:40:38 GMT 55.861267 -6.814853 18,225 177 397 -2944
2021-05-15 10:40:36 GMT 55.864922 -6.815128 18,325 177 397 -2880
2021-05-15 10:40:35 GMT 55.866734 -6.815214 18,350 177 398 -2816
2021-05-15 10:40:34 GMT 55.868408 -6.815352 18,400 177 399 -2752
2021-05-15 10:40:32 GMT 55.872253 -6.815518 18,475 177 399 -2752
2021-05-15 10:40:31 GMT 55.873718 -6.815685 18,525 177 400 -2560
2021-05-15 10:40:30 GMT 55.875767 -6.815815 18,575 177 401 -2368
2021-05-15 10:40:29 GMT 55.877769 -6.815901 18,625 177 401 -2368
2021-05-15 10:40:27 GMT 55.881271 -6.816101 18,700 177 401 -2240
2021-05-15 10:40:26 GMT 55.883121 -6.816244 18,750 177 402 -2176
2021-05-15 10:40:25 GMT 55.884983 -6.816416 18,775 177 402 -2112
2021-05-15 10:40:24 GMT 55.887218 -6.816502 18,825 177 403 -2048
2021-05-15 10:40:22 GMT 55.891113 -6.816767 18,875 177 403 -1920
2021-05-15 10:40:21 GMT 55.892990 -6.816931 18,900 177 404 -1856
2021-05-15 10:40:20 GMT 55.894852 -6.817102 18,950 177 404 -1920
2021-05-15 10:40:19 GMT 55.898392 -6.817360 19,000 177 404 -2048
2021-05-15 10:40:17 GMT 55.900406 -6.817433 19,050 177 405 -2048
2021-05-15 10:40:16 GMT 55.902115 -6.817617 19,075 177 405 -2112
2021-05-15 10:40:15 GMT 55.903976 -6.817703 19,125 177 405 -2112
2021-05-15 10:40:13 GMT 55.907730 -6.818015 19,175 177 405 -2112
2021-05-15 10:40:12 GMT 55.909561 -6.818182 19,225 177 406 -2112
2021-05-15 10:40:11 GMT 55.911438 -6.818348 19,250 177 406 -2112
2021-05-15 10:40:10 GMT 55.913708 -6.818476 19,300 177 406 -2048
2021-05-15 10:40:08 GMT 55.916687 -6.818733 19,350 177 406 -1984
2021-05-15 10:40:06 GMT 55.920822 -6.819014 19,425 177 407 -1984
2021-05-15 10:40:04 GMT 55.924576 -6.819347 19,500 177 408 -1920
2021-05-15 10:40:03 GMT 55.926636 -6.819513 19,525 177 408 -1856
2021-05-15 10:40:02 GMT 55.928513 -6.819597 19,550 177 408 -1792
2021-05-15 10:39:59 GMT 55.933769 -6.820021 19,625 177 409 -1792
2021-05-15 10:39:58 GMT 55.935471 -6.820179 19,675 177 409 -1856
2021-05-15 10:39:56 GMT 55.940186 -6.820512 19,750 177 410 -1920
2021-05-15 10:39:55 GMT 55.941696 -6.820679 19,775 177 410 -1984
2021-05-15 10:39:54 GMT 55.945503 -6.820965 19,825 177 411 -1984
2021-05-15 10:39:51 GMT 55.949112 -6.821261 19,900 177 411 -2048
2021-05-15 10:39:49 GMT 55.953094 -6.821594 19,975 177 412 -2048
2021-05-15 10:39:48 GMT 55.954811 -6.821651 20,000 177 412 -1984
2021-05-15 10:39:47 GMT 55.956673 -6.821823 20,025 177 412 -1920
2021-05-15 10:39:45 GMT 55.960304 -6.822081 20,100 177 413 -1920
2021-05-15 10:39:44 GMT 55.962021 -6.822260 20,125 177 414 -1920
2021-05-15 10:39:43 GMT 55.963936 -6.822424 20,150 177 414 -1984
2021-05-15 10:39:42 GMT 55.966415 -6.822593 20,200 177 414 -1984
2021-05-15 10:39:41 GMT 55.970215 -6.822843 20,275 177 414 -2112
2021-05-15 10:39:39 GMT 55.971954 -6.823009 20,300 177 414 -2176
2021-05-15 10:39:38 GMT 55.973831 -6.823092 20,325 177 414 -2240
2021-05-15 10:39:36 GMT 55.977310 -6.823425 20,400 177 415 -2304
2021-05-15 10:39:35 GMT 55.979996 -6.823540 20,450 177 415 -2240
2021-05-15 10:39:32 GMT 55.984932 -6.823969 20,550 177 415 -2240
2021-05-15 10:39:30 GMT 55.989532 -6.824258 20,650 177 416 -2176
2021-05-15 10:39:29 GMT 55.991264 -6.824398 20,675 177 416 -2112
2021-05-15 10:39:26 GMT 55.995312 -6.824656 20,750 177 417 -2048
2021-05-15 10:39:24 GMT 55.998550 -6.824923 20,800 177 417 -1984
2021-05-15 10:39:23 GMT 56.000900 -6.825085 20,850 177 418 -1920
2021-05-15 10:39:21 GMT 56.004345 -6.825342 20,900 177 418 -1920
2021-05-15 10:39:20 GMT 56.006485 -6.825514 20,925 177 418 -1856
2021-05-15 10:39:19 GMT 56.008392 -6.825686 20,975 177 419 -1856
2021-05-15 10:39:17 GMT 56.012257 -6.825943 21,025 177 419 -1856
2021-05-15 10:39:15 GMT 56.016129 -6.826255 21,100 177 420 -1920
2021-05-15 10:39:13 GMT 56.024269 -6.826801 21,200 177 421 -2048
2021-05-15 10:39:11 GMT 56.024269 -6.826801 21,225 177 421 -2048
2021-05-15 10:39:09 GMT 56.029530 -6.827230 21,325 177 422 -2112
2021-05-15 10:39:07 GMT 56.031857 -6.827402 21,375 177 422 -2112
2021-05-15 10:39:06 GMT 56.033615 -6.827504 21,400 177 422 -2112
2021-05-15 10:39:05 GMT 56.035721 -6.827670 21,425 177 422 -2048
2021-05-15 10:39:03 GMT 56.039818 -6.827917 21,525 177 423 -2048
2021-05-15 10:39:02 GMT 56.041958 -6.828089 21,550 177 423 -2048
2021-05-15 10:39:01 GMT 56.043732 -6.828253 21,575 177 423 -2048
2021-05-15 10:39:00 GMT 56.045498 -6.828346 21,625 177 424 -1984
2021-05-15 10:38:59 GMT 56.049221 -6.828604 21,675 177 424 -1984
2021-05-15 10:38:56 GMT 56.053131 -6.828947 21,825 177 425 -1856
2021-05-15 10:38:53 GMT 56.059181 -6.829376 21,825 177 426 -1792
2021-05-15 10:38:52 GMT 56.061138 -6.829462 21,875 177 427 -1728
2021-05-15 10:38:51 GMT 56.062908 -6.829634 21,900 177 427 -1728
2021-05-15 10:38:49 GMT 56.066864 -6.829891 21,950 177 428 -1664
2021-05-15 10:38:47 GMT 56.071796 -6.830235 22,050 177 429 -1600
2021-05-15 10:38:44 GMT 56.077339 -6.830664 22,100 177 430 -1600
2021-05-15 10:38:42 GMT 56.082504 -6.830999 22,175 177 432 -1408
2021-05-15 10:38:39 GMT 56.087673 -6.831350 22,225 177 433 -1280
2021-05-15 10:38:37 GMT 56.092468 -6.831779 22,300 177 435 -1216
2021-05-15 10:38:34 GMT 56.095867 -6.832037 22,300 177 435 -1280
2021-05-15 10:38:33 GMT 56.098068 -6.832164 22,325 177 436 -1344
2021-05-15 10:38:32 GMT 56.099869 -6.832294 22,350 177 436 -1344
2021-05-15 10:38:30 GMT 56.105686 -6.832809 22,375 177 437 -1408
2021-05-15 10:38:27 GMT 56.110748 -6.833163 22,475 177 439 -1856
2021-05-15 10:38:25 GMT 56.121098 -6.834011 22,775 177 440 -2048
2021-05-15 10:38:22 GMT 56.121098 -6.834011 22,775 177 441 -2112
2021-05-15 10:38:19 GMT 56.127365 -6.834495 22,775 177 441 -2176
2021-05-15 10:38:18 GMT 56.129608 -6.834661 22,800 177 441 -2176
2021-05-15 10:38:16 GMT 56.132858 -6.834994 22,850 177 442 -2176
2021-05-15 10:38:15 GMT 56.135296 -6.835127 22,900 177 442 -2240
2021-05-15 10:38:14 GMT 56.137161 -6.835327 22,950 177 442 -2304
2021-05-15 10:38:12 GMT 56.142242 -6.835660 23,000 177 442 -2304
2021-05-15 10:38:10 GMT 56.145721 -6.835899 23,100 177 443 -2304
2021-05-15 10:38:08 GMT 56.149612 -6.836243 23,175 177 443 -2240
2021-05-15 10:38:06 GMT 56.153503 -6.836492 23,250 177 444 -2176
2021-05-15 10:38:05 GMT 56.155731 -6.836672 23,275 177 444 -2112
2021-05-15 10:38:04 GMT 56.157780 -6.836843 23,325 177 445 -2048
2021-05-15 10:38:03 GMT 56.164112 -6.837273 23,400 177 445 -1920
2021-05-15 10:38:01 GMT 56.164112 -6.837273 23,425 177 446 -1856
2021-05-15 10:38:00 GMT 56.166183 -6.837408 23,450 177 446 -1792
2021-05-15 10:37:58 GMT 56.170071 -6.837616 23,500 177 447 -1728
2021-05-15 10:37:57 GMT 56.172165 -6.837788 23,525 177 447 -1664
2021-05-15 10:37:56 GMT 56.174606 -6.837991 23,575 177 447 -1664
2021-05-15 10:37:55 GMT 56.178543 -6.838217 23,625 177 449 -1664
2021-05-15 10:37:53 GMT 56.180603 -6.838323 23,650 177 449 -1600
2021-05-15 10:37:52 GMT 56.182663 -6.838490 23,675 177 450 -1600
2021-05-15 10:37:51 GMT 56.184547 -6.838560 23,700 177 451 -1600
2021-05-15 10:37:48 GMT 56.190765 -6.838989 23,775 178 452 -1536
2021-05-15 10:37:47 GMT 56.192825 -6.839072 23,800 178 452 -1536
2021-05-15 10:37:46 GMT 56.197441 -6.839418 23,850 178 454 -1600
2021-05-15 10:37:44 GMT 56.199535 -6.839504 23,900 178 454 -1600
2021-05-15 10:37:42 GMT 56.207291 -6.839988 23,975 178 456 -1664
2021-05-15 10:37:40 GMT 56.207291 -6.839988 23,975 178 456 -1664
2021-05-15 10:37:38 GMT 56.211456 -6.840238 24,050 178 457 -1728
2021-05-15 10:37:36 GMT 56.216110 -6.840448 24,100 178 458 -1792
2021-05-15 10:37:34 GMT 56.220108 -6.840737 24,150 178 458 -1792
2021-05-15 10:37:33 GMT 56.222214 -6.840820 24,175 178 459 -1856
2021-05-15 10:37:30 GMT 56.228584 -6.841221 24,275 178 460 -1984
2021-05-15 10:37:29 GMT 56.233425 -6.841478 24,300 178 460 -2176
2021-05-15 10:37:27 GMT 56.235352 -6.841569 24,400 178 460 -2176
2021-05-15 10:37:26 GMT 56.237686 -6.841653 24,450 178 461 -2240
2021-05-15 10:37:25 GMT 56.239620 -6.841736 24,475 178 461 -2304
2021-05-15 10:37:23 GMT 56.243866 -6.841986 24,575 178 461 -2368
2021-05-15 10:37:22 GMT 56.245972 -6.842069 24,575 178 461 -2368
2021-05-15 10:37:21 GMT 56.247906 -6.842165 24,625 178 462 -2432
2021-05-15 10:37:19 GMT 56.252151 -6.842402 24,725 178 462 -2496
2021-05-15 10:37:18 GMT 56.256409 -6.842651 24,800 178 462 -2560
2021-05-15 10:37:16 GMT 56.258568 -6.842766 24,825 178 462 -2624
2021-05-15 10:37:15 GMT 56.260658 -6.842852 24,900 178 462 -2624
2021-05-15 10:37:13 GMT 56.264523 -6.843023 24,975 178 462 -2688
2021-05-15 10:37:11 GMT 56.269226 -6.843317 25,075 178 462 -2752
2021-05-15 10:37:09 GMT 56.273712 -6.843567 25,150 177 462 -2752
2021-05-15 10:37:08 GMT 56.276443 -6.843796 25,200 177 462 -2816
2021-05-15 10:37:06 GMT 56.280491 -6.844053 25,300 177 462 -2816
2021-05-15 10:37:05 GMT 56.282635 -6.844225 25,350 177 462 -2880
2021-05-15 10:37:03 GMT 56.286915 -6.844568 25,450 177 461 -2944
2021-05-15 10:37:02 GMT 56.289246 -6.844740 25,550 177 461 -2944
2021-05-15 10:36:59 GMT 56.295410 -6.845315 25,650 176 461 -3008
2021-05-15 10:36:58 GMT 56.297344 -6.845512 25,675 176 460 -3072
2021-05-15 10:36:57 GMT 56.299896 -6.845731 25,725 176 460 -3072
2021-05-15 10:36:56 GMT 56.302002 -6.845981 25,800 176 460 -3072
2021-05-15 10:36:55 GMT 56.308182 -6.846646 25,900 176 460 -3136
2021-05-15 10:36:53 GMT 56.308182 -6.846646 25,950 176 460 -3136
2021-05-15 10:36:52 GMT 56.310516 -6.846886 26,000 176 459 -3200
2021-05-15 10:36:50 GMT 56.316879 -6.847562 26,150 176 459 -3328
2021-05-15 10:36:47 GMT 56.320267 -6.847895 26,250 176 458 -3392
2021-05-15 10:36:46 GMT 56.322601 -6.848145 26,300 176 458 -3456
2021-05-15 10:36:44 GMT 56.326813 -6.848644 26,425 176 457 -3584
2021-05-15 10:36:43 GMT 56.328720 -6.848774 26,500 176 457 -3584
2021-05-15 10:36:42 GMT 56.330841 -6.849060 26,550 176 457 -3648
2021-05-15 10:36:40 GMT 56.335236 -6.849461 26,675 176 456 -3712
2021-05-15 10:36:39 GMT 56.337379 -6.849718 26,725 176 456 -3712
2021-05-15 10:36:38 GMT 56.339241 -6.849890 26,800 177 455 -3776
2021-05-15 10:36:37 GMT 56.342220 -6.850147 26,875 177 455 -3776
2021-05-15 10:36:35 GMT 56.347641 -6.850641 27,050 177 454 -3840
2021-05-15 10:36:33 GMT 56.349747 -6.850808 27,100 177 453 -3840
2021-05-15 10:36:31 GMT 56.354790 -6.851177 27,250 178 453 -3840
2021-05-15 10:36:28 GMT 56.361259 -6.851521 27,450 179 451 -3840
2021-05-15 10:36:27 GMT 56.363354 -6.851521 27,525 180 451 -3904
2021-05-15 10:36:26 GMT 56.368744 -6.851557 27,650 181 450 -3840
2021-05-15 10:36:24 GMT 56.368744 -6.851557 27,725 181 450 -3840
2021-05-15 10:36:23 GMT 56.370617 -6.851521 27,775 182 449 -3776
2021-05-15 10:36:21 GMT 56.376846 -6.851224 27,875 183 448 -3712
2021-05-15 10:36:19 GMT 56.378906 -6.851058 28,100 185 447 -3648
2021-05-15 10:36:17 GMT 56.382210 -6.850748 28,100 185 447 -3648
2021-05-15 10:36:16 GMT 56.384258 -6.850405 28,150 186 447 -3584
2021-05-15 10:36:15 GMT 56.387329 -6.849892 28,250 187 446 -3520
2021-05-15 10:36:14 GMT 56.389618 -6.849559 28,300 188 445 -3456
2021-05-15 10:36:13 GMT 56.391632 -6.849143 28,375 189 445 -3456
2021-05-15 10:36:11 GMT 56.399387 -6.847057 28,600 191 444 -3392
2021-05-15 10:36:08 GMT 56.402435 -6.846147 28,675 192 444 -3200
2021-05-15 10:36:07 GMT 56.403435 -6.845856 28,700 192 444 -3200
2021-05-15 10:36:05 GMT 56.407883 -6.844316 28,825 194 443 -2944
2021-05-15 10:36:03 GMT 56.411682 -6.842735 28,875 194 443 -2880
2021-05-15 10:36:01 GMT 56.416626 -6.840571 29,025 196 444 -2624
2021-05-15 10:36:00 GMT 56.418427 -6.839676 29,050 197 443 -2496
2021-05-15 10:35:58 GMT 56.424362 -6.836576 29,175 199 444 -2304
2021-05-15 10:35:55 GMT 56.427475 -6.834745 29,225 200 445 -2368
2021-05-15 10:35:53 GMT 56.432327 -6.831831 29,325 201 444 -2432
2021-05-15 10:35:52 GMT 56.434067 -6.830664 29,350 201 444 -2432
2021-05-15 10:35:51 GMT 56.435806 -6.829501 29,400 202 444 -2496
2021-05-15 10:35:49 GMT 56.439789 -6.826588 29,475 204 444 -2560
2021-05-15 10:35:48 GMT 56.441887 -6.824999 29,525 204 444 -2560
2021-05-15 10:35:47 GMT 56.443588 -6.823675 29,575 206 444 -2624
2021-05-15 10:35:46 GMT 56.445282 -6.822343 29,600 206 444 -2624
2021-05-15 10:35:44 GMT 56.448990 -6.819181 29,700 208 444 -2688
2021-05-15 10:35:42 GMT 56.453014 -6.815557 29,800 209 444 -2752
2021-05-15 10:35:41 GMT 56.454830 -6.813841 29,850 210 444 -2752
2021-05-15 10:35:39 GMT 56.458275 -6.810493 29,925 211 444 -2752
2021-05-15 10:35:37 GMT 56.461113 -6.807575 30,000 212 443 -2752
2021-05-15 10:35:36 GMT 56.463593 -6.804948 30,075 213 443 -2752
2021-05-15 10:35:35 GMT 56.465164 -6.803198 30,100 214 443 -2752
2021-05-15 10:35:34 GMT 56.466934 -6.801224 30,150 214 443 -2752
2021-05-15 10:35:32 GMT 56.469818 -6.797791 30,225 216 443 -2752
2021-05-15 10:35:31 GMT 56.471867 -6.795387 30,275 216 443 -2752
2021-05-15 10:35:30 GMT 56.474075 -6.792630 30,425 217 443 -2688
2021-05-15 10:35:28 GMT 56.476524 -6.789293 30,425 218 442 -2560
2021-05-15 10:35:27 GMT 56.478386 -6.786976 30,475 219 442 -2432
2021-05-15 10:35:26 GMT 56.480339 -6.784315 30,525 219 443 -2304
2021-05-15 10:35:25 GMT 56.482269 -6.781561 30,575 220 443 -2240
2021-05-15 10:35:24 GMT 56.485275 -6.777105 30,625 221 444 -1984
2021-05-15 10:35:22 GMT 56.486717 -6.775045 30,675 222 444 -1856
2021-05-15 10:35:21 GMT 56.488300 -6.772642 30,700 222 445 -1728
2021-05-15 10:35:20 GMT 56.490005 -6.769909 30,725 223 445 -1664
2021-05-15 10:35:18 GMT 56.493027 -6.764915 30,775 224 446 -1408
2021-05-15 10:35:17 GMT 56.494400 -6.762668 30,800 225 446 -1344
2021-05-15 10:35:16 GMT 56.496029 -6.759853 30,825 226 447 -1280
2021-05-15 10:35:14 GMT 56.498978 -6.754594 30,850 226 447 -1280
2021-05-15 10:35:13 GMT 56.500443 -6.751931 30,875 228 449 -1152
2021-05-15 10:35:12 GMT 56.501862 -6.749268 30,900 228 449 -1152
2021-05-15 10:35:11 GMT 56.504967 -6.743202 30,950 230 451 -1088
2021-05-15 10:35:08 GMT 56.507202 -6.738739 30,975 231 452 -1024
2021-05-15 10:35:07 GMT 56.511246 -6.730042 31,000 233 454 -960
2021-05-15 10:35:05 GMT 56.511246 -6.730042 31,025 233 454 -960
2021-05-15 10:35:04 GMT 56.512665 -6.726796 31,025 233 455 -960
2021-05-15 10:35:03 GMT 56.515392 -6.720457 31,075 235 457 -960
2021-05-15 10:35:00 GMT 56.518234 -6.713419 31,100 236 458 -960
2021-05-15 10:34:59 GMT 56.519257 -6.710930 31,100 237 459 -960
2021-05-15 10:34:58 GMT 56.521770 -6.704321 31,150 238 460 -1024
2021-05-15 10:34:56 GMT 56.522938 -6.701145 31,175 239 460 -1024
2021-05-15 10:34:54 GMT 56.525116 -6.695002 31,200 239 461 -1088
2021-05-15 10:34:53 GMT 56.526352 -6.691340 31,225 240 463 -1152
2021-05-15 10:34:52 GMT 56.527313 -6.688356 31,225 241 463 -1152
2021-05-15 10:34:51 GMT 56.528320 -6.685430 31,250 242 464 -1216
2021-05-15 10:34:50 GMT 56.530617 -6.677971 31,300 243 464 -1216
2021-05-15 10:34:48 GMT 56.531525 -6.674943 31,325 244 465 -1280
2021-05-15 10:34:47 GMT 56.532619 -6.671104 31,350 244 466 -1280
2021-05-15 10:34:46 GMT 56.533630 -6.667702 31,350 245 466 -1280
2021-05-15 10:34:44 GMT 56.535225 -6.661749 31,400 246 467 -1280
2021-05-15 10:34:43 GMT 56.537247 -6.653970 31,450 247 468 -1280
2021-05-15 10:34:41 GMT 56.538204 -6.650076 31,475 248 469 -1280
2021-05-15 10:34:40 GMT 56.538902 -6.647158 31,475 249 469 -1280
2021-05-15 10:34:39 GMT 56.540672 -6.639605 31,525 250 470 -1280
2021-05-15 10:34:37 GMT 56.541466 -6.635914 31,550 251 471 -1216
2021-05-15 10:34:35 GMT 56.542694 -6.630083 31,575 251 471 -1216
2021-05-15 10:34:34 GMT 56.543510 -6.625957 31,600 252 473 -1216
2021-05-15 10:34:32 GMT 56.545002 -6.618147 31,650 254 474 -1216
2021-05-15 10:34:30 GMT 56.546265 -6.611023 31,700 255 475 -1216
2021-05-15 10:34:29 GMT 56.546818 -6.607590 31,700 256 475 -1216
2021-05-15 10:34:27 GMT 56.548306 -6.597977 31,775 257 477 -1280
2021-05-15 10:34:26 GMT 56.548725 -6.594973 31,775 257 477 -1280
2021-05-15 10:34:25 GMT 56.549236 -6.591454 31,800 258 478 -1280
2021-05-15 10:34:24 GMT 56.549656 -6.588364 31,825 259 479 -1280
2021-05-15 10:34:22 GMT 56.550632 -6.580553 31,875 260 480 -1280
2021-05-15 10:34:21 GMT 56.550980 -6.577065 31,875 261 480 -1280
2021-05-15 10:34:19 GMT 56.551846 -6.569138 31,925 261 480 -1280
2021-05-15 10:34:16 GMT 56.553223 -6.554094 32,025 264 483 -1472
2021-05-15 10:34:13 GMT 56.553986 -6.542959 32,125 267 484 -1920
2021-05-15 10:34:10 GMT 56.554451 -6.534548 32,175 268 484 -1984
2021-05-15 10:34:07 GMT 56.555103 -6.516352 32,275 269 485 -2432
2021-05-15 10:34:04 GMT 56.555149 -6.509056 32,400 272 485 -2816
2021-05-15 10:34:01 GMT 56.555149 -6.497383 32,525 273 485 -2880
2021-05-15 10:33:59 GMT 56.555012 -6.487255 32,575 274 484 -2880
2021-05-15 10:33:56 GMT 56.554638 -6.477127 32,825 277 485 -2752
2021-05-15 10:33:53 GMT 56.554092 -6.465870 33,000 279 485 -2496
2021-05-15 10:33:50 GMT 56.553146 -6.451464 33,050 280 485 -2304
2021-05-15 10:33:47 GMT 56.552032 -6.439104 33,175 282 486 -2112
2021-05-15 10:33:44 GMT 56.549564 -6.417217 33,250 284 487 -2048
2021-05-15 10:33:41 GMT 56.549564 -6.417217 33,350 285 488 -2048
2021-05-15 10:33:39 GMT 56.548306 -6.408119 33,425 287 489 -1984
2021-05-15 10:33:36 GMT 56.544617 -6.385470 33,550 288 490 -1984
2021-05-15 10:33:33 GMT 56.544617 -6.385470 33,675 291 490 -1920
2021-05-15 10:33:30 GMT 56.542301 -6.373100 33,725 292 491 -1664
2021-05-15 10:33:27 GMT 56.540222 -6.363165 34,000 293 491 -1344
2021-05-15 10:33:25 GMT 56.538116 -6.353677 33,900 299 494 -576
2021-05-15 10:33:22 GMT 56.535324 -6.342024 33,900 296 492 -960
2021-05-15 10:33:20 GMT 56.533173 -6.333868 33,925 297 493 -768
2021-05-15 10:33:17 GMT 56.530991 -6.325808 34,000 301 494 -320
2021-05-15 10:33:15 GMT 56.528149 -6.315937 34,000 301 494 -320
2021-05-15 10:33:12 GMT 56.524658 -6.304904 34,000 302 494 -192
2021-05-15 10:33:10 GMT 56.522232 -6.297413 34,000 303 494 -128
2021-05-15 10:33:07 GMT 56.519955 -6.290789 34,000 305 494 0
2021-05-15 10:33:05 GMT 56.516464 -6.281176 34,000 306 495 0
2021-05-15 10:33:02 GMT 56.512665 -6.271362 34,000 307 494 0
2021-05-15 10:33:00 GMT 56.509995 -6.264696 34,000 308 495 0
2021-05-15 10:32:57 GMT 56.505478 -6.253881 34,000 308 494 0
2021-05-15 10:32:54 GMT 56.501148 -6.243753 34,000 309 493 0
2021-05-15 10:32:51 GMT 56.497612 -6.235685 34,000 309 494 0
2021-05-15 10:32:49 GMT 56.495544 -6.230829 34,000 309 494 0
2021-05-15 10:32:47 GMT 56.492706 -6.224337 34,000 309 494 0
2021-05-15 10:32:45 GMT 56.489185 -6.216202 34,000 308 494 0
2021-05-15 10:32:42 GMT 56.484436 -6.205130 34,000 309 493 0
2021-05-15 10:32:40 GMT 56.481903 -6.199285 34,000 309 493 0
2021-05-15 10:32:37 GMT 56.477829 -6.189880 34,000 309 493 0
2021-05-15 10:32:34 GMT 56.474335 -6.181784 34,000 309 493 0
2021-05-15 10:32:31 GMT 56.469681 -6.171055 34,000 308 494 0
2021-05-15 10:32:29 GMT 56.464645 -6.159418 34,000 308 494 0
2021-05-15 10:32:27 GMT 56.464645 -6.159418 34,000 308 494 0
2021-05-15 10:32:25 GMT 56.461166 -6.151262 34,000 308 494 0
2021-05-15 10:32:22 GMT 56.456818 -6.141191 34,000 308 494 0
2021-05-15 10:32:20 GMT 56.453430 -6.133451 34,000 308 494 0
2021-05-15 10:32:17 GMT 56.450642 -6.126938 34,000 308 494 0
2021-05-15 10:32:15 GMT 56.446590 -6.117496 34,000 308 494 0
2021-05-15 10:32:12 GMT 56.442402 -6.107798 34,000 308 494 0
2021-05-15 10:32:10 GMT 56.439468 -6.100931 34,000 308 494 0
2021-05-15 10:32:07 GMT 56.436348 -6.093807 34,000 308 494 0
2021-05-15 10:32:04 GMT 56.431320 -6.082181 34,000 308 494 0
2021-05-15 10:32:01 GMT 56.427109 -6.072443 34,000 308 494 0
2021-05-15 10:31:59 GMT 56.424866 -6.067200 34,000 308 494 0
2021-05-15 10:31:57 GMT 56.422623 -6.062039 34,000 308 494 0
2021-05-15 10:31:55 GMT 56.419098 -6.053883 34,000 308 494 0
2021-05-15 10:31:52 GMT 56.414608 -6.043510 34,000 309 494 0
2021-05-15 10:31:49 GMT 56.411396 -6.036129 34,000 309 494 0
2021-05-15 10:31:47 GMT 56.408432 -6.029247 34,000 309 494 0
2021-05-15 10:31:45 GMT 56.404507 -6.020250 34,000 309 494 0
2021-05-15 10:31:42 GMT 56.400284 -6.010520 34,000 309 494 0
2021-05-15 10:31:39 GMT 56.397491 -6.004028 34,000 309 494 0
2021-05-15 10:31:37 GMT 56.393967 -5.995955 34,000 309 494 0
2021-05-15 10:31:34 GMT 56.389751 -5.986261 34,000 309 494 0
2021-05-15 10:31:31 GMT 56.386211 -5.978193 34,000 309 494 0
2021-05-15 10:31:29 GMT 56.382980 -5.970736 34,000 309 494 0
2021-05-15 10:31:26 GMT 56.378063 -5.959482 34,000 309 494 0
2021-05-15 10:31:23 GMT 56.373962 -5.950095 34,000 309 494 0
2021-05-15 10:31:20 GMT 56.370163 -5.941356 34,000 309 494 0
2021-05-15 10:31:18 GMT 56.367451 -5.935278 34,000 309 494 0
2021-05-15 10:31:15 GMT 56.363205 -5.925543 34,000 309 494 0
2021-05-15 10:31:12 GMT 56.357536 -5.912704 34,000 309 494 0
2021-05-15 10:31:09 GMT 56.353317 -5.902987 34,000 309 494 0
2021-05-15 10:31:06 GMT 56.349064 -5.893307 34,000 309 494 0
2021-05-15 10:31:03 GMT 56.345291 -5.884552 34,000 309 494 0
2021-05-15 10:31:00 GMT 56.342453 -5.878115 34,000 309 494 0
2021-05-15 10:30:58 GMT 56.339355 -5.871027 34,000 309 494 0
2021-05-15 10:30:55 GMT 56.329880 -5.849387 34,000 309 494 0
2021-05-15 10:30:52 GMT 56.329880 -5.849387 34,000 309 494 0
2021-05-15 10:30:49 GMT 56.325897 -5.840399 34,000 309 494 0
2021-05-15 10:30:47 GMT 56.322388 -5.832281 34,000 309 494 0
2021-05-15 10:30:44 GMT 56.313358 -5.811682 34,000 309 494 0
2021-05-15 10:30:40 GMT 56.313358 -5.811682 34,000 309 494 0
2021-05-15 10:30:37 GMT 56.306282 -5.795546 34,000 309 495 0
2021-05-15 10:30:35 GMT 56.306282 -5.795546 34,000 309 495 0
2021-05-15 10:30:32 GMT 56.302734 -5.787464 34,000 309 495 0
2021-05-15 10:30:29 GMT 56.296646 -5.773659 34,000 309 494 0
2021-05-15 10:30:26 GMT 56.293854 -5.767136 34,000 309 494 0
2021-05-15 10:30:23 GMT 56.288593 -5.755291 34,000 309 494 0
2021-05-15 10:30:20 GMT 56.285053 -5.747223 34,000 309 494 0
2021-05-15 10:30:17 GMT 56.280071 -5.735979 34,000 309 494 0
2021-05-15 10:30:14 GMT 56.276413 -5.727622 34,000 309 494 0
2021-05-15 10:30:11 GMT 56.272705 -5.719216 34,000 309 494 0
2021-05-15 10:30:09 GMT 56.268482 -5.709543 34,000 309 494 0
2021-05-15 10:30:05 GMT 56.263641 -5.698658 34,000 309 495 0
2021-05-15 10:30:02 GMT 56.259521 -5.689337 34,000 309 494 0
2021-05-15 10:29:59 GMT 56.255722 -5.680681 34,000 309 494 0
2021-05-15 10:29:56 GMT 56.250885 -5.669718 34,000 309 494 0
2021-05-15 10:29:53 GMT 56.245605 -5.657876 34,000 309 494 0
2021-05-15 10:29:50 GMT 56.242783 -5.651436 34,000 309 494 0
2021-05-15 10:29:48 GMT 56.239944 -5.645084 34,000 309 494 0
2021-05-15 10:29:45 GMT 56.235245 -5.634441 34,000 309 494 0
2021-05-15 10:29:42 GMT 56.230682 -5.624251 34,000 309 494 0
2021-05-15 10:29:39 GMT 56.227001 -5.615902 34,000 309 494 0
2021-05-15 10:29:37 GMT 56.224319 -5.609769 34,000 309 494 0
2021-05-15 10:29:34 GMT 56.220345 -5.600796 34,000 309 494 0
2021-05-15 10:29:31 GMT 56.216080 -5.591209 34,000 309 494 0
2021-05-15 10:29:29 GMT 56.212509 -5.583135 34,000 309 494 0
2021-05-15 10:29:26 GMT 56.207542 -5.571957 34,000 309 494 0
2021-05-15 10:29:23 GMT 56.202888 -5.561399 34,000 309 494 0
2021-05-15 10:29:20 GMT 56.199863 -5.554619 34,000 309 494 0
2021-05-15 10:29:18 GMT 56.196625 -5.547263 34,000 309 494 0
2021-05-15 10:29:15 GMT 56.191635 -5.536111 34,000 309 494 0
2021-05-15 10:29:11 GMT 56.187386 -5.526466 34,000 309 494 0
2021-05-15 10:29:09 GMT 56.184265 -5.519465 34,000 309 494 0
2021-05-15 10:29:07 GMT 56.181431 -5.513077 34,000 309 494 0
2021-05-15 10:29:05 GMT 56.178310 -5.506039 34,000 309 493 0
2021-05-15 10:29:02 GMT 56.174606 -5.497742 34,000 309 493 0
2021-05-15 10:28:59 GMT 56.170349 -5.488087 34,000 309 493 0
2021-05-15 10:28:57 GMT 56.166672 -5.479774 34,000 309 493 0
2021-05-15 10:28:55 GMT 56.163971 -5.473766 34,000 309 493 0
2021-05-15 10:28:52 GMT 56.160572 -5.466127 34,000 309 493 0
2021-05-15 10:28:49 GMT 56.155746 -5.455211 34,000 309 493 0
2021-05-15 10:28:47 GMT 56.152893 -5.448875 34,000 309 493 0
2021-05-15 10:28:45 GMT 56.150757 -5.444059 34,000 309 493 0
2021-05-15 10:28:42 GMT 56.144531 -5.430076 34,000 309 493 0
2021-05-15 10:28:39 GMT 56.141533 -5.423384 34,000 309 493 0
2021-05-15 10:28:37 GMT 56.138554 -5.416689 34,000 309 493 0
2021-05-15 10:28:35 GMT 56.135559 -5.410018 34,000 309 493 0
2021-05-15 10:28:32 GMT 56.131165 -5.400196 34,000 309 493 0
2021-05-15 10:28:29 GMT 56.127869 -5.392872 34,000 309 493 0
2021-05-15 10:28:27 GMT 56.124310 -5.384932 34,000 309 493 0
2021-05-15 10:28:24 GMT 56.121506 -5.378557 34,000 309 492 0
2021-05-15 10:28:21 GMT 56.117111 -5.368736 34,000 309 492 0
2021-05-15 10:28:19 GMT 56.113556 -5.360727 34,000 309 492 0
2021-05-15 10:28:16 GMT 56.109459 -5.351543 34,000 309 492 0
2021-05-15 10:28:13 GMT 56.100220 -5.330866 34,000 309 492 0
2021-05-15 10:28:10 GMT 56.100220 -5.330866 34,000 309 492 0
2021-05-15 10:28:07 GMT 56.096287 -5.322018 34,000 309 493 0
2021-05-15 10:28:04 GMT 56.092026 -5.312472 34,000 309 493 0
2021-05-15 10:28:01 GMT 56.088741 -5.305109 34,000 309 493 0
2021-05-15 10:27:59 GMT 56.084927 -5.296612 34,000 309 492 0
2021-05-15 10:27:56 GMT 56.077942 -5.281076 34,000 309 492 0
2021-05-15 10:27:54 GMT 56.074360 -5.273094 34,000 309 492 0
2021-05-15 10:27:51 GMT 56.074360 -5.273094 34,000 309 492 0
2021-05-15 10:27:49 GMT 56.070541 -5.264597 34,000 309 492 0
2021-05-15 10:27:46 GMT 56.067097 -5.256958 34,000 309 492 0
2021-05-15 10:27:44 GMT 56.063416 -5.248718 34,000 309 492 0
2021-05-15 10:27:41 GMT 56.059982 -5.241144 34,000 309 492 0
2021-05-15 10:27:39 GMT 56.055412 -5.231037 34,000 309 492 0
2021-05-15 10:27:36 GMT 56.052887 -5.225331 34,000 309 492 0
2021-05-15 10:27:34 GMT 56.048859 -5.216425 34,000 309 492 0
2021-05-15 10:27:30 GMT 56.043167 -5.203829 34,000 309 492 0
2021-05-15 10:27:28 GMT 56.041073 -5.199022 34,000 309 492 0
2021-05-15 10:27:25 GMT 56.036911 -5.189875 34,000 309 492 0
2021-05-15 10:27:22 GMT 56.030960 -5.176558 34,000 309 492 0
2021-05-15 10:27:19 GMT 56.027714 -5.169325 34,000 309 492 0
2021-05-15 10:27:16 GMT 56.023407 -5.159829 34,000 309 492 0
2021-05-15 10:27:13 GMT 56.019146 -5.150356 34,000 309 492 0
2021-05-15 10:27:10 GMT 56.012329 -5.135193 34,000 309 492 0
2021-05-15 10:27:08 GMT 56.012329 -5.135193 34,000 309 492 0
2021-05-15 10:27:05 GMT 56.008347 -5.126324 34,000 309 492 0
2021-05-15 10:27:02 GMT 56.004482 -5.117826 34,000 309 492 0
2021-05-15 10:26:59 GMT 55.999222 -5.106153 34,000 309 492 0
2021-05-15 10:26:57 GMT 55.996384 -5.099888 34,000 309 492 0
2021-05-15 10:26:54 GMT 55.991680 -5.089417 34,000 309 492 0
2021-05-15 10:26:51 GMT 55.984978 -5.074654 34,000 309 492 0
2021-05-15 10:26:49 GMT 55.984978 -5.074654 34,000 309 492 0
2021-05-15 10:26:46 GMT 55.981113 -5.066071 34,000 309 492 0
2021-05-15 10:26:44 GMT 55.974411 -5.051222 34,000 309 492 0
2021-05-15 10:26:41 GMT 55.974411 -5.051222 34,000 309 492 0
2021-05-15 10:26:39 GMT 55.970825 -5.043325 34,000 309 493 0
2021-05-15 10:26:36 GMT 55.966682 -5.034227 34,000 309 493 0
2021-05-15 10:26:34 GMT 55.963257 -5.026661 34,000 309 493 0
2021-05-15 10:26:31 GMT 55.958817 -5.016840 34,000 310 493 0
2021-05-15 10:26:28 GMT 55.955837 -5.010281 34,000 309 492 0
2021-05-15 10:26:26 GMT 55.952812 -5.003586 34,000 310 493 0
2021-05-15 10:26:24 GMT 55.949970 -4.997320 34,000 310 493 0
2021-05-15 10:26:21 GMT 55.944057 -4.984446 34,000 310 493 0
2021-05-15 10:26:18 GMT 55.940369 -4.976224 34,000 310 493 0
2021-05-15 10:26:15 GMT 55.932175 -4.958330 34,000 310 493 0
2021-05-15 10:26:12 GMT 55.932175 -4.958330 34,000 310 493 0
2021-05-15 10:26:09 GMT 55.928009 -4.949174 34,000 310 493 0
2021-05-15 10:26:06 GMT 55.923569 -4.939436 34,000 310 493 0
2021-05-15 10:26:04 GMT 55.920689 -4.933119 34,000 310 493 0
2021-05-15 10:26:01 GMT 55.912079 -4.914301 34,000 310 493 0
2021-05-15 10:25:58 GMT 55.912079 -4.914301 34,000 310 493 0
2021-05-15 10:25:55 GMT 55.908630 -4.906769 34,000 310 493 0
2021-05-15 10:25:53 GMT 55.904488 -4.897585 34,000 309 493 0
2021-05-15 10:25:50 GMT 55.901649 -4.891319 34,000 309 493 0
2021-05-15 10:25:48 GMT 55.898209 -4.883756 34,000 310 494 0
2021-05-15 10:25:46 GMT 55.895039 -4.876814 34,000 310 494 0
2021-05-15 10:25:44 GMT 55.892166 -4.870522 34,000 310 494 0
2021-05-15 10:25:41 GMT 55.888058 -4.861364 34,000 310 494 0
2021-05-15 10:25:39 GMT 55.885448 -4.855700 34,000 310 494 0
2021-05-15 10:25:36 GMT 55.880447 -4.844721 34,000 310 494 0
2021-05-15 10:25:34 GMT 55.878113 -4.839644 34,000 310 495 0
2021-05-15 10:25:31 GMT 55.873398 -4.829240 34,000 310 494 0
2021-05-15 10:25:28 GMT 55.869621 -4.821024 34,000 310 495 0
2021-05-15 10:25:26 GMT 55.866623 -4.814425 34,000 310 495 0
2021-05-15 10:25:24 GMT 55.863152 -4.806862 34,000 310 495 0
2021-05-15 10:25:21 GMT 55.858959 -4.797764 34,000 310 495 0
2021-05-15 10:25:19 GMT 55.855331 -4.789867 34,000 310 495 0
2021-05-15 10:25:17 GMT 55.848858 -4.775705 34,000 310 496 0
2021-05-15 10:25:14 GMT 55.845226 -4.767809 34,000 310 496 0
2021-05-15 10:25:11 GMT 55.845226 -4.767809 34,000 310 496 0
2021-05-15 10:25:08 GMT 55.840027 -4.756497 34,000 310 496 0
2021-05-15 10:25:05 GMT 55.836273 -4.748258 34,000 310 496 0
2021-05-15 10:25:03 GMT 55.833546 -4.742231 34,000 310 496 0
2021-05-15 10:25:00 GMT 55.828796 -4.731846 34,000 310 496 0
2021-05-15 10:24:58 GMT 55.821812 -4.716654 34,000 310 496 0
2021-05-15 10:24:55 GMT 55.821812 -4.716654 34,000 310 496 0
2021-05-15 10:24:53 GMT 55.818645 -4.709787 34,000 310 496 0
2021-05-15 10:24:50 GMT 55.815018 -4.701891 34,000 310 496 0
2021-05-15 10:24:48 GMT 55.811554 -4.694325 34,000 310 496 0
2021-05-15 10:24:45 GMT 55.807335 -4.685154 34,000 310 496 0
2021-05-15 10:24:43 GMT 55.804588 -4.679146 34,000 310 496 0
2021-05-15 10:24:41 GMT 55.800568 -4.670355 34,000 310 496 0
2021-05-15 10:24:38 GMT 55.795185 -4.658632 34,000 310 496 0
2021-05-15 10:24:35 GMT 55.792877 -4.653625 34,000 310 496 0
2021-05-15 10:24:33 GMT 55.790268 -4.647966 34,000 310 497 0
2021-05-15 10:24:30 GMT 55.784592 -4.635648 34,000 310 497 0
2021-05-15 10:24:27 GMT 55.781124 -4.628077 34,000 310 497 0
2021-05-15 10:24:24 GMT 55.771088 -4.606351 34,000 310 497 0
2021-05-15 10:24:20 GMT 55.771088 -4.606351 34,000 310 497 0
2021-05-15 10:24:17 GMT 55.766136 -4.595633 34,000 310 497 0
2021-05-15 10:24:14 GMT 55.761948 -4.586535 34,000 310 497 0
2021-05-15 10:24:11 GMT 55.757431 -4.576750 34,000 310 497 0
2021-05-15 10:24:09 GMT 55.751194 -4.563189 34,000 310 497 0
2021-05-15 10:24:07 GMT 55.751194 -4.563189 34,000 310 497 0
2021-05-15 10:24:04 GMT 55.747559 -4.555331 34,000 310 497 0
2021-05-15 10:24:02 GMT 55.743622 -4.546842 34,000 310 497 0
2021-05-15 10:23:59 GMT 55.738670 -4.536152 34,000 310 497 0
2021-05-15 10:23:56 GMT 55.735737 -4.529886 34,000 310 498 0
2021-05-15 10:23:53 GMT 55.731400 -4.520458 34,000 310 498 0
2021-05-15 10:23:51 GMT 55.727917 -4.512892 34,000 310 497 0
2021-05-15 10:23:47 GMT 55.722237 -4.500618 34,000 310 497 0
2021-05-15 10:23:44 GMT 55.719585 -4.495039 34,000 310 497 0
2021-05-15 10:23:42 GMT 55.716091 -4.487486 34,000 310 497 0
2021-05-15 10:23:39 GMT 55.710831 -4.476156 34,000 310 497 0
2021-05-15 10:23:36 GMT 55.706909 -4.467690 34,000 310 497 0
2021-05-15 10:23:33 GMT 55.700638 -4.454207 34,000 310 497 0
2021-05-15 10:23:30 GMT 55.695236 -4.442638 34,000 310 497 0
2021-05-15 10:23:28 GMT 55.695236 -4.442638 34,000 310 497 0
2021-05-15 10:23:25 GMT 55.690704 -4.432900 34,000 310 497 0
2021-05-15 10:23:22 GMT 55.686447 -4.423828 34,000 310 497 0
2021-05-15 10:23:19 GMT 55.680176 -4.410345 34,000 310 497 0
2021-05-15 10:23:16 GMT 55.677269 -4.404144 34,000 310 497 0
2021-05-15 10:23:13 GMT 55.672897 -4.394698 34,000 310 497 0
2021-05-15 10:23:09 GMT 55.666470 -4.380970 34,000 310 497 0
2021-05-15 10:23:06 GMT 55.662930 -4.373417 34,000 310 497 0
2021-05-15 10:23:03 GMT 55.654736 -4.355907 34,000 310 497 0
2021-05-15 10:23:01 GMT 55.651806 -4.349642 34,000 310 497 0
2021-05-15 10:22:58 GMT 55.651806 -4.349642 34,000 310 497 0
2021-05-15 10:22:56 GMT 55.648453 -4.342518 34,000 310 497 0
2021-05-15 10:22:53 GMT 55.644215 -4.333420 34,000 310 497 0
2021-05-15 10:22:51 GMT 55.641281 -4.327154 34,000 310 497 0
2021-05-15 10:22:48 GMT 55.635406 -4.314714 34,000 310 497 0
2021-05-15 10:22:45 GMT 55.631599 -4.306555 34,000 310 497 0
2021-05-15 10:22:42 GMT 55.623093 -4.288497 34,000 310 497 0
2021-05-15 10:22:39 GMT 55.623093 -4.288497 34,000 310 497 0
2021-05-15 10:22:36 GMT 55.618835 -4.279424 34,000 310 497 0
2021-05-15 10:22:33 GMT 55.614468 -4.269991 34,000 310 497 0
2021-05-15 10:22:30 GMT 55.610229 -4.260947 34,000 310 497 0
2021-05-15 10:22:26 GMT 55.603592 -4.246965 34,000 310 497 0
2021-05-15 10:22:23 GMT 55.599667 -4.238491 34,000 310 497 0
2021-05-15 10:22:20 GMT 55.592777 -4.223900 34,000 310 497 0
2021-05-15 10:22:18 GMT 55.592777 -4.223900 34,000 310 497 0
2021-05-15 10:22:16 GMT 55.589844 -4.217634 34,000 310 497 0
2021-05-15 10:22:13 GMT 55.584824 -4.207098 34,000 310 497 0
2021-05-15 10:22:10 GMT 55.581161 -4.199274 34,000 310 497 0
2021-05-15 10:22:08 GMT 55.578232 -4.193115 34,000 310 497 0
2021-05-15 10:22:06 GMT 55.574387 -4.185019 34,000 310 497 0
2021-05-15 10:22:03 GMT 55.570152 -4.176006 34,000 310 497 0
2021-05-15 10:22:01 GMT 55.563080 -4.161072 34,000 310 497 0
2021-05-15 10:21:58 GMT 55.559116 -4.152746 34,000 310 496 0
2021-05-15 10:21:55 GMT 55.559116 -4.152746 34,000 310 496 0
2021-05-15 10:21:52 GMT 55.554703 -4.143427 34,000 310 496 0
2021-05-15 10:21:50 GMT 55.551041 -4.135603 34,000 310 496 0
2021-05-15 10:21:47 GMT 55.546921 -4.126997 34,000 310 496 0
2021-05-15 10:21:44 GMT 55.542526 -4.117626 34,000 310 496 0
2021-05-15 10:21:41 GMT 55.536633 -4.105282 34,000 310 496 0
2021-05-15 10:21:38 GMT 55.534424 -4.100647 34,000 310 496 0
2021-05-15 10:21:36 GMT 55.529892 -4.090992 34,000 310 496 0
2021-05-15 10:21:33 GMT 55.526066 -4.082966 34,000 310 496 0
2021-05-15 10:21:31 GMT 55.523529 -4.077676 34,000 310 496 0
2021-05-15 10:21:28 GMT 55.518997 -4.068104 34,000 310 496 0
2021-05-15 10:21:26 GMT 55.514568 -4.058847 34,000 310 496 0
2021-05-15 10:21:23 GMT 55.511028 -4.051380 34,000 310 496 0
2021-05-15 10:21:20 GMT 55.507233 -4.043385 34,000 310 496 0
2021-05-15 10:21:18 GMT 55.503983 -4.036560 34,000 310 496 0
2021-05-15 10:21:15 GMT 55.500183 -4.028549 34,000 310 496 0
2021-05-15 10:21:12 GMT 55.495926 -4.019581 34,000 310 496 0
2021-05-15 10:21:09 GMT 55.491478 -4.010267 34,000 310 496 0
2021-05-15 10:21:07 GMT 55.488235 -4.003435 34,000 310 496 0
2021-05-15 10:21:05 GMT 55.485306 -3.997276 34,000 310 496 0
2021-05-15 10:21:02 GMT 55.477978 -3.981857 34,000 310 496 0
2021-05-15 10:21:00 GMT 55.477978 -3.981857 34,000 310 496 0
2021-05-15 10:20:57 GMT 55.473415 -3.972244 34,000 310 496 0
2021-05-15 10:20:54 GMT 55.469604 -3.964150 34,000 310 496 0
2021-05-15 10:20:51 GMT 55.465363 -3.955164 34,000 310 496 0
2021-05-15 10:20:48 GMT 55.459358 -3.942461 34,000 310 497 0
2021-05-15 10:20:45 GMT 55.455074 -3.933535 34,000 310 497 0
2021-05-15 10:20:42 GMT 55.452164 -3.927363 34,000 310 496 0
2021-05-15 10:20:40 GMT 55.445572 -3.913380 34,000 310 496 0
2021-05-15 10:20:38 GMT 55.445572 -3.913380 34,000 310 496 0
2021-05-15 10:20:36 GMT 55.443237 -3.908386 34,000 310 496 0
2021-05-15 10:20:33 GMT 55.438221 -3.897899 34,000 310 496 0
2021-05-15 10:20:31 GMT 55.435318 -3.891664 34,000 310 496 0
2021-05-15 10:20:28 GMT 55.430786 -3.882051 34,000 310 495 0
2021-05-15 10:20:25 GMT 55.425701 -3.871183 34,000 310 496 0
2021-05-15 10:20:22 GMT 55.418839 -3.856605 34,000 310 496 0
2021-05-15 10:20:20 GMT 55.418839 -3.856605 34,000 310 495 0
2021-05-15 10:20:18 GMT 55.411549 -3.841137 34,000 310 495 0
2021-05-15 10:20:15 GMT 55.411549 -3.841137 34,000 310 495 0
2021-05-15 10:20:12 GMT 55.407356 -3.832148 34,000 310 495 0
2021-05-15 10:20:09 GMT 55.403122 -3.823076 34,000 310 496 0
2021-05-15 10:20:06 GMT 55.398926 -3.814114 34,000 310 496 0
2021-05-15 10:20:03 GMT 55.394119 -3.803855 34,000 310 496 0
2021-05-15 10:20:01 GMT 55.392277 -3.799771 34,000 310 496 0
2021-05-15 10:19:58 GMT 55.386875 -3.788286 34,000 310 496 0
2021-05-15 10:19:56 GMT 55.383850 -3.781711 34,000 310 495 0
2021-05-15 10:19:53 GMT 55.379791 -3.773077 34,000 310 495 0
2021-05-15 10:19:51 GMT 55.377777 -3.768714 34,000 310 495 0
2021-05-15 10:19:48 GMT 55.372581 -3.757491 34,000 310 494 0
2021-05-15 10:19:46 GMT 55.369858 -3.751589 34,000 310 494 0
2021-05-15 10:19:43 GMT 55.365505 -3.742260 34,000 310 494 0
2021-05-15 10:19:41 GMT 55.362480 -3.735768 34,000 310 494 0
2021-05-15 10:19:38 GMT 55.358414 -3.727112 34,000 310 494 0
2021-05-15 10:19:35 GMT 55.353516 -3.716610 34,000 310 494 0
2021-05-15 10:19:32 GMT 55.348297 -3.705462 34,000 310 493 0
2021-05-15 10:19:29 GMT 55.346420 -3.701477 34,000 310 494 0
2021-05-15 10:19:27 GMT 55.342346 -3.692860 34,000 311 493 0
2021-05-15 10:19:24 GMT 55.337528 -3.682750 34,000 311 493 0
2021-05-15 10:19:21 GMT 55.333694 -3.674846 34,000 312 493 0
2021-05-15 10:19:18 GMT 55.329071 -3.665475 34,000 312 493 0
2021-05-15 10:19:15 GMT 55.325317 -3.657963 34,000 313 491 0
2021-05-15 10:19:12 GMT 55.319687 -3.647057 34,000 313 492 0
2021-05-15 10:19:09 GMT 55.315697 -3.639388 34,000 313 491 0
2021-05-15 10:19:06 GMT 55.310204 -3.628817 34,000 313 491 0
2021-05-15 10:19:03 GMT 55.306713 -3.621993 34,000 313 491 0
2021-05-15 10:19:00 GMT 55.302292 -3.613452 34,000 313 491 0
2021-05-15 10:18:57 GMT 55.296516 -3.602267 34,000 312 490 0
2021-05-15 10:18:54 GMT 55.292095 -3.593695 34,000 312 490 0
2021-05-15 10:18:51 GMT 55.288147 -3.586067 34,000 312 490 0
2021-05-15 10:18:49 GMT 55.286041 -3.581947 34,000 312 490 0
2021-05-15 10:18:47 GMT 55.282738 -3.575384 34,000 312 490 0
2021-05-15 10:18:45 GMT 55.278809 -3.567729 34,000 312 490 0
2021-05-15 10:18:42 GMT 55.274551 -3.559490 34,000 312 490 0
2021-05-15 10:18:39 GMT 55.270203 -3.550846 34,000 312 490 0
2021-05-15 10:18:36 GMT 55.265854 -3.542283 34,000 312 490 0
2021-05-15 10:18:33 GMT 55.261509 -3.533686 34,000 312 490 0
2021-05-15 10:18:31 GMT 55.258018 -3.526861 34,000 312 490 0
2021-05-15 10:18:29 GMT 55.253967 -3.518871 34,000 312 490 0
2021-05-15 10:18:26 GMT 55.251572 -3.514171 34,000 312 490 0
2021-05-15 10:18:23 GMT 55.246658 -3.504389 34,000 312 490 0
2021-05-15 10:18:21 GMT 55.243168 -3.497564 34,000 312 490 0
2021-05-15 10:18:18 GMT 55.238068 -3.487513 34,000 312 490 0
2021-05-15 10:18:15 GMT 55.233444 -3.478304 34,000 312 490 0
2021-05-15 10:18:12 GMT 55.228638 -3.468852 34,000 312 490 0
2021-05-15 10:18:09 GMT 55.218201 -3.448576 34,000 313 489 0
2021-05-15 10:18:06 GMT 55.218201 -3.448576 34,000 313 490 0
2021-05-15 10:18:03 GMT 55.216095 -3.444456 34,000 313 490 0
2021-05-15 10:18:00 GMT 55.211380 -3.435328 34,000 313 491 0
2021-05-15 10:17:57 GMT 55.207214 -3.427492 34,000 314 491 0
2021-05-15 10:17:55 GMT 55.204018 -3.421409 34,000 314 490 0
2021-05-15 10:17:52 GMT 55.194489 -3.403985 34,000 315 491 0
2021-05-15 10:17:49 GMT 55.194489 -3.403985 34,000 317 492 0
2021-05-15 10:17:46 GMT 55.189453 -3.395422 34,000 319 492 0
2021-05-15 10:17:43 GMT 55.185349 -3.388700 34,000 319 492 0
2021-05-15 10:17:41 GMT 55.181160 -3.382041 34,000 319 491 0
2021-05-15 10:17:38 GMT 55.177048 -3.375792 34,000 320 489 0
2021-05-15 10:17:36 GMT 55.171738 -3.367794 34,000 320 489 0
2021-05-15 10:17:33 GMT 55.168499 -3.362815 34,000 320 489 0
2021-05-15 10:17:31 GMT 55.164093 -3.356081 34,000 320 489 0
2021-05-15 10:17:29 GMT 55.160477 -3.350669 34,000 320 489 0
2021-05-15 10:17:27 GMT 55.153793 -3.340571 34,000 320 490 0
2021-05-15 10:17:25 GMT 55.153793 -3.340571 34,000 320 490 0
2021-05-15 10:17:22 GMT 55.149040 -3.333352 34,000 320 490 0
2021-05-15 10:17:19 GMT 55.142532 -3.323526 34,000 320 489 0
2021-05-15 10:17:16 GMT 55.138779 -3.317871 34,000 320 490 0
2021-05-15 10:17:13 GMT 55.129166 -3.303411 34,000 320 490 0
2021-05-15 10:17:11 GMT 55.129166 -3.303411 34,000 320 490 0
2021-05-15 10:17:09 GMT 55.126556 -3.299561 34,000 320 490 0
2021-05-15 10:17:07 GMT 55.123123 -3.294444 34,000 320 490 0
2021-05-15 10:17:05 GMT 55.119900 -3.289490 34,000 320 491 0
2021-05-15 10:17:02 GMT 55.114868 -3.282082 34,000 320 491 0
2021-05-15 10:17:00 GMT 55.111797 -3.277421 34,000 320 490 0
2021-05-15 10:16:58 GMT 55.108540 -3.272511 34,000 320 490 0
2021-05-15 10:16:56 GMT 55.103886 -3.265603 34,000 320 492 0
2021-05-15 10:16:53 GMT 55.099960 -3.259627 34,000 320 492 0
2021-05-15 10:16:50 GMT 55.094433 -3.251371 34,000 320 492 0
2021-05-15 10:16:47 GMT 55.089127 -3.243380 34,000 320 492 0
2021-05-15 10:16:45 GMT 55.084991 -3.237170 34,000 320 492 0
2021-05-15 10:16:42 GMT 55.079304 -3.228649 34,000 320 492 0
2021-05-15 10:16:39 GMT 55.074142 -3.220933 34,000 320 492 0
2021-05-15 10:16:37 GMT 55.072083 -3.217863 34,000 320 492 0
2021-05-15 10:16:35 GMT 55.066875 -3.210089 34,000 320 492 0
2021-05-15 10:16:32 GMT 55.063431 -3.204928 34,000 320 492 0
2021-05-15 10:16:30 GMT 55.060169 -3.200018 34,000 320 492 0
2021-05-15 10:16:28 GMT 55.055515 -3.193026 34,000 320 492 0
2021-05-15 10:16:25 GMT 55.051208 -3.186601 34,000 320 492 0
2021-05-15 10:16:22 GMT 55.044296 -3.176297 34,000 320 492 0
2021-05-15 10:16:19 GMT 55.039810 -3.169556 34,000 320 492 0
2021-05-15 10:16:16 GMT 55.035686 -3.163397 34,000 320 492 0
2021-05-15 10:16:13 GMT 55.030151 -3.155096 34,000 320 492 0
2021-05-15 10:16:10 GMT 55.024979 -3.147417 34,000 320 492 0
2021-05-15 10:16:08 GMT 55.022415 -3.143544 34,000 320 492 0
2021-05-15 10:16:06 GMT 55.018066 -3.137081 34,000 320 492 0
2021-05-15 10:16:03 GMT 55.013260 -3.129892 34,000 320 492 0
2021-05-15 10:16:01 GMT 55.009476 -3.124195 34,000 320 492 0
2021-05-15 10:15:58 GMT 55.005333 -3.118036 34,000 320 492 0
2021-05-15 10:15:56 GMT 55.000305 -3.110546 34,000 320 492 0
2021-05-15 10:15:53 GMT 54.994251 -3.101557 34,000 320 492 0
2021-05-15 10:15:50 GMT 54.988899 -3.093567 34,000 320 492 0
2021-05-15 10:15:47 GMT 54.982361 -3.083846 34,000 320 492 0
2021-05-15 10:15:45 GMT 54.982361 -3.083846 34,000 320 492 0
2021-05-15 10:15:42 GMT 54.977169 -3.076089 34,000 320 492 0
2021-05-15 10:15:39 GMT 54.970276 -3.065832 34,000 320 492 0
2021-05-15 10:15:36 GMT 54.965111 -3.058194 34,000 320 492 0
2021-05-15 10:15:33 GMT 54.961487 -3.052745 34,000 320 492 0
2021-05-15 10:15:30 GMT 54.955765 -3.044344 34,000 320 492 0
2021-05-15 10:15:28 GMT 54.952309 -3.039218 34,000 320 492 0
2021-05-15 10:15:25 GMT 54.941299 -3.022775 34,000 320 492 0
2021-05-15 10:15:22 GMT 54.941299 -3.022775 34,000 320 492 0
2021-05-15 10:15:19 GMT 54.936951 -3.016393 34,000 320 492 0
2021-05-15 10:15:16 GMT 54.931454 -3.008173 34,000 320 492 0
2021-05-15 10:15:13 GMT 54.926426 -3.000766 34,000 320 492 0
2021-05-15 10:15:11 GMT 54.922283 -2.994690 34,000 320 492 0
2021-05-15 10:15:08 GMT 54.918652 -2.989280 34,000 320 492 0
2021-05-15 10:15:06 GMT 54.914322 -2.982871 34,000 320 492 0
2021-05-15 10:15:03 GMT 54.908981 -2.974952 34,000 320 492 0
2021-05-15 10:15:00 GMT 54.903755 -2.967307 34,000 320 492 0
2021-05-15 10:14:58 GMT 54.901520 -2.963966 34,000 320 492 0
2021-05-15 10:14:56 GMT 54.896530 -2.956534 34,000 320 492 0
2021-05-15 10:14:53 GMT 54.892025 -2.949912 34,000 320 492 0
2021-05-15 10:14:50 GMT 54.885975 -2.941007 34,000 320 491 0
2021-05-15 10:14:47 GMT 54.881317 -2.934099 34,000 320 491 0
2021-05-15 10:14:45 GMT 54.878357 -2.929795 34,000 320 491 0
2021-05-15 10:14:42 GMT 54.872520 -2.921115 34,000 320 491 0
2021-05-15 10:14:39 GMT 54.867165 -2.913125 34,000 320 491 0
2021-05-15 10:14:36 GMT 54.862511 -2.906300 34,000 320 492 0
2021-05-15 10:14:33 GMT 54.857670 -2.899142 34,000 320 492 0
2021-05-15 10:14:31 GMT 54.852493 -2.891424 34,000 320 492 0
2021-05-15 10:14:28 GMT 54.848686 -2.885825 34,000 320 492 0
2021-05-15 10:14:25 GMT 54.841610 -2.875338 34,000 320 492 0
2021-05-15 10:14:22 GMT 54.839188 -2.871760 34,000 320 492 0
2021-05-15 10:14:19 GMT 54.834366 -2.864604 34,000 320 492 0
2021-05-15 10:14:17 GMT 54.829178 -2.856945 34,000 320 492 0
2021-05-15 10:14:15 GMT 54.826431 -2.852866 34,000 320 492 0
2021-05-15 10:14:12 GMT 54.821404 -2.845459 34,000 320 493 0
2021-05-15 10:14:09 GMT 54.816704 -2.838551 34,000 320 493 0
2021-05-15 10:14:07 GMT 54.812561 -2.832475 34,000 320 493 0
2021-05-15 10:14:05 GMT 54.808411 -2.826314 34,000 320 493 0
2021-05-15 10:14:02 GMT 54.804413 -2.820490 34,000 320 493 0
2021-05-15 10:13:59 GMT 54.799385 -2.813083 34,000 320 493 0
2021-05-15 10:13:57 GMT 54.794685 -2.806175 34,000 320 493 0
2021-05-15 10:13:54 GMT 54.789143 -2.798018 34,000 320 493 0
2021-05-15 10:13:51 GMT 54.784607 -2.791416 34,000 320 493 0
2021-05-15 10:13:48 GMT 54.779415 -2.783786 34,000 320 494 0
2021-05-15 10:13:45 GMT 54.774014 -2.775879 34,000 320 494 0
2021-05-15 10:13:42 GMT 54.768951 -2.768474 34,000 320 494 0
2021-05-15 10:13:39 GMT 54.764797 -2.762312 34,000 320 494 0
2021-05-15 10:13:37 GMT 54.759933 -2.755226 34,000 320 494 0
2021-05-15 10:13:35 GMT 54.756653 -2.750327 34,000 320 494 0
2021-05-15 10:13:32 GMT 54.751251 -2.742421 34,000 320 494 0
2021-05-15 10:13:29 GMT 54.747391 -2.736807 34,000 320 494 -64
2021-05-15 10:13:27 GMT 54.742359 -2.729353 34,000 320 494 0
2021-05-15 10:13:24 GMT 54.737656 -2.722529 34,000 320 494 0
2021-05-15 10:13:21 GMT 54.732258 -2.714622 34,000 320 495 0
2021-05-15 10:13:18 GMT 54.727230 -2.707214 34,000 320 495 0
2021-05-15 10:13:16 GMT 54.718338 -2.694231 34,000 320 495 0
2021-05-15 10:13:13 GMT 54.718338 -2.694231 34,000 320 494 0
2021-05-15 10:13:11 GMT 54.714661 -2.688823 34,000 320 495 0
2021-05-15 10:13:08 GMT 54.703674 -2.672840 34,000 320 494 0
2021-05-15 10:13:05 GMT 54.703674 -2.672840 34,000 320 494 0
2021-05-15 10:13:02 GMT 54.699299 -2.666432 34,000 320 493 0
2021-05-15 10:12:59 GMT 54.694061 -2.658853 34,000 320 494 0
2021-05-15 10:12:57 GMT 54.689713 -2.652471 34,000 320 494 0
2021-05-15 10:12:54 GMT 54.685192 -2.645874 34,000 320 495 0
2021-05-15 10:12:51 GMT 54.680630 -2.639216 34,000 320 495 0
2021-05-15 10:12:48 GMT 54.674698 -2.630579 34,000 320 495 0
2021-05-15 10:12:46 GMT 54.671227 -2.625483 34,000 320 494 0
2021-05-15 10:12:44 GMT 54.666504 -2.618624 34,000 320 494 0
2021-05-15 10:12:41 GMT 54.663174 -2.613831 34,000 320 494 0
2021-05-15 10:12:38 GMT 54.657257 -2.605133 34,000 320 494 0
2021-05-15 10:12:36 GMT 54.654469 -2.601096 34,000 320 494 0
2021-05-15 10:12:33 GMT 54.648369 -2.592191 34,000 320 494 0
2021-05-15 10:12:31 GMT 54.644180 -2.586115 34,000 320 494 0
2021-05-15 10:12:28 GMT 54.639999 -2.580010 34,000 320 494 0
2021-05-15 10:12:26 GMT 54.636337 -2.574678 34,000 320 494 0
2021-05-15 10:12:23 GMT 54.630402 -2.566057 34,000 320 494 0
2021-05-15 10:12:21 GMT 54.627457 -2.561753 34,000 320 493 0
2021-05-15 10:12:18 GMT 54.622055 -2.553917 34,000 320 493 0
2021-05-15 10:12:16 GMT 54.618393 -2.548586 34,000 320 493 0
2021-05-15 10:12:13 GMT 54.613316 -2.541254 34,000 320 493 0
2021-05-15 10:12:11 GMT 54.609833 -2.536226 34,000 320 493 0
2021-05-15 10:12:08 GMT 54.602005 -2.524836 34,000 320 493 0
2021-05-15 10:12:03 GMT 54.595718 -2.515786 34,000 320 493 0
2021-05-15 10:12:01 GMT 54.592739 -2.511458 34,000 321 493 0
2021-05-15 10:11:58 GMT 54.586826 -2.502885 34,000 320 493 0
2021-05-15 10:11:56 GMT 54.583523 -2.498058 34,000 321 493 0
2021-05-15 10:11:53 GMT 54.578110 -2.490261 34,000 321 493 0
2021-05-15 10:11:50 GMT 54.571976 -2.481456 34,000 321 494 0
2021-05-15 10:11:47 GMT 54.569366 -2.477659 34,000 321 494 0
2021-05-15 10:11:45 GMT 54.565887 -2.472651 34,000 321 494 0
2021-05-15 10:11:42 GMT 54.560440 -2.464896 34,000 321 494 0
2021-05-15 10:11:40 GMT 54.556244 -2.458857 34,000 321 494 0
2021-05-15 10:11:37 GMT 54.552055 -2.452781 34,000 321 493 0
2021-05-15 10:11:35 GMT 54.546654 -2.445041 34,000 321 493 0
2021-05-15 10:11:32 GMT 54.543163 -2.439964 34,000 321 493 0
2021-05-15 10:11:30 GMT 54.538834 -2.433721 34,000 321 493 0
2021-05-15 10:11:27 GMT 54.534458 -2.427396 34,000 320 492 0
2021-05-15 10:11:25 GMT 54.530266 -2.421403 34,000 320 492 0
2021-05-15 10:11:22 GMT 54.525566 -2.414579 34,000 321 492 0
2021-05-15 10:11:20 GMT 54.521027 -2.408025 34,000 320 493 0
2021-05-15 10:11:17 GMT 54.517048 -2.402261 34,000 320 493 0
2021-05-15 10:11:15 GMT 54.512669 -2.395935 34,000 320 492 0
2021-05-15 10:11:12 GMT 54.508163 -2.389365 34,000 320 492 0
2021-05-15 10:11:10 GMT 54.504013 -2.383367 34,000 321 493 0
2021-05-15 10:11:07 GMT 54.498230 -2.375066 34,000 321 493 0
2021-05-15 10:11:05 GMT 54.495804 -2.371512 34,000 321 492 0
2021-05-15 10:11:02 GMT 54.491257 -2.365057 34,000 321 493 0
2021-05-15 10:11:00 GMT 54.486229 -2.357733 34,000 321 492 0
2021-05-15 10:10:57 GMT 54.482208 -2.351963 34,000 321 492 0
2021-05-15 10:10:55 GMT 54.476967 -2.344416 34,000 321 492 0
2021-05-15 10:10:52 GMT 54.473465 -2.339442 34,000 321 492 0
2021-05-15 10:10:50 GMT 54.467926 -2.331444 34,000 321 492 0
2021-05-15 10:10:47 GMT 54.464264 -2.326193 34,000 321 492 0
2021-05-15 10:10:45 GMT 54.460602 -2.320943 34,000 321 492 0
2021-05-15 10:10:42 GMT 54.454666 -2.312372 34,000 321 492 0
2021-05-15 10:10:39 GMT 54.448746 -2.303898 34,000 321 492 0
2021-05-15 10:10:36 GMT 54.443680 -2.296642 34,000 321 492 0
2021-05-15 10:10:33 GMT 54.438278 -2.288902 34,000 321 492 0
2021-05-15 10:10:30 GMT 54.432175 -2.280148 34,000 321 492 0
2021-05-15 10:10:27 GMT 54.428505 -2.274919 34,000 321 492 0
2021-05-15 10:10:25 GMT 54.424129 -2.268677 34,000 321 492 0
2021-05-15 10:10:22 GMT 54.420635 -2.263683 34,000 321 492 0
2021-05-15 10:10:19 GMT 54.415237 -2.256026 34,000 321 492 0
2021-05-15 10:10:16 GMT 54.410164 -2.248785 34,000 321 492 0
2021-05-15 10:10:13 GMT 54.403690 -2.239546 34,000 321 492 0
2021-05-15 10:10:10 GMT 54.397549 -2.230807 34,000 325 494 0
2021-05-15 10:10:07 GMT 54.394043 -2.225862 34,000 321 493 0
2021-05-15 10:10:05 GMT 54.390884 -2.221339 34,000 321 493 0
2021-05-15 10:10:02 GMT 54.385677 -2.213912 34,000 321 493 0
2021-05-15 10:09:59 GMT 54.380035 -2.205909 34,000 321 493 0
2021-05-15 10:09:56 GMT 54.369896 -2.191523 34,000 321 492 0
2021-05-15 10:09:53 GMT 54.369896 -2.191523 34,000 321 493 0
2021-05-15 10:09:50 GMT 54.364075 -2.183366 34,000 321 493 0
2021-05-15 10:09:47 GMT 54.358627 -2.175626 34,000 321 493 0
2021-05-15 10:09:45 GMT 54.355465 -2.171215 34,000 321 493 0
2021-05-15 10:09:42 GMT 54.350388 -2.164057 34,000 321 493 0
2021-05-15 10:09:39 GMT 54.343872 -2.154902 34,000 321 493 0
2021-05-15 10:09:36 GMT 54.339294 -2.148473 34,000 321 493 0
2021-05-15 10:09:33 GMT 54.334888 -2.142334 34,000 321 493 0
2021-05-15 10:09:30 GMT 54.328323 -2.133262 34,000 322 493 0
2021-05-15 10:09:27 GMT 54.323730 -2.126905 34,000 322 493 0
2021-05-15 10:09:25 GMT 54.319473 -2.121008 34,000 322 493 0
2021-05-15 10:09:22 GMT 54.309006 -2.106628 34,000 322 493 0
2021-05-15 10:09:19 GMT 54.309006 -2.106628 34,000 322 493 0
2021-05-15 10:09:16 GMT 54.304722 -2.100802 34,000 322 494 0
2021-05-15 10:09:13 GMT 54.298111 -2.091897 34,000 323 493 0
2021-05-15 10:09:10 GMT 54.293270 -2.085405 34,000 323 493 0
2021-05-15 10:09:07 GMT 54.287888 -2.078193 34,000 323 494 0
2021-05-15 10:09:05 GMT 54.282471 -2.071089 34,000 323 495 0
2021-05-15 10:09:02 GMT 54.278885 -2.066345 34,000 323 495 0
2021-05-15 10:09:00 GMT 54.275620 -2.062055 34,000 323 494 0
2021-05-15 10:08:57 GMT 54.269993 -2.054766 34,000 324 494 0
2021-05-15 10:08:55 GMT 54.265594 -2.049186 34,000 324 494 0
2021-05-15 10:08:52 GMT 54.260822 -2.043134 34,000 324 494 0
2021-05-15 10:08:50 GMT 54.256622 -2.037807 34,000 325 495 0
2021-05-15 10:08:47 GMT 54.251633 -2.031686 34,000 325 495 0
2021-05-15 10:08:45 GMT 54.247929 -2.027139 34,000 325 495 0
2021-05-15 10:08:42 GMT 54.242523 -2.020621 34,000 326 495 0
2021-05-15 10:08:40 GMT 54.237640 -2.014779 34,000 326 495 0
2021-05-15 10:08:37 GMT 54.232567 -2.008882 34,000 327 495 0
2021-05-15 10:08:35 GMT 54.229752 -2.005633 34,000 327 496 0
2021-05-15 10:08:32 GMT 54.223675 -1.998704 34,000 328 496 0
2021-05-15 10:08:29 GMT 54.217716 -1.992161 34,000 329 496 0
2021-05-15 10:08:26 GMT 54.212082 -1.986183 34,000 329 496 0
2021-05-15 10:08:24 GMT 54.207230 -1.981070 34,000 329 496 0
2021-05-15 10:08:21 GMT 54.202332 -1.976048 34,000 330 495 0
2021-05-15 10:08:18 GMT 54.196442 -1.970026 34,000 330 496 0
2021-05-15 10:08:15 GMT 54.190567 -1.964042 34,000 330 495 0
2021-05-15 10:08:12 GMT 54.183884 -1.957214 34,000 330 495 0
2021-05-15 10:08:09 GMT 54.178799 -1.952012 34,000 330 495 0
2021-05-15 10:08:06 GMT 54.172531 -1.945679 34,000 330 495 0
2021-05-15 10:08:02 GMT 54.164272 -1.937229 34,000 330 495 0
2021-05-15 10:07:59 GMT 54.159386 -1.932301 34,000 329 494 0
2021-05-15 10:07:56 GMT 54.153717 -1.926453 34,000 329 494 0
2021-05-15 10:07:54 GMT 54.150009 -1.922686 34,000 330 495 0
2021-05-15 10:07:52 GMT 54.144333 -1.916879 34,000 330 495 0
2021-05-15 10:07:49 GMT 54.138611 -1.911072 34,000 330 495 0
2021-05-15 10:07:46 GMT 54.134525 -1.906855 34,000 330 495 0
2021-05-15 10:07:44 GMT 54.128632 -1.900870 34,000 330 495 0
2021-05-15 10:07:41 GMT 54.124935 -1.897080 34,000 330 495 0
2021-05-15 10:07:38 GMT 54.117256 -1.889245 34,000 330 495 0
2021-05-15 10:07:35 GMT 54.113342 -1.885254 34,000 330 495 0
2021-05-15 10:07:33 GMT 54.108643 -1.880520 34,000 330 495 0
2021-05-15 10:07:31 GMT 54.097824 -1.869559 34,000 330 495 0
2021-05-15 10:07:28 GMT 54.097824 -1.869559 34,000 330 495 0
2021-05-15 10:07:25 GMT 54.091930 -1.863556 34,000 330 495 0
2021-05-15 10:07:22 GMT 54.080933 -1.852373 34,000 330 495 0
2021-05-15 10:07:19 GMT 54.080933 -1.852373 34,000 330 495 0
2021-05-15 10:07:16 GMT 54.074066 -1.845389 34,000 330 495 0
2021-05-15 10:07:14 GMT 54.070541 -1.841858 34,000 330 495 0
2021-05-15 10:07:12 GMT 54.065441 -1.836656 34,000 330 495 0
2021-05-15 10:07:09 GMT 54.059715 -1.830839 34,000 330 495 0
2021-05-15 10:07:06 GMT 54.054459 -1.825508 34,000 330 495 0
2021-05-15 10:07:04 GMT 54.050919 -1.821872 34,000 330 495 0
2021-05-15 10:07:02 GMT 54.044998 -1.815962 34,000 330 495 0
2021-05-15 10:06:59 GMT 54.035202 -1.805995 34,000 330 495 0
2021-05-15 10:06:56 GMT 54.035202 -1.805995 34,000 330 495 0
2021-05-15 10:06:54 GMT 54.026573 -1.797234 34,000 330 495 0
2021-05-15 10:06:51 GMT 54.026573 -1.797234 34,000 330 495 0
2021-05-15 10:06:49 GMT 54.021057 -1.791635 34,000 330 495 64
2021-05-15 10:06:46 GMT 54.015957 -1.786409 34,000 330 495 0
2021-05-15 10:06:43 GMT 54.009293 -1.779707 34,000 330 495 64
2021-05-15 10:06:40 GMT 54.002224 -1.772515 34,000 330 495 0
2021-05-15 10:06:37 GMT 53.990585 -1.760801 34,000 330 496 0
2021-05-15 10:06:34 GMT 53.990585 -1.760801 34,000 330 496 0
2021-05-15 10:06:31 GMT 53.984489 -1.754662 34,000 330 496 -64
2021-05-15 10:06:28 GMT 53.978390 -1.748523 34,000 330 496 0
2021-05-15 10:06:25 GMT 53.974640 -1.744786 34,000 330 496 0
2021-05-15 10:06:22 GMT 53.968552 -1.738665 34,000 330 495 0
2021-05-15 10:06:19 GMT 53.962654 -1.732689 34,000 330 495 0
2021-05-15 10:06:16 GMT 53.956558 -1.726550 34,000 330 495 0
2021-05-15 10:06:14 GMT 53.953392 -1.723399 34,000 330 495 0
2021-05-15 10:06:11 GMT 53.947712 -1.717664 34,000 330 495 0
2021-05-15 10:06:09 GMT 53.942596 -1.712533 34,000 330 495 0
2021-05-15 10:06:06 GMT 53.936306 -1.706193 34,000 330 495 0
2021-05-15 10:06:04 GMT 53.933167 -1.703038 34,000 330 495 0
2021-05-15 10:06:01 GMT 53.928452 -1.698251 34,000 330 495 0
2021-05-15 10:05:59 GMT 53.922527 -1.692298 34,000 330 495 0
2021-05-15 10:05:56 GMT 53.917007 -1.686794 34,000 330 495 0
2021-05-15 10:05:54 GMT 53.914101 -1.683816 34,000 330 495 0
2021-05-15 10:05:51 GMT 53.908005 -1.677677 34,000 330 495 0
2021-05-15 10:05:48 GMT 53.902279 -1.671941 34,000 330 494 0
2021-05-15 10:05:46 GMT 53.897186 -1.666783 34,000 330 494 0
2021-05-15 10:05:44 GMT 53.893661 -1.663252 34,000 330 494 0
2021-05-15 10:05:41 GMT 53.888763 -1.658308 34,000 330 494 0
2021-05-15 10:05:39 GMT 53.876953 -1.646495 34,000 330 494 0
2021-05-15 10:05:36 GMT 53.876953 -1.646495 34,000 330 495 0
2021-05-15 10:05:34 GMT 53.873650 -1.643102 34,000 330 494 0
2021-05-15 10:05:31 GMT 53.867752 -1.637198 34,000 330 494 0
2021-05-15 10:05:28 GMT 53.863037 -1.632490 34,000 330 494 0
2021-05-15 10:05:26 GMT 53.858139 -1.627546 34,000 330 494 0
2021-05-15 10:05:24 GMT 53.854385 -1.623858 34,000 330 494 0
2021-05-15 10:05:21 GMT 53.849075 -1.618522 34,000 330 494 0
2021-05-15 10:05:19 GMT 53.845345 -1.614829 34,000 330 494 0
2021-05-15 10:05:16 GMT 53.837494 -1.606986 34,000 330 494 0
2021-05-15 10:05:13 GMT 53.833374 -1.602827 34,000 330 494 0
2021-05-15 10:05:11 GMT 53.829609 -1.599076 34,000 330 494 0
2021-05-15 10:05:09 GMT 53.823929 -1.593421 34,000 330 494 0
2021-05-15 10:05:06 GMT 53.818996 -1.588494 34,000 330 494 0
2021-05-15 10:05:03 GMT 53.813690 -1.583243 34,000 330 494 0
2021-05-15 10:05:00 GMT 53.808563 -1.578108 34,000 330 494 0
2021-05-15 10:04:57 GMT 53.801121 -1.570641 34,000 330 494 0
2021-05-15 10:04:55 GMT 53.798325 -1.567894 34,000 330 494 0
2021-05-15 10:04:53 GMT 53.793640 -1.563198 34,000 330 494 0
2021-05-15 10:04:51 GMT 53.789669 -1.559332 34,000 330 494 0
2021-05-15 10:04:48 GMT 53.782791 -1.552447 34,000 330 494 0
2021-05-15 10:04:45 GMT 53.778259 -1.547974 34,000 330 494 0
2021-05-15 10:04:43 GMT 53.773773 -1.543422 34,000 330 494 0
2021-05-15 10:04:41 GMT 53.768860 -1.538571 34,000 330 495 0
2021-05-15 10:04:38 GMT 53.762924 -1.532671 34,000 330 495 0
2021-05-15 10:04:35 GMT 53.758804 -1.528591 34,000 330 495 0
2021-05-15 10:04:33 GMT 53.753681 -1.523464 34,000 330 495 0
2021-05-15 10:04:30 GMT 53.740860 -1.510777 34,000 330 495 0
2021-05-15 10:04:27 GMT 53.740860 -1.510777 34,000 330 495 0
2021-05-15 10:04:24 GMT 53.736923 -1.506853 34,000 330 495 0
2021-05-15 10:04:21 GMT 53.731010 -1.500926 34,000 330 495 0
2021-05-15 10:04:18 GMT 53.719608 -1.489536 34,000 330 496 0
2021-05-15 10:04:15 GMT 53.719608 -1.489536 34,000 330 496 0
2021-05-15 10:04:13 GMT 53.710716 -1.480731 34,000 330 496 0
2021-05-15 10:04:11 GMT 53.710716 -1.480731 34,000 330 496 0
2021-05-15 10:04:08 GMT 53.704010 -1.474051 34,000 330 497 0
2021-05-15 10:04:05 GMT 53.699112 -1.469107 34,000 330 497 0
2021-05-15 10:04:03 GMT 53.694168 -1.464242 34,000 330 497 0
2021-05-15 10:04:01 GMT 53.690231 -1.460318 34,000 330 497 0
2021-05-15 10:03:58 GMT 53.684097 -1.454197 34,000 330 497 0
2021-05-15 10:03:55 GMT 53.679340 -1.449468 34,000 330 497 0
2021-05-15 10:03:53 GMT 53.675381 -1.445591 34,000 330 497 0
2021-05-15 10:03:51 GMT 53.670448 -1.440663 34,000 330 496 0
2021-05-15 10:03:48 GMT 53.665329 -1.435599 34,000 330 496 0
2021-05-15 10:03:45 GMT 53.658623 -1.428869 34,000 330 496 0
2021-05-15 10:03:42 GMT 53.649124 -1.419512 34,000 330 496 0
2021-05-15 10:03:40 GMT 53.649124 -1.419512 34,000 330 496 0
2021-05-15 10:03:37 GMT 53.642212 -1.412685 34,000 330 496 0
2021-05-15 10:03:34 GMT 53.638466 -1.408916 34,000 330 496 0
2021-05-15 10:03:32 GMT 53.635300 -1.405779 34,000 330 496 0
2021-05-15 10:03:30 GMT 53.629166 -1.399737 34,000 330 496 0
2021-05-15 10:03:27 GMT 53.622253 -1.392909 34,000 330 496 0
2021-05-15 10:03:24 GMT 53.617702 -1.388397 34,000 330 496 0
2021-05-15 10:03:21 GMT 53.611561 -1.382339 34,000 330 496 0
2021-05-15 10:03:18 GMT 53.605461 -1.376280 34,000 330 496 0
2021-05-15 10:03:15 GMT 53.600105 -1.370948 34,000 330 496 0
2021-05-15 10:03:13 GMT 53.594753 -1.365698 34,000 330 496 0
2021-05-15 10:03:10 GMT 53.589432 -1.360421 34,000 330 496 0
2021-05-15 10:03:07 GMT 53.582512 -1.353580 34,000 330 497 0
2021-05-15 10:03:04 GMT 53.578972 -1.350026 34,000 330 497 0
2021-05-15 10:03:02 GMT 53.575993 -1.347118 34,000 330 497 0
2021-05-15 10:03:00 GMT 53.569656 -1.340881 34,000 330 497 0
2021-05-15 10:02:57 GMT 53.564529 -1.335781 34,000 330 497 0
2021-05-15 10:02:54 GMT 53.559376 -1.330719 34,000 330 497 0
2021-05-15 10:02:52 GMT 53.555603 -1.327003 34,000 330 497 0
2021-05-15 10:02:50 GMT 53.551647 -1.323045 34,000 330 497 0
2021-05-15 10:02:47 GMT 53.544525 -1.316084 34,000 330 497 0
2021-05-15 10:02:44 GMT 53.536797 -1.308423 34,000 330 497 0
2021-05-15 10:02:41 GMT 53.532467 -1.304142 34,000 330 497 0
2021-05-15 10:02:38 GMT 53.525711 -1.297564 34,000 330 497 0
2021-05-15 10:02:35 GMT 53.520355 -1.292306 34,000 330 497 0
2021-05-15 10:02:32 GMT 53.516602 -1.288618 34,000 330 497 0
2021-05-15 10:02:30 GMT 53.511841 -1.283909 34,000 330 497 0
2021-05-15 10:02:28 GMT 53.507675 -1.279829 34,000 330 497 0
2021-05-15 10:02:26 GMT 53.504303 -1.276514 34,000 330 497 0
2021-05-15 10:02:24 GMT 53.498947 -1.271264 34,000 330 497 0
2021-05-15 10:02:21 GMT 53.492432 -1.264882 34,000 330 497 0
2021-05-15 10:02:18 GMT 53.488056 -1.260600 34,000 330 497 0
2021-05-15 10:02:16 GMT 53.477966 -1.250715 34,000 330 497 0
2021-05-15 10:02:13 GMT 53.477966 -1.250715 34,000 330 497 0
2021-05-15 10:02:11 GMT 53.473434 -1.246242 34,000 330 497 0
2021-05-15 10:02:08 GMT 53.468079 -1.240984 34,000 330 493 0
2021-05-15 10:02:06 GMT 53.464687 -1.237739 34,000 330 497 0
2021-05-15 10:02:04 GMT 53.459976 -1.233058 34,000 330 497 0
2021-05-15 10:02:02 GMT 53.457005 -1.230146 34,000 330 497 0
2021-05-15 10:02:00 GMT 53.452816 -1.226107 34,000 330 497 0
2021-05-15 10:01:58 GMT 53.447880 -1.221260 34,000 330 497 0
2021-05-15 10:01:56 GMT 53.442154 -1.215605 34,000 330 497 0
2021-05-15 10:01:53 GMT 53.439362 -1.212939 34,000 330 497 0
2021-05-15 10:01:51 GMT 53.434204 -1.207868 34,000 330 497 0
2021-05-15 10:01:48 GMT 53.428482 -1.202218 34,000 330 497 0
2021-05-15 10:01:46 GMT 53.425323 -1.199158 34,000 330 497 0
2021-05-15 10:01:44 GMT 53.419189 -1.193115 34,000 330 497 0
2021-05-15 10:01:41 GMT 53.408314 -1.182484 34,000 330 496 0
2021-05-15 10:01:38 GMT 53.405518 -1.179819 34,000 330 496 0
2021-05-15 10:01:36 GMT 53.405518 -1.179819 34,000 330 496 0
2021-05-15 10:01:34 GMT 53.400585 -1.174972 34,000 330 496 0
2021-05-15 10:01:32 GMT 53.396851 -1.171300 34,000 330 496 0
2021-05-15 10:01:30 GMT 53.392857 -1.167378 34,000 330 496 0
2021-05-15 10:01:28 GMT 53.389114 -1.163766 34,000 330 496 0
2021-05-15 10:01:26 GMT 53.385361 -1.160078 34,000 330 496 0
2021-05-15 10:01:24 GMT 53.379822 -1.154695 34,000 330 496 0
2021-05-15 10:01:21 GMT 53.374096 -1.149041 34,000 330 496 0
2021-05-15 10:01:18 GMT 53.369160 -1.144275 34,000 330 496 0
2021-05-15 10:01:16 GMT 53.363617 -1.138811 34,000 330 496 0
2021-05-15 10:01:13 GMT 53.358856 -1.134181 34,000 330 496 0
2021-05-15 10:01:10 GMT 53.352917 -1.128361 34,000 330 495 0
2021-05-15 10:01:07 GMT 53.347607 -1.123190 34,000 330 495 0
2021-05-15 10:01:04 GMT 53.339088 -1.114870 34,000 330 496 0
2021-05-15 10:01:01 GMT 53.335144 -1.111032 34,000 330 495 0
2021-05-15 10:00:58 GMT 53.329010 -1.105068 34,000 330 495 0
2021-05-15 10:00:56 GMT 53.325264 -1.101460 34,000 330 494 0
2021-05-15 10:00:53 GMT 53.319305 -1.095729 34,000 330 494 0
2021-05-15 10:00:50 GMT 53.313019 -1.089585 34,000 330 494 0
2021-05-15 10:00:47 GMT 53.308044 -1.084821 34,000 330 493 0
2021-05-15 10:00:45 GMT 53.301956 -1.078857 34,000 330 493 0
2021-05-15 10:00:42 GMT 53.297791 -1.074855 34,000 330 493 0
2021-05-15 10:00:39 GMT 53.290878 -1.068185 34,000 330 492 0
2021-05-15 10:00:36 GMT 53.284790 -1.062221 34,000 330 492 0
2021-05-15 10:00:33 GMT 53.278477 -1.056142 34,000 330 492 0
2021-05-15 10:00:30 GMT 53.274567 -1.052345 34,000 330 492 0
2021-05-15 10:00:28 GMT 53.270599 -1.048488 34,000 330 492 0
2021-05-15 10:00:26 GMT 53.264324 -1.042409 34,000 330 492 0
2021-05-15 10:00:23 GMT 53.259979 -1.038130 34,000 330 492 0
2021-05-15 10:00:20 GMT 53.255482 -1.033765 34,000 330 492 0
2021-05-15 10:00:18 GMT 53.249802 -1.028272 34,000 330 492 0
2021-05-15 10:00:15 GMT 53.242722 -1.021336 34,000 330 492 0
2021-05-15 10:00:12 GMT 53.238556 -1.017334 34,000 330 492 0
2021-05-15 10:00:10 GMT 53.233887 -1.012783 34,000 330 492 0
2021-05-15 10:00:07 GMT 53.228760 -1.007834 34,000 330 492 0
2021-05-15 10:00:05 GMT 53.224457 -1.003680 34,000 330 492 0
2021-05-15 10:00:03 GMT 53.218735 -0.998108 34,000 330 492 0
2021-05-15 10:00:00 GMT 53.215210 -0.994734 34,000 330 492 0
2021-05-15 09:59:58 GMT 53.211674 -0.991274 34,000 330 492 0
2021-05-15 09:59:55 GMT 53.203995 -0.983842 34,000 330 492 0
2021-05-15 09:59:52 GMT 53.198914 -0.978960 34,000 330 492 0
2021-05-15 09:59:49 GMT 53.194962 -0.975117 34,000 330 492 0
2021-05-15 09:59:47 GMT 53.190079 -0.970407 34,000 330 492 0
2021-05-15 09:59:45 GMT 53.184956 -0.965424 34,000 330 492 0
2021-05-15 09:59:42 GMT 53.178856 -0.959527 34,000 330 491 0
2021-05-15 09:59:39 GMT 53.173737 -0.954633 34,000 330 491 0
2021-05-15 09:59:37 GMT 53.165497 -0.946682 34,000 330 491 0
2021-05-15 09:59:35 GMT 53.165497 -0.946682 34,000 330 491 0
2021-05-15 09:59:32 GMT 53.159225 -0.940665 34,000 330 491 0
2021-05-15 09:59:29 GMT 53.155300 -0.936908 34,000 330 491 0
2021-05-15 09:59:27 GMT 53.150970 -0.932707 34,000 330 490 0
2021-05-15 09:59:25 GMT 53.145905 -0.927795 34,000 330 490 0
2021-05-15 09:59:23 GMT 53.142776 -0.924790 34,000 330 490 0
2021-05-15 09:59:20 GMT 53.135696 -0.917986 34,000 330 489 0
2021-05-15 09:59:17 GMT 53.130627 -0.913158 34,000 330 489 0
2021-05-15 09:59:15 GMT 53.125534 -0.908255 34,000 330 489 0
2021-05-15 09:59:12 GMT 53.120682 -0.903547 34,000 330 488 0
2021-05-15 09:59:09 GMT 53.116745 -0.899780 34,000 330 488 0
2021-05-15 09:59:07 GMT 53.110519 -0.893738 34,000 330 488 0
2021-05-15 09:59:05 GMT 53.105629 -0.889004 34,000 330 488 0
2021-05-15 09:59:02 GMT 53.101112 -0.884723 34,000 330 488 0
2021-05-15 09:58:59 GMT 53.095852 -0.879633 34,000 330 488 0
2021-05-15 09:58:56 GMT 53.088821 -0.872879 34,000 330 488 0
2021-05-15 09:58:53 GMT 53.082001 -0.866318 34,000 330 488 0
2021-05-15 09:58:50 GMT 53.076904 -0.861407 34,000 330 488 0
2021-05-15 09:58:47 GMT 53.071426 -0.856171 34,000 330 488 0
2021-05-15 09:58:45 GMT 53.060707 -0.845869 34,000 330 488 0
2021-05-15 09:58:42 GMT 53.060707 -0.845869 34,000 330 488 0
2021-05-15 09:58:39 GMT 53.054653 -0.840062 34,000 331 488 0
2021-05-15 09:58:36 GMT 53.042358 -0.828247 34,000 331 488 0
2021-05-15 09:58:33 GMT 53.042358 -0.828247 34,000 331 488 0
2021-05-15 09:58:30 GMT 53.036682 -0.822830 34,000 331 488 0
2021-05-15 09:58:27 GMT 53.032963 -0.819345 34,000 331 488 0
2021-05-15 09:58:25 GMT 53.028259 -0.814819 34,000 331 488 0
2021-05-15 09:58:22 GMT 53.018715 -0.805690 34,000 331 488 0
2021-05-15 09:58:19 GMT 53.018715 -0.805690 34,000 331 488 0
2021-05-15 09:58:17 GMT 53.012665 -0.799883 34,000 331 488 0
2021-05-15 09:58:14 GMT 53.005402 -0.792977 34,000 331 488 0
2021-05-15 09:58:11 GMT 53.001114 -0.788879 34,000 331 488 0
2021-05-15 09:58:08 GMT 52.995255 -0.783325 34,000 331 488 0
2021-05-15 09:58:05 GMT 52.989388 -0.777675 34,000 331 487 0
2021-05-15 09:58:02 GMT 52.984127 -0.772653 34,000 331 487 0
2021-05-15 09:58:00 GMT 52.979462 -0.768204 34,000 331 487 0
2021-05-15 09:57:57 GMT 52.974564 -0.763550 34,000 331 487 0
2021-05-15 09:57:55 GMT 52.969299 -0.758514 34,000 331 487 0
2021-05-15 09:57:52 GMT 52.962666 -0.752250 34,000 330 487 0
2021-05-15 09:57:49 GMT 52.952957 -0.742874 34,000 330 487 0
2021-05-15 09:57:46 GMT 52.952957 -0.742874 34,000 330 487 0
2021-05-15 09:57:43 GMT 52.947491 -0.737653 34,000 331 486 0
2021-05-15 09:57:40 GMT 52.940647 -0.731219 34,000 331 486 0
2021-05-15 09:57:37 GMT 52.935196 -0.726013 34,000 331 486 0
2021-05-15 09:57:35 GMT 52.931305 -0.722275 34,000 331 486 0
2021-05-15 09:57:32 GMT 52.925262 -0.716476 34,000 331 486 0
2021-05-15 09:57:29 GMT 52.920410 -0.711823 34,000 331 486 0
2021-05-15 09:57:27 GMT 52.915371 -0.707049 34,000 331 486 0
2021-05-15 09:57:25 GMT 52.912033 -0.703888 34,000 331 486 0
2021-05-15 09:57:22 GMT 52.904663 -0.696847 34,000 331 486 0
2021-05-15 09:57:19 GMT 52.899776 -0.692217 34,000 331 486 0
2021-05-15 09:57:16 GMT 52.893951 -0.686646 34,000 331 486 0
2021-05-15 09:57:14 GMT 52.890610 -0.683517 34,000 331 486 0
2021-05-15 09:57:11 GMT 52.884972 -0.678170 34,000 331 486 0
2021-05-15 09:57:09 GMT 52.879898 -0.673294 34,000 331 486 0
2021-05-15 09:57:06 GMT 52.876007 -0.669632 34,000 331 486 0
2021-05-15 09:57:04 GMT 52.870377 -0.664291 34,000 331 486 0
2021-05-15 09:57:01 GMT 52.864746 -0.658875 34,000 331 486 0
2021-05-15 09:56:58 GMT 52.857132 -0.651646 34,000 331 486 0
2021-05-15 09:56:55 GMT 52.852661 -0.647430 34,000 331 486 0
2021-05-15 09:56:52 GMT 52.846798 -0.641915 34,000 331 486 0
2021-05-15 09:56:49 GMT 52.842701 -0.637992 34,000 331 486 0
2021-05-15 09:56:47 GMT 52.838234 -0.633754 34,000 331 486 0
2021-05-15 09:56:44 GMT 52.831604 -0.627518 34,000 331 486 0
2021-05-15 09:56:41 GMT 52.825974 -0.622177 34,000 331 486 0
2021-05-15 09:56:39 GMT 52.821472 -0.617902 34,000 331 485 0
2021-05-15 09:56:36 GMT 52.816631 -0.613351 34,000 331 485 0
2021-05-15 09:56:34 GMT 52.811371 -0.608407 34,000 331 485 0
2021-05-15 09:56:31 GMT 52.806290 -0.603561 34,000 331 485 0
2021-05-15 09:56:28 GMT 52.799515 -0.597153 34,000 331 485 0
2021-05-15 09:56:25 GMT 52.795395 -0.593338 34,000 331 485 0
2021-05-15 09:56:23 GMT 52.784885 -0.583374 34,000 331 485 0
2021-05-15 09:56:20 GMT 52.784885 -0.583374 34,000 331 485 0
2021-05-15 09:56:17 GMT 52.779251 -0.578038 34,000 331 485 0
2021-05-15 09:56:15 GMT 52.775391 -0.574417 34,000 331 485 0
2021-05-15 09:56:13 GMT 52.765659 -0.565247 34,000 331 485 0
2021-05-15 09:56:10 GMT 52.765659 -0.565247 34,000 331 485 0
2021-05-15 09:56:07 GMT 52.759651 -0.559518 34,000 331 485 0
2021-05-15 09:56:04 GMT 52.753418 -0.553665 34,000 331 485 0
2021-05-15 09:56:01 GMT 52.744476 -0.545157 34,000 331 485 0
2021-05-15 09:55:59 GMT 52.744476 -0.545157 34,000 331 485 0
2021-05-15 09:55:56 GMT 52.738678 -0.539703 34,000 331 485 0
2021-05-15 09:55:54 GMT 52.733631 -0.534956 34,000 331 484 0
2021-05-15 09:55:51 GMT 52.730301 -0.531845 34,000 331 484 0
2021-05-15 09:55:49 GMT 52.726044 -0.527815 34,000 331 484 0
2021-05-15 09:55:47 GMT 52.720963 -0.523071 34,000 331 484 0
2021-05-15 09:55:44 GMT 52.714359 -0.516828 34,000 331 484 0
2021-05-15 09:55:41 GMT 52.709335 -0.512085 34,000 331 484 0
2021-05-15 09:55:39 GMT 52.706039 -0.509033 34,000 331 484 0
2021-05-15 09:55:36 GMT 52.699219 -0.502625 34,000 331 484 0
2021-05-15 09:55:34 GMT 52.691254 -0.495224 34,000 331 484 0
2021-05-15 09:55:31 GMT 52.687405 -0.491560 34,000 331 483 0
2021-05-15 09:55:29 GMT 52.687405 -0.491560 34,000 331 483 0
2021-05-15 09:55:27 GMT 52.682739 -0.487213 34,000 331 483 0
2021-05-15 09:55:24 GMT 52.672646 -0.477748 34,000 331 483 0
2021-05-15 09:55:22 GMT 52.665058 -0.470686 34,000 331 483 0
2021-05-15 09:55:19 GMT 52.665058 -0.470686 34,000 331 483 0
2021-05-15 09:55:16 GMT 52.661179 -0.466995 34,000 331 483 0
2021-05-15 09:55:14 GMT 52.653839 -0.460092 34,000 331 483 0
2021-05-15 09:55:12 GMT 52.653839 -0.460092 34,000 331 483 0
2021-05-15 09:55:09 GMT 52.649185 -0.455780 34,000 331 483 0
2021-05-15 09:55:07 GMT 52.643143 -0.450058 34,000 331 483 0
2021-05-15 09:55:04 GMT 52.636734 -0.444107 34,000 331 483 0
2021-05-15 09:55:01 GMT 52.630936 -0.438590 34,000 331 484 0
2021-05-15 09:54:58 GMT 52.627075 -0.434952 34,000 331 483 0
2021-05-15 09:54:55 GMT 52.614876 -0.423444 34,000 331 483 0
2021-05-15 09:54:52 GMT 52.614876 -0.423444 34,000 331 483 0
2021-05-15 09:54:49 GMT 52.608826 -0.417794 34,000 331 483 0
2021-05-15 09:54:47 GMT 52.603981 -0.413243 34,000 331 483 0
2021-05-15 09:54:45 GMT 52.601280 -0.410732 34,000 331 483 0
2021-05-15 09:54:42 GMT 52.593933 -0.403824 34,000 331 483 0
2021-05-15 09:54:39 GMT 52.590015 -0.400216 34,000 331 483 0
2021-05-15 09:54:37 GMT 52.585007 -0.395508 34,000 331 483 0
2021-05-15 09:54:34 GMT 52.578186 -0.389099 34,000 331 483 0
2021-05-15 09:54:31 GMT 52.573536 -0.384757 34,000 331 483 0
2021-05-15 09:54:28 GMT 52.567158 -0.378793 34,000 331 483 0
2021-05-15 09:54:25 GMT 52.555290 -0.367728 34,000 331 484 0
2021-05-15 09:54:22 GMT 52.555290 -0.367728 34,000 331 484 0
2021-05-15 09:54:19 GMT 52.548725 -0.361607 34,000 331 484 0
2021-05-15 09:54:16 GMT 52.545979 -0.359018 34,000 331 484 0
2021-05-15 09:54:14 GMT 52.541519 -0.354919 34,000 331 484 0
2021-05-15 09:54:12 GMT 52.537445 -0.351105 34,000 331 483 0
2021-05-15 09:54:09 GMT 52.531036 -0.345154 34,000 331 484 0
2021-05-15 09:54:07 GMT 52.526752 -0.341204 34,000 331 484 0
2021-05-15 09:54:04 GMT 52.522293 -0.336990 34,000 331 484 0
2021-05-15 09:54:02 GMT 52.517029 -0.332108 34,000 331 484 0
2021-05-15 09:53:59 GMT 52.511993 -0.327471 34,000 331 484 0
2021-05-15 09:53:57 GMT 52.507526 -0.323312 34,000 331 484 0
2021-05-15 09:53:54 GMT 52.502106 -0.318222 34,000 331 484 0
2021-05-15 09:53:51 GMT 52.496475 -0.313034 34,000 331 484 0
2021-05-15 09:53:48 GMT 52.490627 -0.307617 34,000 331 484 0
2021-05-15 09:53:45 GMT 52.483658 -0.301056 34,000 331 484 0
2021-05-15 09:53:42 GMT 52.472397 -0.290604 34,000 331 483 0
2021-05-15 09:53:39 GMT 52.472397 -0.290604 34,000 331 483 0
2021-05-15 09:53:37 GMT 52.468140 -0.286560 34,000 331 483 0
2021-05-15 09:53:34 GMT 52.461533 -0.280465 34,000 331 483 0
2021-05-15 09:53:31 GMT 52.457657 -0.276794 34,000 331 483 0
2021-05-15 09:53:29 GMT 52.453014 -0.272461 34,000 331 483 0
2021-05-15 09:53:27 GMT 52.448914 -0.268707 34,000 331 483 0
2021-05-15 09:53:24 GMT 52.444633 -0.264692 34,000 331 483 0
2021-05-15 09:53:22 GMT 52.439049 -0.259513 34,000 331 483 0
2021-05-15 09:53:19 GMT 52.433212 -0.254059 34,000 331 483 0
2021-05-15 09:53:16 GMT 52.428955 -0.250092 34,000 331 483 0
2021-05-15 09:53:14 GMT 52.424664 -0.246172 34,000 331 483 0
2021-05-15 09:53:12 GMT 52.420029 -0.241852 34,000 331 483 0
2021-05-15 09:53:10 GMT 52.416328 -0.238403 34,000 331 482 0
2021-05-15 09:53:07 GMT 52.410553 -0.233002 34,000 331 482 0
2021-05-15 09:53:04 GMT 52.404510 -0.227432 34,000 331 482 0
2021-05-15 09:53:02 GMT 52.400482 -0.223694 34,000 331 482 0
2021-05-15 09:52:59 GMT 52.394440 -0.218124 34,000 331 482 0
2021-05-15 09:52:57 GMT 52.390961 -0.214844 34,000 331 482 0
2021-05-15 09:52:54 GMT 52.385559 -0.209839 34,000 331 482 0
2021-05-15 09:52:51 GMT 52.378967 -0.203781 34,000 331 482 0
2021-05-15 09:52:48 GMT 52.372147 -0.197525 34,000 331 482 0
2021-05-15 09:52:45 GMT 52.369267 -0.194850 34,000 331 482 0
2021-05-15 09:52:43 GMT 52.363449 -0.189438 34,000 331 482 0
2021-05-15 09:52:40 GMT 52.356464 -0.183001 34,000 331 482 0
2021-05-15 09:52:38 GMT 52.356464 -0.183001 34,000 331 482 0
2021-05-15 09:52:36 GMT 52.350266 -0.177307 34,000 331 482 0
2021-05-15 09:52:33 GMT 52.346363 -0.173741 34,000 331 482 0
2021-05-15 09:52:31 GMT 52.340359 -0.168169 34,000 331 482 0
2021-05-15 09:52:29 GMT 52.336716 -0.164795 34,000 331 482 0
2021-05-15 09:52:27 GMT 52.332642 -0.161057 34,000 331 482 0
2021-05-15 09:52:24 GMT 52.327011 -0.155869 34,000 331 482 0
2021-05-15 09:52:21 GMT 52.321594 -0.150827 34,000 331 482 0
2021-05-15 09:52:18 GMT 52.315018 -0.144806 34,000 331 482 0
2021-05-15 09:52:15 GMT 52.310375 -0.140547 34,000 331 482 0
2021-05-15 09:52:12 GMT 52.302979 -0.133743 34,000 331 482 0
2021-05-15 09:52:09 GMT 52.298367 -0.129482 34,000 331 481 0
2021-05-15 09:52:07 GMT 52.292953 -0.124512 34,000 331 480 0
2021-05-15 09:52:04 GMT 52.289062 -0.120926 34,000 331 480 0
2021-05-15 09:52:01 GMT 52.283237 -0.115592 34,000 331 480 0
2021-05-15 09:51:58 GMT 52.277069 -0.109940 34,000 331 481 0
2021-05-15 09:51:55 GMT 52.271439 -0.104752 34,000 331 481 0
2021-05-15 09:51:53 GMT 52.266998 -0.100632 34,000 331 481 0
2021-05-15 09:51:50 GMT 52.261963 -0.096052 34,000 331 481 0
2021-05-15 09:51:48 GMT 52.257706 -0.092087 34,000 331 481 0
2021-05-15 09:51:46 GMT 52.250000 -0.084987 34,000 331 481 0
2021-05-15 09:51:44 GMT 52.250000 -0.084987 34,000 331 481 0
2021-05-15 09:51:42 GMT 52.246307 -0.081635 34,000 331 480 0
2021-05-15 09:51:40 GMT 52.242645 -0.078201 34,000 331 480 0
2021-05-15 09:51:38 GMT 52.237988 -0.074001 34,000 331 480 0
2021-05-15 09:51:36 GMT 52.235287 -0.071490 34,000 331 480 0
2021-05-15 09:51:34 GMT 52.224068 -0.061210 34,000 331 481 0
2021-05-15 09:51:31 GMT 52.224068 -0.061210 34,000 331 481 0
2021-05-15 09:51:28 GMT 52.220207 -0.057678 34,000 331 480 0
2021-05-15 09:51:26 GMT 52.216110 -0.053911 34,000 331 481 0
2021-05-15 09:51:23 GMT 52.208771 -0.047226 34,000 331 481 0
2021-05-15 09:51:20 GMT 52.204697 -0.043488 34,000 331 481 0
2021-05-15 09:51:18 GMT 52.200047 -0.039237 34,000 331 481 0
2021-05-15 09:51:16 GMT 52.196186 -0.035706 34,000 331 481 0
2021-05-15 09:51:13 GMT 52.189758 -0.029899 34,000 331 481 0
2021-05-15 09:51:10 GMT 52.185516 -0.025940 34,000 331 481 0
2021-05-15 09:51:08 GMT 52.175629 -0.016937 34,000 331 481 0
2021-05-15 09:51:06 GMT 52.175629 -0.016937 34,000 331 482 0
2021-05-15 09:51:03 GMT 52.169788 -0.011614 34,000 331 483 0
2021-05-15 09:51:00 GMT 52.165321 -0.007533 34,000 331 483 0
2021-05-15 09:50:58 GMT 52.161270 -0.003767 34,000 331 483 0
2021-05-15 09:50:56 GMT 52.155640 0.001413 34,000 331 483 0
2021-05-15 09:50:53 GMT 52.152145 0.004630 34,000 331 483 0
2021-05-15 09:50:50 GMT 52.146515 0.009731 34,000 331 483 0
2021-05-15 09:50:48 GMT 52.141846 0.014038 34,000 331 483 0
2021-05-15 09:50:46 GMT 52.131149 0.023778 34,000 331 483 0
2021-05-15 09:50:43 GMT 52.131149 0.023778 34,000 331 483 0
2021-05-15 09:50:40 GMT 52.125504 0.028992 34,000 331 483 0
2021-05-15 09:50:38 GMT 52.122208 0.031967 34,000 331 483 0
2021-05-15 09:50:36 GMT 52.117184 0.036569 34,000 331 483 0
2021-05-15 09:50:33 GMT 52.111923 0.041356 34,000 331 483 0
2021-05-15 09:50:30 GMT 52.106873 0.046005 34,000 331 482 0
2021-05-15 09:50:28 GMT 52.102982 0.049515 34,000 331 482 0
2021-05-15 09:50:26 GMT 52.097763 0.054321 34,000 331 482 0
2021-05-15 09:50:23 GMT 52.093277 0.058365 34,000 331 482 0
2021-05-15 09:50:21 GMT 52.088417 0.062857 34,000 331 482 0
2021-05-15 09:50:18 GMT 52.082783 0.067958 34,000 331 482 0
2021-05-15 09:50:16 GMT 52.078903 0.071487 34,000 331 482 0
2021-05-15 09:50:13 GMT 52.073891 0.076041 34,000 331 482 0
2021-05-15 09:50:10 GMT 52.067642 0.081711 34,000 331 481 0
2021-05-15 09:50:08 GMT 52.064770 0.084359 34,000 331 481 0
2021-05-15 09:50:06 GMT 52.059505 0.089068 34,000 331 481 0
2021-05-15 09:50:03 GMT 52.053131 0.094875 34,000 331 481 0
2021-05-15 09:50:00 GMT 52.049217 0.098406 34,000 331 481 0
2021-05-15 09:49:58 GMT 52.039352 0.107422 34,000 331 481 0
2021-05-15 09:49:56 GMT 52.039352 0.107422 34,000 331 481 0
2021-05-15 09:49:53 GMT 52.033722 0.112534 34,000 331 481 0
2021-05-15 09:49:50 GMT 52.027897 0.117789 34,000 331 481 0
2021-05-15 09:49:47 GMT 52.022682 0.122576 34,000 331 481 0
2021-05-15 09:49:44 GMT 52.018616 0.126266 34,000 331 481 0
2021-05-15 09:49:42 GMT 52.014725 0.129796 34,000 331 481 0
2021-05-15 09:49:40 GMT 52.010300 0.133798 34,000 331 481 0
2021-05-15 09:49:38 GMT 52.005432 0.138245 34,000 331 481 0
2021-05-15 09:49:36 GMT 52.001968 0.141410 34,000 331 481 0
2021-05-15 09:49:34 GMT 51.997684 0.145255 34,000 331 481 0
2021-05-15 09:49:31 GMT 51.990936 0.151376 34,000 331 481 0
2021-05-15 09:49:28 GMT 51.986252 0.155640 34,000 331 481 0
2021-05-15 09:49:26 GMT 51.980667 0.160675 34,000 331 481 0
2021-05-15 09:49:23 GMT 51.975620 0.165266 34,000 331 481 0
2021-05-15 09:49:20 GMT 51.969986 0.170367 34,000 331 481 0
2021-05-15 09:49:17 GMT 51.964188 0.175552 34,000 331 481 0
2021-05-15 09:49:14 GMT 51.958740 0.180511 34,000 331 481 0
2021-05-15 09:49:12 GMT 51.954666 0.184174 34,000 331 481 0
2021-05-15 09:49:09 GMT 51.949448 0.188904 34,000 331 481 0
2021-05-15 09:49:07 GMT 51.945595 0.192418 34,000 331 481 0
2021-05-15 09:49:05 GMT 51.943039 0.194702 34,000 331 481 0
2021-05-15 09:49:03 GMT 51.938610 0.198696 34,000 331 481 0
2021-05-15 09:49:00 GMT 51.932785 0.203934 34,000 331 481 0
2021-05-15 09:48:58 GMT 51.928665 0.207596 34,000 331 481 0
2021-05-15 09:48:56 GMT 51.923813 0.212021 34,000 331 481 0
2021-05-15 09:48:53 GMT 51.917244 0.217922 34,000 331 481 0
2021-05-15 09:48:50 GMT 51.912357 0.222316 34,000 331 482 0
2021-05-15 09:48:47 GMT 51.906738 0.227356 34,000 331 482 0
2021-05-15 09:48:45 GMT 51.903648 0.230164 34,000 331 482 0
2021-05-15 09:48:43 GMT 51.898762 0.234558 34,000 331 481 0
2021-05-15 09:48:41 GMT 51.895691 0.237383 34,000 331 481 0
2021-05-15 09:48:39 GMT 51.891220 0.241394 34,000 331 481 0
2021-05-15 09:48:37 GMT 51.888474 0.243912 34,000 331 481 0
2021-05-15 09:48:35 GMT 51.878586 0.252834 34,000 331 481 0
2021-05-15 09:48:33 GMT 51.878586 0.252834 34,000 331 481 0
2021-05-15 09:48:30 GMT 51.873577 0.257416 34,000 331 481 0
2021-05-15 09:48:28 GMT 51.870461 0.260162 34,000 331 481 0
2021-05-15 09:48:26 GMT 51.864826 0.265274 34,000 331 481 0
2021-05-15 09:48:23 GMT 51.859772 0.269833 34,000 331 481 0
2021-05-15 09:48:20 GMT 51.853977 0.275116 34,000 331 481 0
2021-05-15 09:48:17 GMT 51.849289 0.279261 34,000 331 481 0
2021-05-15 09:48:15 GMT 51.837296 0.290098 34,000 331 481 0
2021-05-15 09:48:12 GMT 51.837296 0.290098 34,000 331 481 0
2021-05-15 09:48:09 GMT 51.833405 0.293587 34,000 331 481 0
2021-05-15 09:48:07 GMT 51.829494 0.297089 34,000 331 481 0
2021-05-15 09:48:05 GMT 51.824844 0.301233 34,000 331 480 0
2021-05-15 09:48:02 GMT 51.819809 0.305786 34,000 331 480 0
2021-05-15 09:48:00 GMT 51.815155 0.309906 34,000 331 480 0
2021-05-15 09:47:58 GMT 51.813385 0.311508 34,000 331 480 0
2021-05-15 09:47:56 GMT 51.807568 0.316696 34,000 331 480 0
2021-05-15 09:47:53 GMT 51.801189 0.322495 34,000 331 480 0
2021-05-15 09:47:50 GMT 51.796349 0.326843 34,000 331 480 0
2021-05-15 09:47:48 GMT 51.791702 0.331000 34,000 331 480 0
2021-05-15 09:47:45 GMT 51.785660 0.336419 34,000 331 480 0
2021-05-15 09:47:42 GMT 51.781998 0.339760 34,000 331 480 0
2021-05-15 09:47:40 GMT 51.777168 0.344086 34,000 331 480 0
2021-05-15 09:47:38 GMT 51.773254 0.347554 34,000 331 480 0
2021-05-15 09:47:36 GMT 51.769814 0.350723 34,000 331 480 0
2021-05-15 09:47:34 GMT 51.766319 0.353851 34,000 331 480 0
2021-05-15 09:47:32 GMT 51.761433 0.358200 34,000 331 480 0
2021-05-15 09:47:29 GMT 51.755474 0.363541 34,000 331 480 0
2021-05-15 09:47:27 GMT 51.747513 0.370636 34,000 331 480 0
2021-05-15 09:47:25 GMT 51.747513 0.370636 34,000 331 480 0
2021-05-15 09:47:22 GMT 51.743420 0.374298 34,000 331 480 0
2021-05-15 09:47:20 GMT 51.737595 0.379474 34,000 332 481 0
2021-05-15 09:47:17 GMT 51.726753 0.389175 34,000 331 480 0
2021-05-15 09:47:15 GMT 51.726753 0.389175 34,000 331 480 0
2021-05-15 09:47:12 GMT 51.721909 0.393524 34,000 331 479 0
2021-05-15 09:47:09 GMT 51.717636 0.397289 34,000 331 480 0
2021-05-15 09:47:07 GMT 51.712181 0.402145 34,000 331 480 0
2021-05-15 09:47:05 GMT 51.707153 0.406647 34,000 331 480 0
2021-05-15 09:47:02 GMT 51.702484 0.410800 34,000 331 480 0
2021-05-15 09:46:59 GMT 51.698456 0.414437 34,000 331 480 0
2021-05-15 09:46:57 GMT 51.693001 0.419235 34,000 331 479 0
2021-05-15 09:46:55 GMT 51.690125 0.421860 34,000 331 479 0
2021-05-15 09:46:52 GMT 51.682938 0.428244 34,000 331 479 0
2021-05-15 09:46:49 GMT 51.677917 0.432739 34,000 331 479 0
2021-05-15 09:46:46 GMT 51.671124 0.438766 34,000 331 479 0
2021-05-15 09:46:43 GMT 51.666328 0.443115 34,000 331 479 0
2021-05-15 09:46:41 GMT 51.662613 0.446357 34,000 332 478 0
2021-05-15 09:46:38 GMT 51.656040 0.452271 34,000 332 478 0
2021-05-15 09:46:36 GMT 51.652954 0.454968 34,000 332 478 0
2021-05-15 09:46:34 GMT 51.650253 0.457417 34,000 332 478 0
2021-05-15 09:46:32 GMT 51.645813 0.461352 34,000 332 478 0
2021-05-15 09:46:30 GMT 51.640770 0.465851 34,000 332 478 0
2021-05-15 09:46:27 GMT 51.635559 0.470482 34,000 331 478 0
2021-05-15 09:46:25 GMT 51.629974 0.475456 34,000 331 478 0
2021-05-15 09:46:22 GMT 51.625168 0.479761 34,000 331 478 0
2021-05-15 09:46:19 GMT 51.618984 0.485306 34,000 331 478 0
2021-05-15 09:46:16 GMT 51.613953 0.489708 34,000 331 478 0
2021-05-15 09:46:14 GMT 51.611629 0.491791 34,000 331 478 0
2021-05-15 09:46:12 GMT 51.607391 0.495605 34,000 331 477 0
2021-05-15 09:46:10 GMT 51.602970 0.499496 34,000 331 477 0
2021-05-15 09:46:08 GMT 51.598129 0.503845 34,000 331 477 0
2021-05-15 09:46:06 GMT 51.595047 0.506559 34,000 331 477 0
2021-05-15 09:46:04 GMT 51.591797 0.509491 34,000 331 477 0
2021-05-15 09:46:02 GMT 51.587746 0.513077 34,000 331 477 0
2021-05-15 09:45:59 GMT 51.582581 0.517731 34,000 331 477 0
2021-05-15 09:45:57 GMT 51.579086 0.520782 34,000 332 476 0
2021-05-15 09:45:55 GMT 51.572937 0.526305 34,000 332 476 0
2021-05-15 09:45:52 GMT 51.567543 0.531082 34,000 332 476 0
2021-05-15 09:45:49 GMT 51.562546 0.535509 34,000 332 476 0
2021-05-15 09:45:47 GMT 51.558514 0.539093 34,000 332 475 0
2021-05-15 09:45:44 GMT 51.553894 0.543229 34,000 332 475 0
2021-05-15 09:45:42 GMT 51.548923 0.547638 34,000 332 475 0
2021-05-15 09:45:40 GMT 51.544510 0.551543 34,000 332 475 0
2021-05-15 09:45:37 GMT 51.540848 0.554810 34,000 332 475 0
2021-05-15 09:45:35 GMT 51.535263 0.559783 34,000 332 475 0
2021-05-15 09:45:32 GMT 51.530254 0.564194 34,000 332 475 0
2021-05-15 09:45:29 GMT 51.524689 0.569136 34,000 332 475 0
2021-05-15 09:45:27 GMT 51.519516 0.573664 34,000 332 474 0
2021-05-15 09:45:25 GMT 51.516850 0.576096 34,000 332 474 0
2021-05-15 09:45:22 GMT 51.510517 0.581665 34,000 332 474 0
2021-05-15 09:45:19 GMT 51.503586 0.587769 34,000 332 474 0
2021-05-15 09:45:16 GMT 51.498779 0.592000 34,000 332 474 0
2021-05-15 09:45:13 GMT 51.492828 0.597229 34,000 332 474 0
2021-05-15 09:45:11 GMT 51.488823 0.600739 34,000 332 473 0
2021-05-15 09:45:08 GMT 51.483032 0.605807 34,000 332 473 0
2021-05-15 09:45:06 GMT 51.480537 0.608063 34,000 332 473 0
2021-05-15 09:45:04 GMT 51.476162 0.611954 34,000 332 474 0
2021-05-15 09:45:02 GMT 51.470203 0.617218 34,000 331 473 0
2021-05-15 09:44:59 GMT 51.466003 0.620950 34,000 331 473 0
2021-05-15 09:44:57 GMT 51.462387 0.624142 34,000 331 473 0
2021-05-15 09:44:55 GMT 51.458542 0.627557 34,000 331 473 0
2021-05-15 09:44:52 GMT 51.453003 0.632456 34,000 331 473 0
2021-05-15 09:44:49 GMT 51.448044 0.636902 34,000 332 473 -64
2021-05-15 09:44:47 GMT 51.443069 0.641290 34,000 332 473 0
2021-05-15 09:44:43 GMT 51.435009 0.648422 34,000 332 473 0
2021-05-15 09:44:41 GMT 51.432129 0.650940 34,000 332 473 0
2021-05-15 09:44:38 GMT 51.426590 0.655839 34,000 332 473 0
2021-05-15 09:44:36 GMT 51.422951 0.659103 34,000 331 473 0
2021-05-15 09:44:34 GMT 51.418205 0.663300 34,000 331 473 0
2021-05-15 09:44:32 GMT 51.412663 0.668259 34,000 331 473 0
2021-05-15 09:44:29 GMT 51.408829 0.671576 34,000 331 473 0
2021-05-15 09:44:27 GMT 51.404423 0.675507 34,000 332 473 0
2021-05-15 09:44:24 GMT 51.392029 0.686497 34,000 332 473 0
2021-05-15 09:44:21 GMT 51.392029 0.686497 34,000 332 473 0
2021-05-15 09:44:18 GMT 51.387634 0.690431 34,000 332 473 0
2021-05-15 09:44:16 GMT 51.384384 0.693252 34,000 332 473 0
2021-05-15 09:44:14 GMT 51.379807 0.697335 34,000 332 473 0
2021-05-15 09:44:11 GMT 51.375980 0.700684 34,000 332 472 0
2021-05-15 09:44:09 GMT 51.370068 0.705948 34,000 332 472 0
2021-05-15 09:44:07 GMT 51.367172 0.708470 34,000 332 472 0
2021-05-15 09:44:05 GMT 51.362202 0.712814 34,000 332 472 0
2021-05-15 09:44:02 GMT 51.358200 0.716338 34,000 332 472 0
2021-05-15 09:44:00 GMT 51.353218 0.720749 34,000 332 472 0
2021-05-15 09:43:58 GMT 51.349773 0.723724 34,000 332 472 0
2021-05-15 09:43:56 GMT 51.345566 0.727473 34,000 332 472 0
2021-05-15 09:43:54 GMT 51.341949 0.730665 34,000 332 472 0
2021-05-15 09:43:51 GMT 51.334488 0.737197 34,000 332 472 0
2021-05-15 09:43:48 GMT 51.332359 0.739059 34,000 332 472 0
2021-05-15 09:43:46 GMT 51.327564 0.743256 34,000 332 473 0
2021-05-15 09:43:44 GMT 51.322632 0.747590 34,000 332 473 0
2021-05-15 09:43:41 GMT 51.318008 0.751673 34,000 332 473 0
2021-05-15 09:43:39 GMT 51.309410 0.759201 34,000 332 473 0
2021-05-15 09:43:37 GMT 51.309410 0.759201 34,000 332 473 0
2021-05-15 09:43:35 GMT 51.303680 0.764218 34,000 332 473 0
2021-05-15 09:43:32 GMT 51.297913 0.769272 34,000 332 473 0
2021-05-15 09:43:29 GMT 51.292931 0.773621 34,000 332 473 0
2021-05-15 09:43:26 GMT 51.285095 0.780475 34,000 332 473 0
2021-05-15 09:43:24 GMT 51.285095 0.780475 34,000 332 473 0
2021-05-15 09:43:21 GMT 51.278366 0.786339 34,000 332 473 0
2021-05-15 09:43:18 GMT 51.272049 0.791832 34,000 332 473 0
2021-05-15 09:43:15 GMT 51.268024 0.795364 34,000 332 473 0
2021-05-15 09:43:13 GMT 51.264023 0.798874 34,000 332 473 0
2021-05-15 09:43:11 GMT 51.260159 0.802155 34,000 332 473 0
2021-05-15 09:43:09 GMT 51.255936 0.805862 34,000 332 473 0
2021-05-15 09:43:07 GMT 51.251541 0.809648 34,000 332 473 0
2021-05-15 09:43:05 GMT 51.248840 0.812023 34,000 332 472 0
2021-05-15 09:43:03 GMT 51.245216 0.815201 34,000 332 472 0
2021-05-15 09:43:01 GMT 51.239628 0.820007 34,000 332 472 0
2021-05-15 09:42:58 GMT 51.235794 0.823307 34,000 332 472 0
2021-05-15 09:42:56 GMT 51.231766 0.826795 34,000 332 472 0
2021-05-15 09:42:54 GMT 51.226410 0.831472 34,000 332 473 0
2021-05-15 09:42:51 GMT 51.221802 0.835419 34,000 332 472 0
2021-05-15 09:42:49 GMT 51.217796 0.838928 34,000 332 472 0
2021-05-15 09:42:47 GMT 51.213181 0.842904 34,000 332 472 0
2021-05-15 09:42:45 GMT 51.209930 0.845718 34,000 332 472 0
2021-05-15 09:42:43 GMT 51.206085 0.848991 34,000 332 472 0
2021-05-15 09:42:41 GMT 51.202061 0.852432 34,000 332 472 0
2021-05-15 09:42:38 GMT 51.195728 0.857925 34,000 332 472 0
2021-05-15 09:42:36 GMT 51.192627 0.860497 34,000 332 472 0
2021-05-15 09:42:34 GMT 51.189560 0.863169 34,000 332 472 0
2021-05-15 09:42:32 GMT 51.184605 0.867462 34,000 332 472 0
2021-05-15 09:42:30 GMT 51.182648 0.869064 34,000 332 472 0
2021-05-15 09:42:28 GMT 51.177853 0.873184 34,000 332 472 0
2021-05-15 09:42:26 GMT 51.169785 0.880020 34,000 332 471 0
2021-05-15 09:42:24 GMT 51.169785 0.880020 34,000 332 471 0
2021-05-15 09:42:21 GMT 51.162094 0.886552 34,000 333 471 0
2021-05-15 09:42:18 GMT 51.158661 0.889447 34,000 333 471 0
2021-05-15 09:42:15 GMT 51.152710 0.894495 34,000 333 471 0
2021-05-15 09:42:13 GMT 51.148682 0.897835 34,000 333 471 0
2021-05-15 09:42:11 GMT 51.143265 0.902405 34,000 333 471 0
2021-05-15 09:42:08 GMT 51.135223 0.909193 34,000 333 471 0
2021-05-15 09:42:06 GMT 51.135223 0.909193 34,000 333 471 0
2021-05-15 09:42:04 GMT 51.129440 0.914001 34,000 333 471 0
2021-05-15 09:42:01 GMT 51.125202 0.917511 34,000 333 471 0
2021-05-15 09:41:58 GMT 51.120209 0.921738 34,000 333 471 0
2021-05-15 09:41:56 GMT 51.115768 0.925375 34,000 333 470 0
2021-05-15 09:41:54 GMT 51.111740 0.928790 34,000 333 470 0
2021-05-15 09:41:51 GMT 51.105011 0.934432 34,000 333 470 0
2021-05-15 09:41:48 GMT 51.099415 0.939102 34,000 333 470 0
2021-05-15 09:41:45 GMT 51.095409 0.942459 34,000 333 469 0
2021-05-15 09:41:43 GMT 51.090408 0.946606 34,000 333 469 0
2021-05-15 09:41:41 GMT 51.080841 0.954742 34,000 332 469 0
2021-05-15 09:41:38 GMT 51.080841 0.954742 34,000 332 468 0
2021-05-15 09:41:36 GMT 51.073204 0.961304 34,000 332 468 0
2021-05-15 09:41:34 GMT 51.073204 0.961304 34,000 332 468 0
2021-05-15 09:41:31 GMT 51.067108 0.966568 34,000 331 467 0
2021-05-15 09:41:28 GMT 51.062164 0.970880 34,000 331 466 0
2021-05-15 09:41:26 GMT 51.058399 0.974274 34,000 330 466 0
2021-05-15 09:41:24 GMT 51.053375 0.978897 34,000 330 466 0
2021-05-15 09:41:21 GMT 51.050392 0.981674 34,000 330 467 0
2021-05-15 09:41:19 GMT 51.045925 0.985870 34,000 330 468 0
2021-05-15 09:41:16 GMT 51.034054 0.997162 34,000 330 468 0
2021-05-15 09:41:13 GMT 51.034054 0.997162 34,000 330 468 0
2021-05-15 09:41:11 GMT 51.029984 1.001018 34,000 330 468 0
2021-05-15 09:41:08 GMT 51.024994 1.005769 34,000 330 469 0
2021-05-15 09:41:06 GMT 51.021065 1.009445 34,000 330 468 0
2021-05-15 09:41:04 GMT 51.017902 1.012421 34,000 330 468 0
2021-05-15 09:41:02 GMT 51.013988 1.016083 34,000 330 468 0
2021-05-15 09:41:00 GMT 51.011383 1.018524 34,000 330 468 0
2021-05-15 09:40:58 GMT 51.005985 1.023636 34,000 330 468 0
2021-05-15 09:40:56 GMT 51.002472 1.026925 34,000 330 468 0
2021-05-15 09:40:54 GMT 50.998348 1.030731 34,000 330 469 0
2021-05-15 09:40:51 GMT 50.992401 1.036278 34,000 330 469 0
2021-05-15 09:40:48 GMT 50.987549 1.040802 34,000 330 469 0
2021-05-15 09:40:46 GMT 50.984150 1.043854 34,000 330 469 0
2021-05-15 09:40:44 GMT 50.980408 1.047339 34,000 330 469 0
2021-05-15 09:40:42 GMT 50.977798 1.049714 34,000 330 469 0
2021-05-15 09:40:40 GMT 50.973305 1.053848 34,000 331 469 0
2021-05-15 09:40:38 GMT 50.969559 1.057286 34,000 331 468 0
2021-05-15 09:40:36 GMT 50.966370 1.060181 34,000 331 469 0
2021-05-15 09:40:34 GMT 50.960922 1.065140 34,000 331 469 0
2021-05-15 09:40:31 GMT 50.955849 1.069717 34,000 331 469 0
2021-05-15 09:40:29 GMT 50.951294 1.073765 34,000 331 469 0
2021-05-15 09:40:26 GMT 50.946957 1.077652 34,000 331 470 0
2021-05-15 09:40:24 GMT 50.942047 1.082079 34,000 331 470 0
2021-05-15 09:40:22 GMT 50.937923 1.085739 34,000 331 469 0
2021-05-15 09:40:20 GMT 50.934479 1.088791 34,000 331 470 0
2021-05-15 09:40:17 GMT 50.930523 1.092300 34,000 331 470 0
2021-05-15 09:40:15 GMT 50.924843 1.097260 34,000 332 469 0
2021-05-15 09:40:12 GMT 50.920670 1.100934 34,000 332 469 0
2021-05-15 09:40:10 GMT 50.916836 1.104202 34,000 328 457 64
2021-05-15 09:40:08 GMT 50.913067 1.107483 34,000 332 469 0
2021-05-15 09:40:06 GMT 50.909271 1.110807 34,000 332 469 -64
2021-05-15 09:40:04 GMT 50.901287 1.117706 34,000 332 469 0
2021-05-15 09:40:02 GMT 50.901287 1.117706 34,000 332 469 0
2021-05-15 09:40:00 GMT 50.895584 1.122684 34,000 332 469 -64
2021-05-15 09:39:57 GMT 50.886292 1.130775 34,000 331 466 0
2021-05-15 09:39:54 GMT 50.886292 1.130775 34,000 331 467 0
2021-05-15 09:39:51 GMT 50.879501 1.136780 34,000 331 464 0
2021-05-15 09:39:48 GMT 50.875359 1.140442 34,000 330 463 64
2021-05-15 09:39:46 GMT 50.870705 1.144714 34,000 329 461 64
2021-05-15 09:39:44 GMT 50.866608 1.148517 34,000 328 458 64
2021-05-15 09:39:42 GMT 50.863487 1.151581 34,000 327 457 64
2021-05-15 09:39:40 GMT 50.859512 1.155643 34,000 323 454 0
2021-05-15 09:39:38 GMT 50.856503 1.158829 34,000 323 454 -64
2021-05-15 09:39:36 GMT 50.852222 1.163864 34,000 321 456 -64
2021-05-15 09:39:34 GMT 50.848728 1.168213 34,000 321 456 -64
2021-05-15 09:39:32 GMT 50.846283 1.171380 34,000 320 458 -64
2021-05-15 09:39:30 GMT 50.843353 1.175240 34,000 320 460 -64
2021-05-15 09:39:27 GMT 50.838318 1.181995 34,000 320 460 -64
2021-05-15 09:39:25 GMT 50.834885 1.186523 34,000 320 460 -64
2021-05-15 09:39:23 GMT 50.830994 1.191720 34,025 320 460 0
2021-05-15 09:39:20 GMT 50.826431 1.197739 34,000 320 460 128
2021-05-15 09:39:17 GMT 50.821404 1.204453 33,975 320 460 256
2021-05-15 09:39:14 GMT 50.813583 1.214828 34,000 320 460 320
2021-05-15 09:39:12 GMT 50.813583 1.214828 34,000 320 460 320
2021-05-15 09:39:10 GMT 50.810326 1.219177 33,950 320 458 896
2021-05-15 09:39:08 GMT 50.806927 1.223679 33,950 320 459 512
2021-05-15 09:39:06 GMT 50.803665 1.228027 33,900 320 459 704
2021-05-15 09:39:04 GMT 50.796684 1.237335 33,900 320 459 832
2021-05-15 09:39:02 GMT 50.796684 1.237335 33,900 320 459 832
2021-05-15 09:39:00 GMT 50.793938 1.241074 33,875 320 458 832
2021-05-15 09:38:57 GMT 50.789284 1.247330 33,825 320 458 896
2021-05-15 09:38:55 GMT 50.786224 1.251476 33,775 320 458 896
2021-05-15 09:38:53 GMT 50.781876 1.257266 33,750 320 458 896
2021-05-15 09:38:50 GMT 50.777691 1.262970 33,700 320 458 896
2021-05-15 09:38:48 GMT 50.774597 1.267065 33,675 320 458 896
2021-05-15 09:38:46 GMT 50.771408 1.271362 33,650 320 458 896
2021-05-15 09:38:44 GMT 50.767544 1.276627 33,500 320 456 1152
2021-05-15 09:38:42 GMT 50.764984 1.280056 33,600 320 458 896
2021-05-15 09:38:40 GMT 50.761909 1.284180 33,500 320 456 896
2021-05-15 09:38:38 GMT 50.758713 1.288518 33,525 320 457 896
2021-05-15 09:38:36 GMT 50.755672 1.292648 33,500 320 457 960
2021-05-15 09:38:34 GMT 50.752487 1.296981 33,450 320 457 1024
2021-05-15 09:38:31 GMT 50.743149 1.309433 33,400 320 456 1088
2021-05-15 09:38:29 GMT 50.743149 1.309433 33,325 320 456 1088
2021-05-15 09:38:26 GMT 50.739471 1.314392 33,350 320 456 1088
2021-05-15 09:38:24 GMT 50.736912 1.317902 33,300 320 456 1152
2021-05-15 09:38:22 GMT 50.732861 1.323242 33,250 320 456 1152
2021-05-15 09:38:20 GMT 50.728718 1.328812 33,075 320 456 896
2021-05-15 09:38:17 GMT 50.724995 1.333771 33,150 320 456 1024
2021-05-15 09:38:15 GMT 50.721130 1.338922 33,100 320 456 960
2021-05-15 09:38:12 GMT 50.716827 1.344786 33,075 320 456 896
2021-05-15 09:38:10 GMT 50.713448 1.349258 33,050 320 456 832
2021-05-15 09:38:07 GMT 50.708748 1.355438 33,000 320 455 832
2021-05-15 09:38:05 GMT 50.705566 1.359707 32,950 320 455 832
2021-05-15 09:38:02 GMT 50.701065 1.365738 32,950 320 455 832
2021-05-15 09:38:00 GMT 50.691696 1.378042 32,900 321 455 832
2021-05-15 09:37:57 GMT 50.691696 1.378042 32,875 321 454 896
2021-05-15 09:37:54 GMT 50.687847 1.383057 32,825 321 454 960
2021-05-15 09:37:52 GMT 50.684143 1.387915 32,725 321 454 1024
2021-05-15 09:37:49 GMT 50.680756 1.392369 32,725 321 454 1024
2021-05-15 09:37:47 GMT 50.676407 1.398010 32,725 321 454 1024
2021-05-15 09:37:45 GMT 50.673321 1.402054 32,675 321 454 960
2021-05-15 09:37:43 GMT 50.671227 1.404765 32,650 321 454 960
2021-05-15 09:37:41 GMT 50.666519 1.410804 32,600 321 453 1024
2021-05-15 09:37:39 GMT 50.664734 1.413116 32,600 321 453 1024
2021-05-15 09:37:37 GMT 50.660202 1.418971 32,525 321 454 1152
2021-05-15 09:37:35 GMT 50.657089 1.422874 32,500 321 453 1280
2021-05-15 09:37:33 GMT 50.654980 1.425625 32,450 321 453 1280
2021-05-15 09:37:31 GMT 50.650772 1.430969 32,400 321 453 1344
2021-05-15 09:37:29 GMT 50.647530 1.435126 32,325 321 454 1344
2021-05-15 09:37:26 GMT 50.643631 1.440149 32,300 322 453 1280
2021-05-15 09:37:24 GMT 50.639896 1.444925 32,250 322 453 1280
2021-05-15 09:37:22 GMT 50.635986 1.449906 32,075 322 453 1344
2021-05-15 09:37:19 GMT 50.631912 1.455038 32,150 322 453 1408
2021-05-15 09:37:17 GMT 50.629143 1.458584 32,125 322 453 1408
2021-05-15 09:37:15 GMT 50.625366 1.463350 32,050 322 453 1408
2021-05-15 09:37:13 GMT 50.622112 1.467491 31,975 321 454 1344
2021-05-15 09:37:11 GMT 50.619183 1.471203 31,925 321 454 1344
2021-05-15 09:37:09 GMT 50.614105 1.477587 31,900 321 454 1344
2021-05-15 09:37:06 GMT 50.611034 1.481595 31,850 321 454 1344
2021-05-15 09:37:04 GMT 50.608055 1.485307 31,800 321 454 1344
2021-05-15 09:37:02 GMT 50.604172 1.490310 31,625 321 454 1088
2021-05-15 09:37:00 GMT 50.599777 1.495875 31,700 321 454 1216
2021-05-15 09:36:58 GMT 50.597347 1.499040 31,500 321 454 1152
2021-05-15 09:36:55 GMT 50.591949 1.505869 31,600 321 454 960
2021-05-15 09:36:52 GMT 50.588058 1.510837 31,550 322 453 960
2021-05-15 09:36:49 GMT 50.583149 1.517078 31,525 322 453 960
2021-05-15 09:36:47 GMT 50.575012 1.527389 31,475 322 452 896
2021-05-15 09:36:44 GMT 50.575012 1.527389 31,475 322 452 832
2021-05-15 09:36:42 GMT 50.569977 1.533749 31,375 322 452 832
2021-05-15 09:36:39 GMT 50.566067 1.538754 31,375 322 452 832
2021-05-15 09:36:36 GMT 50.562012 1.543868 31,325 322 451 896
2021-05-15 09:36:34 GMT 50.558258 1.548566 31,300 322 451 960
2021-05-15 09:36:32 GMT 50.555374 1.552253 31,250 322 450 960
2021-05-15 09:36:29 GMT 50.545441 1.564809 31,225 322 450 960
2021-05-15 09:36:26 GMT 50.545441 1.564809 31,175 322 450 960
2021-05-15 09:36:24 GMT 50.542229 1.568892 31,100 322 449 896
2021-05-15 09:36:22 GMT 50.537338 1.574948 31,100 322 448 896
2021-05-15 09:36:19 GMT 50.533310 1.580080 31,075 322 449 896
2021-05-15 09:36:16 GMT 50.529236 1.585139 31,050 322 448 896
2021-05-15 09:36:14 GMT 50.526672 1.588392 30,975 322 448 896
2021-05-15 09:36:12 GMT 50.522446 1.593686 30,750 322 445 1024
2021-05-15 09:36:09 GMT 50.517609 1.599739 30,925 322 447 960
2021-05-15 09:36:07 GMT 50.514725 1.603426 30,875 322 446 1024
2021-05-15 09:36:05 GMT 50.510529 1.608681 30,850 322 446 1024
2021-05-15 09:36:03 GMT 50.507492 1.612533 30,825 322 445 1024
2021-05-15 09:36:01 GMT 50.505249 1.615352 30,775 322 445 960
2021-05-15 09:35:59 GMT 50.500751 1.621077 30,750 322 443 896
2021-05-15 09:35:56 GMT 50.497398 1.625308 30,700 322 445 960
2021-05-15 09:35:54 GMT 50.493538 1.630134 30,675 322 444 896
2021-05-15 09:35:52 GMT 50.488930 1.635998 30,650 322 444 896
2021-05-15 09:35:49 GMT 50.484924 1.641046 30,600 322 443 896
2021-05-15 09:35:46 GMT 50.481106 1.645945 30,550 322 442 960
2021-05-15 09:35:44 GMT 50.474258 1.654527 30,525 322 443 896
2021-05-15 09:35:42 GMT 50.474258 1.654527 30,500 322 442 960
2021-05-15 09:35:39 GMT 50.469330 1.660791 30,425 322 442 960
2021-05-15 09:35:36 GMT 50.465149 1.665947 30,400 322 441 960
2021-05-15 09:35:34 GMT 50.461807 1.670139 30,375 322 442 896
2021-05-15 09:35:32 GMT 50.452850 1.681205 30,300 323 441 832
2021-05-15 09:35:29 GMT 50.452850 1.681205 30,300 323 441 832
2021-05-15 09:35:26 GMT 50.448845 1.686104 30,250 323 441 832
2021-05-15 09:35:24 GMT 50.445168 1.690558 30,200 324 442 832
2021-05-15 09:35:21 GMT 50.439972 1.696737 30,175 325 442 832
2021-05-15 09:35:18 GMT 50.437042 1.700134 30,150 325 442 896
2021-05-15 09:35:16 GMT 50.432281 1.705555 30,150 325 443 896
2021-05-15 09:35:14 GMT 50.428940 1.709241 30,075 326 444 960
2021-05-15 09:35:12 GMT 50.426922 1.711418 30,050 327 443 1024
2021-05-15 09:35:10 GMT 50.422577 1.716036 30,025 327 443 1024
2021-05-15 09:35:07 GMT 50.417770 1.720950 29,925 328 441 960
2021-05-15 09:35:04 GMT 50.411930 1.726784 29,925 328 441 960
2021-05-15 09:35:02 GMT 50.409348 1.729335 29,900 328 440 960
2021-05-15 09:35:00 GMT 50.404530 1.734058 29,850 328 440 1024
2021-05-15 09:34:58 GMT 50.402985 1.735623 29,825 328 440 1024
2021-05-15 09:34:56 GMT 50.398521 1.739997 29,800 328 439 1024
2021-05-15 09:34:54 GMT 50.393215 1.745267 29,750 328 438 960
2021-05-15 09:34:51 GMT 50.390469 1.747940 29,700 328 436 896
2021-05-15 09:34:49 GMT 50.386189 1.752171 29,650 328 437 960
2021-05-15 09:34:46 GMT 50.381058 1.757234 29,625 328 437 960
2021-05-15 09:34:44 GMT 50.377625 1.760631 29,600 328 436 960
2021-05-15 09:34:41 GMT 50.370987 1.767209 29,525 328 436 896
2021-05-15 09:34:38 GMT 50.367565 1.770580 29,500 328 435 896
2021-05-15 09:34:34 GMT 50.360779 1.777255 29,450 328 434 960
2021-05-15 09:34:31 GMT 50.355511 1.782458 29,375 328 433 1024
2021-05-15 09:34:28 GMT 50.351440 1.786507 29,350 328 433 960
2021-05-15 09:34:26 GMT 50.348419 1.789470 29,325 328 432 960
2021-05-15 09:34:24 GMT 50.343842 1.794024 29,275 328 432 960
2021-05-15 09:34:22 GMT 50.340473 1.797378 29,200 328 431 960
2021-05-15 09:34:19 GMT 50.335770 1.802055 29,200 328 431 960
2021-05-15 09:34:17 GMT 50.331390 1.806384 29,175 328 430 960
2021-05-15 09:34:14 GMT 50.327019 1.810666 29,125 328 429 960
2021-05-15 09:34:11 GMT 50.322510 1.815202 29,025 328 428 1024
2021-05-15 09:34:08 GMT 50.317802 1.819870 29,025 328 427 1024
2021-05-15 09:34:06 GMT 50.314499 1.823152 29,000 328 426 1024
2021-05-15 09:34:03 GMT 50.309002 1.828704 28,950 328 426 1024
2021-05-15 09:34:01 GMT 50.305187 1.832564 28,800 327 425 1088
2021-05-15 09:33:58 GMT 50.300392 1.837389 28,800 327 425 1088
2021-05-15 09:33:56 GMT 50.298569 1.839198 28,800 327 425 1088
2021-05-15 09:33:54 GMT 50.293167 1.844764 28,775 327 424 1152
2021-05-15 09:33:52 GMT 50.287399 1.850546 28,725 328 424 1152
2021-05-15 09:33:50 GMT 50.287399 1.850546 28,700 328 424 1152
2021-05-15 09:33:48 GMT 50.283920 1.854087 28,500 327 423 1216
2021-05-15 09:33:46 GMT 50.281631 1.856400 28,625 328 424 1152
2021-05-15 09:33:44 GMT 50.277054 1.861026 28,575 327 423 1216
2021-05-15 09:33:41 GMT 50.272785 1.865375 28,500 328 422 1216
2021-05-15 09:33:38 GMT 50.267338 1.870868 28,450 327 422 1216
2021-05-15 09:33:35 GMT 50.262592 1.875693 28,400 327 422 1280
2021-05-15 09:33:33 GMT 50.260483 1.877795 28,375 327 422 1280
2021-05-15 09:33:31 GMT 50.256260 1.882151 28,325 327 421 1280
2021-05-15 09:33:29 GMT 50.249882 1.888609 28,250 327 421 1344
2021-05-15 09:33:27 GMT 50.249882 1.888609 27,775 327 419 1408
2021-05-15 09:33:24 GMT 50.245651 1.892901 28,175 327 419 1344
2021-05-15 09:33:22 GMT 50.242203 1.896329 28,025 327 419 1344
2021-05-15 09:33:19 GMT 50.236176 1.902442 28,050 327 419 1408
2021-05-15 09:33:17 GMT 50.234055 1.904643 28,000 327 419 1408
2021-05-15 09:33:15 GMT 50.229858 1.908875 27,950 327 419 1408
2021-05-15 09:33:13 GMT 50.227398 1.911398 27,950 327 419 1408
2021-05-15 09:33:11 GMT 50.223495 1.915307 27,850 327 419 1408
2021-05-15 09:33:09 GMT 50.220413 1.918450 27,800 327 419 1472
2021-05-15 09:33:07 GMT 50.216858 1.922101 27,700 327 418 1472
2021-05-15 09:33:04 GMT 50.210407 1.928694 27,650 327 418 1472
2021-05-15 09:33:01 GMT 50.207798 1.931293 27,625 327 418 1472
2021-05-15 09:32:59 GMT 50.203423 1.935746 27,550 327 418 1472
2021-05-15 09:32:57 GMT 50.200489 1.938716 27,525 327 418 1408
2021-05-15 09:32:54 GMT 50.195835 1.943541 27,400 327 417 1408
2021-05-15 09:32:51 GMT 50.191635 1.947760 27,375 327 417 1408
2021-05-15 09:32:47 GMT 50.184525 1.955047 27,100 327 417 1472
2021-05-15 09:32:45 GMT 50.181473 1.958168 27,225 327 416 1472
2021-05-15 09:32:42 GMT 50.175678 1.964029 27,050 327 416 1472
2021-05-15 09:32:39 GMT 50.172977 1.966850 27,050 327 416 1472
2021-05-15 09:32:37 GMT 50.169113 1.970784 26,975 327 414 1408
2021-05-15 09:32:34 GMT 50.164131 1.975832 26,900 327 416 1408
2021-05-15 09:32:31 GMT 50.160084 1.979989 26,900 327 415 1408
2021-05-15 09:32:28 GMT 50.154636 1.985482 26,800 327 414 1408
2021-05-15 09:32:25 GMT 50.149654 1.990604 26,750 327 414 1408
2021-05-15 09:32:23 GMT 50.146301 1.994019 26,700 327 414 1408
2021-05-15 09:32:20 GMT 50.140717 1.999734 26,325 328 412 1344
2021-05-15 09:32:17 GMT 50.136703 2.003776 26,550 327 412 1344
2021-05-15 09:32:14 GMT 50.131920 2.008642 26,475 327 412 1344
2021-05-15 09:32:11 GMT 50.127731 2.012811 26,450 327 412 1344
2021-05-15 09:32:09 GMT 50.123726 2.016882 26,400 328 412 1344
2021-05-15 09:32:07 GMT 50.120544 2.020111 26,325 328 411 1344
2021-05-15 09:32:04 GMT 50.115440 2.025196 26,275 328 411 1408
2021-05-15 09:32:01 GMT 50.111435 2.029218 26,225 328 411 1408
2021-05-15 09:31:58 GMT 50.106812 2.033844 26,175 328 411 1408
2021-05-15 09:31:56 GMT 50.103428 2.037147 26,100 328 410 1344
2021-05-15 09:31:54 GMT 50.100861 2.039699 26,075 328 410 1344
2021-05-15 09:31:52 GMT 50.096725 2.043828 25,975 328 409 1344
2021-05-15 09:31:49 GMT 50.092712 2.047721 25,900 329 410 1600
2021-05-15 09:31:46 GMT 50.087276 2.053033 25,875 329 410 1600
2021-05-15 09:31:43 GMT 50.082619 2.057561 25,775 329 410 1728
2021-05-15 09:31:41 GMT 50.078430 2.061599 25,500 329 411 1792
2021-05-15 09:31:38 GMT 50.071838 2.067887 25,600 329 411 1792
2021-05-15 09:31:33 GMT 50.066162 2.073236 25,475 330 411 1792
2021-05-15 09:31:30 GMT 50.061127 2.077934 25,375 330 411 1792
2021-05-15 09:31:27 GMT 50.051476 2.086808 24,175 334 415 2048
2021-05-15 09:31:24 GMT 50.051476 2.086808 25,125 331 412 1728
2021-05-15 09:31:21 GMT 50.045883 2.091811 25,100 331 413 1792
2021-05-15 09:31:18 GMT 50.040939 2.096148 25,025 331 412 1856
2021-05-15 09:31:16 GMT 50.038101 2.098606 24,975 332 413 1920
2021-05-15 09:31:13 GMT 50.032608 2.103376 24,875 332 413 1920
2021-05-15 09:31:11 GMT 50.030807 2.104921 24,775 332 414 1920
2021-05-15 09:31:08 GMT 50.022243 2.112047 24,675 333 414 1984
2021-05-15 09:31:03 GMT 50.015625 2.117398 24,550 333 415 2048
2021-05-15 09:31:00 GMT 50.011185 2.120940 24,425 334 416 2048
2021-05-15 09:30:57 GMT 50.005016 2.125706 24,250 334 416 2048
2021-05-15 09:30:54 GMT 50.001060 2.128750 24,200 335 416 2112
2021-05-15 09:30:51 GMT 49.991566 2.135876 23,975 335 416 2112
2021-05-15 09:30:49 GMT 49.988113 2.138431 23,975 335 416 2112
2021-05-15 09:30:46 GMT 49.988113 2.138431 23,975 335 416 2048
2021-05-15 09:30:42 GMT 49.980240 2.144141 23,825 336 416 1984
2021-05-15 09:30:40 GMT 49.974991 2.147901 23,750 335 416 1728
2021-05-15 09:30:37 GMT 49.971359 2.150574 23,675 336 416 1728
2021-05-15 09:30:34 GMT 49.966278 2.154188 23,600 335 416 1728
2021-05-15 09:30:32 GMT 49.963165 2.156501 23,550 335 416 1728
2021-05-15 09:30:30 GMT 49.959675 2.158962 23,400 335 416 1664
2021-05-15 09:30:27 GMT 49.953575 2.163416 23,400 336 414 1536
2021-05-15 09:30:25 GMT 49.950943 2.165246 23,300 335 413 1472
2021-05-15 09:30:22 GMT 49.946453 2.168538 23,150 335 413 1472
2021-05-15 09:30:20 GMT 49.941559 2.172040 23,225 335 413 1472
2021-05-15 09:30:17 GMT 49.936203 2.175943 23,150 335 412 1472
2021-05-15 09:30:13 GMT 49.929649 2.180712 23,025 335 412 1536
2021-05-15 09:30:11 GMT 49.927048 2.182593 22,800 335 411 1472
2021-05-15 09:30:08 GMT 49.919128 2.188284 22,900 335 411 1472
2021-05-15 09:30:06 GMT 49.919128 2.188284 22,875 335 408 1472
2021-05-15 09:30:03 GMT 49.912262 2.193290 22,725 335 406 1664
2021-05-15 09:30:00 GMT 49.908466 2.196004 22,725 335 406 1664
2021-05-15 09:29:56 GMT 49.900269 2.202036 22,625 335 407 1664
2021-05-15 09:29:53 GMT 49.895325 2.205578 22,550 335 407 1664
2021-05-15 09:29:50 GMT 49.891384 2.208475 22,425 335 406 1664
2021-05-15 09:29:47 GMT 49.885620 2.212661 22,375 335 406 1664
2021-05-15 09:29:45 GMT 49.884075 2.213745 22,325 335 406 1664
2021-05-15 09:29:43 GMT 49.878815 2.217605 22,150 335 404 1600
2021-05-15 09:29:40 GMT 49.873878 2.221243 22,200 335 404 1536
2021-05-15 09:29:38 GMT 49.869644 2.224286 22,125 335 403 1536
2021-05-15 09:29:36 GMT 49.866943 2.226290 21,075 335 398 2304
2021-05-15 09:29:33 GMT 49.861908 2.230008 22,000 335 403 1472
2021-05-15 09:29:30 GMT 49.856842 2.233714 20,600 336 400 1792
2021-05-15 09:29:28 GMT 49.852654 2.236757 21,875 335 401 1600
2021-05-15 09:29:26 GMT 49.850143 2.238609 21,850 335 401 1600
2021-05-15 09:29:23 GMT 49.844738 2.242547 21,775 335 399 1792
2021-05-15 09:29:20 GMT 49.839706 2.246198 21,600 335 399 1792
2021-05-15 09:29:17 GMT 49.835567 2.249302 21,600 335 399 1856
2021-05-15 09:29:15 GMT 49.832199 2.251691 21,450 335 399 2048
2021-05-15 09:29:12 GMT 49.826340 2.255956 21,425 335 399 1984
2021-05-15 09:29:09 GMT 49.822311 2.258847 21,350 335 399 2048
2021-05-15 09:29:06 GMT 49.816498 2.263111 21,150 335 399 2112
2021-05-15 09:29:01 GMT 49.807961 2.269345 20,975 336 401 1856
2021-05-15 09:28:58 GMT 49.802490 2.273375 20,850 335 400 2368
2021-05-15 09:28:55 GMT 49.799164 2.275803 20,825 335 400 2304
2021-05-15 09:28:53 GMT 49.794662 2.279157 20,675 335 400 1984
2021-05-15 09:28:49 GMT 49.783264 2.287325 20,625 336 400 1792
2021-05-15 09:28:46 GMT 49.783264 2.287325 20,525 336 400 1792
2021-05-15 09:28:44 GMT 49.779564 2.289981 20,375 336 400 1792
2021-05-15 09:28:41 GMT 49.775562 2.292728 20,375 337 399 1792
2021-05-15 09:28:38 GMT 49.769806 2.296649 20,225 337 399 1792
2021-05-15 09:28:35 GMT 49.764221 2.300407 20,175 337 398 1856
2021-05-15 09:28:33 GMT 49.760010 2.303226 20,100 338 398 1984
2021-05-15 09:28:31 GMT 49.756622 2.305467 20,000 338 398 1984
2021-05-15 09:28:28 GMT 49.750889 2.309207 19,925 338 398 1984
2021-05-15 09:28:25 GMT 49.748520 2.310743 19,775 338 398 1984
2021-05-15 09:28:22 GMT 49.743393 2.313958 19,775 338 397 1984
2021-05-15 09:28:20 GMT 49.739994 2.316111 19,725 339 397 1920
2021-05-15 09:28:17 GMT 49.730499 2.322050 19,525 338 393 1792
2021-05-15 09:28:12 GMT 49.726273 2.324693 19,425 338 392 1792
2021-05-15 09:28:09 GMT 49.720001 2.328668 19,375 338 393 1792
2021-05-15 09:28:05 GMT 49.713322 2.333110 19,250 337 391 1792
2021-05-15 09:28:02 GMT 49.708805 2.336079 19,100 336 389 1856
2021-05-15 09:27:58 GMT 49.703033 2.340088 18,975 336 389 1856
2021-05-15 09:27:55 GMT 49.696609 2.344542 18,925 336 389 1920
2021-05-15 09:27:52 GMT 49.693039 2.347027 18,625 337 391 1920
2021-05-15 09:27:49 GMT 49.687111 2.351148 18,675 337 390 1920
2021-05-15 09:27:45 GMT 49.680588 2.355700 18,625 338 392 1856
2021-05-15 09:27:42 GMT 49.675289 2.359166 18,525 341 396 1664
2021-05-15 09:27:39 GMT 49.670471 2.362133 18,425 345 401 1600
2021-05-15 09:27:36 GMT 49.665421 2.364956 18,275 349 404 1664
2021-05-15 09:27:33 GMT 49.660393 2.367331 18,275 349 404 1664
2021-05-15 09:27:29 GMT 49.654541 2.369433 17,950 353 405 1920
2021-05-15 09:27:26 GMT 49.642548 2.371601 17,900 359 399 2112
2021-05-15 09:27:23 GMT 49.635952 2.371859 17,900 359 399 2112
2021-05-15 09:27:19 GMT 49.628586 2.372035 17,750 0 398 2048
2021-05-15 09:27:15 GMT 49.628586 2.372035 17,650 0 397 2112
2021-05-15 09:27:13 GMT 49.624008 2.372180 17,600 0 397 2112
2021-05-15 09:27:10 GMT 49.619190 2.372230 17,400 0 397 2112
2021-05-15 09:27:07 GMT 49.612442 2.372379 17,400 0 396 2048
2021-05-15 09:27:04 GMT 49.608021 2.372527 17,125 0 390 0
2021-05-15 09:26:59 GMT 49.598522 2.372750 17,125 0 394 2112
2021-05-15 09:26:56 GMT 49.593960 2.372824 16,800 0 394 2112
2021-05-15 09:26:53 GMT 49.587616 2.372975 16,925 0 393 2112
2021-05-15 09:26:50 GMT 49.582306 2.373119 16,825 0 393 2112
2021-05-15 09:26:46 GMT 49.574314 2.373270 16,650 0 392 2176
2021-05-15 09:26:43 GMT 49.569992 2.373336 16,575 0 392 2176
2021-05-15 09:26:40 GMT 49.564213 2.373492 16,450 0 391 2176
2021-05-15 09:26:36 GMT 49.557884 2.373566 16,300 0 390 2176
2021-05-15 09:26:34 GMT 49.553555 2.373641 16,250 0 390 2176
2021-05-15 09:26:31 GMT 49.547783 2.373789 16,125 0 390 2176
2021-05-15 09:26:28 GMT 49.542381 2.373938 16,025 0 389 2176
2021-05-15 09:26:25 GMT 49.536987 2.373986 15,650 0 388 2240
2021-05-15 09:26:22 GMT 49.531036 2.374131 15,775 0 388 2240
2021-05-15 09:26:18 GMT 49.520828 2.374420 15,625 0 387 2240
2021-05-15 09:26:15 GMT 49.519245 2.374457 15,450 0 386 2240
2021-05-15 09:26:12 GMT 49.514774 2.374532 15,400 0 386 2240
2021-05-15 09:26:08 GMT 49.502670 2.374828 15,225 0 384 2304
2021-05-15 09:26:05 GMT 49.495735 2.374977 15,125 0 384 2304
2021-05-15 09:26:02 GMT 49.495735 2.374977 15,050 0 383 2304
2021-05-15 09:25:58 GMT 49.488281 2.375071 14,875 0 383 2304
2021-05-15 09:25:55 GMT 49.483337 2.375215 14,675 0 382 2304
2021-05-15 09:25:52 GMT 49.478046 2.375274 14,650 0 382 2304
2021-05-15 09:25:48 GMT 49.470829 2.375422 14,500 0 381 2304
2021-05-15 09:25:44 GMT 49.463791 2.375577 14,350 0 380 2368
2021-05-15 09:25:41 GMT 49.459377 2.375645 14,250 0 380 2368
2021-05-15 09:25:38 GMT 49.453583 2.375793 14,100 0 379 2496
2021-05-15 09:25:35 GMT 49.448685 2.375866 13,950 0 378 2496
2021-05-15 09:25:32 GMT 49.443283 2.376010 13,825 0 378 2496
2021-05-15 09:25:29 GMT 49.438202 2.376083 13,650 0 377 2496
2021-05-15 09:25:26 GMT 49.432610 2.376239 13,625 0 377 2496
2021-05-15 09:25:24 GMT 49.428268 2.376372 13,500 0 377 2432
2021-05-15 09:25:21 GMT 49.422321 2.376516 13,375 0 376 2432
2021-05-15 09:25:17 GMT 49.417831 2.376568 13,200 0 375 2432
2021-05-15 09:25:13 GMT 49.410034 2.376733 13,000 0 374 2432
2021-05-15 09:25:09 GMT 49.403095 2.376878 12,850 0 373 2496
2021-05-15 09:25:05 GMT 49.396023 2.376950 12,700 0 373 2432
2021-05-15 09:25:02 GMT 49.391693 2.377022 12,650 0 372 2432
2021-05-15 09:24:59 GMT 49.385685 2.377167 12,525 0 371 2432
2021-05-15 09:24:55 GMT 49.379700 2.377272 12,300 0 370 2432
2021-05-15 09:24:52 GMT 49.360874 2.377745 11,250 0 356 1216
2021-05-15 09:24:47 GMT 49.360874 2.377745 11,950 0 367 2176
2021-05-15 09:24:43 GMT 49.357498 2.377765 11,875 0 367 2176
2021-05-15 09:24:40 GMT 49.353100 2.377890 11,725 0 366 1984
2021-05-15 09:24:37 GMT 49.347839 2.377962 11,625 0 364 1856
2021-05-15 09:24:34 GMT 49.343140 2.378034 11,525 0 363 1600
2021-05-15 09:24:31 GMT 49.339417 2.378117 11,525 0 363 1600
2021-05-15 09:24:28 GMT 49.334244 2.378258 11,450 0 360 1408
2021-05-15 09:24:25 GMT 49.328384 2.378329 11,350 0 356 1216
2021-05-15 09:24:22 GMT 49.322983 2.378470 11,300 0 354 1216
2021-05-15 09:24:18 GMT 49.317719 2.378610 11,200 0 350 1216
2021-05-15 09:24:15 GMT 49.311062 2.378685 11,150 0 347 1216
2021-05-15 09:24:12 GMT 49.307373 2.378822 11,050 0 343 1216
2021-05-15 09:24:09 GMT 49.301147 2.378963 11,025 0 343 1216
2021-05-15 09:24:05 GMT 49.295746 2.379046 10,925 359 338 1088
2021-05-15 09:24:02 GMT 49.291790 2.379191 10,875 359 337 1024
2021-05-15 09:23:58 GMT 49.285740 2.379335 10,825 0 333 1024
2021-05-15 09:23:55 GMT 49.281372 2.379385 10,775 0 330 1024
2021-05-15 09:23:52 GMT 49.276009 2.379552 10,475 359 315 1024
2021-05-15 09:23:47 GMT 49.266979 2.379696 10,650 0 323 1024
2021-05-15 09:23:43 GMT 49.261597 2.379808 10,575 359 318 1024
2021-05-15 09:23:40 GMT 49.257481 2.379913 10,575 359 318 1024
2021-05-15 09:23:36 GMT 49.251938 2.380089 10,475 359 311 960
2021-05-15 09:23:33 GMT 49.248322 2.380160 10,400 359 308 896
2021-05-15 09:23:30 GMT 49.244019 2.380301 10,375 359 307 896
2021-05-15 09:23:26 GMT 49.237244 2.380512 10,325 359 301 896
2021-05-15 09:23:23 GMT 49.233490 2.380653 10,250 359 298 1536
2021-05-15 09:23:20 GMT 49.229874 2.380723 10,200 359 298 1728
2021-05-15 09:23:16 GMT 49.223686 2.380925 10,050 359 297 2048
2021-05-15 09:23:13 GMT 49.220535 2.381005 9,900 0 297 2112
2021-05-15 09:23:10 GMT 49.215584 2.381142 9,850 0 296 2048
2021-05-15 09:23:06 GMT 49.209721 2.381214 9,650 0 295 1984
2021-05-15 09:23:03 GMT 49.206833 2.381287 9,575 0 295 2048
2021-05-15 09:23:00 GMT 49.201904 2.381287 9,525 0 294 2048
2021-05-15 09:22:57 GMT 49.196640 2.381287 9,375 0 293 2176
2021-05-15 09:22:53 GMT 49.192680 2.381359 9,225 0 291 2048
2021-05-15 09:22:50 GMT 49.188354 2.381357 9,175 0 290 1984
2021-05-15 09:22:47 GMT 49.184189 2.381427 8,900 0 288 2112
2021-05-15 09:22:44 GMT 49.179794 2.381568 8,925 0 288 2176
2021-05-15 09:22:41 GMT 49.176712 2.381576 8,800 0 287 2304
2021-05-15 09:22:37 GMT 49.170101 2.381720 8,675 0 286 2432
2021-05-15 09:22:33 GMT 49.165726 2.381793 8,550 0 286 2496
2021-05-15 09:22:29 GMT 49.161118 2.381850 8,400 0 285 2560
2021-05-15 09:22:26 GMT 49.157272 2.381850 8,225 0 284 2624
2021-05-15 09:22:23 GMT 49.152557 2.381920 8,050 0 284 2624
2021-05-15 09:22:20 GMT 49.147842 2.381991 7,950 0 284 2688
2021-05-15 09:22:15 GMT 49.141022 2.382061 7,725 0 283 2624
2021-05-15 09:22:12 GMT 49.138000 2.382061 7,575 0 283 2496
2021-05-15 09:22:09 GMT 49.134491 2.382082 7,500 0 283 2368
2021-05-15 09:22:05 GMT 49.129486 2.382202 7,300 0 282 2432
2021-05-15 09:22:02 GMT 49.124294 2.382226 7,175 0 281 2432
2021-05-15 09:21:59 GMT 49.121269 2.382299 7,100 0 281 2368
2021-05-15 09:21:56 GMT 49.118042 2.382343 6,950 0 280 2368
2021-05-15 09:21:53 GMT 49.113785 2.382413 6,875 0 279 2368
2021-05-15 09:21:50 GMT 49.110535 2.382484 6,675 0 278 2304
2021-05-15 09:21:46 GMT 49.103485 2.382554 6,575 0 277 2368
2021-05-15 09:21:43 GMT 49.100647 2.382515 6,450 0 277 2496
2021-05-15 09:21:40 GMT 49.097717 2.382554 6,375 0 277 2432
2021-05-15 09:21:37 GMT 49.092594 2.382515 6,175 0 275 1984
2021-05-15 09:21:34 GMT 49.088867 2.382515 6,075 0 273 1984
2021-05-15 09:21:31 GMT 49.084724 2.382443 6,025 0 272 2304
2021-05-15 09:21:27 GMT 49.078674 2.382371 5,775 0 272 3072
2021-05-15 09:21:24 GMT 49.076294 2.382343 5,650 0 273 3264
2021-05-15 09:21:21 GMT 49.066177 2.382132 4,250 265 166 2240
2021-05-15 09:21:16 GMT 49.066177 2.382132 5,225 358 271 2048
2021-05-15 09:21:13 GMT 49.061737 2.382202 5,100 352 263 640
2021-05-15 09:21:10 GMT 49.059357 2.382371 5,125 353 266 1024
2021-05-15 09:21:06 GMT 49.052628 2.383681 5,075 344 248 512
2021-05-15 09:21:03 GMT 49.050659 2.384385 5,075 346 252 512
2021-05-15 09:21:00 GMT 49.047592 2.385583 5,050 341 244 896
2021-05-15 09:20:57 GMT 49.042969 2.388047 4,975 338 239 1600
2021-05-15 09:20:53 GMT 49.039993 2.389949 4,825 333 235 2240
2021-05-15 09:20:50 GMT 49.037102 2.392056 4,750 331 234 2368
2021-05-15 09:20:43 GMT 49.030540 2.397838 4,525 327 229 1216
2021-05-15 09:20:40 GMT 49.027420 2.400946 4,475 322 224 576
2021-05-15 09:20:35 GMT 49.023148 2.406288 4,450 310 203 64
2021-05-15 09:20:32 GMT 49.021275 2.409042 4,450 304 198 256
2021-05-15 09:20:29 GMT 49.019943 2.411499 4,425 299 194 576
2021-05-15 09:20:25 GMT 49.017654 2.417415 4,350 282 185 1216
2021-05-15 09:20:22 GMT 49.016739 2.421077 4,325 279 183 1024
2021-05-15 09:20:19 GMT 49.016373 2.424176 4,300 274 181 704
2021-05-15 09:20:16 GMT 49.016155 2.429496 4,250 268 176 512
2021-05-15 09:20:12 GMT 49.016281 2.433683 4,075 266 165 1728
2021-05-15 09:20:09 GMT 49.016479 2.437013 4,175 265 168 1280
2021-05-15 09:20:03 GMT 49.016876 2.444035 3,950 266 164 1984
2021-05-15 09:20:00 GMT 49.017059 2.448120 3,875 266 164 2048
2021-05-15 09:19:53 GMT 49.017551 2.455806 3,600 265 165 2240
2021-05-15 09:19:50 GMT 49.017830 2.460142 3,500 265 165 2304
2021-05-15 09:19:43 GMT 49.018295 2.467346 3,275 265 167 2112
2021-05-15 09:19:39 GMT 49.018570 2.471431 3,150 264 166 1728
2021-05-15 09:19:33 GMT 49.019135 2.479224 2,375 265 161 1792
2021-05-15 09:19:30 GMT 49.019367 2.483199 2,875 265 162 2752
2021-05-15 09:19:24 GMT 49.019737 2.489198 2,625 265 163 3008
2021-05-15 09:19:21 GMT 49.020126 2.495375 2,500 266 166 3200
2021-05-15 09:19:18 GMT 49.020126 2.495375 2,375 266 166 3200
2021-05-15 09:19:15 GMT 49.020344 2.499679 2,125 266 169 3264
2021-05-15 09:19:12 GMT 49.020676 2.506362 1,975 267 171 3136
2021-05-15 09:19:09 GMT 49.020676 2.506362 1,875 267 172 3072
2021-05-15 09:19:02 GMT 49.020996 2.514390 1,600 267 174 2880
2021-05-15 09:18:59 GMT 49.021137 2.518471 1,375 267 174 2432
2021-05-15 09:18:54 GMT 49.021408 2.525447 1,125 267 173 2304
2021-05-15 09:18:51 GMT 49.021557 2.528879 1,000 267 173 2304
2021-05-15 09:18:43 GMT 49.022003 2.538757 750 267 172 1664
2021-05-15 09:18:31 GMT 49.022720 2.551792 700 266 138 0
2021-05-15 09:18:20 GMT 49.023232 2.561260 700 266 98 64
2021-05-15 09:18:13 GMT 49.023441 2.565615 0 264 58
2021-05-15 09:18:10 GMT 49.023491 2.566540 0 264 48
2021-05-15 09:18:00 GMT 49.023594 2.568688 0 264 8
2021-05-15 09:17:50 GMT 49.023617 2.569030 0 264 4
2021-05-15 09:17:40 GMT 49.023651 2.569283 0 272 4
2021-05-15 09:17:30 GMT 49.023663 2.569554 0 289 4
2021-05-15 09:17:19 GMT 49.023590 2.569879 0 320 6
2021-05-15 09:17:07 GMT 49.023308 2.570220 0 331 8
2021-05-15 09:16:59 GMT 49.023033 2.570476 0 345 10
2021-05-15 09:16:46 GMT 49.022449 2.570607 0 354 11
2021-05-15 09:16:40 GMT 49.022141 2.570660 0 357 11
2021-05-15 09:16:30 GMT 49.021706 2.570713 0 354 9
2021-05-15 09:16:19 GMT 49.021317 2.570766 0 345 6
2021-05-15 09:16:10 GMT 49.021065 2.570854 0 329 7
2021-05-15 09:16:00 GMT 49.020767 2.571153 0 295 9
2021-05-15 09:15:49 GMT 49.020622 2.571795 0 267 10
2021-05-15 09:15:40 GMT 49.020645 2.572499 0 264 13
2021-05-15 09:15:29 GMT 49.020710 2.573530 0 264 17
2021-05-15 09:15:17 GMT 49.020790 2.574991 0 264 17
2021-05-15 09:15:09 GMT 49.020832 2.575806 0 264 15
2021-05-15 09:14:58 GMT 49.020893 2.577209 0 272 18
2021-05-15 09:14:44 GMT 49.020676 2.578759 0 295 16
2021-05-15 09:14:38 GMT 49.020470 2.579357 0 306 16
2021-05-15 09:14:28 GMT 49.020054 2.580125 0 320 14
2021-05-15 09:14:18 GMT 49.019577 2.580660 0 331 13
2021-05-15 09:14:09 GMT 49.019085 2.580995 0 343 12
2021-05-15 09:13:53 GMT 49.018307 2.581245 0 354 11
2021-05-15 09:13:44 GMT 49.017838 2.581312 0 357 11
2021-05-15 09:13:38 GMT 49.017551 2.581329 0 357 12
2021-05-15 09:13:27 GMT 49.016933 2.581408 0 354 13
2021-05-15 09:13:15 GMT 49.016212 2.581505 0 354 15
2021-05-15 09:12:45 GMT 49.014141 2.581769 0 354 17
2021-05-15 09:12:28 GMT 49.012825 2.581914 0 354 18
2021-05-15 09:12:03 GMT 49.010799 2.582167 0 354 17
2021-05-15 09:11:56 GMT 49.010193 2.582245 0 354 16
2021-05-15 09:11:48 GMT 49.009624 2.582329 0 351 14
2021-05-15 09:11:31 GMT 49.008812 2.582510 0 340 9
2021-05-15 09:11:25 GMT 49.008591 2.582600 0 320 9
2021-05-15 09:11:17 GMT 49.008327 2.582914 0 281 10
2021-05-15 09:11:07 GMT 49.008305 2.583618 0 264 9
2021-05-15 09:10:57 GMT 49.008347 2.584227 0 264 8
2021-05-15 09:10:19 GMT 49.008450 2.586359 0 267 10
2021-05-15 09:09:53 GMT 49.008205 2.588021 0 348 12
2021-05-15 09:09:45 GMT 49.007732 2.588125 0 354 13
2021-05-15 09:09:23 GMT 49.006378 2.588292 0 354 14
2021-05-15 09:09:16 GMT 49.005901 2.588354 0 357 16
2021-05-15 09:08:12 GMT 49.001934 2.588834 0 354 11
2021-05-15 09:07:43 GMT 49.000793 2.588997 0 25 9
2021-05-15 09:07:36 GMT 49.000561 2.588870 0 56 9
2021-05-15 09:07:26 GMT 49.000397 2.588401 0 84 9
2021-05-15 09:07:11 GMT 49.000317 2.587016 0 84 19
2021-05-15 09:07:05 GMT 49.000278 2.586286 0 84 18
2021-05-15 09:06:48 GMT 49.000168 2.584393 0 87 12
2021-05-15 09:06:42 GMT 49.000141 2.583937 0 104 10
2021-05-15 09:06:36 GMT 49.000187 2.583540 0 132 10
2021-05-15 09:06:30 GMT 49.000328 2.583269 0 160 9
2021-05-15 09:06:26 GMT 49.000477 2.583196 0 160 8
2021-05-15 09:06:16 GMT 49.000809 2.583020 0 112 8
2021-05-15 09:06:12 GMT 49.000885 2.582835 0 90 9
2021-05-15 09:06:06 GMT 49.000877 2.582439 0 84 11
2021-05-15 09:06:00 GMT 49.000862 2.582004 0 84 12
2021-05-15 09:05:55 GMT 49.000843 2.581611 0 84 11
2021-05-15 09:05:41 GMT 49.000786 2.580449 0 84 11
2021-05-15 09:05:36 GMT 49.000759 2.580016 0 84 10
2021-05-15 09:05:31 GMT 49.000748 2.579709 0 84 10
2021-05-15 09:05:24 GMT 49.000710 2.579239 0 84 12
2021-05-15 09:05:14 GMT 49.000664 2.578336 0 84 14
2021-05-15 09:05:05 GMT 49.000618 2.577450 0 84 13
2021-05-15 09:04:54 GMT 49.000572 2.576565 0 87 11
2021-05-15 09:04:46 GMT 49.000534 2.575854 0 87 8
2021-05-15 09:04:34 GMT 49.000511 2.575378 0 87 5
2021-05-15 09:03:22 GMT 49.000500 2.575083 0 90 0
2021-05-15 09:02:21 GMT 49.000500 2.575079 0 90 0
2021-05-15 09:02:02 GMT 49.000500 2.575083 0 90 0
2021-05-15 09:01:32 GMT 49.000500 2.575079 0 90 0
2021-05-15 09:01:14 GMT 49.000500 2.575083 0 90 0
2021-05-15 09:01:13 GMT 49.000500 2.575079 0 90 0
2021-05-15 09:00:52 GMT 49.000500 2.575083 0 90 0
2021-05-15 09:00:43 GMT 49.000500 2.575097 0 90 2

Making use of Plane Finder data

You are free to use the raw flight data, aircraft information and images provided in this report for your own purposes provided the data is correctly attributed to Plane Finder. We ask that you please credit Plane Finder and link to planefinder.net in close proximity to the content.

Optionally one of the following logos (no smaller then 150x24px) can be used and must link to planefinder.net

Embedding the Plane Finder map

You are welcome to embed the Plane Finder playback map on your website to offer visitors a more interactive experience. We suggest using the following HTML code:

<iframe src="//planefinder.net/data/report/AF74-F-GSPX-7700-squawk-2021-05-15/map" width="800" height="600" seamless="seamless"></iframe>

Where our data comes from

Plane Finder has a global network of data feeds and antenna radars that receive data broadcast directly from aircraft. The primary technologies used are ADS-B and MLAT. We also show feeds from the FAA and a FLARM glider feed.

Click here to find out more about the Plane Finder network.

How we collect our data